<?xml version="1.0" encoding="UTF-8" standalone="no" ?>
<gpx xmlns="http://www.topografix.com/GPX/1/1" xmlns:xsi="http://www.w3.org/2001/XMLSchema-instance" xsi:schemaLocation="http://www.topografix.com/GPX/1/1 http://www.topografix.com/GPX/1/1/gpx.xsd" version="1.1" creator="VisuGPX - https://www.visugpx.com">
  <metadata>
    <name>2016-05-01 09h12 Balade Joz34</name>
    <desc><![CDATA[2016-05-01 09h12 Balade Joz34]]></desc>
  </metadata>
  <trk>
    <name><![CDATA[2016-05-01 09:12 001]]></name>
    <trkseg>
      <trkpt lat="43.6199" lon="3.83803">
        <ele>81.37</ele>
        <time>2016-05-01T07:12:59Z</time>
      </trkpt>
      <trkpt lat="43.6198" lon="3.83788">
        <ele>81.85</ele>
        <time>2016-05-01T07:13:02Z</time>
      </trkpt>
      <trkpt lat="43.61974" lon="3.83784">
        <ele>81.85</ele>
        <time>2016-05-01T07:13:03Z</time>
      </trkpt>
      <trkpt lat="43.61967" lon="3.83783">
        <ele>80.41</ele>
        <time>2016-05-01T07:13:04Z</time>
      </trkpt>
      <trkpt lat="43.61959" lon="3.83787">
        <ele>80.41</ele>
        <time>2016-05-01T07:13:05Z</time>
      </trkpt>
      <trkpt lat="43.61951" lon="3.83794">
        <ele>80.41</ele>
        <time>2016-05-01T07:13:06Z</time>
      </trkpt>
      <trkpt lat="43.61943" lon="3.83802">
        <ele>80.89</ele>
        <time>2016-05-01T07:13:07Z</time>
      </trkpt>
      <trkpt lat="43.61934" lon="3.83812">
        <ele>81.37</ele>
        <time>2016-05-01T07:13:08Z</time>
      </trkpt>
      <trkpt lat="43.61825" lon="3.83905">
        <ele>82.81</ele>
        <time>2016-05-01T07:13:18Z</time>
      </trkpt>
      <trkpt lat="43.61795" lon="3.83932">
        <ele>83.29</ele>
        <time>2016-05-01T07:13:23Z</time>
      </trkpt>
      <trkpt lat="43.6179" lon="3.83939">
        <ele>83.77</ele>
        <time>2016-05-01T07:13:24Z</time>
      </trkpt>
      <trkpt lat="43.61778" lon="3.83959">
        <ele>84.25</ele>
        <time>2016-05-01T07:13:26Z</time>
      </trkpt>
      <trkpt lat="43.6177" lon="3.83967">
        <ele>84.73</ele>
        <time>2016-05-01T07:13:27Z</time>
      </trkpt>
      <trkpt lat="43.6176" lon="3.83974">
        <ele>84.73</ele>
        <time>2016-05-01T07:13:28Z</time>
      </trkpt>
      <trkpt lat="43.61662" lon="3.84056">
        <ele>88.1</ele>
        <time>2016-05-01T07:13:37Z</time>
      </trkpt>
      <trkpt lat="43.6163" lon="3.84088">
        <ele>89.54</ele>
        <time>2016-05-01T07:13:43Z</time>
      </trkpt>
      <trkpt lat="43.61632" lon="3.84087">
        <ele>88.1</ele>
        <time>2016-05-01T07:14:00Z</time>
      </trkpt>
      <trkpt lat="43.61626" lon="3.8409">
        <ele>87.14</ele>
        <time>2016-05-01T07:14:13Z</time>
      </trkpt>
      <trkpt lat="43.6162" lon="3.84086">
        <ele>87.14</ele>
        <time>2016-05-01T07:14:14Z</time>
      </trkpt>
      <trkpt lat="43.61614" lon="3.8408">
        <ele>87.14</ele>
        <time>2016-05-01T07:14:15Z</time>
      </trkpt>
      <trkpt lat="43.61563" lon="3.84013">
        <ele>82.81</ele>
        <time>2016-05-01T07:14:21Z</time>
      </trkpt>
      <trkpt lat="43.61551" lon="3.84003">
        <ele>81.85</ele>
        <time>2016-05-01T07:14:22Z</time>
      </trkpt>
      <trkpt lat="43.61537" lon="3.83994">
        <ele>80.89</ele>
        <time>2016-05-01T07:14:23Z</time>
      </trkpt>
      <trkpt lat="43.61388" lon="3.83918">
        <ele>72.24</ele>
        <time>2016-05-01T07:14:32Z</time>
      </trkpt>
      <trkpt lat="43.61293" lon="3.8389">
        <ele>70.31</ele>
        <time>2016-05-01T07:14:37Z</time>
      </trkpt>
      <trkpt lat="43.61273" lon="3.83889">
        <ele>70.31</ele>
        <time>2016-05-01T07:14:38Z</time>
      </trkpt>
      <trkpt lat="43.61056" lon="3.83889">
        <ele>68.87</ele>
        <time>2016-05-01T07:14:49Z</time>
      </trkpt>
      <trkpt lat="43.60899" lon="3.83839">
        <ele>71.27</ele>
        <time>2016-05-01T07:14:57Z</time>
      </trkpt>
      <trkpt lat="43.6069" lon="3.83796">
        <ele>68.39</ele>
        <time>2016-05-01T07:15:07Z</time>
      </trkpt>
      <trkpt lat="43.60558" lon="3.83838">
        <ele>65.51</ele>
        <time>2016-05-01T07:15:13Z</time>
      </trkpt>
      <trkpt lat="43.60328" lon="3.8392">
        <ele>56.86</ele>
        <time>2016-05-01T07:15:23Z</time>
      </trkpt>
      <trkpt lat="43.60054" lon="3.84002">
        <ele>51.09</ele>
        <time>2016-05-01T07:15:35Z</time>
      </trkpt>
      <trkpt lat="43.59874" lon="3.84163">
        <ele>47.24</ele>
        <time>2016-05-01T07:15:44Z</time>
      </trkpt>
      <trkpt lat="43.59724" lon="3.84348">
        <ele>49.16</ele>
        <time>2016-05-01T07:15:53Z</time>
      </trkpt>
      <trkpt lat="43.59672" lon="3.84456">
        <ele>52.05</ele>
        <time>2016-05-01T07:15:59Z</time>
      </trkpt>
      <trkpt lat="43.59659" lon="3.84488">
        <ele>53.97</ele>
        <time>2016-05-01T07:16:04Z</time>
      </trkpt>
      <trkpt lat="43.59656" lon="3.84502">
        <ele>54.93</ele>
        <time>2016-05-01T07:16:14Z</time>
      </trkpt>
      <trkpt lat="43.59615" lon="3.84595">
        <ele>57.34</ele>
        <time>2016-05-01T07:16:20Z</time>
      </trkpt>
      <trkpt lat="43.59535" lon="3.84796">
        <ele>60.22</ele>
        <time>2016-05-01T07:16:29Z</time>
      </trkpt>
      <trkpt lat="43.59432" lon="3.85024">
        <ele>60.22</ele>
        <time>2016-05-01T07:16:38Z</time>
      </trkpt>
      <trkpt lat="43.59287" lon="3.85208">
        <ele>59.26</ele>
        <time>2016-05-01T07:16:47Z</time>
      </trkpt>
      <trkpt lat="43.59271" lon="3.85226">
        <ele>58.78</ele>
        <time>2016-05-01T07:16:51Z</time>
      </trkpt>
      <trkpt lat="43.59254" lon="3.85253">
        <ele>62.62</ele>
        <time>2016-05-01T07:17:18Z</time>
      </trkpt>
      <trkpt lat="43.59225" lon="3.85307">
        <ele>63.1</ele>
        <time>2016-05-01T07:17:22Z</time>
      </trkpt>
      <trkpt lat="43.59214" lon="3.85322">
        <ele>63.1</ele>
        <time>2016-05-01T07:17:23Z</time>
      </trkpt>
      <trkpt lat="43.59098" lon="3.85461">
        <ele>61.18</ele>
        <time>2016-05-01T07:17:32Z</time>
      </trkpt>
      <trkpt lat="43.59045" lon="3.8552">
        <ele>58.78</ele>
        <time>2016-05-01T07:17:36Z</time>
      </trkpt>
      <trkpt lat="43.59034" lon="3.85537">
        <ele>58.78</ele>
        <time>2016-05-01T07:17:37Z</time>
      </trkpt>
      <trkpt lat="43.59017" lon="3.85566">
        <ele>57.82</ele>
        <time>2016-05-01T07:17:39Z</time>
      </trkpt>
      <trkpt lat="43.59007" lon="3.85575">
        <ele>56.86</ele>
        <time>2016-05-01T07:17:40Z</time>
      </trkpt>
      <trkpt lat="43.58995" lon="3.8558">
        <ele>56.37</ele>
        <time>2016-05-01T07:17:41Z</time>
      </trkpt>
      <trkpt lat="43.58983" lon="3.85587">
        <ele>55.89</ele>
        <time>2016-05-01T07:17:42Z</time>
      </trkpt>
      <trkpt lat="43.58972" lon="3.85598">
        <ele>55.41</ele>
        <time>2016-05-01T07:17:43Z</time>
      </trkpt>
      <trkpt lat="43.58963" lon="3.85613">
        <ele>54.45</ele>
        <time>2016-05-01T07:17:44Z</time>
      </trkpt>
      <trkpt lat="43.58958" lon="3.85631">
        <ele>53.97</ele>
        <time>2016-05-01T07:17:45Z</time>
      </trkpt>
      <trkpt lat="43.58954" lon="3.8565">
        <ele>53.49</ele>
        <time>2016-05-01T07:17:46Z</time>
      </trkpt>
      <trkpt lat="43.5895" lon="3.85668">
        <ele>53.01</ele>
        <time>2016-05-01T07:17:47Z</time>
      </trkpt>
      <trkpt lat="43.58944" lon="3.85683">
        <ele>52.53</ele>
        <time>2016-05-01T07:17:48Z</time>
      </trkpt>
      <trkpt lat="43.58934" lon="3.85694">
        <ele>52.05</ele>
        <time>2016-05-01T07:17:49Z</time>
      </trkpt>
      <trkpt lat="43.58922" lon="3.85699">
        <ele>51.57</ele>
        <time>2016-05-01T07:17:50Z</time>
      </trkpt>
      <trkpt lat="43.58908" lon="3.85705">
        <ele>50.61</ele>
        <time>2016-05-01T07:17:51Z</time>
      </trkpt>
      <trkpt lat="43.58893" lon="3.85712">
        <ele>49.65</ele>
        <time>2016-05-01T07:17:52Z</time>
      </trkpt>
      <trkpt lat="43.58846" lon="3.85741">
        <ele>48.2</ele>
        <time>2016-05-01T07:17:55Z</time>
      </trkpt>
      <trkpt lat="43.58832" lon="3.85755">
        <ele>47.72</ele>
        <time>2016-05-01T07:17:56Z</time>
      </trkpt>
      <trkpt lat="43.58818" lon="3.85771">
        <ele>47.24</ele>
        <time>2016-05-01T07:17:57Z</time>
      </trkpt>
      <trkpt lat="43.58759" lon="3.85829">
        <ele>46.28</ele>
        <time>2016-05-01T07:18:01Z</time>
      </trkpt>
      <trkpt lat="43.58743" lon="3.85838">
        <ele>46.28</ele>
        <time>2016-05-01T07:18:02Z</time>
      </trkpt>
      <trkpt lat="43.58591" lon="3.85938">
        <ele>47.24</ele>
        <time>2016-05-01T07:18:12Z</time>
      </trkpt>
      <trkpt lat="43.5854" lon="3.85985">
        <ele>46.76</ele>
        <time>2016-05-01T07:18:18Z</time>
      </trkpt>
      <trkpt lat="43.58539" lon="3.85983">
        <ele>47.24</ele>
        <time>2016-05-01T07:18:25Z</time>
      </trkpt>
      <trkpt lat="43.58533" lon="3.85989">
        <ele>47.72</ele>
        <time>2016-05-01T07:18:37Z</time>
      </trkpt>
      <trkpt lat="43.58482" lon="3.86035">
        <ele>45.8</ele>
        <time>2016-05-01T07:18:43Z</time>
      </trkpt>
      <trkpt lat="43.58372" lon="3.86135">
        <ele>40.03</ele>
        <time>2016-05-01T07:18:52Z</time>
      </trkpt>
      <trkpt lat="43.58271" lon="3.86261">
        <ele>35.71</ele>
        <time>2016-05-01T07:19:01Z</time>
      </trkpt>
      <trkpt lat="43.58196" lon="3.86376">
        <ele>32.82</ele>
        <time>2016-05-01T07:19:08Z</time>
      </trkpt>
      <trkpt lat="43.58188" lon="3.86394">
        <ele>32.34</ele>
        <time>2016-05-01T07:19:09Z</time>
      </trkpt>
      <trkpt lat="43.58095" lon="3.86609">
        <ele>27.05</ele>
        <time>2016-05-01T07:19:19Z</time>
      </trkpt>
      <trkpt lat="43.57983" lon="3.86865">
        <ele>26.09</ele>
        <time>2016-05-01T07:19:30Z</time>
      </trkpt>
      <trkpt lat="43.57979" lon="3.86875">
        <ele>25.61</ele>
        <time>2016-05-01T07:19:34Z</time>
      </trkpt>
      <trkpt lat="43.57968" lon="3.869">
        <ele>25.13</ele>
        <time>2016-05-01T07:20:03Z</time>
      </trkpt>
      <trkpt lat="43.57913" lon="3.87022">
        <ele>25.61</ele>
        <time>2016-05-01T07:20:10Z</time>
      </trkpt>
      <trkpt lat="43.5781" lon="3.87192">
        <ele>32.82</ele>
        <time>2016-05-01T07:20:18Z</time>
      </trkpt>
      <trkpt lat="43.57686" lon="3.87325">
        <ele>28.5</ele>
        <time>2016-05-01T07:20:26Z</time>
      </trkpt>
      <trkpt lat="43.57669" lon="3.8733">
        <ele>27.53</ele>
        <time>2016-05-01T07:20:27Z</time>
      </trkpt>
      <trkpt lat="43.57652" lon="3.87335">
        <ele>27.05</ele>
        <time>2016-05-01T07:20:28Z</time>
      </trkpt>
      <trkpt lat="43.57634" lon="3.87343">
        <ele>26.57</ele>
        <time>2016-05-01T07:20:29Z</time>
      </trkpt>
      <trkpt lat="43.57616" lon="3.87353">
        <ele>25.61</ele>
        <time>2016-05-01T07:20:30Z</time>
      </trkpt>
      <trkpt lat="43.57597" lon="3.87364">
        <ele>24.65</ele>
        <time>2016-05-01T07:20:31Z</time>
      </trkpt>
      <trkpt lat="43.57575" lon="3.87373">
        <ele>24.17</ele>
        <time>2016-05-01T07:20:32Z</time>
      </trkpt>
      <trkpt lat="43.57553" lon="3.87381">
        <ele>24.17</ele>
        <time>2016-05-01T07:20:33Z</time>
      </trkpt>
      <trkpt lat="43.57389" lon="3.87461">
        <ele>27.53</ele>
        <time>2016-05-01T07:20:40Z</time>
      </trkpt>
      <trkpt lat="43.57307" lon="3.87526">
        <ele>28.5</ele>
        <time>2016-05-01T07:20:45Z</time>
      </trkpt>
      <trkpt lat="43.57298" lon="3.87544">
        <ele>28.5</ele>
        <time>2016-05-01T07:20:46Z</time>
      </trkpt>
      <trkpt lat="43.57295" lon="3.87566">
        <ele>26.57</ele>
        <time>2016-05-01T07:20:47Z</time>
      </trkpt>
      <trkpt lat="43.57296" lon="3.87591">
        <ele>25.61</ele>
        <time>2016-05-01T07:20:48Z</time>
      </trkpt>
      <trkpt lat="43.57302" lon="3.87614">
        <ele>24.17</ele>
        <time>2016-05-01T07:20:49Z</time>
      </trkpt>
      <trkpt lat="43.57308" lon="3.87634">
        <ele>22.73</ele>
        <time>2016-05-01T07:20:50Z</time>
      </trkpt>
      <trkpt lat="43.57318" lon="3.87649">
        <ele>20.81</ele>
        <time>2016-05-01T07:20:51Z</time>
      </trkpt>
      <trkpt lat="43.57338" lon="3.87661">
        <ele>19.84</ele>
        <time>2016-05-01T07:20:52Z</time>
      </trkpt>
      <trkpt lat="43.57364" lon="3.87668">
        <ele>20.32</ele>
        <time>2016-05-01T07:20:53Z</time>
      </trkpt>
      <trkpt lat="43.57385" lon="3.87676">
        <ele>20.32</ele>
        <time>2016-05-01T07:20:54Z</time>
      </trkpt>
      <trkpt lat="43.57408" lon="3.87683">
        <ele>19.36</ele>
        <time>2016-05-01T07:20:55Z</time>
      </trkpt>
      <trkpt lat="43.57479" lon="3.87723">
        <ele>19.36</ele>
        <time>2016-05-01T07:20:58Z</time>
      </trkpt>
      <trkpt lat="43.57497" lon="3.87742">
        <ele>18.88</ele>
        <time>2016-05-01T07:20:59Z</time>
      </trkpt>
      <trkpt lat="43.57512" lon="3.87761">
        <ele>18.88</ele>
        <time>2016-05-01T07:21:00Z</time>
      </trkpt>
      <trkpt lat="43.5759" lon="3.8786">
        <ele>16.96</ele>
        <time>2016-05-01T07:21:06Z</time>
      </trkpt>
      <trkpt lat="43.577" lon="3.88006">
        <ele>16</ele>
        <time>2016-05-01T07:21:12Z</time>
      </trkpt>
      <trkpt lat="43.57936" lon="3.88317">
        <ele>15.04</ele>
        <time>2016-05-01T07:21:23Z</time>
      </trkpt>
      <trkpt lat="43.58152" lon="3.88606">
        <ele>15.04</ele>
        <time>2016-05-01T07:21:33Z</time>
      </trkpt>
      <trkpt lat="43.58285" lon="3.88784">
        <ele>15.04</ele>
        <time>2016-05-01T07:21:41Z</time>
      </trkpt>
      <trkpt lat="43.58437" lon="3.88989">
        <ele>14.56</ele>
        <time>2016-05-01T07:21:49Z</time>
      </trkpt>
      <trkpt lat="43.58667" lon="3.89293">
        <ele>15.52</ele>
        <time>2016-05-01T07:21:59Z</time>
      </trkpt>
      <trkpt lat="43.58933" lon="3.89683">
        <ele>18.4</ele>
        <time>2016-05-01T07:22:10Z</time>
      </trkpt>
      <trkpt lat="43.59146" lon="3.90065">
        <ele>22.25</ele>
        <time>2016-05-01T07:22:19Z</time>
      </trkpt>
      <trkpt lat="43.59254" lon="3.90279">
        <ele>23.69</ele>
        <time>2016-05-01T07:22:25Z</time>
      </trkpt>
      <trkpt lat="43.59384" lon="3.90539">
        <ele>23.21</ele>
        <time>2016-05-01T07:22:33Z</time>
      </trkpt>
      <trkpt lat="43.5964" lon="3.91053">
        <ele>23.69</ele>
        <time>2016-05-01T07:22:47Z</time>
      </trkpt>
      <trkpt lat="43.59812" lon="3.91422">
        <ele>25.61</ele>
        <time>2016-05-01T07:22:57Z</time>
      </trkpt>
      <trkpt lat="43.60077" lon="3.91986">
        <ele>27.05</ele>
        <time>2016-05-01T07:23:11Z</time>
      </trkpt>
      <trkpt lat="43.60291" lon="3.92483">
        <ele>32.34</ele>
        <time>2016-05-01T07:23:23Z</time>
      </trkpt>
      <trkpt lat="43.60487" lon="3.92984">
        <ele>40.03</ele>
        <time>2016-05-01T07:23:35Z</time>
      </trkpt>
      <trkpt lat="43.60676" lon="3.93398">
        <ele>46.28</ele>
        <time>2016-05-01T07:23:45Z</time>
      </trkpt>
      <trkpt lat="43.60882" lon="3.93708">
        <ele>48.68</ele>
        <time>2016-05-01T07:23:53Z</time>
      </trkpt>
      <trkpt lat="43.61228" lon="3.94165">
        <ele>46.76</ele>
        <time>2016-05-01T07:24:05Z</time>
      </trkpt>
      <trkpt lat="43.6154" lon="3.94572">
        <ele>42.92</ele>
        <time>2016-05-01T07:24:15Z</time>
      </trkpt>
      <trkpt lat="43.61763" lon="3.9492">
        <ele>39.07</ele>
        <time>2016-05-01T07:24:23Z</time>
      </trkpt>
      <trkpt lat="43.61907" lon="3.95229">
        <ele>35.23</ele>
        <time>2016-05-01T07:24:30Z</time>
      </trkpt>
      <trkpt lat="43.61974" lon="3.95489">
        <ele>30.42</ele>
        <time>2016-05-01T07:24:36Z</time>
      </trkpt>
      <trkpt lat="43.62092" lon="3.95739">
        <ele>28.02</ele>
        <time>2016-05-01T07:24:43Z</time>
      </trkpt>
      <trkpt lat="43.62245" lon="3.95917">
        <ele>28.5</ele>
        <time>2016-05-01T07:24:49Z</time>
      </trkpt>
      <trkpt lat="43.62455" lon="3.96133">
        <ele>28.98</ele>
        <time>2016-05-01T07:24:57Z</time>
      </trkpt>
      <trkpt lat="43.62718" lon="3.96482">
        <ele>28.02</ele>
        <time>2016-05-01T07:25:08Z</time>
      </trkpt>
      <trkpt lat="43.62916" lon="3.96687">
        <ele>29.94</ele>
        <time>2016-05-01T07:25:15Z</time>
      </trkpt>
      <trkpt lat="43.63124" lon="3.96849">
        <ele>34.26</ele>
        <time>2016-05-01T07:25:22Z</time>
      </trkpt>
      <trkpt lat="43.63387" lon="3.97014">
        <ele>40.51</ele>
        <time>2016-05-01T07:25:30Z</time>
      </trkpt>
      <trkpt lat="43.63685" lon="3.97135">
        <ele>44.36</ele>
        <time>2016-05-01T07:25:38Z</time>
      </trkpt>
      <trkpt lat="43.63947" lon="3.97251">
        <ele>41.95</ele>
        <time>2016-05-01T07:25:46Z</time>
      </trkpt>
      <trkpt lat="43.64156" lon="3.97389">
        <ele>39.55</ele>
        <time>2016-05-01T07:25:54Z</time>
      </trkpt>
      <trkpt lat="43.64381" lon="3.97602">
        <ele>37.15</ele>
        <time>2016-05-01T07:26:03Z</time>
      </trkpt>
      <trkpt lat="43.64599" lon="3.97884">
        <ele>36.19</ele>
        <time>2016-05-01T07:26:12Z</time>
      </trkpt>
      <trkpt lat="43.64792" lon="3.98205">
        <ele>37.15</ele>
        <time>2016-05-01T07:26:21Z</time>
      </trkpt>
      <trkpt lat="43.64909" lon="3.9841">
        <ele>37.15</ele>
        <time>2016-05-01T07:26:28Z</time>
      </trkpt>
      <trkpt lat="43.65108" lon="3.98771">
        <ele>36.19</ele>
        <time>2016-05-01T07:26:41Z</time>
      </trkpt>
      <trkpt lat="43.65227" lon="3.98966">
        <ele>36.67</ele>
        <time>2016-05-01T07:26:48Z</time>
      </trkpt>
      <trkpt lat="43.65293" lon="3.99066">
        <ele>37.15</ele>
        <time>2016-05-01T07:26:53Z</time>
      </trkpt>
      <trkpt lat="43.65312" lon="3.99101">
        <ele>37.63</ele>
        <time>2016-05-01T07:26:55Z</time>
      </trkpt>
      <trkpt lat="43.65319" lon="3.99119">
        <ele>37.63</ele>
        <time>2016-05-01T07:26:56Z</time>
      </trkpt>
      <trkpt lat="43.65325" lon="3.99137">
        <ele>37.63</ele>
        <time>2016-05-01T07:26:57Z</time>
      </trkpt>
      <trkpt lat="43.6533" lon="3.99156">
        <ele>37.63</ele>
        <time>2016-05-01T07:26:58Z</time>
      </trkpt>
      <trkpt lat="43.65335" lon="3.99176">
        <ele>37.63</ele>
        <time>2016-05-01T07:26:59Z</time>
      </trkpt>
      <trkpt lat="43.65338" lon="3.99197">
        <ele>37.63</ele>
        <time>2016-05-01T07:27:00Z</time>
      </trkpt>
      <trkpt lat="43.6534" lon="3.99218">
        <ele>38.11</ele>
        <time>2016-05-01T07:27:01Z</time>
      </trkpt>
      <trkpt lat="43.65341" lon="3.99238">
        <ele>38.11</ele>
        <time>2016-05-01T07:27:02Z</time>
      </trkpt>
      <trkpt lat="43.65342" lon="3.99258">
        <ele>37.63</ele>
        <time>2016-05-01T07:27:03Z</time>
      </trkpt>
      <trkpt lat="43.65345" lon="3.99468">
        <ele>41.47</ele>
        <time>2016-05-01T07:27:13Z</time>
      </trkpt>
      <trkpt lat="43.65348" lon="3.99485">
        <ele>41.95</ele>
        <time>2016-05-01T07:27:14Z</time>
      </trkpt>
      <trkpt lat="43.65352" lon="3.995">
        <ele>42.44</ele>
        <time>2016-05-01T07:27:15Z</time>
      </trkpt>
      <trkpt lat="43.65357" lon="3.99513">
        <ele>42.44</ele>
        <time>2016-05-01T07:27:16Z</time>
      </trkpt>
      <trkpt lat="43.65363" lon="3.99526">
        <ele>42.92</ele>
        <time>2016-05-01T07:27:17Z</time>
      </trkpt>
      <trkpt lat="43.6537" lon="3.9954">
        <ele>42.92</ele>
        <time>2016-05-01T07:27:18Z</time>
      </trkpt>
      <trkpt lat="43.65398" lon="3.99597">
        <ele>42.44</ele>
        <time>2016-05-01T07:27:22Z</time>
      </trkpt>
      <trkpt lat="43.65403" lon="3.99611">
        <ele>42.44</ele>
        <time>2016-05-01T07:27:23Z</time>
      </trkpt>
      <trkpt lat="43.65407" lon="3.9963">
        <ele>42.44</ele>
        <time>2016-05-01T07:27:24Z</time>
      </trkpt>
      <trkpt lat="43.6543" lon="3.99768">
        <ele>40.03</ele>
        <time>2016-05-01T07:27:29Z</time>
      </trkpt>
      <trkpt lat="43.65452" lon="3.99989">
        <ele>34.26</ele>
        <time>2016-05-01T07:27:37Z</time>
      </trkpt>
      <trkpt lat="43.65449" lon="4.00003">
        <ele>33.3</ele>
        <time>2016-05-01T07:27:38Z</time>
      </trkpt>
      <trkpt lat="43.65442" lon="4.00013">
        <ele>32.82</ele>
        <time>2016-05-01T07:27:39Z</time>
      </trkpt>
      <trkpt lat="43.65434" lon="4.00021">
        <ele>32.82</ele>
        <time>2016-05-01T07:27:40Z</time>
      </trkpt>
      <trkpt lat="43.65423" lon="4.0003">
        <ele>32.34</ele>
        <time>2016-05-01T07:27:41Z</time>
      </trkpt>
      <trkpt lat="43.65413" lon="4.00042">
        <ele>31.38</ele>
        <time>2016-05-01T07:27:42Z</time>
      </trkpt>
      <trkpt lat="43.65407" lon="4.00059">
        <ele>30.9</ele>
        <time>2016-05-01T07:27:43Z</time>
      </trkpt>
      <trkpt lat="43.65404" lon="4.00078">
        <ele>30.42</ele>
        <time>2016-05-01T07:27:44Z</time>
      </trkpt>
      <trkpt lat="43.65407" lon="4.00097">
        <ele>29.94</ele>
        <time>2016-05-01T07:27:45Z</time>
      </trkpt>
      <trkpt lat="43.65414" lon="4.00112">
        <ele>29.94</ele>
        <time>2016-05-01T07:27:46Z</time>
      </trkpt>
      <trkpt lat="43.65419" lon="4.00125">
        <ele>28.98</ele>
        <time>2016-05-01T07:27:47Z</time>
      </trkpt>
      <trkpt lat="43.65436" lon="4.00131">
        <ele>29.46</ele>
        <time>2016-05-01T07:27:48Z</time>
      </trkpt>
      <trkpt lat="43.6545" lon="4.00134">
        <ele>29.94</ele>
        <time>2016-05-01T07:27:49Z</time>
      </trkpt>
      <trkpt lat="43.65465" lon="4.00135">
        <ele>29.46</ele>
        <time>2016-05-01T07:27:50Z</time>
      </trkpt>
      <trkpt lat="43.6548" lon="4.00132">
        <ele>29.94</ele>
        <time>2016-05-01T07:27:51Z</time>
      </trkpt>
      <trkpt lat="43.65493" lon="4.00127">
        <ele>30.42</ele>
        <time>2016-05-01T07:27:52Z</time>
      </trkpt>
      <trkpt lat="43.65503" lon="4.0012">
        <ele>30.42</ele>
        <time>2016-05-01T07:27:53Z</time>
      </trkpt>
      <trkpt lat="43.65511" lon="4.0011">
        <ele>30.9</ele>
        <time>2016-05-01T07:27:54Z</time>
      </trkpt>
      <trkpt lat="43.65514" lon="4.00099">
        <ele>30.9</ele>
        <time>2016-05-01T07:27:55Z</time>
      </trkpt>
      <trkpt lat="43.65516" lon="4.00089">
        <ele>30.9</ele>
        <time>2016-05-01T07:27:56Z</time>
      </trkpt>
      <trkpt lat="43.65518" lon="4.00078">
        <ele>31.38</ele>
        <time>2016-05-01T07:27:57Z</time>
      </trkpt>
      <trkpt lat="43.65519" lon="4.00068">
        <ele>31.38</ele>
        <time>2016-05-01T07:27:58Z</time>
      </trkpt>
      <trkpt lat="43.65521" lon="4.00056">
        <ele>31.38</ele>
        <time>2016-05-01T07:27:59Z</time>
      </trkpt>
      <trkpt lat="43.65524" lon="4.00044">
        <ele>31.38</ele>
        <time>2016-05-01T07:28:00Z</time>
      </trkpt>
      <trkpt lat="43.65528" lon="4.00034">
        <ele>31.38</ele>
        <time>2016-05-01T07:28:01Z</time>
      </trkpt>
      <trkpt lat="43.65534" lon="4.00025">
        <ele>31.86</ele>
        <time>2016-05-01T07:28:02Z</time>
      </trkpt>
      <trkpt lat="43.6554" lon="4.00018">
        <ele>31.86</ele>
        <time>2016-05-01T07:28:03Z</time>
      </trkpt>
      <trkpt lat="43.65545" lon="4.00013">
        <ele>31.86</ele>
        <time>2016-05-01T07:28:04Z</time>
      </trkpt>
      <trkpt lat="43.65548" lon="4.00007">
        <ele>31.86</ele>
        <time>2016-05-01T07:28:05Z</time>
      </trkpt>
      <trkpt lat="43.65548" lon="4.00002">
        <ele>31.86</ele>
        <time>2016-05-01T07:28:06Z</time>
      </trkpt>
      <trkpt lat="43.65539" lon="3.99997">
        <ele>30.9</ele>
        <time>2016-05-01T07:28:09Z</time>
      </trkpt>
      <trkpt lat="43.65535" lon="3.99999">
        <ele>30.9</ele>
        <time>2016-05-01T07:28:10Z</time>
      </trkpt>
      <trkpt lat="43.65522" lon="3.99998">
        <ele>29.94</ele>
        <time>2016-05-01T07:28:16Z</time>
      </trkpt>
      <trkpt lat="43.65524" lon="4">
        <ele>19.84</ele>
        <time>2016-05-01T07:29:31Z</time>
      </trkpt>
      <trkpt lat="43.65525" lon="3.99997">
        <ele>15.04</ele>
        <time>2016-05-01T07:30:54Z</time>
      </trkpt>
      <trkpt lat="43.65523" lon="3.99997">
        <ele>21.77</ele>
        <time>2016-05-01T07:31:14Z</time>
      </trkpt>
      <trkpt lat="43.65525" lon="3.99986">
        <ele>25.61</ele>
        <time>2016-05-01T07:31:18Z</time>
      </trkpt>
      <trkpt lat="43.65529" lon="3.99983">
        <ele>26.57</ele>
        <time>2016-05-01T07:31:19Z</time>
      </trkpt>
      <trkpt lat="43.65532" lon="3.99978">
        <ele>27.05</ele>
        <time>2016-05-01T07:31:20Z</time>
      </trkpt>
      <trkpt lat="43.65535" lon="3.99974">
        <ele>27.53</ele>
        <time>2016-05-01T07:31:21Z</time>
      </trkpt>
      <trkpt lat="43.65538" lon="3.99969">
        <ele>28.5</ele>
        <time>2016-05-01T07:31:22Z</time>
      </trkpt>
      <trkpt lat="43.6554" lon="3.99963">
        <ele>28.98</ele>
        <time>2016-05-01T07:31:23Z</time>
      </trkpt>
      <trkpt lat="43.6554" lon="3.99957">
        <ele>29.46</ele>
        <time>2016-05-01T07:31:24Z</time>
      </trkpt>
      <trkpt lat="43.6554" lon="3.99951">
        <ele>29.94</ele>
        <time>2016-05-01T07:31:25Z</time>
      </trkpt>
      <trkpt lat="43.65538" lon="3.99945">
        <ele>30.42</ele>
        <time>2016-05-01T07:31:26Z</time>
      </trkpt>
      <trkpt lat="43.65536" lon="3.9994">
        <ele>30.42</ele>
        <time>2016-05-01T07:31:27Z</time>
      </trkpt>
      <trkpt lat="43.65534" lon="3.99935">
        <ele>30.9</ele>
        <time>2016-05-01T07:31:28Z</time>
      </trkpt>
      <trkpt lat="43.65534" lon="3.9993">
        <ele>30.9</ele>
        <time>2016-05-01T07:31:29Z</time>
      </trkpt>
      <trkpt lat="43.65535" lon="3.99927">
        <ele>31.38</ele>
        <time>2016-05-01T07:31:30Z</time>
      </trkpt>
      <trkpt lat="43.65537" lon="3.99925">
        <ele>31.38</ele>
        <time>2016-05-01T07:31:31Z</time>
      </trkpt>
      <trkpt lat="43.65539" lon="3.99926">
        <ele>31.86</ele>
        <time>2016-05-01T07:31:32Z</time>
      </trkpt>
      <trkpt lat="43.65541" lon="3.99927">
        <ele>31.86</ele>
        <time>2016-05-01T07:31:33Z</time>
      </trkpt>
      <trkpt lat="43.65542" lon="3.99929">
        <ele>31.86</ele>
        <time>2016-05-01T07:31:34Z</time>
      </trkpt>
      <trkpt lat="43.65543" lon="3.99931">
        <ele>32.82</ele>
        <time>2016-05-01T07:31:48Z</time>
      </trkpt>
      <trkpt lat="43.65542" lon="3.99931">
        <ele>32.82</ele>
        <time>2016-05-01T07:32:15Z</time>
      </trkpt>
      <trkpt lat="43.65547" lon="3.99928">
        <ele>33.78</ele>
        <time>2016-05-01T07:43:39Z</time>
      </trkpt>
      <trkpt lat="43.65548" lon="3.99931">
        <ele>38.11</ele>
        <time>2016-05-01T08:01:55Z</time>
      </trkpt>
      <trkpt lat="43.65551" lon="3.99933">
        <ele>37.63</ele>
        <time>2016-05-01T08:05:00Z</time>
      </trkpt>
      <trkpt lat="43.65547" lon="3.99933">
        <ele>34.74</ele>
        <time>2016-05-01T08:07:20Z</time>
      </trkpt>
      <trkpt lat="43.6555" lon="3.99938">
        <ele>35.23</ele>
        <time>2016-05-01T08:07:22Z</time>
      </trkpt>
      <trkpt lat="43.65554" lon="3.99942">
        <ele>35.23</ele>
        <time>2016-05-01T08:07:23Z</time>
      </trkpt>
      <trkpt lat="43.6556" lon="3.99946">
        <ele>35.23</ele>
        <time>2016-05-01T08:07:24Z</time>
      </trkpt>
      <trkpt lat="43.65564" lon="3.99953">
        <ele>35.23</ele>
        <time>2016-05-01T08:07:25Z</time>
      </trkpt>
      <trkpt lat="43.65568" lon="3.9996">
        <ele>35.71</ele>
        <time>2016-05-01T08:07:26Z</time>
      </trkpt>
      <trkpt lat="43.65571" lon="3.99967">
        <ele>35.71</ele>
        <time>2016-05-01T08:07:27Z</time>
      </trkpt>
      <trkpt lat="43.65572" lon="3.99974">
        <ele>35.71</ele>
        <time>2016-05-01T08:07:28Z</time>
      </trkpt>
      <trkpt lat="43.65573" lon="3.99981">
        <ele>35.71</ele>
        <time>2016-05-01T08:07:29Z</time>
      </trkpt>
      <trkpt lat="43.65572" lon="3.99987">
        <ele>35.23</ele>
        <time>2016-05-01T08:07:30Z</time>
      </trkpt>
      <trkpt lat="43.65569" lon="3.99993">
        <ele>35.23</ele>
        <time>2016-05-01T08:07:31Z</time>
      </trkpt>
      <trkpt lat="43.65564" lon="3.99997">
        <ele>34.74</ele>
        <time>2016-05-01T08:07:32Z</time>
      </trkpt>
      <trkpt lat="43.65559" lon="4.00002">
        <ele>34.74</ele>
        <time>2016-05-01T08:07:33Z</time>
      </trkpt>
      <trkpt lat="43.65519" lon="4.00032">
        <ele>33.3</ele>
        <time>2016-05-01T08:07:39Z</time>
      </trkpt>
      <trkpt lat="43.6551" lon="4.00033">
        <ele>33.3</ele>
        <time>2016-05-01T08:07:40Z</time>
      </trkpt>
      <trkpt lat="43.65501" lon="4.00027">
        <ele>33.3</ele>
        <time>2016-05-01T08:07:41Z</time>
      </trkpt>
      <trkpt lat="43.65474" lon="4.00006">
        <ele>33.3</ele>
        <time>2016-05-01T08:07:44Z</time>
      </trkpt>
      <trkpt lat="43.65461" lon="3.99983">
        <ele>33.3</ele>
        <time>2016-05-01T08:07:46Z</time>
      </trkpt>
      <trkpt lat="43.65458" lon="3.99968">
        <ele>33.3</ele>
        <time>2016-05-01T08:07:47Z</time>
      </trkpt>
      <trkpt lat="43.65457" lon="3.99953">
        <ele>33.3</ele>
        <time>2016-05-01T08:07:48Z</time>
      </trkpt>
      <trkpt lat="43.65456" lon="3.99938">
        <ele>33.78</ele>
        <time>2016-05-01T08:07:49Z</time>
      </trkpt>
      <trkpt lat="43.65455" lon="3.99923">
        <ele>33.78</ele>
        <time>2016-05-01T08:07:50Z</time>
      </trkpt>
      <trkpt lat="43.65454" lon="3.99907">
        <ele>34.26</ele>
        <time>2016-05-01T08:07:51Z</time>
      </trkpt>
      <trkpt lat="43.6543" lon="3.99711">
        <ele>40.03</ele>
        <time>2016-05-01T08:08:02Z</time>
      </trkpt>
      <trkpt lat="43.65424" lon="3.99656">
        <ele>41.47</ele>
        <time>2016-05-01T08:08:05Z</time>
      </trkpt>
      <trkpt lat="43.65415" lon="3.99568">
        <ele>43.4</ele>
        <time>2016-05-01T08:08:11Z</time>
      </trkpt>
      <trkpt lat="43.65415" lon="3.99558">
        <ele>43.4</ele>
        <time>2016-05-01T08:08:12Z</time>
      </trkpt>
      <trkpt lat="43.65419" lon="3.99546">
        <ele>43.4</ele>
        <time>2016-05-01T08:08:15Z</time>
      </trkpt>
      <trkpt lat="43.65423" lon="3.9954">
        <ele>43.88</ele>
        <time>2016-05-01T08:08:16Z</time>
      </trkpt>
      <trkpt lat="43.65427" lon="3.99532">
        <ele>43.88</ele>
        <time>2016-05-01T08:08:17Z</time>
      </trkpt>
      <trkpt lat="43.6543" lon="3.99522">
        <ele>43.88</ele>
        <time>2016-05-01T08:08:18Z</time>
      </trkpt>
      <trkpt lat="43.65431" lon="3.99509">
        <ele>43.88</ele>
        <time>2016-05-01T08:08:19Z</time>
      </trkpt>
      <trkpt lat="43.6543" lon="3.99497">
        <ele>43.88</ele>
        <time>2016-05-01T08:08:20Z</time>
      </trkpt>
      <trkpt lat="43.65425" lon="3.99485">
        <ele>43.88</ele>
        <time>2016-05-01T08:08:21Z</time>
      </trkpt>
      <trkpt lat="43.65421" lon="3.99472">
        <ele>43.4</ele>
        <time>2016-05-01T08:08:22Z</time>
      </trkpt>
      <trkpt lat="43.6542" lon="3.99458">
        <ele>43.4</ele>
        <time>2016-05-01T08:08:23Z</time>
      </trkpt>
      <trkpt lat="43.65421" lon="3.99442">
        <ele>43.4</ele>
        <time>2016-05-01T08:08:24Z</time>
      </trkpt>
      <trkpt lat="43.65423" lon="3.99426">
        <ele>43.88</ele>
        <time>2016-05-01T08:08:25Z</time>
      </trkpt>
      <trkpt lat="43.65456" lon="3.99238">
        <ele>46.28</ele>
        <time>2016-05-01T08:08:36Z</time>
      </trkpt>
      <trkpt lat="43.65487" lon="3.99087">
        <ele>45.8</ele>
        <time>2016-05-01T08:08:45Z</time>
      </trkpt>
      <trkpt lat="43.65491" lon="3.99077">
        <ele>45.8</ele>
        <time>2016-05-01T08:08:46Z</time>
      </trkpt>
      <trkpt lat="43.65496" lon="3.99068">
        <ele>46.28</ele>
        <time>2016-05-01T08:08:47Z</time>
      </trkpt>
      <trkpt lat="43.65502" lon="3.99061">
        <ele>46.28</ele>
        <time>2016-05-01T08:08:48Z</time>
      </trkpt>
      <trkpt lat="43.65509" lon="3.99055">
        <ele>46.76</ele>
        <time>2016-05-01T08:08:49Z</time>
      </trkpt>
      <trkpt lat="43.65518" lon="3.99049">
        <ele>46.76</ele>
        <time>2016-05-01T08:08:50Z</time>
      </trkpt>
      <trkpt lat="43.65526" lon="3.99041">
        <ele>47.24</ele>
        <time>2016-05-01T08:08:51Z</time>
      </trkpt>
      <trkpt lat="43.65532" lon="3.99031">
        <ele>47.24</ele>
        <time>2016-05-01T08:08:52Z</time>
      </trkpt>
      <trkpt lat="43.65535" lon="3.99019">
        <ele>47.24</ele>
        <time>2016-05-01T08:08:53Z</time>
      </trkpt>
      <trkpt lat="43.65535" lon="3.99006">
        <ele>47.24</ele>
        <time>2016-05-01T08:08:54Z</time>
      </trkpt>
      <trkpt lat="43.65531" lon="3.98994">
        <ele>46.76</ele>
        <time>2016-05-01T08:08:55Z</time>
      </trkpt>
      <trkpt lat="43.65521" lon="3.98983">
        <ele>47.24</ele>
        <time>2016-05-01T08:08:56Z</time>
      </trkpt>
      <trkpt lat="43.65513" lon="3.98969">
        <ele>47.24</ele>
        <time>2016-05-01T08:08:57Z</time>
      </trkpt>
      <trkpt lat="43.65508" lon="3.9895">
        <ele>46.28</ele>
        <time>2016-05-01T08:08:58Z</time>
      </trkpt>
      <trkpt lat="43.65505" lon="3.98932">
        <ele>45.8</ele>
        <time>2016-05-01T08:08:59Z</time>
      </trkpt>
      <trkpt lat="43.65502" lon="3.98913">
        <ele>45.32</ele>
        <time>2016-05-01T08:09:00Z</time>
      </trkpt>
      <trkpt lat="43.65476" lon="3.98712">
        <ele>41.47</ele>
        <time>2016-05-01T08:09:09Z</time>
      </trkpt>
      <trkpt lat="43.65407" lon="3.98426">
        <ele>39.55</ele>
        <time>2016-05-01T08:09:21Z</time>
      </trkpt>
      <trkpt lat="43.65398" lon="3.98369">
        <ele>40.03</ele>
        <time>2016-05-01T08:09:24Z</time>
      </trkpt>
      <trkpt lat="43.65399" lon="3.9835">
        <ele>40.03</ele>
        <time>2016-05-01T08:09:25Z</time>
      </trkpt>
      <trkpt lat="43.65402" lon="3.98331">
        <ele>40.51</ele>
        <time>2016-05-01T08:09:26Z</time>
      </trkpt>
      <trkpt lat="43.65408" lon="3.98314">
        <ele>40.99</ele>
        <time>2016-05-01T08:09:27Z</time>
      </trkpt>
      <trkpt lat="43.65415" lon="3.98299">
        <ele>41.47</ele>
        <time>2016-05-01T08:09:28Z</time>
      </trkpt>
      <trkpt lat="43.65424" lon="3.98287">
        <ele>41.95</ele>
        <time>2016-05-01T08:09:29Z</time>
      </trkpt>
      <trkpt lat="43.65433" lon="3.98278">
        <ele>42.44</ele>
        <time>2016-05-01T08:09:30Z</time>
      </trkpt>
      <trkpt lat="43.65442" lon="3.98271">
        <ele>42.44</ele>
        <time>2016-05-01T08:09:31Z</time>
      </trkpt>
      <trkpt lat="43.65449" lon="3.98265">
        <ele>42.92</ele>
        <time>2016-05-01T08:09:32Z</time>
      </trkpt>
      <trkpt lat="43.65469" lon="3.98252">
        <ele>43.88</ele>
        <time>2016-05-01T08:09:38Z</time>
      </trkpt>
      <trkpt lat="43.65473" lon="3.9825">
        <ele>43.88</ele>
        <time>2016-05-01T08:09:39Z</time>
      </trkpt>
      <trkpt lat="43.65479" lon="3.98249">
        <ele>43.88</ele>
        <time>2016-05-01T08:09:40Z</time>
      </trkpt>
      <trkpt lat="43.65486" lon="3.98247">
        <ele>43.4</ele>
        <time>2016-05-01T08:09:41Z</time>
      </trkpt>
      <trkpt lat="43.65493" lon="3.98244">
        <ele>42.92</ele>
        <time>2016-05-01T08:09:42Z</time>
      </trkpt>
      <trkpt lat="43.65501" lon="3.98238">
        <ele>42.92</ele>
        <time>2016-05-01T08:09:43Z</time>
      </trkpt>
      <trkpt lat="43.65507" lon="3.98229">
        <ele>42.92</ele>
        <time>2016-05-01T08:09:44Z</time>
      </trkpt>
      <trkpt lat="43.65512" lon="3.98219">
        <ele>42.92</ele>
        <time>2016-05-01T08:09:45Z</time>
      </trkpt>
      <trkpt lat="43.65518" lon="3.9821">
        <ele>42.44</ele>
        <time>2016-05-01T08:09:46Z</time>
      </trkpt>
      <trkpt lat="43.65525" lon="3.98203">
        <ele>42.44</ele>
        <time>2016-05-01T08:09:47Z</time>
      </trkpt>
      <trkpt lat="43.65533" lon="3.98197">
        <ele>42.44</ele>
        <time>2016-05-01T08:09:48Z</time>
      </trkpt>
      <trkpt lat="43.65543" lon="3.98191">
        <ele>42.44</ele>
        <time>2016-05-01T08:09:49Z</time>
      </trkpt>
      <trkpt lat="43.65554" lon="3.98186">
        <ele>42.44</ele>
        <time>2016-05-01T08:09:50Z</time>
      </trkpt>
      <trkpt lat="43.6568" lon="3.98147">
        <ele>42.44</ele>
        <time>2016-05-01T08:09:59Z</time>
      </trkpt>
      <trkpt lat="43.65823" lon="3.98126">
        <ele>43.88</ele>
        <time>2016-05-01T08:10:07Z</time>
      </trkpt>
      <trkpt lat="43.65957" lon="3.98059">
        <ele>44.84</ele>
        <time>2016-05-01T08:10:17Z</time>
      </trkpt>
      <trkpt lat="43.66059" lon="3.97984">
        <ele>44.36</ele>
        <time>2016-05-01T08:10:24Z</time>
      </trkpt>
      <trkpt lat="43.66192" lon="3.97918">
        <ele>46.28</ele>
        <time>2016-05-01T08:10:33Z</time>
      </trkpt>
      <trkpt lat="43.66327" lon="3.97871">
        <ele>48.2</ele>
        <time>2016-05-01T08:10:41Z</time>
      </trkpt>
      <trkpt lat="43.66485" lon="3.97788">
        <ele>49.65</ele>
        <time>2016-05-01T08:10:49Z</time>
      </trkpt>
      <trkpt lat="43.66667" lon="3.97724">
        <ele>53.49</ele>
        <time>2016-05-01T08:10:58Z</time>
      </trkpt>
      <trkpt lat="43.66748" lon="3.9764">
        <ele>51.57</ele>
        <time>2016-05-01T08:11:04Z</time>
      </trkpt>
      <trkpt lat="43.66804" lon="3.97575">
        <ele>50.61</ele>
        <time>2016-05-01T08:11:10Z</time>
      </trkpt>
      <trkpt lat="43.66814" lon="3.9757">
        <ele>50.61</ele>
        <time>2016-05-01T08:11:11Z</time>
      </trkpt>
      <trkpt lat="43.66826" lon="3.97567">
        <ele>50.13</ele>
        <time>2016-05-01T08:11:12Z</time>
      </trkpt>
      <trkpt lat="43.66838" lon="3.97565">
        <ele>50.13</ele>
        <time>2016-05-01T08:11:13Z</time>
      </trkpt>
      <trkpt lat="43.6685" lon="3.97559">
        <ele>50.13</ele>
        <time>2016-05-01T08:11:14Z</time>
      </trkpt>
      <trkpt lat="43.66861" lon="3.97548">
        <ele>50.13</ele>
        <time>2016-05-01T08:11:15Z</time>
      </trkpt>
      <trkpt lat="43.66868" lon="3.97533">
        <ele>50.61</ele>
        <time>2016-05-01T08:11:16Z</time>
      </trkpt>
      <trkpt lat="43.66873" lon="3.97516">
        <ele>50.61</ele>
        <time>2016-05-01T08:11:17Z</time>
      </trkpt>
      <trkpt lat="43.66874" lon="3.97499">
        <ele>51.09</ele>
        <time>2016-05-01T08:11:18Z</time>
      </trkpt>
      <trkpt lat="43.66873" lon="3.97481">
        <ele>51.09</ele>
        <time>2016-05-01T08:11:19Z</time>
      </trkpt>
      <trkpt lat="43.66872" lon="3.9746">
        <ele>51.09</ele>
        <time>2016-05-01T08:11:20Z</time>
      </trkpt>
      <trkpt lat="43.66874" lon="3.97435">
        <ele>51.57</ele>
        <time>2016-05-01T08:11:21Z</time>
      </trkpt>
      <trkpt lat="43.66881" lon="3.97411">
        <ele>52.05</ele>
        <time>2016-05-01T08:11:22Z</time>
      </trkpt>
      <trkpt lat="43.6689" lon="3.97386">
        <ele>52.53</ele>
        <time>2016-05-01T08:11:23Z</time>
      </trkpt>
      <trkpt lat="43.66898" lon="3.97361">
        <ele>53.01</ele>
        <time>2016-05-01T08:11:24Z</time>
      </trkpt>
      <trkpt lat="43.66931" lon="3.9718">
        <ele>55.41</ele>
        <time>2016-05-01T08:11:30Z</time>
      </trkpt>
      <trkpt lat="43.66928" lon="3.96909">
        <ele>56.86</ele>
        <time>2016-05-01T08:11:38Z</time>
      </trkpt>
      <trkpt lat="43.66877" lon="3.96633">
        <ele>58.3</ele>
        <time>2016-05-01T08:11:46Z</time>
      </trkpt>
      <trkpt lat="43.66868" lon="3.96494">
        <ele>58.78</ele>
        <time>2016-05-01T08:11:50Z</time>
      </trkpt>
      <trkpt lat="43.66871" lon="3.9646">
        <ele>59.74</ele>
        <time>2016-05-01T08:11:51Z</time>
      </trkpt>
      <trkpt lat="43.66876" lon="3.96426">
        <ele>60.22</ele>
        <time>2016-05-01T08:11:52Z</time>
      </trkpt>
      <trkpt lat="43.66883" lon="3.96393">
        <ele>60.7</ele>
        <time>2016-05-01T08:11:53Z</time>
      </trkpt>
      <trkpt lat="43.66891" lon="3.9636">
        <ele>61.66</ele>
        <time>2016-05-01T08:11:54Z</time>
      </trkpt>
      <trkpt lat="43.66988" lon="3.9611">
        <ele>70.31</ele>
        <time>2016-05-01T08:12:02Z</time>
      </trkpt>
      <trkpt lat="43.67101" lon="3.95955">
        <ele>75.12</ele>
        <time>2016-05-01T08:12:08Z</time>
      </trkpt>
      <trkpt lat="43.6737" lon="3.95636">
        <ele>79.45</ele>
        <time>2016-05-01T08:12:21Z</time>
      </trkpt>
      <trkpt lat="43.67448" lon="3.95467">
        <ele>78.97</ele>
        <time>2016-05-01T08:12:26Z</time>
      </trkpt>
      <trkpt lat="43.67558" lon="3.95197">
        <ele>78.97</ele>
        <time>2016-05-01T08:12:34Z</time>
      </trkpt>
      <trkpt lat="43.67753" lon="3.94875">
        <ele>82.33</ele>
        <time>2016-05-01T08:12:45Z</time>
      </trkpt>
      <trkpt lat="43.67923" lon="3.94699">
        <ele>91.46</ele>
        <time>2016-05-01T08:12:53Z</time>
      </trkpt>
      <trkpt lat="43.68121" lon="3.94574">
        <ele>97.71</ele>
        <time>2016-05-01T08:13:01Z</time>
      </trkpt>
      <trkpt lat="43.68338" lon="3.9451">
        <ele>98.67</ele>
        <time>2016-05-01T08:13:09Z</time>
      </trkpt>
      <trkpt lat="43.68587" lon="3.94452">
        <ele>98.67</ele>
        <time>2016-05-01T08:13:19Z</time>
      </trkpt>
      <trkpt lat="43.68772" lon="3.94411">
        <ele>99.63</ele>
        <time>2016-05-01T08:13:25Z</time>
      </trkpt>
      <trkpt lat="43.68962" lon="3.94369">
        <ele>98.67</ele>
        <time>2016-05-01T08:13:32Z</time>
      </trkpt>
      <trkpt lat="43.69333" lon="3.94318">
        <ele>94.35</ele>
        <time>2016-05-01T08:13:46Z</time>
      </trkpt>
      <trkpt lat="43.69744" lon="3.94311">
        <ele>91.94</ele>
        <time>2016-05-01T08:14:01Z</time>
      </trkpt>
      <trkpt lat="43.70086" lon="3.94288">
        <ele>97.71</ele>
        <time>2016-05-01T08:14:14Z</time>
      </trkpt>
      <trkpt lat="43.70264" lon="3.94203">
        <ele>100.11</ele>
        <time>2016-05-01T08:14:22Z</time>
      </trkpt>
      <trkpt lat="43.70454" lon="3.94116">
        <ele>98.19</ele>
        <time>2016-05-01T08:14:32Z</time>
      </trkpt>
      <trkpt lat="43.70598" lon="3.94065">
        <ele>90.98</ele>
        <time>2016-05-01T08:14:40Z</time>
      </trkpt>
      <trkpt lat="43.70668" lon="3.9403">
        <ele>86.66</ele>
        <time>2016-05-01T08:14:46Z</time>
      </trkpt>
      <trkpt lat="43.70672" lon="3.94029">
        <ele>86.18</ele>
        <time>2016-05-01T08:14:47Z</time>
      </trkpt>
      <trkpt lat="43.70682" lon="3.94031">
        <ele>85.69</ele>
        <time>2016-05-01T08:14:51Z</time>
      </trkpt>
      <trkpt lat="43.70698" lon="3.94036">
        <ele>85.69</ele>
        <time>2016-05-01T08:14:53Z</time>
      </trkpt>
      <trkpt lat="43.70707" lon="3.94034">
        <ele>85.69</ele>
        <time>2016-05-01T08:14:54Z</time>
      </trkpt>
      <trkpt lat="43.70714" lon="3.94026">
        <ele>85.69</ele>
        <time>2016-05-01T08:14:55Z</time>
      </trkpt>
      <trkpt lat="43.7072" lon="3.94016">
        <ele>86.18</ele>
        <time>2016-05-01T08:14:56Z</time>
      </trkpt>
      <trkpt lat="43.70724" lon="3.94003">
        <ele>86.18</ele>
        <time>2016-05-01T08:14:57Z</time>
      </trkpt>
      <trkpt lat="43.70727" lon="3.9399">
        <ele>86.18</ele>
        <time>2016-05-01T08:14:58Z</time>
      </trkpt>
      <trkpt lat="43.70732" lon="3.93979">
        <ele>86.18</ele>
        <time>2016-05-01T08:14:59Z</time>
      </trkpt>
      <trkpt lat="43.70741" lon="3.93969">
        <ele>86.18</ele>
        <time>2016-05-01T08:15:00Z</time>
      </trkpt>
      <trkpt lat="43.70753" lon="3.9396">
        <ele>86.18</ele>
        <time>2016-05-01T08:15:01Z</time>
      </trkpt>
      <trkpt lat="43.70766" lon="3.9395">
        <ele>86.66</ele>
        <time>2016-05-01T08:15:02Z</time>
      </trkpt>
      <trkpt lat="43.70806" lon="3.93911">
        <ele>88.1</ele>
        <time>2016-05-01T08:15:05Z</time>
      </trkpt>
      <trkpt lat="43.70818" lon="3.93894">
        <ele>89.06</ele>
        <time>2016-05-01T08:15:06Z</time>
      </trkpt>
      <trkpt lat="43.70828" lon="3.93874">
        <ele>90.5</ele>
        <time>2016-05-01T08:15:07Z</time>
      </trkpt>
      <trkpt lat="43.70835" lon="3.93853">
        <ele>91.46</ele>
        <time>2016-05-01T08:15:08Z</time>
      </trkpt>
      <trkpt lat="43.7084" lon="3.93831">
        <ele>92.42</ele>
        <time>2016-05-01T08:15:09Z</time>
      </trkpt>
      <trkpt lat="43.70843" lon="3.93808">
        <ele>93.39</ele>
        <time>2016-05-01T08:15:10Z</time>
      </trkpt>
      <trkpt lat="43.70845" lon="3.93785">
        <ele>93.87</ele>
        <time>2016-05-01T08:15:11Z</time>
      </trkpt>
      <trkpt lat="43.70851" lon="3.93741">
        <ele>94.35</ele>
        <time>2016-05-01T08:15:13Z</time>
      </trkpt>
      <trkpt lat="43.70857" lon="3.9372">
        <ele>94.83</ele>
        <time>2016-05-01T08:15:14Z</time>
      </trkpt>
      <trkpt lat="43.70864" lon="3.93699">
        <ele>95.31</ele>
        <time>2016-05-01T08:15:15Z</time>
      </trkpt>
      <trkpt lat="43.70873" lon="3.9368">
        <ele>95.79</ele>
        <time>2016-05-01T08:15:16Z</time>
      </trkpt>
      <trkpt lat="43.70882" lon="3.93663">
        <ele>95.79</ele>
        <time>2016-05-01T08:15:17Z</time>
      </trkpt>
      <trkpt lat="43.70892" lon="3.93645">
        <ele>95.79</ele>
        <time>2016-05-01T08:15:18Z</time>
      </trkpt>
      <trkpt lat="43.70941" lon="3.93551">
        <ele>96.27</ele>
        <time>2016-05-01T08:15:23Z</time>
      </trkpt>
      <trkpt lat="43.70954" lon="3.93535">
        <ele>96.27</ele>
        <time>2016-05-01T08:15:24Z</time>
      </trkpt>
      <trkpt lat="43.71013" lon="3.93454">
        <ele>95.79</ele>
        <time>2016-05-01T08:15:29Z</time>
      </trkpt>
      <trkpt lat="43.71021" lon="3.93436">
        <ele>95.79</ele>
        <time>2016-05-01T08:15:30Z</time>
      </trkpt>
      <trkpt lat="43.71028" lon="3.93414">
        <ele>95.31</ele>
        <time>2016-05-01T08:15:31Z</time>
      </trkpt>
      <trkpt lat="43.71033" lon="3.9339">
        <ele>95.31</ele>
        <time>2016-05-01T08:15:32Z</time>
      </trkpt>
      <trkpt lat="43.71038" lon="3.93365">
        <ele>95.31</ele>
        <time>2016-05-01T08:15:33Z</time>
      </trkpt>
      <trkpt lat="43.71047" lon="3.93325">
        <ele>95.31</ele>
        <time>2016-05-01T08:15:35Z</time>
      </trkpt>
      <trkpt lat="43.71055" lon="3.9331">
        <ele>94.83</ele>
        <time>2016-05-01T08:15:36Z</time>
      </trkpt>
      <trkpt lat="43.71066" lon="3.93299">
        <ele>94.83</ele>
        <time>2016-05-01T08:15:37Z</time>
      </trkpt>
      <trkpt lat="43.71081" lon="3.9329">
        <ele>94.83</ele>
        <time>2016-05-01T08:15:38Z</time>
      </trkpt>
      <trkpt lat="43.71099" lon="3.93286">
        <ele>94.35</ele>
        <time>2016-05-01T08:15:39Z</time>
      </trkpt>
      <trkpt lat="43.71121" lon="3.93282">
        <ele>93.87</ele>
        <time>2016-05-01T08:15:40Z</time>
      </trkpt>
      <trkpt lat="43.71144" lon="3.93278">
        <ele>93.87</ele>
        <time>2016-05-01T08:15:41Z</time>
      </trkpt>
      <trkpt lat="43.71325" lon="3.93231">
        <ele>96.27</ele>
        <time>2016-05-01T08:15:49Z</time>
      </trkpt>
      <trkpt lat="43.71408" lon="3.93182">
        <ele>99.63</ele>
        <time>2016-05-01T08:15:53Z</time>
      </trkpt>
      <trkpt lat="43.71426" lon="3.93166">
        <ele>100.11</ele>
        <time>2016-05-01T08:15:54Z</time>
      </trkpt>
      <trkpt lat="43.71443" lon="3.93147">
        <ele>100.11</ele>
        <time>2016-05-01T08:15:55Z</time>
      </trkpt>
      <trkpt lat="43.71582" lon="3.9296">
        <ele>106.84</ele>
        <time>2016-05-01T08:16:03Z</time>
      </trkpt>
      <trkpt lat="43.71739" lon="3.92752">
        <ele>118.86</ele>
        <time>2016-05-01T08:16:13Z</time>
      </trkpt>
      <trkpt lat="43.71753" lon="3.92738">
        <ele>119.82</ele>
        <time>2016-05-01T08:16:14Z</time>
      </trkpt>
      <trkpt lat="43.71768" lon="3.92725">
        <ele>120.78</ele>
        <time>2016-05-01T08:16:15Z</time>
      </trkpt>
      <trkpt lat="43.71784" lon="3.92713">
        <ele>121.74</ele>
        <time>2016-05-01T08:16:16Z</time>
      </trkpt>
      <trkpt lat="43.71801" lon="3.92703">
        <ele>122.71</ele>
        <time>2016-05-01T08:16:17Z</time>
      </trkpt>
      <trkpt lat="43.71819" lon="3.92696">
        <ele>124.15</ele>
        <time>2016-05-01T08:16:18Z</time>
      </trkpt>
      <trkpt lat="43.71837" lon="3.92694">
        <ele>124.15</ele>
        <time>2016-05-01T08:16:19Z</time>
      </trkpt>
      <trkpt lat="43.71854" lon="3.92692">
        <ele>124.63</ele>
        <time>2016-05-01T08:16:20Z</time>
      </trkpt>
      <trkpt lat="43.7187" lon="3.92688">
        <ele>125.11</ele>
        <time>2016-05-01T08:16:21Z</time>
      </trkpt>
      <trkpt lat="43.71886" lon="3.92681">
        <ele>125.59</ele>
        <time>2016-05-01T08:16:22Z</time>
      </trkpt>
      <trkpt lat="43.71901" lon="3.92671">
        <ele>126.07</ele>
        <time>2016-05-01T08:16:23Z</time>
      </trkpt>
      <trkpt lat="43.71916" lon="3.92661">
        <ele>126.07</ele>
        <time>2016-05-01T08:16:24Z</time>
      </trkpt>
      <trkpt lat="43.71978" lon="3.92623">
        <ele>127.03</ele>
        <time>2016-05-01T08:16:29Z</time>
      </trkpt>
      <trkpt lat="43.71987" lon="3.92612">
        <ele>127.03</ele>
        <time>2016-05-01T08:16:30Z</time>
      </trkpt>
      <trkpt lat="43.71994" lon="3.92597">
        <ele>127.03</ele>
        <time>2016-05-01T08:16:31Z</time>
      </trkpt>
      <trkpt lat="43.71999" lon="3.92579">
        <ele>127.03</ele>
        <time>2016-05-01T08:16:32Z</time>
      </trkpt>
      <trkpt lat="43.72001" lon="3.92558">
        <ele>127.51</ele>
        <time>2016-05-01T08:16:33Z</time>
      </trkpt>
      <trkpt lat="43.72004" lon="3.92534">
        <ele>127.51</ele>
        <time>2016-05-01T08:16:34Z</time>
      </trkpt>
      <trkpt lat="43.72008" lon="3.92508">
        <ele>127.51</ele>
        <time>2016-05-01T08:16:35Z</time>
      </trkpt>
      <trkpt lat="43.72014" lon="3.92481">
        <ele>127.51</ele>
        <time>2016-05-01T08:16:36Z</time>
      </trkpt>
      <trkpt lat="43.72022" lon="3.92456">
        <ele>127.51</ele>
        <time>2016-05-01T08:16:37Z</time>
      </trkpt>
      <trkpt lat="43.7203" lon="3.92433">
        <ele>127.03</ele>
        <time>2016-05-01T08:16:38Z</time>
      </trkpt>
      <trkpt lat="43.7204" lon="3.92413">
        <ele>127.03</ele>
        <time>2016-05-01T08:16:39Z</time>
      </trkpt>
      <trkpt lat="43.72052" lon="3.92398">
        <ele>126.55</ele>
        <time>2016-05-01T08:16:40Z</time>
      </trkpt>
      <trkpt lat="43.72066" lon="3.92389">
        <ele>126.55</ele>
        <time>2016-05-01T08:16:41Z</time>
      </trkpt>
      <trkpt lat="43.7208" lon="3.92382">
        <ele>126.55</ele>
        <time>2016-05-01T08:16:42Z</time>
      </trkpt>
      <trkpt lat="43.72094" lon="3.92376">
        <ele>126.07</ele>
        <time>2016-05-01T08:16:43Z</time>
      </trkpt>
      <trkpt lat="43.72107" lon="3.92365">
        <ele>126.07</ele>
        <time>2016-05-01T08:16:44Z</time>
      </trkpt>
      <trkpt lat="43.72119" lon="3.9235">
        <ele>126.07</ele>
        <time>2016-05-01T08:16:45Z</time>
      </trkpt>
      <trkpt lat="43.72132" lon="3.92331">
        <ele>126.07</ele>
        <time>2016-05-01T08:16:46Z</time>
      </trkpt>
      <trkpt lat="43.72193" lon="3.92244">
        <ele>124.63</ele>
        <time>2016-05-01T08:16:51Z</time>
      </trkpt>
      <trkpt lat="43.72201" lon="3.92226">
        <ele>124.15</ele>
        <time>2016-05-01T08:16:52Z</time>
      </trkpt>
      <trkpt lat="43.72207" lon="3.92206">
        <ele>124.15</ele>
        <time>2016-05-01T08:16:53Z</time>
      </trkpt>
      <trkpt lat="43.72218" lon="3.92147">
        <ele>124.15</ele>
        <time>2016-05-01T08:16:56Z</time>
      </trkpt>
      <trkpt lat="43.72218" lon="3.92127">
        <ele>123.67</ele>
        <time>2016-05-01T08:16:57Z</time>
      </trkpt>
      <trkpt lat="43.72215" lon="3.92107">
        <ele>123.67</ele>
        <time>2016-05-01T08:16:58Z</time>
      </trkpt>
      <trkpt lat="43.7221" lon="3.92066">
        <ele>123.67</ele>
        <time>2016-05-01T08:17:00Z</time>
      </trkpt>
      <trkpt lat="43.72211" lon="3.92042">
        <ele>123.19</ele>
        <time>2016-05-01T08:17:01Z</time>
      </trkpt>
      <trkpt lat="43.72238" lon="3.91826">
        <ele>116.94</ele>
        <time>2016-05-01T08:17:09Z</time>
      </trkpt>
      <trkpt lat="43.72246" lon="3.9177">
        <ele>115.98</ele>
        <time>2016-05-01T08:17:11Z</time>
      </trkpt>
      <trkpt lat="43.72294" lon="3.91534">
        <ele>111.65</ele>
        <time>2016-05-01T08:17:19Z</time>
      </trkpt>
      <trkpt lat="43.72359" lon="3.91263">
        <ele>107.81</ele>
        <time>2016-05-01T08:17:30Z</time>
      </trkpt>
      <trkpt lat="43.72376" lon="3.91188">
        <ele>106.36</ele>
        <time>2016-05-01T08:17:36Z</time>
      </trkpt>
      <trkpt lat="43.72387" lon="3.9117">
        <ele>106.36</ele>
        <time>2016-05-01T08:17:40Z</time>
      </trkpt>
      <trkpt lat="43.72392" lon="3.91169">
        <ele>106.36</ele>
        <time>2016-05-01T08:17:41Z</time>
      </trkpt>
      <trkpt lat="43.724" lon="3.91171">
        <ele>106.36</ele>
        <time>2016-05-01T08:17:42Z</time>
      </trkpt>
      <trkpt lat="43.72411" lon="3.91178">
        <ele>105.88</ele>
        <time>2016-05-01T08:17:43Z</time>
      </trkpt>
      <trkpt lat="43.72424" lon="3.91186">
        <ele>106.36</ele>
        <time>2016-05-01T08:17:44Z</time>
      </trkpt>
      <trkpt lat="43.7253" lon="3.91245">
        <ele>105.4</ele>
        <time>2016-05-01T08:17:50Z</time>
      </trkpt>
      <trkpt lat="43.72711" lon="3.91295">
        <ele>107.32</ele>
        <time>2016-05-01T08:17:58Z</time>
      </trkpt>
      <trkpt lat="43.72904" lon="3.91346">
        <ele>110.21</ele>
        <time>2016-05-01T08:18:06Z</time>
      </trkpt>
      <trkpt lat="43.72927" lon="3.91344">
        <ele>110.21</ele>
        <time>2016-05-01T08:18:07Z</time>
      </trkpt>
      <trkpt lat="43.73186" lon="3.91316">
        <ele>115.98</ele>
        <time>2016-05-01T08:18:18Z</time>
      </trkpt>
      <trkpt lat="43.73354" lon="3.91272">
        <ele>121.74</ele>
        <time>2016-05-01T08:18:25Z</time>
      </trkpt>
      <trkpt lat="43.73531" lon="3.91204">
        <ele>126.07</ele>
        <time>2016-05-01T08:18:33Z</time>
      </trkpt>
      <trkpt lat="43.73551" lon="3.91202">
        <ele>127.03</ele>
        <time>2016-05-01T08:18:34Z</time>
      </trkpt>
      <trkpt lat="43.73588" lon="3.91197">
        <ele>127.51</ele>
        <time>2016-05-01T08:18:36Z</time>
      </trkpt>
      <trkpt lat="43.73605" lon="3.91186">
        <ele>127.03</ele>
        <time>2016-05-01T08:18:37Z</time>
      </trkpt>
      <trkpt lat="43.73622" lon="3.91168">
        <ele>127.03</ele>
        <time>2016-05-01T08:18:38Z</time>
      </trkpt>
      <trkpt lat="43.73639" lon="3.91147">
        <ele>125.11</ele>
        <time>2016-05-01T08:18:39Z</time>
      </trkpt>
      <trkpt lat="43.73658" lon="3.91126">
        <ele>125.11</ele>
        <time>2016-05-01T08:18:40Z</time>
      </trkpt>
      <trkpt lat="43.73804" lon="3.90957">
        <ele>128.95</ele>
        <time>2016-05-01T08:18:49Z</time>
      </trkpt>
      <trkpt lat="43.73982" lon="3.90785">
        <ele>131.84</ele>
        <time>2016-05-01T08:18:59Z</time>
      </trkpt>
      <trkpt lat="43.74184" lon="3.90671">
        <ele>133.76</ele>
        <time>2016-05-01T08:19:08Z</time>
      </trkpt>
      <trkpt lat="43.74318" lon="3.90636">
        <ele>134.72</ele>
        <time>2016-05-01T08:19:15Z</time>
      </trkpt>
      <trkpt lat="43.74472" lon="3.9063">
        <ele>134.24</ele>
        <time>2016-05-01T08:19:21Z</time>
      </trkpt>
      <trkpt lat="43.7473" lon="3.90656">
        <ele>136.64</ele>
        <time>2016-05-01T08:19:31Z</time>
      </trkpt>
      <trkpt lat="43.75036" lon="3.90686">
        <ele>136.16</ele>
        <time>2016-05-01T08:19:44Z</time>
      </trkpt>
      <trkpt lat="43.75263" lon="3.9071">
        <ele>135.68</ele>
        <time>2016-05-01T08:19:54Z</time>
      </trkpt>
      <trkpt lat="43.75563" lon="3.9074">
        <ele>135.68</ele>
        <time>2016-05-01T08:20:07Z</time>
      </trkpt>
      <trkpt lat="43.75902" lon="3.90772">
        <ele>132.32</ele>
        <time>2016-05-01T08:20:21Z</time>
      </trkpt>
      <trkpt lat="43.76325" lon="3.90812">
        <ele>125.11</ele>
        <time>2016-05-01T08:20:38Z</time>
      </trkpt>
      <trkpt lat="43.76537" lon="3.90832">
        <ele>121.26</ele>
        <time>2016-05-01T08:20:48Z</time>
      </trkpt>
      <trkpt lat="43.76671" lon="3.90844">
        <ele>120.3</ele>
        <time>2016-05-01T08:20:56Z</time>
      </trkpt>
      <trkpt lat="43.76755" lon="3.90852">
        <ele>119.82</ele>
        <time>2016-05-01T08:21:05Z</time>
      </trkpt>
      <trkpt lat="43.76831" lon="3.9086">
        <ele>119.82</ele>
        <time>2016-05-01T08:21:13Z</time>
      </trkpt>
      <trkpt lat="43.7693" lon="3.90869">
        <ele>119.34</ele>
        <time>2016-05-01T08:21:23Z</time>
      </trkpt>
      <trkpt lat="43.77044" lon="3.90885">
        <ele>120.3</ele>
        <time>2016-05-01T08:21:34Z</time>
      </trkpt>
      <trkpt lat="43.77178" lon="3.90893">
        <ele>118.86</ele>
        <time>2016-05-01T08:21:46Z</time>
      </trkpt>
      <trkpt lat="43.77259" lon="3.90882">
        <ele>116.46</ele>
        <time>2016-05-01T08:21:55Z</time>
      </trkpt>
      <trkpt lat="43.77316" lon="3.90858">
        <ele>116.46</ele>
        <time>2016-05-01T08:22:03Z</time>
      </trkpt>
      <trkpt lat="43.77322" lon="3.90854">
        <ele>116.46</ele>
        <time>2016-05-01T08:22:04Z</time>
      </trkpt>
      <trkpt lat="43.77366" lon="3.90839">
        <ele>114.53</ele>
        <time>2016-05-01T08:22:09Z</time>
      </trkpt>
      <trkpt lat="43.77384" lon="3.90828">
        <ele>114.53</ele>
        <time>2016-05-01T08:22:11Z</time>
      </trkpt>
      <trkpt lat="43.77478" lon="3.90749">
        <ele>114.05</ele>
        <time>2016-05-01T08:22:20Z</time>
      </trkpt>
      <trkpt lat="43.77489" lon="3.90741">
        <ele>114.05</ele>
        <time>2016-05-01T08:22:21Z</time>
      </trkpt>
      <trkpt lat="43.77501" lon="3.90735">
        <ele>114.05</ele>
        <time>2016-05-01T08:22:22Z</time>
      </trkpt>
      <trkpt lat="43.77514" lon="3.90731">
        <ele>114.05</ele>
        <time>2016-05-01T08:22:23Z</time>
      </trkpt>
      <trkpt lat="43.77527" lon="3.90729">
        <ele>113.57</ele>
        <time>2016-05-01T08:22:24Z</time>
      </trkpt>
      <trkpt lat="43.77541" lon="3.90728">
        <ele>113.57</ele>
        <time>2016-05-01T08:22:25Z</time>
      </trkpt>
      <trkpt lat="43.77556" lon="3.90729">
        <ele>113.09</ele>
        <time>2016-05-01T08:22:26Z</time>
      </trkpt>
      <trkpt lat="43.7757" lon="3.90732">
        <ele>113.09</ele>
        <time>2016-05-01T08:22:27Z</time>
      </trkpt>
      <trkpt lat="43.77583" lon="3.90735">
        <ele>113.09</ele>
        <time>2016-05-01T08:22:28Z</time>
      </trkpt>
      <trkpt lat="43.77686" lon="3.9076">
        <ele>113.09</ele>
        <time>2016-05-01T08:22:36Z</time>
      </trkpt>
      <trkpt lat="43.77822" lon="3.908">
        <ele>112.61</ele>
        <time>2016-05-01T08:22:43Z</time>
      </trkpt>
      <trkpt lat="43.77884" lon="3.9083">
        <ele>111.65</ele>
        <time>2016-05-01T08:22:47Z</time>
      </trkpt>
      <trkpt lat="43.77897" lon="3.90833">
        <ele>112.13</ele>
        <time>2016-05-01T08:22:48Z</time>
      </trkpt>
      <trkpt lat="43.7791" lon="3.90834">
        <ele>112.13</ele>
        <time>2016-05-01T08:22:49Z</time>
      </trkpt>
      <trkpt lat="43.77953" lon="3.90838">
        <ele>112.61</ele>
        <time>2016-05-01T08:22:54Z</time>
      </trkpt>
      <trkpt lat="43.77958" lon="3.90841">
        <ele>112.61</ele>
        <time>2016-05-01T08:22:55Z</time>
      </trkpt>
      <trkpt lat="43.77962" lon="3.9085">
        <ele>112.61</ele>
        <time>2016-05-01T08:22:56Z</time>
      </trkpt>
      <trkpt lat="43.77965" lon="3.90863">
        <ele>113.09</ele>
        <time>2016-05-01T08:22:57Z</time>
      </trkpt>
      <trkpt lat="43.77968" lon="3.90876">
        <ele>113.09</ele>
        <time>2016-05-01T08:22:58Z</time>
      </trkpt>
      <trkpt lat="43.77978" lon="3.9092">
        <ele>113.57</ele>
        <time>2016-05-01T08:23:02Z</time>
      </trkpt>
      <trkpt lat="43.77983" lon="3.90927">
        <ele>113.57</ele>
        <time>2016-05-01T08:23:03Z</time>
      </trkpt>
      <trkpt lat="43.77992" lon="3.90928">
        <ele>113.57</ele>
        <time>2016-05-01T08:23:04Z</time>
      </trkpt>
      <trkpt lat="43.78002" lon="3.90927">
        <ele>113.09</ele>
        <time>2016-05-01T08:23:05Z</time>
      </trkpt>
      <trkpt lat="43.78015" lon="3.90927">
        <ele>113.57</ele>
        <time>2016-05-01T08:23:06Z</time>
      </trkpt>
      <trkpt lat="43.78101" lon="3.90939">
        <ele>112.61</ele>
        <time>2016-05-01T08:23:11Z</time>
      </trkpt>
      <trkpt lat="43.78277" lon="3.90969">
        <ele>110.21</ele>
        <time>2016-05-01T08:23:19Z</time>
      </trkpt>
      <trkpt lat="43.78366" lon="3.90984">
        <ele>108.77</ele>
        <time>2016-05-01T08:23:24Z</time>
      </trkpt>
      <trkpt lat="43.78382" lon="3.90979">
        <ele>107.81</ele>
        <time>2016-05-01T08:23:25Z</time>
      </trkpt>
      <trkpt lat="43.78401" lon="3.90974">
        <ele>107.81</ele>
        <time>2016-05-01T08:23:26Z</time>
      </trkpt>
      <trkpt lat="43.7855" lon="3.90924">
        <ele>104.92</ele>
        <time>2016-05-01T08:23:33Z</time>
      </trkpt>
      <trkpt lat="43.78657" lon="3.90899">
        <ele>103.48</ele>
        <time>2016-05-01T08:23:39Z</time>
      </trkpt>
      <trkpt lat="43.78673" lon="3.90904">
        <ele>103</ele>
        <time>2016-05-01T08:23:40Z</time>
      </trkpt>
      <trkpt lat="43.78688" lon="3.90913">
        <ele>102.52</ele>
        <time>2016-05-01T08:23:41Z</time>
      </trkpt>
      <trkpt lat="43.78703" lon="3.90924">
        <ele>102.52</ele>
        <time>2016-05-01T08:23:42Z</time>
      </trkpt>
      <trkpt lat="43.78719" lon="3.90937">
        <ele>103</ele>
        <time>2016-05-01T08:23:43Z</time>
      </trkpt>
      <trkpt lat="43.78753" lon="3.9096">
        <ele>103.48</ele>
        <time>2016-05-01T08:23:45Z</time>
      </trkpt>
      <trkpt lat="43.78772" lon="3.90968">
        <ele>103.48</ele>
        <time>2016-05-01T08:23:46Z</time>
      </trkpt>
      <trkpt lat="43.78794" lon="3.90973">
        <ele>103.96</ele>
        <time>2016-05-01T08:23:47Z</time>
      </trkpt>
      <trkpt lat="43.78977" lon="3.91">
        <ele>106.36</ele>
        <time>2016-05-01T08:23:55Z</time>
      </trkpt>
      <trkpt lat="43.79151" lon="3.91036">
        <ele>108.77</ele>
        <time>2016-05-01T08:24:03Z</time>
      </trkpt>
      <trkpt lat="43.79167" lon="3.91052">
        <ele>108.77</ele>
        <time>2016-05-01T08:24:04Z</time>
      </trkpt>
      <trkpt lat="43.79182" lon="3.91068">
        <ele>109.25</ele>
        <time>2016-05-01T08:24:05Z</time>
      </trkpt>
      <trkpt lat="43.79272" lon="3.91156">
        <ele>110.69</ele>
        <time>2016-05-01T08:24:12Z</time>
      </trkpt>
      <trkpt lat="43.79338" lon="3.91223">
        <ele>111.65</ele>
        <time>2016-05-01T08:24:21Z</time>
      </trkpt>
      <trkpt lat="43.79395" lon="3.91292">
        <ele>112.13</ele>
        <time>2016-05-01T08:24:32Z</time>
      </trkpt>
      <trkpt lat="43.79459" lon="3.91346">
        <ele>112.13</ele>
        <time>2016-05-01T08:24:42Z</time>
      </trkpt>
      <trkpt lat="43.79464" lon="3.9135">
        <ele>112.13</ele>
        <time>2016-05-01T08:24:43Z</time>
      </trkpt>
      <trkpt lat="43.79532" lon="3.91393">
        <ele>112.61</ele>
        <time>2016-05-01T08:24:52Z</time>
      </trkpt>
      <trkpt lat="43.79629" lon="3.9146">
        <ele>113.09</ele>
        <time>2016-05-01T08:25:01Z</time>
      </trkpt>
      <trkpt lat="43.79758" lon="3.91584">
        <ele>113.09</ele>
        <time>2016-05-01T08:25:10Z</time>
      </trkpt>
      <trkpt lat="43.79872" lon="3.91689">
        <ele>112.13</ele>
        <time>2016-05-01T08:25:16Z</time>
      </trkpt>
      <trkpt lat="43.79962" lon="3.91819">
        <ele>113.09</ele>
        <time>2016-05-01T08:25:22Z</time>
      </trkpt>
      <trkpt lat="43.79986" lon="3.91862">
        <ele>114.05</ele>
        <time>2016-05-01T08:25:24Z</time>
      </trkpt>
      <trkpt lat="43.80001" lon="3.91881">
        <ele>114.05</ele>
        <time>2016-05-01T08:25:25Z</time>
      </trkpt>
      <trkpt lat="43.80113" lon="3.92009">
        <ele>114.05</ele>
        <time>2016-05-01T08:25:31Z</time>
      </trkpt>
      <trkpt lat="43.80253" lon="3.92194">
        <ele>120.3</ele>
        <time>2016-05-01T08:25:39Z</time>
      </trkpt>
      <trkpt lat="43.80352" lon="3.92366">
        <ele>130.88</ele>
        <time>2016-05-01T08:25:46Z</time>
      </trkpt>
      <trkpt lat="43.8037" lon="3.92382">
        <ele>131.84</ele>
        <time>2016-05-01T08:25:47Z</time>
      </trkpt>
      <trkpt lat="43.80444" lon="3.9245">
        <ele>136.16</ele>
        <time>2016-05-01T08:25:51Z</time>
      </trkpt>
      <trkpt lat="43.80459" lon="3.92472">
        <ele>137.13</ele>
        <time>2016-05-01T08:25:52Z</time>
      </trkpt>
      <trkpt lat="43.80471" lon="3.92497">
        <ele>138.57</ele>
        <time>2016-05-01T08:25:53Z</time>
      </trkpt>
      <trkpt lat="43.80536" lon="3.9262">
        <ele>142.89</ele>
        <time>2016-05-01T08:25:59Z</time>
      </trkpt>
      <trkpt lat="43.80551" lon="3.9263">
        <ele>142.89</ele>
        <time>2016-05-01T08:26:00Z</time>
      </trkpt>
      <trkpt lat="43.80569" lon="3.9264">
        <ele>142.89</ele>
        <time>2016-05-01T08:26:01Z</time>
      </trkpt>
      <trkpt lat="43.80683" lon="3.92708">
        <ele>141.45</ele>
        <time>2016-05-01T08:26:08Z</time>
      </trkpt>
      <trkpt lat="43.80697" lon="3.92721">
        <ele>140.97</ele>
        <time>2016-05-01T08:26:09Z</time>
      </trkpt>
      <trkpt lat="43.80712" lon="3.92738">
        <ele>140.01</ele>
        <time>2016-05-01T08:26:10Z</time>
      </trkpt>
      <trkpt lat="43.80741" lon="3.92778">
        <ele>138.57</ele>
        <time>2016-05-01T08:26:12Z</time>
      </trkpt>
      <trkpt lat="43.80754" lon="3.92801">
        <ele>138.09</ele>
        <time>2016-05-01T08:26:13Z</time>
      </trkpt>
      <trkpt lat="43.80783" lon="3.92847">
        <ele>138.09</ele>
        <time>2016-05-01T08:26:15Z</time>
      </trkpt>
      <trkpt lat="43.808" lon="3.92865">
        <ele>138.57</ele>
        <time>2016-05-01T08:26:16Z</time>
      </trkpt>
      <trkpt lat="43.80963" lon="3.93025">
        <ele>143.37</ele>
        <time>2016-05-01T08:26:25Z</time>
      </trkpt>
      <trkpt lat="43.81055" lon="3.93112">
        <ele>140.49</ele>
        <time>2016-05-01T08:26:32Z</time>
      </trkpt>
      <trkpt lat="43.81062" lon="3.93116">
        <ele>139.53</ele>
        <time>2016-05-01T08:26:33Z</time>
      </trkpt>
      <trkpt lat="43.81068" lon="3.93112">
        <ele>139.05</ele>
        <time>2016-05-01T08:26:34Z</time>
      </trkpt>
      <trkpt lat="43.81073" lon="3.93104">
        <ele>138.57</ele>
        <time>2016-05-01T08:26:35Z</time>
      </trkpt>
      <trkpt lat="43.81079" lon="3.93092">
        <ele>138.09</ele>
        <time>2016-05-01T08:26:36Z</time>
      </trkpt>
      <trkpt lat="43.81084" lon="3.93075">
        <ele>139.05</ele>
        <time>2016-05-01T08:26:37Z</time>
      </trkpt>
      <trkpt lat="43.8109" lon="3.93057">
        <ele>140.01</ele>
        <time>2016-05-01T08:26:38Z</time>
      </trkpt>
      <trkpt lat="43.81155" lon="3.9288">
        <ele>145.78</ele>
        <time>2016-05-01T08:26:47Z</time>
      </trkpt>
      <trkpt lat="43.81222" lon="3.92696">
        <ele>150.58</ele>
        <time>2016-05-01T08:26:55Z</time>
      </trkpt>
      <trkpt lat="43.81259" lon="3.92556">
        <ele>156.35</ele>
        <time>2016-05-01T08:27:01Z</time>
      </trkpt>
      <trkpt lat="43.81259" lon="3.92538">
        <ele>157.31</ele>
        <time>2016-05-01T08:27:02Z</time>
      </trkpt>
      <trkpt lat="43.81256" lon="3.92521">
        <ele>158.27</ele>
        <time>2016-05-01T08:27:03Z</time>
      </trkpt>
      <trkpt lat="43.81249" lon="3.92507">
        <ele>158.75</ele>
        <time>2016-05-01T08:27:04Z</time>
      </trkpt>
      <trkpt lat="43.8124" lon="3.92496">
        <ele>159.24</ele>
        <time>2016-05-01T08:27:05Z</time>
      </trkpt>
      <trkpt lat="43.81231" lon="3.92487">
        <ele>159.24</ele>
        <time>2016-05-01T08:27:06Z</time>
      </trkpt>
      <trkpt lat="43.81225" lon="3.92478">
        <ele>160.2</ele>
        <time>2016-05-01T08:27:07Z</time>
      </trkpt>
      <trkpt lat="43.81221" lon="3.92468">
        <ele>160.68</ele>
        <time>2016-05-01T08:27:08Z</time>
      </trkpt>
      <trkpt lat="43.81219" lon="3.92457">
        <ele>161.64</ele>
        <time>2016-05-01T08:27:09Z</time>
      </trkpt>
      <trkpt lat="43.81224" lon="3.9245">
        <ele>162.6</ele>
        <time>2016-05-01T08:27:10Z</time>
      </trkpt>
      <trkpt lat="43.81233" lon="3.92449">
        <ele>163.08</ele>
        <time>2016-05-01T08:27:11Z</time>
      </trkpt>
      <trkpt lat="43.81245" lon="3.92453">
        <ele>163.08</ele>
        <time>2016-05-01T08:27:12Z</time>
      </trkpt>
      <trkpt lat="43.81256" lon="3.92456">
        <ele>163.56</ele>
        <time>2016-05-01T08:27:13Z</time>
      </trkpt>
      <trkpt lat="43.81269" lon="3.92464">
        <ele>164.04</ele>
        <time>2016-05-01T08:27:14Z</time>
      </trkpt>
      <trkpt lat="43.81284" lon="3.92476">
        <ele>165.48</ele>
        <time>2016-05-01T08:27:15Z</time>
      </trkpt>
      <trkpt lat="43.81297" lon="3.92486">
        <ele>165.96</ele>
        <time>2016-05-01T08:27:16Z</time>
      </trkpt>
      <trkpt lat="43.8131" lon="3.92493">
        <ele>166.93</ele>
        <time>2016-05-01T08:27:17Z</time>
      </trkpt>
      <trkpt lat="43.81325" lon="3.92494">
        <ele>167.41</ele>
        <time>2016-05-01T08:27:18Z</time>
      </trkpt>
      <trkpt lat="43.8134" lon="3.9249">
        <ele>167.89</ele>
        <time>2016-05-01T08:27:19Z</time>
      </trkpt>
      <trkpt lat="43.81397" lon="3.92466">
        <ele>168.37</ele>
        <time>2016-05-01T08:27:23Z</time>
      </trkpt>
      <trkpt lat="43.8141" lon="3.92452">
        <ele>167.41</ele>
        <time>2016-05-01T08:27:24Z</time>
      </trkpt>
      <trkpt lat="43.81421" lon="3.92437">
        <ele>166.93</ele>
        <time>2016-05-01T08:27:25Z</time>
      </trkpt>
      <trkpt lat="43.81432" lon="3.9242">
        <ele>165.48</ele>
        <time>2016-05-01T08:27:26Z</time>
      </trkpt>
      <trkpt lat="43.81441" lon="3.92402">
        <ele>164.04</ele>
        <time>2016-05-01T08:27:27Z</time>
      </trkpt>
      <trkpt lat="43.8145" lon="3.92383">
        <ele>162.12</ele>
        <time>2016-05-01T08:27:28Z</time>
      </trkpt>
      <trkpt lat="43.81458" lon="3.92363">
        <ele>160.68</ele>
        <time>2016-05-01T08:27:29Z</time>
      </trkpt>
      <trkpt lat="43.81465" lon="3.92343">
        <ele>159.72</ele>
        <time>2016-05-01T08:27:30Z</time>
      </trkpt>
      <trkpt lat="43.8147" lon="3.92323">
        <ele>158.27</ele>
        <time>2016-05-01T08:27:31Z</time>
      </trkpt>
      <trkpt lat="43.81488" lon="3.92268">
        <ele>154.91</ele>
        <time>2016-05-01T08:27:34Z</time>
      </trkpt>
      <trkpt lat="43.81497" lon="3.92253">
        <ele>153.47</ele>
        <time>2016-05-01T08:27:35Z</time>
      </trkpt>
      <trkpt lat="43.81508" lon="3.9224">
        <ele>152.03</ele>
        <time>2016-05-01T08:27:36Z</time>
      </trkpt>
      <trkpt lat="43.81523" lon="3.92232">
        <ele>151.06</ele>
        <time>2016-05-01T08:27:37Z</time>
      </trkpt>
      <trkpt lat="43.81539" lon="3.92229">
        <ele>150.1</ele>
        <time>2016-05-01T08:27:38Z</time>
      </trkpt>
      <trkpt lat="43.81554" lon="3.92227">
        <ele>148.18</ele>
        <time>2016-05-01T08:27:39Z</time>
      </trkpt>
      <trkpt lat="43.81572" lon="3.92227">
        <ele>146.74</ele>
        <time>2016-05-01T08:27:40Z</time>
      </trkpt>
      <trkpt lat="43.81589" lon="3.92225">
        <ele>144.82</ele>
        <time>2016-05-01T08:27:41Z</time>
      </trkpt>
      <trkpt lat="43.81743" lon="3.92181">
        <ele>134.24</ele>
        <time>2016-05-01T08:27:49Z</time>
      </trkpt>
      <trkpt lat="43.81936" lon="3.92132">
        <ele>124.15</ele>
        <time>2016-05-01T08:27:58Z</time>
      </trkpt>
      <trkpt lat="43.82048" lon="3.92126">
        <ele>118.38</ele>
        <time>2016-05-01T08:28:05Z</time>
      </trkpt>
      <trkpt lat="43.82158" lon="3.92088">
        <ele>111.65</ele>
        <time>2016-05-01T08:28:13Z</time>
      </trkpt>
      <trkpt lat="43.82221" lon="3.92056">
        <ele>110.69</ele>
        <time>2016-05-01T08:28:17Z</time>
      </trkpt>
      <trkpt lat="43.82237" lon="3.92053">
        <ele>110.69</ele>
        <time>2016-05-01T08:28:18Z</time>
      </trkpt>
      <trkpt lat="43.82253" lon="3.92052">
        <ele>111.17</ele>
        <time>2016-05-01T08:28:19Z</time>
      </trkpt>
      <trkpt lat="43.82425" lon="3.92035">
        <ele>113.09</ele>
        <time>2016-05-01T08:28:29Z</time>
      </trkpt>
      <trkpt lat="43.82641" lon="3.92026">
        <ele>115.98</ele>
        <time>2016-05-01T08:28:39Z</time>
      </trkpt>
      <trkpt lat="43.82748" lon="3.91994">
        <ele>117.9</ele>
        <time>2016-05-01T08:28:45Z</time>
      </trkpt>
      <trkpt lat="43.8276" lon="3.91982">
        <ele>117.42</ele>
        <time>2016-05-01T08:28:46Z</time>
      </trkpt>
      <trkpt lat="43.82771" lon="3.91967">
        <ele>116.94</ele>
        <time>2016-05-01T08:28:47Z</time>
      </trkpt>
      <trkpt lat="43.82777" lon="3.91949">
        <ele>116.94</ele>
        <time>2016-05-01T08:28:48Z</time>
      </trkpt>
      <trkpt lat="43.8278" lon="3.91929">
        <ele>116.94</ele>
        <time>2016-05-01T08:28:49Z</time>
      </trkpt>
      <trkpt lat="43.82786" lon="3.91912">
        <ele>117.42</ele>
        <time>2016-05-01T08:28:50Z</time>
      </trkpt>
      <trkpt lat="43.82793" lon="3.91899">
        <ele>117.42</ele>
        <time>2016-05-01T08:28:51Z</time>
      </trkpt>
      <trkpt lat="43.82804" lon="3.91889">
        <ele>117.9</ele>
        <time>2016-05-01T08:28:52Z</time>
      </trkpt>
      <trkpt lat="43.82816" lon="3.91882">
        <ele>117.9</ele>
        <time>2016-05-01T08:28:53Z</time>
      </trkpt>
      <trkpt lat="43.8283" lon="3.91877">
        <ele>117.9</ele>
        <time>2016-05-01T08:28:54Z</time>
      </trkpt>
      <trkpt lat="43.82843" lon="3.91873">
        <ele>117.9</ele>
        <time>2016-05-01T08:28:55Z</time>
      </trkpt>
      <trkpt lat="43.82856" lon="3.91876">
        <ele>118.38</ele>
        <time>2016-05-01T08:28:56Z</time>
      </trkpt>
      <trkpt lat="43.82868" lon="3.91885">
        <ele>118.38</ele>
        <time>2016-05-01T08:28:57Z</time>
      </trkpt>
      <trkpt lat="43.8288" lon="3.91898">
        <ele>118.86</ele>
        <time>2016-05-01T08:28:58Z</time>
      </trkpt>
      <trkpt lat="43.82891" lon="3.91913">
        <ele>118.38</ele>
        <time>2016-05-01T08:28:59Z</time>
      </trkpt>
      <trkpt lat="43.82903" lon="3.91931">
        <ele>118.38</ele>
        <time>2016-05-01T08:29:00Z</time>
      </trkpt>
      <trkpt lat="43.82915" lon="3.91951">
        <ele>119.34</ele>
        <time>2016-05-01T08:29:01Z</time>
      </trkpt>
      <trkpt lat="43.82969" lon="3.92023">
        <ele>121.26</ele>
        <time>2016-05-01T08:29:05Z</time>
      </trkpt>
      <trkpt lat="43.82985" lon="3.92033">
        <ele>121.74</ele>
        <time>2016-05-01T08:29:06Z</time>
      </trkpt>
      <trkpt lat="43.83002" lon="3.92042">
        <ele>121.74</ele>
        <time>2016-05-01T08:29:07Z</time>
      </trkpt>
      <trkpt lat="43.83125" lon="3.92101">
        <ele>121.26</ele>
        <time>2016-05-01T08:29:14Z</time>
      </trkpt>
      <trkpt lat="43.83141" lon="3.921">
        <ele>120.78</ele>
        <time>2016-05-01T08:29:15Z</time>
      </trkpt>
      <trkpt lat="43.83156" lon="3.92093">
        <ele>120.78</ele>
        <time>2016-05-01T08:29:16Z</time>
      </trkpt>
      <trkpt lat="43.83173" lon="3.92089">
        <ele>120.78</ele>
        <time>2016-05-01T08:29:17Z</time>
      </trkpt>
      <trkpt lat="43.83191" lon="3.92085">
        <ele>120.3</ele>
        <time>2016-05-01T08:29:18Z</time>
      </trkpt>
      <trkpt lat="43.83209" lon="3.92084">
        <ele>120.3</ele>
        <time>2016-05-01T08:29:19Z</time>
      </trkpt>
      <trkpt lat="43.83228" lon="3.92083">
        <ele>120.3</ele>
        <time>2016-05-01T08:29:20Z</time>
      </trkpt>
      <trkpt lat="43.83348" lon="3.92092">
        <ele>120.3</ele>
        <time>2016-05-01T08:29:26Z</time>
      </trkpt>
      <trkpt lat="43.83366" lon="3.92101">
        <ele>120.3</ele>
        <time>2016-05-01T08:29:27Z</time>
      </trkpt>
      <trkpt lat="43.83383" lon="3.92112">
        <ele>120.3</ele>
        <time>2016-05-01T08:29:28Z</time>
      </trkpt>
      <trkpt lat="43.83399" lon="3.92127">
        <ele>120.3</ele>
        <time>2016-05-01T08:29:29Z</time>
      </trkpt>
      <trkpt lat="43.83413" lon="3.92143">
        <ele>120.78</ele>
        <time>2016-05-01T08:29:30Z</time>
      </trkpt>
      <trkpt lat="43.83426" lon="3.92157">
        <ele>120.78</ele>
        <time>2016-05-01T08:29:31Z</time>
      </trkpt>
      <trkpt lat="43.83446" lon="3.92176">
        <ele>120.3</ele>
        <time>2016-05-01T08:29:33Z</time>
      </trkpt>
      <trkpt lat="43.83455" lon="3.92175">
        <ele>119.34</ele>
        <time>2016-05-01T08:29:34Z</time>
      </trkpt>
      <trkpt lat="43.83463" lon="3.92168">
        <ele>118.86</ele>
        <time>2016-05-01T08:29:35Z</time>
      </trkpt>
      <trkpt lat="43.83471" lon="3.92154">
        <ele>118.86</ele>
        <time>2016-05-01T08:29:36Z</time>
      </trkpt>
      <trkpt lat="43.83481" lon="3.92139">
        <ele>119.34</ele>
        <time>2016-05-01T08:29:37Z</time>
      </trkpt>
      <trkpt lat="43.83493" lon="3.92126">
        <ele>118.86</ele>
        <time>2016-05-01T08:29:38Z</time>
      </trkpt>
      <trkpt lat="43.83508" lon="3.92114">
        <ele>118.86</ele>
        <time>2016-05-01T08:29:39Z</time>
      </trkpt>
      <trkpt lat="43.83523" lon="3.92102">
        <ele>119.34</ele>
        <time>2016-05-01T08:29:40Z</time>
      </trkpt>
      <trkpt lat="43.8354" lon="3.92094">
        <ele>119.82</ele>
        <time>2016-05-01T08:29:41Z</time>
      </trkpt>
      <trkpt lat="43.83609" lon="3.92059">
        <ele>121.74</ele>
        <time>2016-05-01T08:29:47Z</time>
      </trkpt>
      <trkpt lat="43.83618" lon="3.92055">
        <ele>121.74</ele>
        <time>2016-05-01T08:29:48Z</time>
      </trkpt>
      <trkpt lat="43.83627" lon="3.92052">
        <ele>122.22</ele>
        <time>2016-05-01T08:29:49Z</time>
      </trkpt>
      <trkpt lat="43.83635" lon="3.92052">
        <ele>122.71</ele>
        <time>2016-05-01T08:29:50Z</time>
      </trkpt>
      <trkpt lat="43.83693" lon="3.92056">
        <ele>123.67</ele>
        <time>2016-05-01T08:29:57Z</time>
      </trkpt>
      <trkpt lat="43.83696" lon="3.92058">
        <ele>123.67</ele>
        <time>2016-05-01T08:29:58Z</time>
      </trkpt>
      <trkpt lat="43.83708" lon="3.92057">
        <ele>123.67</ele>
        <time>2016-05-01T08:30:02Z</time>
      </trkpt>
      <trkpt lat="43.83715" lon="3.92051">
        <ele>123.67</ele>
        <time>2016-05-01T08:30:03Z</time>
      </trkpt>
      <trkpt lat="43.83721" lon="3.92044">
        <ele>124.15</ele>
        <time>2016-05-01T08:30:04Z</time>
      </trkpt>
      <trkpt lat="43.83782" lon="3.91971">
        <ele>125.59</ele>
        <time>2016-05-01T08:30:12Z</time>
      </trkpt>
      <trkpt lat="43.8379" lon="3.91965">
        <ele>125.59</ele>
        <time>2016-05-01T08:30:13Z</time>
      </trkpt>
      <trkpt lat="43.83799" lon="3.91959">
        <ele>126.07</ele>
        <time>2016-05-01T08:30:14Z</time>
      </trkpt>
      <trkpt lat="43.83808" lon="3.91955">
        <ele>126.07</ele>
        <time>2016-05-01T08:30:15Z</time>
      </trkpt>
      <trkpt lat="43.83916" lon="3.91908">
        <ele>131.36</ele>
        <time>2016-05-01T08:30:27Z</time>
      </trkpt>
      <trkpt lat="43.83932" lon="3.919">
        <ele>131.84</ele>
        <time>2016-05-01T08:30:29Z</time>
      </trkpt>
      <trkpt lat="43.83942" lon="3.91897">
        <ele>131.84</ele>
        <time>2016-05-01T08:30:30Z</time>
      </trkpt>
      <trkpt lat="43.84045" lon="3.9189">
        <ele>132.8</ele>
        <time>2016-05-01T08:30:40Z</time>
      </trkpt>
      <trkpt lat="43.84146" lon="3.91865">
        <ele>134.24</ele>
        <time>2016-05-01T08:30:48Z</time>
      </trkpt>
      <trkpt lat="43.84182" lon="3.91848">
        <ele>134.72</ele>
        <time>2016-05-01T08:30:51Z</time>
      </trkpt>
      <trkpt lat="43.8419" lon="3.9184">
        <ele>134.72</ele>
        <time>2016-05-01T08:30:52Z</time>
      </trkpt>
      <trkpt lat="43.84215" lon="3.91815">
        <ele>135.68</ele>
        <time>2016-05-01T08:30:58Z</time>
      </trkpt>
      <trkpt lat="43.84223" lon="3.91813">
        <ele>136.16</ele>
        <time>2016-05-01T08:31:01Z</time>
      </trkpt>
      <trkpt lat="43.84237" lon="3.91809">
        <ele>136.16</ele>
        <time>2016-05-01T08:31:03Z</time>
      </trkpt>
      <trkpt lat="43.84244" lon="3.91802">
        <ele>136.16</ele>
        <time>2016-05-01T08:31:04Z</time>
      </trkpt>
      <trkpt lat="43.84249" lon="3.91792">
        <ele>136.16</ele>
        <time>2016-05-01T08:31:05Z</time>
      </trkpt>
      <trkpt lat="43.8426" lon="3.91766">
        <ele>136.64</ele>
        <time>2016-05-01T08:31:07Z</time>
      </trkpt>
      <trkpt lat="43.84269" lon="3.91755">
        <ele>136.64</ele>
        <time>2016-05-01T08:31:08Z</time>
      </trkpt>
      <trkpt lat="43.84282" lon="3.91745">
        <ele>137.13</ele>
        <time>2016-05-01T08:31:09Z</time>
      </trkpt>
      <trkpt lat="43.84378" lon="3.91659">
        <ele>140.49</ele>
        <time>2016-05-01T08:31:15Z</time>
      </trkpt>
      <trkpt lat="43.84483" lon="3.91539">
        <ele>143.85</ele>
        <time>2016-05-01T08:31:21Z</time>
      </trkpt>
      <trkpt lat="43.84503" lon="3.91524">
        <ele>144.34</ele>
        <time>2016-05-01T08:31:22Z</time>
      </trkpt>
      <trkpt lat="43.84525" lon="3.91512">
        <ele>144.82</ele>
        <time>2016-05-01T08:31:23Z</time>
      </trkpt>
      <trkpt lat="43.84548" lon="3.91504">
        <ele>145.3</ele>
        <time>2016-05-01T08:31:24Z</time>
      </trkpt>
      <trkpt lat="43.84571" lon="3.91497">
        <ele>145.3</ele>
        <time>2016-05-01T08:31:25Z</time>
      </trkpt>
      <trkpt lat="43.84758" lon="3.91411">
        <ele>147.22</ele>
        <time>2016-05-01T08:31:33Z</time>
      </trkpt>
      <trkpt lat="43.85079" lon="3.91202">
        <ele>150.1</ele>
        <time>2016-05-01T08:31:46Z</time>
      </trkpt>
      <trkpt lat="43.85252" lon="3.9109">
        <ele>146.26</ele>
        <time>2016-05-01T08:31:54Z</time>
      </trkpt>
      <trkpt lat="43.85423" lon="3.91016">
        <ele>147.22</ele>
        <time>2016-05-01T08:32:02Z</time>
      </trkpt>
      <trkpt lat="43.85566" lon="3.90968">
        <ele>153.95</ele>
        <time>2016-05-01T08:32:11Z</time>
      </trkpt>
      <trkpt lat="43.85692" lon="3.90928">
        <ele>154.43</ele>
        <time>2016-05-01T08:32:23Z</time>
      </trkpt>
      <trkpt lat="43.85705" lon="3.90926">
        <ele>153.95</ele>
        <time>2016-05-01T08:32:25Z</time>
      </trkpt>
      <trkpt lat="43.85711" lon="3.90927">
        <ele>153.47</ele>
        <time>2016-05-01T08:32:26Z</time>
      </trkpt>
      <trkpt lat="43.85718" lon="3.90927">
        <ele>152.99</ele>
        <time>2016-05-01T08:32:27Z</time>
      </trkpt>
      <trkpt lat="43.85724" lon="3.90924">
        <ele>152.99</ele>
        <time>2016-05-01T08:32:28Z</time>
      </trkpt>
      <trkpt lat="43.85731" lon="3.90918">
        <ele>152.51</ele>
        <time>2016-05-01T08:32:29Z</time>
      </trkpt>
      <trkpt lat="43.8574" lon="3.90911">
        <ele>152.51</ele>
        <time>2016-05-01T08:32:30Z</time>
      </trkpt>
      <trkpt lat="43.85749" lon="3.90906">
        <ele>152.03</ele>
        <time>2016-05-01T08:32:31Z</time>
      </trkpt>
      <trkpt lat="43.85759" lon="3.90902">
        <ele>151.54</ele>
        <time>2016-05-01T08:32:32Z</time>
      </trkpt>
      <trkpt lat="43.85869" lon="3.90877">
        <ele>149.62</ele>
        <time>2016-05-01T08:32:43Z</time>
      </trkpt>
      <trkpt lat="43.85966" lon="3.90825">
        <ele>153.95</ele>
        <time>2016-05-01T08:32:54Z</time>
      </trkpt>
      <trkpt lat="43.86039" lon="3.90766">
        <ele>158.75</ele>
        <time>2016-05-01T08:33:03Z</time>
      </trkpt>
      <trkpt lat="43.86123" lon="3.90698">
        <ele>164.52</ele>
        <time>2016-05-01T08:33:13Z</time>
      </trkpt>
      <trkpt lat="43.86129" lon="3.90688">
        <ele>164.52</ele>
        <time>2016-05-01T08:33:14Z</time>
      </trkpt>
      <trkpt lat="43.86134" lon="3.90676">
        <ele>164.52</ele>
        <time>2016-05-01T08:33:15Z</time>
      </trkpt>
      <trkpt lat="43.86153" lon="3.90621">
        <ele>164.52</ele>
        <time>2016-05-01T08:33:22Z</time>
      </trkpt>
      <trkpt lat="43.86177" lon="3.90545">
        <ele>164.52</ele>
        <time>2016-05-01T08:33:31Z</time>
      </trkpt>
      <trkpt lat="43.86192" lon="3.90492">
        <ele>164.52</ele>
        <time>2016-05-01T08:33:37Z</time>
      </trkpt>
      <trkpt lat="43.86192" lon="3.90483">
        <ele>165</ele>
        <time>2016-05-01T08:33:38Z</time>
      </trkpt>
      <trkpt lat="43.86192" lon="3.90473">
        <ele>165</ele>
        <time>2016-05-01T08:33:39Z</time>
      </trkpt>
      <trkpt lat="43.8619" lon="3.90462">
        <ele>165</ele>
        <time>2016-05-01T08:33:40Z</time>
      </trkpt>
      <trkpt lat="43.86187" lon="3.90452">
        <ele>165</ele>
        <time>2016-05-01T08:33:41Z</time>
      </trkpt>
      <trkpt lat="43.86159" lon="3.9034">
        <ele>165</ele>
        <time>2016-05-01T08:33:51Z</time>
      </trkpt>
      <trkpt lat="43.86151" lon="3.90298">
        <ele>164.04</ele>
        <time>2016-05-01T08:33:54Z</time>
      </trkpt>
      <trkpt lat="43.86149" lon="3.90283">
        <ele>164.04</ele>
        <time>2016-05-01T08:33:55Z</time>
      </trkpt>
      <trkpt lat="43.86149" lon="3.90267">
        <ele>164.52</ele>
        <time>2016-05-01T08:33:56Z</time>
      </trkpt>
      <trkpt lat="43.86158" lon="3.90139">
        <ele>165</ele>
        <time>2016-05-01T08:34:04Z</time>
      </trkpt>
      <trkpt lat="43.86162" lon="3.90124">
        <ele>165.48</ele>
        <time>2016-05-01T08:34:05Z</time>
      </trkpt>
      <trkpt lat="43.86166" lon="3.9011">
        <ele>165.48</ele>
        <time>2016-05-01T08:34:06Z</time>
      </trkpt>
      <trkpt lat="43.86172" lon="3.90096">
        <ele>165.96</ele>
        <time>2016-05-01T08:34:07Z</time>
      </trkpt>
      <trkpt lat="43.86179" lon="3.90082">
        <ele>165.96</ele>
        <time>2016-05-01T08:34:08Z</time>
      </trkpt>
      <trkpt lat="43.86223" lon="3.89981">
        <ele>166.93</ele>
        <time>2016-05-01T08:34:15Z</time>
      </trkpt>
      <trkpt lat="43.86227" lon="3.89967">
        <ele>166.45</ele>
        <time>2016-05-01T08:34:16Z</time>
      </trkpt>
      <trkpt lat="43.8623" lon="3.89953">
        <ele>166.93</ele>
        <time>2016-05-01T08:34:17Z</time>
      </trkpt>
      <trkpt lat="43.86246" lon="3.89858">
        <ele>167.89</ele>
        <time>2016-05-01T08:34:24Z</time>
      </trkpt>
      <trkpt lat="43.86251" lon="3.89842">
        <ele>168.37</ele>
        <time>2016-05-01T08:34:25Z</time>
      </trkpt>
      <trkpt lat="43.86257" lon="3.89826">
        <ele>168.37</ele>
        <time>2016-05-01T08:34:26Z</time>
      </trkpt>
      <trkpt lat="43.86313" lon="3.89702">
        <ele>171.25</ele>
        <time>2016-05-01T08:34:35Z</time>
      </trkpt>
      <trkpt lat="43.8635" lon="3.89618">
        <ele>173.17</ele>
        <time>2016-05-01T08:34:43Z</time>
      </trkpt>
      <trkpt lat="43.86407" lon="3.89489">
        <ele>175.58</ele>
        <time>2016-05-01T08:34:53Z</time>
      </trkpt>
      <trkpt lat="43.8648" lon="3.89288">
        <ele>176.06</ele>
        <time>2016-05-01T08:35:03Z</time>
      </trkpt>
      <trkpt lat="43.8651" lon="3.89216">
        <ele>176.54</ele>
        <time>2016-05-01T08:35:06Z</time>
      </trkpt>
      <trkpt lat="43.86524" lon="3.89193">
        <ele>176.54</ele>
        <time>2016-05-01T08:35:07Z</time>
      </trkpt>
      <trkpt lat="43.8654" lon="3.89172">
        <ele>176.54</ele>
        <time>2016-05-01T08:35:08Z</time>
      </trkpt>
      <trkpt lat="43.86631" lon="3.89052">
        <ele>174.62</ele>
        <time>2016-05-01T08:35:14Z</time>
      </trkpt>
      <trkpt lat="43.86768" lon="3.88778">
        <ele>179.9</ele>
        <time>2016-05-01T08:35:25Z</time>
      </trkpt>
      <trkpt lat="43.8687" lon="3.88552">
        <ele>187.59</ele>
        <time>2016-05-01T08:35:35Z</time>
      </trkpt>
      <trkpt lat="43.86897" lon="3.8849">
        <ele>191.44</ele>
        <time>2016-05-01T08:35:39Z</time>
      </trkpt>
      <trkpt lat="43.86901" lon="3.88474">
        <ele>191.92</ele>
        <time>2016-05-01T08:35:40Z</time>
      </trkpt>
      <trkpt lat="43.86904" lon="3.8846">
        <ele>192.88</ele>
        <time>2016-05-01T08:35:41Z</time>
      </trkpt>
      <trkpt lat="43.86926" lon="3.88334">
        <ele>192.4</ele>
        <time>2016-05-01T08:35:51Z</time>
      </trkpt>
      <trkpt lat="43.86941" lon="3.88198">
        <ele>191.44</ele>
        <time>2016-05-01T08:36:00Z</time>
      </trkpt>
      <trkpt lat="43.86963" lon="3.88014">
        <ele>190.96</ele>
        <time>2016-05-01T08:36:09Z</time>
      </trkpt>
      <trkpt lat="43.8699" lon="3.87784">
        <ele>198.65</ele>
        <time>2016-05-01T08:36:18Z</time>
      </trkpt>
      <trkpt lat="43.86991" lon="3.87736">
        <ele>200.57</ele>
        <time>2016-05-01T08:36:20Z</time>
      </trkpt>
      <trkpt lat="43.86985" lon="3.87717">
        <ele>201.05</ele>
        <time>2016-05-01T08:36:21Z</time>
      </trkpt>
      <trkpt lat="43.86977" lon="3.87698">
        <ele>202.01</ele>
        <time>2016-05-01T08:36:22Z</time>
      </trkpt>
      <trkpt lat="43.8697" lon="3.87677">
        <ele>202.98</ele>
        <time>2016-05-01T08:36:23Z</time>
      </trkpt>
      <trkpt lat="43.86965" lon="3.87654">
        <ele>203.46</ele>
        <time>2016-05-01T08:36:24Z</time>
      </trkpt>
      <trkpt lat="43.86963" lon="3.87628">
        <ele>204.42</ele>
        <time>2016-05-01T08:36:25Z</time>
      </trkpt>
      <trkpt lat="43.86963" lon="3.87601">
        <ele>205.86</ele>
        <time>2016-05-01T08:36:26Z</time>
      </trkpt>
      <trkpt lat="43.86969" lon="3.8736">
        <ele>212.59</ele>
        <time>2016-05-01T08:36:34Z</time>
      </trkpt>
      <trkpt lat="43.86979" lon="3.87309">
        <ele>214.99</ele>
        <time>2016-05-01T08:36:36Z</time>
      </trkpt>
      <trkpt lat="43.86987" lon="3.87285">
        <ele>215.95</ele>
        <time>2016-05-01T08:36:37Z</time>
      </trkpt>
      <trkpt lat="43.86997" lon="3.87264">
        <ele>216.91</ele>
        <time>2016-05-01T08:36:38Z</time>
      </trkpt>
      <trkpt lat="43.87011" lon="3.87244">
        <ele>218.36</ele>
        <time>2016-05-01T08:36:39Z</time>
      </trkpt>
      <trkpt lat="43.87022" lon="3.87223">
        <ele>219.32</ele>
        <time>2016-05-01T08:36:40Z</time>
      </trkpt>
      <trkpt lat="43.87032" lon="3.87201">
        <ele>220.76</ele>
        <time>2016-05-01T08:36:41Z</time>
      </trkpt>
      <trkpt lat="43.8704" lon="3.87178">
        <ele>221.72</ele>
        <time>2016-05-01T08:36:42Z</time>
      </trkpt>
      <trkpt lat="43.87045" lon="3.87153">
        <ele>222.68</ele>
        <time>2016-05-01T08:36:43Z</time>
      </trkpt>
      <trkpt lat="43.87049" lon="3.87128">
        <ele>224.12</ele>
        <time>2016-05-01T08:36:44Z</time>
      </trkpt>
      <trkpt lat="43.87058" lon="3.87034">
        <ele>226.53</ele>
        <time>2016-05-01T08:36:48Z</time>
      </trkpt>
      <trkpt lat="43.87056" lon="3.87014">
        <ele>227.01</ele>
        <time>2016-05-01T08:36:49Z</time>
      </trkpt>
      <trkpt lat="43.8705" lon="3.86995">
        <ele>227.49</ele>
        <time>2016-05-01T08:36:50Z</time>
      </trkpt>
      <trkpt lat="43.87041" lon="3.86979">
        <ele>228.45</ele>
        <time>2016-05-01T08:36:51Z</time>
      </trkpt>
      <trkpt lat="43.87034" lon="3.86963">
        <ele>229.41</ele>
        <time>2016-05-01T08:36:52Z</time>
      </trkpt>
      <trkpt lat="43.87028" lon="3.86947">
        <ele>230.37</ele>
        <time>2016-05-01T08:36:53Z</time>
      </trkpt>
      <trkpt lat="43.87026" lon="3.8693">
        <ele>231.33</ele>
        <time>2016-05-01T08:36:54Z</time>
      </trkpt>
      <trkpt lat="43.87027" lon="3.8691">
        <ele>231.81</ele>
        <time>2016-05-01T08:36:55Z</time>
      </trkpt>
      <trkpt lat="43.8703" lon="3.86889">
        <ele>232.78</ele>
        <time>2016-05-01T08:36:56Z</time>
      </trkpt>
      <trkpt lat="43.87037" lon="3.86867">
        <ele>234.22</ele>
        <time>2016-05-01T08:36:57Z</time>
      </trkpt>
      <trkpt lat="43.87045" lon="3.86846">
        <ele>235.18</ele>
        <time>2016-05-01T08:36:58Z</time>
      </trkpt>
      <trkpt lat="43.87053" lon="3.86825">
        <ele>236.14</ele>
        <time>2016-05-01T08:36:59Z</time>
      </trkpt>
      <trkpt lat="43.87062" lon="3.86806">
        <ele>237.1</ele>
        <time>2016-05-01T08:37:00Z</time>
      </trkpt>
      <trkpt lat="43.87072" lon="3.86787">
        <ele>238.06</ele>
        <time>2016-05-01T08:37:01Z</time>
      </trkpt>
      <trkpt lat="43.87084" lon="3.86771">
        <ele>239.51</ele>
        <time>2016-05-01T08:37:02Z</time>
      </trkpt>
      <trkpt lat="43.87098" lon="3.86757">
        <ele>240.95</ele>
        <time>2016-05-01T08:37:03Z</time>
      </trkpt>
      <trkpt lat="43.87113" lon="3.86747">
        <ele>241.91</ele>
        <time>2016-05-01T08:37:04Z</time>
      </trkpt>
      <trkpt lat="43.87129" lon="3.86737">
        <ele>243.35</ele>
        <time>2016-05-01T08:37:05Z</time>
      </trkpt>
      <trkpt lat="43.87223" lon="3.86666">
        <ele>250.56</ele>
        <time>2016-05-01T08:37:12Z</time>
      </trkpt>
      <trkpt lat="43.87227" lon="3.86656">
        <ele>251.52</ele>
        <time>2016-05-01T08:37:13Z</time>
      </trkpt>
      <trkpt lat="43.87227" lon="3.86645">
        <ele>252</ele>
        <time>2016-05-01T08:37:14Z</time>
      </trkpt>
      <trkpt lat="43.87223" lon="3.86632">
        <ele>253.44</ele>
        <time>2016-05-01T08:37:15Z</time>
      </trkpt>
      <trkpt lat="43.87216" lon="3.86618">
        <ele>254.89</ele>
        <time>2016-05-01T08:37:16Z</time>
      </trkpt>
      <trkpt lat="43.87206" lon="3.866">
        <ele>255.85</ele>
        <time>2016-05-01T08:37:17Z</time>
      </trkpt>
      <trkpt lat="43.87194" lon="3.86581">
        <ele>256.81</ele>
        <time>2016-05-01T08:37:18Z</time>
      </trkpt>
      <trkpt lat="43.87183" lon="3.86562">
        <ele>257.29</ele>
        <time>2016-05-01T08:37:19Z</time>
      </trkpt>
      <trkpt lat="43.87174" lon="3.86542">
        <ele>257.77</ele>
        <time>2016-05-01T08:37:20Z</time>
      </trkpt>
      <trkpt lat="43.87169" lon="3.86523">
        <ele>259.21</ele>
        <time>2016-05-01T08:37:21Z</time>
      </trkpt>
      <trkpt lat="43.87164" lon="3.86488">
        <ele>261.62</ele>
        <time>2016-05-01T08:37:23Z</time>
      </trkpt>
      <trkpt lat="43.87159" lon="3.86464">
        <ele>262.1</ele>
        <time>2016-05-01T08:37:25Z</time>
      </trkpt>
      <trkpt lat="43.87153" lon="3.86458">
        <ele>262.1</ele>
        <time>2016-05-01T08:37:26Z</time>
      </trkpt>
      <trkpt lat="43.87142" lon="3.8646">
        <ele>261.14</ele>
        <time>2016-05-01T08:37:27Z</time>
      </trkpt>
      <trkpt lat="43.8713" lon="3.86465">
        <ele>260.65</ele>
        <time>2016-05-01T08:37:28Z</time>
      </trkpt>
      <trkpt lat="43.87118" lon="3.8647">
        <ele>260.65</ele>
        <time>2016-05-01T08:37:29Z</time>
      </trkpt>
      <trkpt lat="43.87107" lon="3.86475">
        <ele>261.14</ele>
        <time>2016-05-01T08:37:30Z</time>
      </trkpt>
      <trkpt lat="43.87093" lon="3.86475">
        <ele>262.1</ele>
        <time>2016-05-01T08:37:31Z</time>
      </trkpt>
      <trkpt lat="43.87079" lon="3.86473">
        <ele>262.58</ele>
        <time>2016-05-01T08:37:32Z</time>
      </trkpt>
      <trkpt lat="43.87064" lon="3.86465">
        <ele>263.54</ele>
        <time>2016-05-01T08:37:33Z</time>
      </trkpt>
      <trkpt lat="43.87051" lon="3.86453">
        <ele>264.5</ele>
        <time>2016-05-01T08:37:34Z</time>
      </trkpt>
      <trkpt lat="43.87041" lon="3.86437">
        <ele>265.94</ele>
        <time>2016-05-01T08:37:35Z</time>
      </trkpt>
      <trkpt lat="43.87032" lon="3.86419">
        <ele>267.38</ele>
        <time>2016-05-01T08:37:36Z</time>
      </trkpt>
      <trkpt lat="43.87025" lon="3.86396">
        <ele>266.42</ele>
        <time>2016-05-01T08:37:37Z</time>
      </trkpt>
      <trkpt lat="43.8702" lon="3.86372">
        <ele>266.9</ele>
        <time>2016-05-01T08:37:38Z</time>
      </trkpt>
      <trkpt lat="43.87016" lon="3.86347">
        <ele>267.38</ele>
        <time>2016-05-01T08:37:39Z</time>
      </trkpt>
      <trkpt lat="43.87013" lon="3.8632">
        <ele>268.35</ele>
        <time>2016-05-01T08:37:40Z</time>
      </trkpt>
      <trkpt lat="43.86994" lon="3.86148">
        <ele>277.48</ele>
        <time>2016-05-01T08:37:47Z</time>
      </trkpt>
      <trkpt lat="43.86984" lon="3.86119">
        <ele>279.4</ele>
        <time>2016-05-01T08:37:49Z</time>
      </trkpt>
      <trkpt lat="43.86979" lon="3.8611">
        <ele>280.84</ele>
        <time>2016-05-01T08:37:50Z</time>
      </trkpt>
      <trkpt lat="43.86975" lon="3.86104">
        <ele>281.32</ele>
        <time>2016-05-01T08:37:51Z</time>
      </trkpt>
      <trkpt lat="43.86975" lon="3.86097">
        <ele>282.28</ele>
        <time>2016-05-01T08:37:52Z</time>
      </trkpt>
      <trkpt lat="43.86979" lon="3.86092">
        <ele>282.77</ele>
        <time>2016-05-01T08:37:53Z</time>
      </trkpt>
      <trkpt lat="43.86984" lon="3.86092">
        <ele>283.25</ele>
        <time>2016-05-01T08:37:54Z</time>
      </trkpt>
      <trkpt lat="43.86991" lon="3.86098">
        <ele>283.73</ele>
        <time>2016-05-01T08:37:55Z</time>
      </trkpt>
      <trkpt lat="43.86997" lon="3.8611">
        <ele>284.69</ele>
        <time>2016-05-01T08:37:56Z</time>
      </trkpt>
      <trkpt lat="43.87002" lon="3.86126">
        <ele>285.65</ele>
        <time>2016-05-01T08:37:57Z</time>
      </trkpt>
      <trkpt lat="43.87008" lon="3.86145">
        <ele>286.61</ele>
        <time>2016-05-01T08:37:58Z</time>
      </trkpt>
      <trkpt lat="43.87015" lon="3.86167">
        <ele>288.05</ele>
        <time>2016-05-01T08:37:59Z</time>
      </trkpt>
      <trkpt lat="43.87065" lon="3.86321">
        <ele>296.7</ele>
        <time>2016-05-01T08:38:05Z</time>
      </trkpt>
      <trkpt lat="43.87088" lon="3.86373">
        <ele>301.51</ele>
        <time>2016-05-01T08:38:09Z</time>
      </trkpt>
      <trkpt lat="43.87096" lon="3.86371">
        <ele>301.99</ele>
        <time>2016-05-01T08:38:10Z</time>
      </trkpt>
      <trkpt lat="43.87105" lon="3.86364">
        <ele>302.95</ele>
        <time>2016-05-01T08:38:11Z</time>
      </trkpt>
      <trkpt lat="43.87114" lon="3.86351">
        <ele>303.43</ele>
        <time>2016-05-01T08:38:12Z</time>
      </trkpt>
      <trkpt lat="43.87123" lon="3.86337">
        <ele>304.39</ele>
        <time>2016-05-01T08:38:13Z</time>
      </trkpt>
      <trkpt lat="43.87135" lon="3.86325">
        <ele>305.36</ele>
        <time>2016-05-01T08:38:14Z</time>
      </trkpt>
      <trkpt lat="43.8715" lon="3.86317">
        <ele>306.32</ele>
        <time>2016-05-01T08:38:15Z</time>
      </trkpt>
      <trkpt lat="43.87167" lon="3.86315">
        <ele>307.76</ele>
        <time>2016-05-01T08:38:16Z</time>
      </trkpt>
      <trkpt lat="43.87181" lon="3.8632">
        <ele>308.24</ele>
        <time>2016-05-01T08:38:17Z</time>
      </trkpt>
      <trkpt lat="43.87194" lon="3.86332">
        <ele>308.72</ele>
        <time>2016-05-01T08:38:18Z</time>
      </trkpt>
      <trkpt lat="43.87206" lon="3.86346">
        <ele>310.16</ele>
        <time>2016-05-01T08:38:19Z</time>
      </trkpt>
      <trkpt lat="43.87218" lon="3.8636">
        <ele>311.12</ele>
        <time>2016-05-01T08:38:20Z</time>
      </trkpt>
      <trkpt lat="43.8724" lon="3.86379">
        <ele>312.57</ele>
        <time>2016-05-01T08:38:22Z</time>
      </trkpt>
      <trkpt lat="43.8725" lon="3.86379">
        <ele>313.05</ele>
        <time>2016-05-01T08:38:23Z</time>
      </trkpt>
      <trkpt lat="43.87262" lon="3.86372">
        <ele>314.01</ele>
        <time>2016-05-01T08:38:24Z</time>
      </trkpt>
      <trkpt lat="43.87274" lon="3.86364">
        <ele>314.97</ele>
        <time>2016-05-01T08:38:25Z</time>
      </trkpt>
      <trkpt lat="43.87286" lon="3.86356">
        <ele>315.93</ele>
        <time>2016-05-01T08:38:26Z</time>
      </trkpt>
      <trkpt lat="43.87362" lon="3.86321">
        <ele>320.74</ele>
        <time>2016-05-01T08:38:32Z</time>
      </trkpt>
      <trkpt lat="43.87506" lon="3.86281">
        <ele>327.95</ele>
        <time>2016-05-01T08:38:40Z</time>
      </trkpt>
      <trkpt lat="43.87522" lon="3.86274">
        <ele>328.91</ele>
        <time>2016-05-01T08:38:41Z</time>
      </trkpt>
      <trkpt lat="43.87538" lon="3.86265">
        <ele>329.39</ele>
        <time>2016-05-01T08:38:42Z</time>
      </trkpt>
      <trkpt lat="43.87554" lon="3.86254">
        <ele>330.35</ele>
        <time>2016-05-01T08:38:43Z</time>
      </trkpt>
      <trkpt lat="43.87652" lon="3.86171">
        <ele>335.16</ele>
        <time>2016-05-01T08:38:50Z</time>
      </trkpt>
      <trkpt lat="43.87661" lon="3.86159">
        <ele>335.64</ele>
        <time>2016-05-01T08:38:51Z</time>
      </trkpt>
      <trkpt lat="43.87666" lon="3.86143">
        <ele>336.6</ele>
        <time>2016-05-01T08:38:52Z</time>
      </trkpt>
      <trkpt lat="43.87668" lon="3.86126">
        <ele>337.08</ele>
        <time>2016-05-01T08:38:53Z</time>
      </trkpt>
      <trkpt lat="43.87669" lon="3.86108">
        <ele>336.6</ele>
        <time>2016-05-01T08:38:54Z</time>
      </trkpt>
      <trkpt lat="43.8767" lon="3.86092">
        <ele>335.64</ele>
        <time>2016-05-01T08:38:55Z</time>
      </trkpt>
      <trkpt lat="43.87672" lon="3.86069">
        <ele>334.68</ele>
        <time>2016-05-01T08:38:57Z</time>
      </trkpt>
      <trkpt lat="43.87674" lon="3.86063">
        <ele>334.2</ele>
        <time>2016-05-01T08:38:58Z</time>
      </trkpt>
      <trkpt lat="43.87678" lon="3.86062">
        <ele>334.68</ele>
        <time>2016-05-01T08:38:59Z</time>
      </trkpt>
      <trkpt lat="43.87681" lon="3.86068">
        <ele>334.2</ele>
        <time>2016-05-01T08:39:00Z</time>
      </trkpt>
      <trkpt lat="43.87682" lon="3.86077">
        <ele>333.23</ele>
        <time>2016-05-01T08:39:01Z</time>
      </trkpt>
      <trkpt lat="43.87681" lon="3.8609">
        <ele>333.23</ele>
        <time>2016-05-01T08:39:02Z</time>
      </trkpt>
      <trkpt lat="43.87679" lon="3.86107">
        <ele>332.75</ele>
        <time>2016-05-01T08:39:03Z</time>
      </trkpt>
      <trkpt lat="43.87679" lon="3.86127">
        <ele>331.79</ele>
        <time>2016-05-01T08:39:04Z</time>
      </trkpt>
      <trkpt lat="43.87681" lon="3.86148">
        <ele>330.35</ele>
        <time>2016-05-01T08:39:05Z</time>
      </trkpt>
      <trkpt lat="43.87685" lon="3.8617">
        <ele>329.39</ele>
        <time>2016-05-01T08:39:06Z</time>
      </trkpt>
      <trkpt lat="43.87689" lon="3.86193">
        <ele>328.43</ele>
        <time>2016-05-01T08:39:07Z</time>
      </trkpt>
      <trkpt lat="43.87726" lon="3.86376">
        <ele>319.3</ele>
        <time>2016-05-01T08:39:15Z</time>
      </trkpt>
      <trkpt lat="43.87731" lon="3.86547">
        <ele>311.12</ele>
        <time>2016-05-01T08:39:23Z</time>
      </trkpt>
      <trkpt lat="43.87729" lon="3.86569">
        <ele>309.68</ele>
        <time>2016-05-01T08:39:25Z</time>
      </trkpt>
      <trkpt lat="43.8773" lon="3.86576">
        <ele>308.72</ele>
        <time>2016-05-01T08:39:26Z</time>
      </trkpt>
      <trkpt lat="43.87733" lon="3.86576">
        <ele>308.24</ele>
        <time>2016-05-01T08:39:27Z</time>
      </trkpt>
      <trkpt lat="43.87739" lon="3.86571">
        <ele>307.28</ele>
        <time>2016-05-01T08:39:28Z</time>
      </trkpt>
      <trkpt lat="43.87742" lon="3.86561">
        <ele>306.32</ele>
        <time>2016-05-01T08:39:29Z</time>
      </trkpt>
      <trkpt lat="43.87744" lon="3.86545">
        <ele>305.36</ele>
        <time>2016-05-01T08:39:30Z</time>
      </trkpt>
      <trkpt lat="43.87745" lon="3.86526">
        <ele>304.39</ele>
        <time>2016-05-01T08:39:31Z</time>
      </trkpt>
      <trkpt lat="43.87746" lon="3.86505">
        <ele>303.91</ele>
        <time>2016-05-01T08:39:32Z</time>
      </trkpt>
      <trkpt lat="43.87763" lon="3.86345">
        <ele>298.15</ele>
        <time>2016-05-01T08:39:39Z</time>
      </trkpt>
      <trkpt lat="43.87769" lon="3.86215">
        <ele>292.86</ele>
        <time>2016-05-01T08:39:46Z</time>
      </trkpt>
      <trkpt lat="43.87769" lon="3.86095">
        <ele>289.01</ele>
        <time>2016-05-01T08:39:51Z</time>
      </trkpt>
      <trkpt lat="43.87779" lon="3.85952">
        <ele>284.21</ele>
        <time>2016-05-01T08:39:57Z</time>
      </trkpt>
      <trkpt lat="43.87784" lon="3.8593">
        <ele>283.73</ele>
        <time>2016-05-01T08:39:58Z</time>
      </trkpt>
      <trkpt lat="43.87792" lon="3.85911">
        <ele>283.25</ele>
        <time>2016-05-01T08:39:59Z</time>
      </trkpt>
      <trkpt lat="43.87828" lon="3.85752">
        <ele>277.96</ele>
        <time>2016-05-01T08:40:06Z</time>
      </trkpt>
      <trkpt lat="43.87827" lon="3.85687">
        <ele>276.04</ele>
        <time>2016-05-01T08:40:09Z</time>
      </trkpt>
      <trkpt lat="43.87824" lon="3.85665">
        <ele>275.56</ele>
        <time>2016-05-01T08:40:10Z</time>
      </trkpt>
      <trkpt lat="43.8782" lon="3.85645">
        <ele>274.59</ele>
        <time>2016-05-01T08:40:11Z</time>
      </trkpt>
      <trkpt lat="43.87815" lon="3.85625">
        <ele>274.11</ele>
        <time>2016-05-01T08:40:12Z</time>
      </trkpt>
      <trkpt lat="43.87808" lon="3.85605">
        <ele>273.15</ele>
        <time>2016-05-01T08:40:13Z</time>
      </trkpt>
      <trkpt lat="43.878" lon="3.85586">
        <ele>272.19</ele>
        <time>2016-05-01T08:40:14Z</time>
      </trkpt>
      <trkpt lat="43.87789" lon="3.85569">
        <ele>270.75</ele>
        <time>2016-05-01T08:40:15Z</time>
      </trkpt>
      <trkpt lat="43.87776" lon="3.85553">
        <ele>269.79</ele>
        <time>2016-05-01T08:40:16Z</time>
      </trkpt>
      <trkpt lat="43.87762" lon="3.8554">
        <ele>268.83</ele>
        <time>2016-05-01T08:40:17Z</time>
      </trkpt>
      <trkpt lat="43.87747" lon="3.85531">
        <ele>267.38</ele>
        <time>2016-05-01T08:40:18Z</time>
      </trkpt>
      <trkpt lat="43.87732" lon="3.85526">
        <ele>266.42</ele>
        <time>2016-05-01T08:40:19Z</time>
      </trkpt>
      <trkpt lat="43.87717" lon="3.85521">
        <ele>265.94</ele>
        <time>2016-05-01T08:40:20Z</time>
      </trkpt>
      <trkpt lat="43.87676" lon="3.85514">
        <ele>263.54</ele>
        <time>2016-05-01T08:40:24Z</time>
      </trkpt>
      <trkpt lat="43.87673" lon="3.8551">
        <ele>263.06</ele>
        <time>2016-05-01T08:40:25Z</time>
      </trkpt>
      <trkpt lat="43.87674" lon="3.85504">
        <ele>262.58</ele>
        <time>2016-05-01T08:40:26Z</time>
      </trkpt>
      <trkpt lat="43.87697" lon="3.85507">
        <ele>261.62</ele>
        <time>2016-05-01T08:40:29Z</time>
      </trkpt>
      <trkpt lat="43.8771" lon="3.8551">
        <ele>261.14</ele>
        <time>2016-05-01T08:40:30Z</time>
      </trkpt>
      <trkpt lat="43.87781" lon="3.85531">
        <ele>257.77</ele>
        <time>2016-05-01T08:40:34Z</time>
      </trkpt>
      <trkpt lat="43.87797" lon="3.85542">
        <ele>256.33</ele>
        <time>2016-05-01T08:40:35Z</time>
      </trkpt>
      <trkpt lat="43.87812" lon="3.85555">
        <ele>253.93</ele>
        <time>2016-05-01T08:40:36Z</time>
      </trkpt>
      <trkpt lat="43.87825" lon="3.8557">
        <ele>252.48</ele>
        <time>2016-05-01T08:40:37Z</time>
      </trkpt>
      <trkpt lat="43.87837" lon="3.85587">
        <ele>251.52</ele>
        <time>2016-05-01T08:40:38Z</time>
      </trkpt>
      <trkpt lat="43.87848" lon="3.85606">
        <ele>250.08</ele>
        <time>2016-05-01T08:40:39Z</time>
      </trkpt>
      <trkpt lat="43.87937" lon="3.85768">
        <ele>241.43</ele>
        <time>2016-05-01T08:40:47Z</time>
      </trkpt>
      <trkpt lat="43.87944" lon="3.85792">
        <ele>240.47</ele>
        <time>2016-05-01T08:40:48Z</time>
      </trkpt>
      <trkpt lat="43.87948" lon="3.85816">
        <ele>239.51</ele>
        <time>2016-05-01T08:40:49Z</time>
      </trkpt>
      <trkpt lat="43.87986" lon="3.8599">
        <ele>231.81</ele>
        <time>2016-05-01T08:40:56Z</time>
      </trkpt>
      <trkpt lat="43.87999" lon="3.86026">
        <ele>229.89</ele>
        <time>2016-05-01T08:40:59Z</time>
      </trkpt>
      <trkpt lat="43.88006" lon="3.86028">
        <ele>229.41</ele>
        <time>2016-05-01T08:41:00Z</time>
      </trkpt>
      <trkpt lat="43.88013" lon="3.86022">
        <ele>228.45</ele>
        <time>2016-05-01T08:41:01Z</time>
      </trkpt>
      <trkpt lat="43.8802" lon="3.8601">
        <ele>227.49</ele>
        <time>2016-05-01T08:41:02Z</time>
      </trkpt>
      <trkpt lat="43.88026" lon="3.85992">
        <ele>227.01</ele>
        <time>2016-05-01T08:41:03Z</time>
      </trkpt>
      <trkpt lat="43.88031" lon="3.85971">
        <ele>226.53</ele>
        <time>2016-05-01T08:41:04Z</time>
      </trkpt>
      <trkpt lat="43.88036" lon="3.85947">
        <ele>225.57</ele>
        <time>2016-05-01T08:41:05Z</time>
      </trkpt>
      <trkpt lat="43.88041" lon="3.85922">
        <ele>224.61</ele>
        <time>2016-05-01T08:41:06Z</time>
      </trkpt>
      <trkpt lat="43.88078" lon="3.85681">
        <ele>214.03</ele>
        <time>2016-05-01T08:41:16Z</time>
      </trkpt>
      <trkpt lat="43.88087" lon="3.85625">
        <ele>210.67</ele>
        <time>2016-05-01T08:41:19Z</time>
      </trkpt>
      <trkpt lat="43.88094" lon="3.85612">
        <ele>209.7</ele>
        <time>2016-05-01T08:41:20Z</time>
      </trkpt>
      <trkpt lat="43.88104" lon="3.85604">
        <ele>208.74</ele>
        <time>2016-05-01T08:41:21Z</time>
      </trkpt>
      <trkpt lat="43.88117" lon="3.856">
        <ele>207.78</ele>
        <time>2016-05-01T08:41:22Z</time>
      </trkpt>
      <trkpt lat="43.88132" lon="3.85598">
        <ele>206.34</ele>
        <time>2016-05-01T08:41:23Z</time>
      </trkpt>
      <trkpt lat="43.88151" lon="3.85599">
        <ele>205.38</ele>
        <time>2016-05-01T08:41:24Z</time>
      </trkpt>
      <trkpt lat="43.88172" lon="3.85601">
        <ele>204.42</ele>
        <time>2016-05-01T08:41:25Z</time>
      </trkpt>
      <trkpt lat="43.88396" lon="3.85609">
        <ele>197.21</ele>
        <time>2016-05-01T08:41:35Z</time>
      </trkpt>
      <trkpt lat="43.88631" lon="3.85616">
        <ele>195.28</ele>
        <time>2016-05-01T08:41:46Z</time>
      </trkpt>
      <trkpt lat="43.88887" lon="3.85623">
        <ele>190</ele>
        <time>2016-05-01T08:41:58Z</time>
      </trkpt>
      <trkpt lat="43.89035" lon="3.85628">
        <ele>186.63</ele>
        <time>2016-05-01T08:42:07Z</time>
      </trkpt>
      <trkpt lat="43.89132" lon="3.85631">
        <ele>183.75</ele>
        <time>2016-05-01T08:42:16Z</time>
      </trkpt>
      <trkpt lat="43.89238" lon="3.85634">
        <ele>183.27</ele>
        <time>2016-05-01T08:42:27Z</time>
      </trkpt>
      <trkpt lat="43.8934" lon="3.85638">
        <ele>188.56</ele>
        <time>2016-05-01T08:42:38Z</time>
      </trkpt>
      <trkpt lat="43.89341" lon="3.85638">
        <ele>190.48</ele>
        <time>2016-05-01T08:42:44Z</time>
      </trkpt>
      <trkpt lat="43.89356" lon="3.85637">
        <ele>191.92</ele>
        <time>2016-05-01T08:42:53Z</time>
      </trkpt>
      <trkpt lat="43.89379" lon="3.85638">
        <ele>192.4</ele>
        <time>2016-05-01T08:42:56Z</time>
      </trkpt>
      <trkpt lat="43.89386" lon="3.85637">
        <ele>191.92</ele>
        <time>2016-05-01T08:42:57Z</time>
      </trkpt>
      <trkpt lat="43.89393" lon="3.85638">
        <ele>191.92</ele>
        <time>2016-05-01T08:42:58Z</time>
      </trkpt>
      <trkpt lat="43.89399" lon="3.85638">
        <ele>192.88</ele>
        <time>2016-05-01T08:42:59Z</time>
      </trkpt>
      <trkpt lat="43.89406" lon="3.85638">
        <ele>194.32</ele>
        <time>2016-05-01T08:43:00Z</time>
      </trkpt>
      <trkpt lat="43.89497" lon="3.85658">
        <ele>200.09</ele>
        <time>2016-05-01T08:43:11Z</time>
      </trkpt>
      <trkpt lat="43.89543" lon="3.85662">
        <ele>198.17</ele>
        <time>2016-05-01T08:43:16Z</time>
      </trkpt>
      <trkpt lat="43.89553" lon="3.85659">
        <ele>196.73</ele>
        <time>2016-05-01T08:43:17Z</time>
      </trkpt>
      <trkpt lat="43.89655" lon="3.85616">
        <ele>191.44</ele>
        <time>2016-05-01T08:43:26Z</time>
      </trkpt>
      <trkpt lat="43.89755" lon="3.85565">
        <ele>188.56</ele>
        <time>2016-05-01T08:43:35Z</time>
      </trkpt>
      <trkpt lat="43.89834" lon="3.8552">
        <ele>187.59</ele>
        <time>2016-05-01T08:43:42Z</time>
      </trkpt>
      <trkpt lat="43.89956" lon="3.85456">
        <ele>186.63</ele>
        <time>2016-05-01T08:43:49Z</time>
      </trkpt>
      <trkpt lat="43.90022" lon="3.85424">
        <ele>187.11</ele>
        <time>2016-05-01T08:43:53Z</time>
      </trkpt>
      <trkpt lat="43.90039" lon="3.85424">
        <ele>187.11</ele>
        <time>2016-05-01T08:43:54Z</time>
      </trkpt>
      <trkpt lat="43.90058" lon="3.85427">
        <ele>186.63</ele>
        <time>2016-05-01T08:43:55Z</time>
      </trkpt>
      <trkpt lat="43.90076" lon="3.85433">
        <ele>186.15</ele>
        <time>2016-05-01T08:43:56Z</time>
      </trkpt>
      <trkpt lat="43.90095" lon="3.85442">
        <ele>185.67</ele>
        <time>2016-05-01T08:43:57Z</time>
      </trkpt>
      <trkpt lat="43.90114" lon="3.85454">
        <ele>185.19</ele>
        <time>2016-05-01T08:43:58Z</time>
      </trkpt>
      <trkpt lat="43.90249" lon="3.8555">
        <ele>179.9</ele>
        <time>2016-05-01T08:44:04Z</time>
      </trkpt>
      <trkpt lat="43.90423" lon="3.85664">
        <ele>175.1</ele>
        <time>2016-05-01T08:44:12Z</time>
      </trkpt>
      <trkpt lat="43.90506" lon="3.8574">
        <ele>173.66</ele>
        <time>2016-05-01T08:44:17Z</time>
      </trkpt>
      <trkpt lat="43.90523" lon="3.85748">
        <ele>173.17</ele>
        <time>2016-05-01T08:44:18Z</time>
      </trkpt>
      <trkpt lat="43.90542" lon="3.8575">
        <ele>172.69</ele>
        <time>2016-05-01T08:44:19Z</time>
      </trkpt>
      <trkpt lat="43.90562" lon="3.85747">
        <ele>172.69</ele>
        <time>2016-05-01T08:44:20Z</time>
      </trkpt>
      <trkpt lat="43.90583" lon="3.85742">
        <ele>172.21</ele>
        <time>2016-05-01T08:44:21Z</time>
      </trkpt>
      <trkpt lat="43.90834" lon="3.85712">
        <ele>171.73</ele>
        <time>2016-05-01T08:44:33Z</time>
      </trkpt>
      <trkpt lat="43.90855" lon="3.85716">
        <ele>171.73</ele>
        <time>2016-05-01T08:44:34Z</time>
      </trkpt>
      <trkpt lat="43.90877" lon="3.85723">
        <ele>171.73</ele>
        <time>2016-05-01T08:44:35Z</time>
      </trkpt>
      <trkpt lat="43.90898" lon="3.85732">
        <ele>172.21</ele>
        <time>2016-05-01T08:44:36Z</time>
      </trkpt>
      <trkpt lat="43.90957" lon="3.85763">
        <ele>172.21</ele>
        <time>2016-05-01T08:44:39Z</time>
      </trkpt>
      <trkpt lat="43.90977" lon="3.85766">
        <ele>172.21</ele>
        <time>2016-05-01T08:44:40Z</time>
      </trkpt>
      <trkpt lat="43.90997" lon="3.8576">
        <ele>172.69</ele>
        <time>2016-05-01T08:44:41Z</time>
      </trkpt>
      <trkpt lat="43.91019" lon="3.85751">
        <ele>173.66</ele>
        <time>2016-05-01T08:44:42Z</time>
      </trkpt>
      <trkpt lat="43.91041" lon="3.85739">
        <ele>174.62</ele>
        <time>2016-05-01T08:44:43Z</time>
      </trkpt>
      <trkpt lat="43.91278" lon="3.85592">
        <ele>186.15</ele>
        <time>2016-05-01T08:44:54Z</time>
      </trkpt>
      <trkpt lat="43.91521" lon="3.85348">
        <ele>201.05</ele>
        <time>2016-05-01T08:45:06Z</time>
      </trkpt>
      <trkpt lat="43.91653" lon="3.85154">
        <ele>205.38</ele>
        <time>2016-05-01T08:45:14Z</time>
      </trkpt>
      <trkpt lat="43.91672" lon="3.85137">
        <ele>205.86</ele>
        <time>2016-05-01T08:45:15Z</time>
      </trkpt>
      <trkpt lat="43.91691" lon="3.85122">
        <ele>206.82</ele>
        <time>2016-05-01T08:45:16Z</time>
      </trkpt>
      <trkpt lat="43.9189" lon="3.84977">
        <ele>214.51</ele>
        <time>2016-05-01T08:45:25Z</time>
      </trkpt>
      <trkpt lat="43.91977" lon="3.84931">
        <ele>217.88</ele>
        <time>2016-05-01T08:45:29Z</time>
      </trkpt>
      <trkpt lat="43.92" lon="3.84925">
        <ele>218.84</ele>
        <time>2016-05-01T08:45:30Z</time>
      </trkpt>
      <trkpt lat="43.92226" lon="3.84898">
        <ele>227.97</ele>
        <time>2016-05-01T08:45:39Z</time>
      </trkpt>
      <trkpt lat="43.92252" lon="3.84903">
        <ele>228.93</ele>
        <time>2016-05-01T08:45:40Z</time>
      </trkpt>
      <trkpt lat="43.92278" lon="3.84908">
        <ele>229.89</ele>
        <time>2016-05-01T08:45:41Z</time>
      </trkpt>
      <trkpt lat="43.92302" lon="3.84915">
        <ele>230.85</ele>
        <time>2016-05-01T08:45:42Z</time>
      </trkpt>
      <trkpt lat="43.92592" lon="3.85012">
        <ele>237.1</ele>
        <time>2016-05-01T08:45:54Z</time>
      </trkpt>
      <trkpt lat="43.92687" lon="3.85043">
        <ele>237.1</ele>
        <time>2016-05-01T08:45:59Z</time>
      </trkpt>
      <trkpt lat="43.92702" lon="3.85041">
        <ele>236.62</ele>
        <time>2016-05-01T08:46:00Z</time>
      </trkpt>
      <trkpt lat="43.92718" lon="3.85037">
        <ele>235.66</ele>
        <time>2016-05-01T08:46:01Z</time>
      </trkpt>
      <trkpt lat="43.92748" lon="3.85032">
        <ele>234.22</ele>
        <time>2016-05-01T08:46:03Z</time>
      </trkpt>
      <trkpt lat="43.92763" lon="3.85036">
        <ele>233.74</ele>
        <time>2016-05-01T08:46:04Z</time>
      </trkpt>
      <trkpt lat="43.9278" lon="3.85043">
        <ele>232.78</ele>
        <time>2016-05-01T08:46:05Z</time>
      </trkpt>
      <trkpt lat="43.92797" lon="3.85051">
        <ele>231.33</ele>
        <time>2016-05-01T08:46:06Z</time>
      </trkpt>
      <trkpt lat="43.92814" lon="3.85063">
        <ele>230.37</ele>
        <time>2016-05-01T08:46:07Z</time>
      </trkpt>
      <trkpt lat="43.92829" lon="3.8508">
        <ele>229.41</ele>
        <time>2016-05-01T08:46:08Z</time>
      </trkpt>
      <trkpt lat="43.92842" lon="3.85099">
        <ele>227.97</ele>
        <time>2016-05-01T08:46:09Z</time>
      </trkpt>
      <trkpt lat="43.92852" lon="3.8512">
        <ele>226.05</ele>
        <time>2016-05-01T08:46:10Z</time>
      </trkpt>
      <trkpt lat="43.92861" lon="3.85143">
        <ele>225.09</ele>
        <time>2016-05-01T08:46:11Z</time>
      </trkpt>
      <trkpt lat="43.92869" lon="3.85166">
        <ele>223.64</ele>
        <time>2016-05-01T08:46:12Z</time>
      </trkpt>
      <trkpt lat="43.92876" lon="3.8519">
        <ele>222.68</ele>
        <time>2016-05-01T08:46:13Z</time>
      </trkpt>
      <trkpt lat="43.92881" lon="3.85211">
        <ele>221.24</ele>
        <time>2016-05-01T08:46:14Z</time>
      </trkpt>
      <trkpt lat="43.92893" lon="3.85263">
        <ele>218.84</ele>
        <time>2016-05-01T08:46:17Z</time>
      </trkpt>
      <trkpt lat="43.929" lon="3.85272">
        <ele>217.88</ele>
        <time>2016-05-01T08:46:18Z</time>
      </trkpt>
      <trkpt lat="43.92908" lon="3.85276">
        <ele>216.91</ele>
        <time>2016-05-01T08:46:19Z</time>
      </trkpt>
      <trkpt lat="43.92919" lon="3.85272">
        <ele>215.95</ele>
        <time>2016-05-01T08:46:20Z</time>
      </trkpt>
      <trkpt lat="43.9293" lon="3.8526">
        <ele>214.51</ele>
        <time>2016-05-01T08:46:21Z</time>
      </trkpt>
      <trkpt lat="43.92942" lon="3.85243">
        <ele>213.55</ele>
        <time>2016-05-01T08:46:22Z</time>
      </trkpt>
      <trkpt lat="43.92953" lon="3.85225">
        <ele>212.59</ele>
        <time>2016-05-01T08:46:23Z</time>
      </trkpt>
      <trkpt lat="43.92965" lon="3.85206">
        <ele>211.15</ele>
        <time>2016-05-01T08:46:24Z</time>
      </trkpt>
      <trkpt lat="43.92978" lon="3.85188">
        <ele>209.7</ele>
        <time>2016-05-01T08:46:25Z</time>
      </trkpt>
      <trkpt lat="43.93023" lon="3.85129">
        <ele>205.86</ele>
        <time>2016-05-01T08:46:29Z</time>
      </trkpt>
      <trkpt lat="43.93035" lon="3.8512">
        <ele>204.9</ele>
        <time>2016-05-01T08:46:30Z</time>
      </trkpt>
      <trkpt lat="43.93049" lon="3.85117">
        <ele>204.42</ele>
        <time>2016-05-01T08:46:31Z</time>
      </trkpt>
      <trkpt lat="43.93065" lon="3.8512">
        <ele>203.94</ele>
        <time>2016-05-01T08:46:32Z</time>
      </trkpt>
      <trkpt lat="43.93082" lon="3.85126">
        <ele>202.98</ele>
        <time>2016-05-01T08:46:33Z</time>
      </trkpt>
      <trkpt lat="43.93099" lon="3.85133">
        <ele>202.49</ele>
        <time>2016-05-01T08:46:34Z</time>
      </trkpt>
      <trkpt lat="43.93167" lon="3.8516">
        <ele>199.61</ele>
        <time>2016-05-01T08:46:38Z</time>
      </trkpt>
      <trkpt lat="43.93184" lon="3.85158">
        <ele>198.65</ele>
        <time>2016-05-01T08:46:39Z</time>
      </trkpt>
      <trkpt lat="43.93201" lon="3.85151">
        <ele>197.69</ele>
        <time>2016-05-01T08:46:40Z</time>
      </trkpt>
      <trkpt lat="43.93218" lon="3.8514">
        <ele>196.73</ele>
        <time>2016-05-01T08:46:41Z</time>
      </trkpt>
      <trkpt lat="43.93236" lon="3.85126">
        <ele>195.77</ele>
        <time>2016-05-01T08:46:42Z</time>
      </trkpt>
      <trkpt lat="43.93255" lon="3.85112">
        <ele>194.32</ele>
        <time>2016-05-01T08:46:43Z</time>
      </trkpt>
      <trkpt lat="43.93379" lon="3.8504">
        <ele>190.96</ele>
        <time>2016-05-01T08:46:49Z</time>
      </trkpt>
      <trkpt lat="43.93403" lon="3.85037">
        <ele>190.96</ele>
        <time>2016-05-01T08:46:50Z</time>
      </trkpt>
      <trkpt lat="43.93427" lon="3.85036">
        <ele>191.44</ele>
        <time>2016-05-01T08:46:51Z</time>
      </trkpt>
      <trkpt lat="43.93451" lon="3.85037">
        <ele>191.92</ele>
        <time>2016-05-01T08:46:52Z</time>
      </trkpt>
      <trkpt lat="43.93475" lon="3.8504">
        <ele>191.92</ele>
        <time>2016-05-01T08:46:53Z</time>
      </trkpt>
      <trkpt lat="43.93694" lon="3.85076">
        <ele>187.11</ele>
        <time>2016-05-01T08:47:03Z</time>
      </trkpt>
      <trkpt lat="43.93715" lon="3.85086">
        <ele>186.15</ele>
        <time>2016-05-01T08:47:04Z</time>
      </trkpt>
      <trkpt lat="43.93818" lon="3.85153">
        <ele>183.27</ele>
        <time>2016-05-01T08:47:09Z</time>
      </trkpt>
      <trkpt lat="43.93837" lon="3.85172">
        <ele>182.79</ele>
        <time>2016-05-01T08:47:10Z</time>
      </trkpt>
      <trkpt lat="43.94007" lon="3.85337">
        <ele>177.98</ele>
        <time>2016-05-01T08:47:19Z</time>
      </trkpt>
      <trkpt lat="43.94027" lon="3.85345">
        <ele>177.5</ele>
        <time>2016-05-01T08:47:20Z</time>
      </trkpt>
      <trkpt lat="43.94047" lon="3.85348">
        <ele>177.5</ele>
        <time>2016-05-01T08:47:21Z</time>
      </trkpt>
      <trkpt lat="43.94067" lon="3.8535">
        <ele>177.5</ele>
        <time>2016-05-01T08:47:22Z</time>
      </trkpt>
      <trkpt lat="43.94088" lon="3.85352">
        <ele>177.02</ele>
        <time>2016-05-01T08:47:23Z</time>
      </trkpt>
      <trkpt lat="43.94108" lon="3.85357">
        <ele>177.02</ele>
        <time>2016-05-01T08:47:24Z</time>
      </trkpt>
      <trkpt lat="43.94129" lon="3.85365">
        <ele>176.54</ele>
        <time>2016-05-01T08:47:25Z</time>
      </trkpt>
      <trkpt lat="43.94149" lon="3.85377">
        <ele>176.06</ele>
        <time>2016-05-01T08:47:26Z</time>
      </trkpt>
      <trkpt lat="43.94171" lon="3.8539">
        <ele>176.06</ele>
        <time>2016-05-01T08:47:27Z</time>
      </trkpt>
      <trkpt lat="43.94355" lon="3.85513">
        <ele>176.06</ele>
        <time>2016-05-01T08:47:35Z</time>
      </trkpt>
      <trkpt lat="43.94646" lon="3.85786">
        <ele>173.66</ele>
        <time>2016-05-01T08:47:48Z</time>
      </trkpt>
      <trkpt lat="43.94914" lon="3.86037">
        <ele>170.29</ele>
        <time>2016-05-01T08:48:01Z</time>
      </trkpt>
      <trkpt lat="43.95032" lon="3.86115">
        <ele>169.81</ele>
        <time>2016-05-01T08:48:07Z</time>
      </trkpt>
      <trkpt lat="43.95051" lon="3.86123">
        <ele>169.81</ele>
        <time>2016-05-01T08:48:08Z</time>
      </trkpt>
      <trkpt lat="43.95073" lon="3.86124">
        <ele>169.81</ele>
        <time>2016-05-01T08:48:09Z</time>
      </trkpt>
      <trkpt lat="43.95096" lon="3.86122">
        <ele>169.81</ele>
        <time>2016-05-01T08:48:10Z</time>
      </trkpt>
      <trkpt lat="43.9512" lon="3.86119">
        <ele>169.33</ele>
        <time>2016-05-01T08:48:11Z</time>
      </trkpt>
      <trkpt lat="43.95144" lon="3.86115">
        <ele>169.33</ele>
        <time>2016-05-01T08:48:12Z</time>
      </trkpt>
      <trkpt lat="43.95261" lon="3.86099">
        <ele>168.85</ele>
        <time>2016-05-01T08:48:18Z</time>
      </trkpt>
      <trkpt lat="43.95363" lon="3.86088">
        <ele>168.85</ele>
        <time>2016-05-01T08:48:26Z</time>
      </trkpt>
      <trkpt lat="43.95398" lon="3.86086">
        <ele>169.33</ele>
        <time>2016-05-01T08:48:30Z</time>
      </trkpt>
      <trkpt lat="43.95431" lon="3.86093">
        <ele>169.81</ele>
        <time>2016-05-01T08:48:34Z</time>
      </trkpt>
      <trkpt lat="43.95441" lon="3.86092">
        <ele>169.81</ele>
        <time>2016-05-01T08:48:35Z</time>
      </trkpt>
      <trkpt lat="43.95451" lon="3.86084">
        <ele>169.81</ele>
        <time>2016-05-01T08:48:36Z</time>
      </trkpt>
      <trkpt lat="43.9546" lon="3.86074">
        <ele>170.29</ele>
        <time>2016-05-01T08:48:37Z</time>
      </trkpt>
      <trkpt lat="43.95469" lon="3.86064">
        <ele>170.29</ele>
        <time>2016-05-01T08:48:38Z</time>
      </trkpt>
      <trkpt lat="43.95566" lon="3.85981">
        <ele>171.73</ele>
        <time>2016-05-01T08:48:47Z</time>
      </trkpt>
      <trkpt lat="43.95698" lon="3.85875">
        <ele>172.21</ele>
        <time>2016-05-01T08:48:59Z</time>
      </trkpt>
      <trkpt lat="43.95707" lon="3.85876">
        <ele>171.73</ele>
        <time>2016-05-01T08:49:00Z</time>
      </trkpt>
      <trkpt lat="43.95715" lon="3.8588">
        <ele>171.25</ele>
        <time>2016-05-01T08:49:01Z</time>
      </trkpt>
      <trkpt lat="43.95723" lon="3.85887">
        <ele>170.77</ele>
        <time>2016-05-01T08:49:02Z</time>
      </trkpt>
      <trkpt lat="43.95731" lon="3.85897">
        <ele>169.33</ele>
        <time>2016-05-01T08:49:03Z</time>
      </trkpt>
      <trkpt lat="43.95739" lon="3.85907">
        <ele>168.37</ele>
        <time>2016-05-01T08:49:04Z</time>
      </trkpt>
      <trkpt lat="43.95801" lon="3.8598">
        <ele>163.56</ele>
        <time>2016-05-01T08:49:12Z</time>
      </trkpt>
      <trkpt lat="43.95806" lon="3.8599">
        <ele>163.08</ele>
        <time>2016-05-01T08:49:13Z</time>
      </trkpt>
      <trkpt lat="43.95809" lon="3.86003">
        <ele>163.08</ele>
        <time>2016-05-01T08:49:14Z</time>
      </trkpt>
      <trkpt lat="43.95808" lon="3.86017">
        <ele>162.12</ele>
        <time>2016-05-01T08:49:15Z</time>
      </trkpt>
      <trkpt lat="43.95805" lon="3.86029">
        <ele>162.12</ele>
        <time>2016-05-01T08:49:16Z</time>
      </trkpt>
      <trkpt lat="43.95803" lon="3.8604">
        <ele>161.64</ele>
        <time>2016-05-01T08:49:17Z</time>
      </trkpt>
      <trkpt lat="43.95803" lon="3.86053">
        <ele>161.16</ele>
        <time>2016-05-01T08:49:18Z</time>
      </trkpt>
      <trkpt lat="43.95804" lon="3.86066">
        <ele>160.68</ele>
        <time>2016-05-01T08:49:19Z</time>
      </trkpt>
      <trkpt lat="43.95804" lon="3.8608">
        <ele>160.68</ele>
        <time>2016-05-01T08:49:20Z</time>
      </trkpt>
      <trkpt lat="43.95805" lon="3.86093">
        <ele>160.68</ele>
        <time>2016-05-01T08:49:21Z</time>
      </trkpt>
      <trkpt lat="43.95807" lon="3.86106">
        <ele>160.68</ele>
        <time>2016-05-01T08:49:22Z</time>
      </trkpt>
      <trkpt lat="43.95812" lon="3.86114">
        <ele>160.2</ele>
        <time>2016-05-01T08:49:23Z</time>
      </trkpt>
      <trkpt lat="43.9582" lon="3.86117">
        <ele>160.2</ele>
        <time>2016-05-01T08:49:24Z</time>
      </trkpt>
      <trkpt lat="43.95829" lon="3.86114">
        <ele>159.72</ele>
        <time>2016-05-01T08:49:25Z</time>
      </trkpt>
      <trkpt lat="43.95838" lon="3.86107">
        <ele>159.24</ele>
        <time>2016-05-01T08:49:26Z</time>
      </trkpt>
      <trkpt lat="43.95846" lon="3.86096">
        <ele>158.75</ele>
        <time>2016-05-01T08:49:27Z</time>
      </trkpt>
      <trkpt lat="43.95855" lon="3.86085">
        <ele>158.75</ele>
        <time>2016-05-01T08:49:28Z</time>
      </trkpt>
      <trkpt lat="43.95865" lon="3.86073">
        <ele>158.75</ele>
        <time>2016-05-01T08:49:29Z</time>
      </trkpt>
      <trkpt lat="43.95876" lon="3.86061">
        <ele>158.75</ele>
        <time>2016-05-01T08:49:30Z</time>
      </trkpt>
      <trkpt lat="43.95972" lon="3.8594">
        <ele>160.2</ele>
        <time>2016-05-01T08:49:40Z</time>
      </trkpt>
      <trkpt lat="43.96083" lon="3.85802">
        <ele>162.6</ele>
        <time>2016-05-01T08:49:55Z</time>
      </trkpt>
      <trkpt lat="43.9619" lon="3.85674">
        <ele>164.52</ele>
        <time>2016-05-01T08:50:17Z</time>
      </trkpt>
      <trkpt lat="43.96195" lon="3.85673">
        <ele>164.04</ele>
        <time>2016-05-01T08:50:18Z</time>
      </trkpt>
      <trkpt lat="43.96201" lon="3.85671">
        <ele>163.56</ele>
        <time>2016-05-01T08:50:19Z</time>
      </trkpt>
      <trkpt lat="43.96206" lon="3.85665">
        <ele>164.04</ele>
        <time>2016-05-01T08:50:20Z</time>
      </trkpt>
      <trkpt lat="43.9621" lon="3.85657">
        <ele>164.52</ele>
        <time>2016-05-01T08:50:21Z</time>
      </trkpt>
      <trkpt lat="43.96213" lon="3.85648">
        <ele>164.52</ele>
        <time>2016-05-01T08:50:22Z</time>
      </trkpt>
      <trkpt lat="43.9622" lon="3.85633">
        <ele>165</ele>
        <time>2016-05-01T08:50:24Z</time>
      </trkpt>
      <trkpt lat="43.96224" lon="3.85626">
        <ele>165</ele>
        <time>2016-05-01T08:50:25Z</time>
      </trkpt>
      <trkpt lat="43.96273" lon="3.85564">
        <ele>166.93</ele>
        <time>2016-05-01T08:50:36Z</time>
      </trkpt>
      <trkpt lat="43.96328" lon="3.85495">
        <ele>170.29</ele>
        <time>2016-05-01T08:50:47Z</time>
      </trkpt>
      <trkpt lat="43.9635" lon="3.85467">
        <ele>170.77</ele>
        <time>2016-05-01T08:50:54Z</time>
      </trkpt>
      <trkpt lat="43.96397" lon="3.85411">
        <ele>174.14</ele>
        <time>2016-05-01T08:51:04Z</time>
      </trkpt>
      <trkpt lat="43.96449" lon="3.85341">
        <ele>176.54</ele>
        <time>2016-05-01T08:51:14Z</time>
      </trkpt>
      <trkpt lat="43.96456" lon="3.85338">
        <ele>176.54</ele>
        <time>2016-05-01T08:51:15Z</time>
      </trkpt>
      <trkpt lat="43.96464" lon="3.8534">
        <ele>177.02</ele>
        <time>2016-05-01T08:51:16Z</time>
      </trkpt>
      <trkpt lat="43.96473" lon="3.85345">
        <ele>177.02</ele>
        <time>2016-05-01T08:51:17Z</time>
      </trkpt>
      <trkpt lat="43.96482" lon="3.85352">
        <ele>177.02</ele>
        <time>2016-05-01T08:51:18Z</time>
      </trkpt>
      <trkpt lat="43.9649" lon="3.85358">
        <ele>176.54</ele>
        <time>2016-05-01T08:51:19Z</time>
      </trkpt>
      <trkpt lat="43.96545" lon="3.85394">
        <ele>176.06</ele>
        <time>2016-05-01T08:51:26Z</time>
      </trkpt>
      <trkpt lat="43.9655" lon="3.854">
        <ele>176.06</ele>
        <time>2016-05-01T08:51:27Z</time>
      </trkpt>
      <trkpt lat="43.96553" lon="3.85409">
        <ele>175.58</ele>
        <time>2016-05-01T08:51:28Z</time>
      </trkpt>
      <trkpt lat="43.96554" lon="3.85419">
        <ele>175.58</ele>
        <time>2016-05-01T08:51:29Z</time>
      </trkpt>
      <trkpt lat="43.96554" lon="3.85431">
        <ele>175.58</ele>
        <time>2016-05-01T08:51:30Z</time>
      </trkpt>
      <trkpt lat="43.96552" lon="3.85442">
        <ele>175.1</ele>
        <time>2016-05-01T08:51:31Z</time>
      </trkpt>
      <trkpt lat="43.96548" lon="3.85514">
        <ele>172.69</ele>
        <time>2016-05-01T08:51:40Z</time>
      </trkpt>
      <trkpt lat="43.96553" lon="3.85521">
        <ele>172.21</ele>
        <time>2016-05-01T08:51:43Z</time>
      </trkpt>
      <trkpt lat="43.96557" lon="3.85522">
        <ele>172.69</ele>
        <time>2016-05-01T08:51:44Z</time>
      </trkpt>
      <trkpt lat="43.96565" lon="3.85523">
        <ele>173.17</ele>
        <time>2016-05-01T08:51:45Z</time>
      </trkpt>
      <trkpt lat="43.96658" lon="3.85524">
        <ele>176.54</ele>
        <time>2016-05-01T08:51:54Z</time>
      </trkpt>
      <trkpt lat="43.96772" lon="3.85524">
        <ele>179.9</ele>
        <time>2016-05-01T08:52:05Z</time>
      </trkpt>
      <trkpt lat="43.96871" lon="3.85512">
        <ele>177.5</ele>
        <time>2016-05-01T08:52:14Z</time>
      </trkpt>
      <trkpt lat="43.96895" lon="3.85493">
        <ele>177.02</ele>
        <time>2016-05-01T08:52:16Z</time>
      </trkpt>
      <trkpt lat="43.96906" lon="3.85483">
        <ele>177.5</ele>
        <time>2016-05-01T08:52:17Z</time>
      </trkpt>
      <trkpt lat="43.97009" lon="3.85399">
        <ele>182.79</ele>
        <time>2016-05-01T08:52:27Z</time>
      </trkpt>
      <trkpt lat="43.9702" lon="3.854">
        <ele>183.75</ele>
        <time>2016-05-01T08:52:28Z</time>
      </trkpt>
      <trkpt lat="43.97031" lon="3.85405">
        <ele>183.27</ele>
        <time>2016-05-01T08:52:29Z</time>
      </trkpt>
      <trkpt lat="43.97043" lon="3.85412">
        <ele>183.27</ele>
        <time>2016-05-01T08:52:30Z</time>
      </trkpt>
      <trkpt lat="43.97055" lon="3.85417">
        <ele>182.79</ele>
        <time>2016-05-01T08:52:31Z</time>
      </trkpt>
      <trkpt lat="43.97069" lon="3.85416">
        <ele>183.27</ele>
        <time>2016-05-01T08:52:32Z</time>
      </trkpt>
      <trkpt lat="43.97082" lon="3.85408">
        <ele>182.79</ele>
        <time>2016-05-01T08:52:33Z</time>
      </trkpt>
      <trkpt lat="43.97095" lon="3.85395">
        <ele>182.79</ele>
        <time>2016-05-01T08:52:34Z</time>
      </trkpt>
      <trkpt lat="43.97107" lon="3.85382">
        <ele>182.31</ele>
        <time>2016-05-01T08:52:35Z</time>
      </trkpt>
      <trkpt lat="43.97119" lon="3.85365">
        <ele>181.35</ele>
        <time>2016-05-01T08:52:36Z</time>
      </trkpt>
      <trkpt lat="43.97129" lon="3.85347">
        <ele>181.83</ele>
        <time>2016-05-01T08:52:37Z</time>
      </trkpt>
      <trkpt lat="43.9714" lon="3.85328">
        <ele>181.83</ele>
        <time>2016-05-01T08:52:38Z</time>
      </trkpt>
      <trkpt lat="43.97275" lon="3.85147">
        <ele>183.27</ele>
        <time>2016-05-01T08:52:49Z</time>
      </trkpt>
      <trkpt lat="43.97293" lon="3.85137">
        <ele>183.75</ele>
        <time>2016-05-01T08:52:50Z</time>
      </trkpt>
      <trkpt lat="43.97312" lon="3.85131">
        <ele>184.23</ele>
        <time>2016-05-01T08:52:51Z</time>
      </trkpt>
      <trkpt lat="43.97331" lon="3.85131">
        <ele>184.71</ele>
        <time>2016-05-01T08:52:52Z</time>
      </trkpt>
      <trkpt lat="43.97351" lon="3.85139">
        <ele>184.23</ele>
        <time>2016-05-01T08:52:53Z</time>
      </trkpt>
      <trkpt lat="43.97369" lon="3.85147">
        <ele>184.23</ele>
        <time>2016-05-01T08:52:54Z</time>
      </trkpt>
      <trkpt lat="43.97387" lon="3.85157">
        <ele>184.23</ele>
        <time>2016-05-01T08:52:55Z</time>
      </trkpt>
      <trkpt lat="43.97405" lon="3.85165">
        <ele>184.23</ele>
        <time>2016-05-01T08:52:56Z</time>
      </trkpt>
      <trkpt lat="43.97425" lon="3.85165">
        <ele>184.23</ele>
        <time>2016-05-01T08:52:57Z</time>
      </trkpt>
      <trkpt lat="43.97444" lon="3.85159">
        <ele>183.75</ele>
        <time>2016-05-01T08:52:58Z</time>
      </trkpt>
      <trkpt lat="43.97465" lon="3.85147">
        <ele>183.27</ele>
        <time>2016-05-01T08:52:59Z</time>
      </trkpt>
      <trkpt lat="43.97483" lon="3.85133">
        <ele>184.23</ele>
        <time>2016-05-01T08:53:00Z</time>
      </trkpt>
      <trkpt lat="43.975" lon="3.85118">
        <ele>184.71</ele>
        <time>2016-05-01T08:53:01Z</time>
      </trkpt>
      <trkpt lat="43.97516" lon="3.85106">
        <ele>184.23</ele>
        <time>2016-05-01T08:53:02Z</time>
      </trkpt>
      <trkpt lat="43.97562" lon="3.85099">
        <ele>186.15</ele>
        <time>2016-05-01T08:53:05Z</time>
      </trkpt>
      <trkpt lat="43.97577" lon="3.851">
        <ele>186.15</ele>
        <time>2016-05-01T08:53:06Z</time>
      </trkpt>
      <trkpt lat="43.97592" lon="3.85093">
        <ele>186.63</ele>
        <time>2016-05-01T08:53:07Z</time>
      </trkpt>
      <trkpt lat="43.97608" lon="3.85081">
        <ele>186.63</ele>
        <time>2016-05-01T08:53:08Z</time>
      </trkpt>
      <trkpt lat="43.97624" lon="3.8507">
        <ele>186.63</ele>
        <time>2016-05-01T08:53:09Z</time>
      </trkpt>
      <trkpt lat="43.97642" lon="3.85063">
        <ele>187.59</ele>
        <time>2016-05-01T08:53:10Z</time>
      </trkpt>
      <trkpt lat="43.97661" lon="3.85062">
        <ele>189.04</ele>
        <time>2016-05-01T08:53:11Z</time>
      </trkpt>
      <trkpt lat="43.9768" lon="3.85063">
        <ele>190</ele>
        <time>2016-05-01T08:53:12Z</time>
      </trkpt>
      <trkpt lat="43.97701" lon="3.85064">
        <ele>190.48</ele>
        <time>2016-05-01T08:53:13Z</time>
      </trkpt>
      <trkpt lat="43.97721" lon="3.85062">
        <ele>192.4</ele>
        <time>2016-05-01T08:53:14Z</time>
      </trkpt>
      <trkpt lat="43.97742" lon="3.85057">
        <ele>193.36</ele>
        <time>2016-05-01T08:53:15Z</time>
      </trkpt>
      <trkpt lat="43.97764" lon="3.85048">
        <ele>194.32</ele>
        <time>2016-05-01T08:53:16Z</time>
      </trkpt>
      <trkpt lat="43.97785" lon="3.85039">
        <ele>195.77</ele>
        <time>2016-05-01T08:53:17Z</time>
      </trkpt>
      <trkpt lat="43.97934" lon="3.85006">
        <ele>203.46</ele>
        <time>2016-05-01T08:53:24Z</time>
      </trkpt>
      <trkpt lat="43.97951" lon="3.85012">
        <ele>204.42</ele>
        <time>2016-05-01T08:53:25Z</time>
      </trkpt>
      <trkpt lat="43.97968" lon="3.85026">
        <ele>203.46</ele>
        <time>2016-05-01T08:53:26Z</time>
      </trkpt>
      <trkpt lat="43.97985" lon="3.85037">
        <ele>204.9</ele>
        <time>2016-05-01T08:53:27Z</time>
      </trkpt>
      <trkpt lat="43.98004" lon="3.85056">
        <ele>203.94</ele>
        <time>2016-05-01T08:53:28Z</time>
      </trkpt>
      <trkpt lat="43.98026" lon="3.85074">
        <ele>204.42</ele>
        <time>2016-05-01T08:53:29Z</time>
      </trkpt>
      <trkpt lat="43.98147" lon="3.85155">
        <ele>208.26</ele>
        <time>2016-05-01T08:53:35Z</time>
      </trkpt>
      <trkpt lat="43.9817" lon="3.85157">
        <ele>208.26</ele>
        <time>2016-05-01T08:53:36Z</time>
      </trkpt>
      <trkpt lat="43.98191" lon="3.85159">
        <ele>208.74</ele>
        <time>2016-05-01T08:53:37Z</time>
      </trkpt>
      <trkpt lat="43.9821" lon="3.85163">
        <ele>209.22</ele>
        <time>2016-05-01T08:53:38Z</time>
      </trkpt>
      <trkpt lat="43.98227" lon="3.85175">
        <ele>209.22</ele>
        <time>2016-05-01T08:53:39Z</time>
      </trkpt>
      <trkpt lat="43.9824" lon="3.85194">
        <ele>209.22</ele>
        <time>2016-05-01T08:53:40Z</time>
      </trkpt>
      <trkpt lat="43.98253" lon="3.85214">
        <ele>209.7</ele>
        <time>2016-05-01T08:53:41Z</time>
      </trkpt>
      <trkpt lat="43.98264" lon="3.85234">
        <ele>209.7</ele>
        <time>2016-05-01T08:53:42Z</time>
      </trkpt>
      <trkpt lat="43.98275" lon="3.85253">
        <ele>210.19</ele>
        <time>2016-05-01T08:53:43Z</time>
      </trkpt>
      <trkpt lat="43.98289" lon="3.85266">
        <ele>209.7</ele>
        <time>2016-05-01T08:53:44Z</time>
      </trkpt>
      <trkpt lat="43.98306" lon="3.85273">
        <ele>209.7</ele>
        <time>2016-05-01T08:53:45Z</time>
      </trkpt>
      <trkpt lat="43.98324" lon="3.85279">
        <ele>209.22</ele>
        <time>2016-05-01T08:53:46Z</time>
      </trkpt>
      <trkpt lat="43.98344" lon="3.85283">
        <ele>209.22</ele>
        <time>2016-05-01T08:53:47Z</time>
      </trkpt>
      <trkpt lat="43.98364" lon="3.85284">
        <ele>209.22</ele>
        <time>2016-05-01T08:53:48Z</time>
      </trkpt>
      <trkpt lat="43.98383" lon="3.85282">
        <ele>208.74</ele>
        <time>2016-05-01T08:53:49Z</time>
      </trkpt>
      <trkpt lat="43.98402" lon="3.85279">
        <ele>208.26</ele>
        <time>2016-05-01T08:53:50Z</time>
      </trkpt>
      <trkpt lat="43.98421" lon="3.85271">
        <ele>207.3</ele>
        <time>2016-05-01T08:53:51Z</time>
      </trkpt>
      <trkpt lat="43.98438" lon="3.85259">
        <ele>207.3</ele>
        <time>2016-05-01T08:53:52Z</time>
      </trkpt>
      <trkpt lat="43.98453" lon="3.85245">
        <ele>208.74</ele>
        <time>2016-05-01T08:53:53Z</time>
      </trkpt>
      <trkpt lat="43.98469" lon="3.85235">
        <ele>209.22</ele>
        <time>2016-05-01T08:53:54Z</time>
      </trkpt>
      <trkpt lat="43.98485" lon="3.85231">
        <ele>209.22</ele>
        <time>2016-05-01T08:53:55Z</time>
      </trkpt>
      <trkpt lat="43.98504" lon="3.85232">
        <ele>209.7</ele>
        <time>2016-05-01T08:53:56Z</time>
      </trkpt>
      <trkpt lat="43.98524" lon="3.85236">
        <ele>209.7</ele>
        <time>2016-05-01T08:53:57Z</time>
      </trkpt>
      <trkpt lat="43.98546" lon="3.85243">
        <ele>209.22</ele>
        <time>2016-05-01T08:53:58Z</time>
      </trkpt>
      <trkpt lat="43.98569" lon="3.85251">
        <ele>210.19</ele>
        <time>2016-05-01T08:53:59Z</time>
      </trkpt>
      <trkpt lat="43.98768" lon="3.85306">
        <ele>220.28</ele>
        <time>2016-05-01T08:54:08Z</time>
      </trkpt>
      <trkpt lat="43.98789" lon="3.85306">
        <ele>220.76</ele>
        <time>2016-05-01T08:54:09Z</time>
      </trkpt>
      <trkpt lat="43.98811" lon="3.85303">
        <ele>220.76</ele>
        <time>2016-05-01T08:54:10Z</time>
      </trkpt>
      <trkpt lat="43.98921" lon="3.85267">
        <ele>219.8</ele>
        <time>2016-05-01T08:54:15Z</time>
      </trkpt>
      <trkpt lat="43.98941" lon="3.8525">
        <ele>219.32</ele>
        <time>2016-05-01T08:54:16Z</time>
      </trkpt>
      <trkpt lat="43.98959" lon="3.85228">
        <ele>219.32</ele>
        <time>2016-05-01T08:54:17Z</time>
      </trkpt>
      <trkpt lat="43.98998" lon="3.85186">
        <ele>220.28</ele>
        <time>2016-05-01T08:54:19Z</time>
      </trkpt>
      <trkpt lat="43.9902" lon="3.85169">
        <ele>220.76</ele>
        <time>2016-05-01T08:54:20Z</time>
      </trkpt>
      <trkpt lat="43.99043" lon="3.85154">
        <ele>221.72</ele>
        <time>2016-05-01T08:54:21Z</time>
      </trkpt>
      <trkpt lat="43.99158" lon="3.85068">
        <ele>224.61</ele>
        <time>2016-05-01T08:54:27Z</time>
      </trkpt>
      <trkpt lat="43.99174" lon="3.85063">
        <ele>225.57</ele>
        <time>2016-05-01T08:54:28Z</time>
      </trkpt>
      <trkpt lat="43.99191" lon="3.85063">
        <ele>226.53</ele>
        <time>2016-05-01T08:54:29Z</time>
      </trkpt>
      <trkpt lat="43.9921" lon="3.85064">
        <ele>227.01</ele>
        <time>2016-05-01T08:54:30Z</time>
      </trkpt>
      <trkpt lat="43.9923" lon="3.8507">
        <ele>227.49</ele>
        <time>2016-05-01T08:54:31Z</time>
      </trkpt>
      <trkpt lat="43.99251" lon="3.85077">
        <ele>227.49</ele>
        <time>2016-05-01T08:54:32Z</time>
      </trkpt>
      <trkpt lat="43.99272" lon="3.85085">
        <ele>227.97</ele>
        <time>2016-05-01T08:54:33Z</time>
      </trkpt>
      <trkpt lat="43.99441" lon="3.85116">
        <ele>230.85</ele>
        <time>2016-05-01T08:54:40Z</time>
      </trkpt>
      <trkpt lat="43.99558" lon="3.85133">
        <ele>232.78</ele>
        <time>2016-05-01T08:54:45Z</time>
      </trkpt>
      <trkpt lat="43.9958" lon="3.85131">
        <ele>233.26</ele>
        <time>2016-05-01T08:54:46Z</time>
      </trkpt>
      <trkpt lat="43.99753" lon="3.85151">
        <ele>234.7</ele>
        <time>2016-05-01T08:54:54Z</time>
      </trkpt>
      <trkpt lat="43.99892" lon="3.85127">
        <ele>232.3</ele>
        <time>2016-05-01T08:55:01Z</time>
      </trkpt>
      <trkpt lat="43.99979" lon="3.851">
        <ele>234.22</ele>
        <time>2016-05-01T08:55:06Z</time>
      </trkpt>
      <trkpt lat="43.99996" lon="3.85106">
        <ele>234.7</ele>
        <time>2016-05-01T08:55:07Z</time>
      </trkpt>
      <trkpt lat="44.00013" lon="3.85119">
        <ele>234.7</ele>
        <time>2016-05-01T08:55:08Z</time>
      </trkpt>
      <trkpt lat="44.00026" lon="3.85136">
        <ele>235.18</ele>
        <time>2016-05-01T08:55:09Z</time>
      </trkpt>
      <trkpt lat="44.00039" lon="3.85155">
        <ele>236.14</ele>
        <time>2016-05-01T08:55:10Z</time>
      </trkpt>
      <trkpt lat="44.00047" lon="3.85176">
        <ele>237.1</ele>
        <time>2016-05-01T08:55:11Z</time>
      </trkpt>
      <trkpt lat="44.00053" lon="3.852">
        <ele>239.02</ele>
        <time>2016-05-01T08:55:12Z</time>
      </trkpt>
      <trkpt lat="44.00057" lon="3.85224">
        <ele>240.95</ele>
        <time>2016-05-01T08:55:13Z</time>
      </trkpt>
      <trkpt lat="44.00064" lon="3.85248">
        <ele>241.91</ele>
        <time>2016-05-01T08:55:14Z</time>
      </trkpt>
      <trkpt lat="44.00071" lon="3.85272">
        <ele>241.43</ele>
        <time>2016-05-01T08:55:15Z</time>
      </trkpt>
      <trkpt lat="44.00097" lon="3.85349">
        <ele>243.35</ele>
        <time>2016-05-01T08:55:19Z</time>
      </trkpt>
      <trkpt lat="44.00109" lon="3.85358">
        <ele>243.83</ele>
        <time>2016-05-01T08:55:20Z</time>
      </trkpt>
      <trkpt lat="44.00123" lon="3.85365">
        <ele>243.83</ele>
        <time>2016-05-01T08:55:21Z</time>
      </trkpt>
      <trkpt lat="44.00142" lon="3.8537">
        <ele>244.31</ele>
        <time>2016-05-01T08:55:22Z</time>
      </trkpt>
      <trkpt lat="44.00161" lon="3.85375">
        <ele>245.27</ele>
        <time>2016-05-01T08:55:23Z</time>
      </trkpt>
      <trkpt lat="44.0018" lon="3.8538">
        <ele>245.75</ele>
        <time>2016-05-01T08:55:24Z</time>
      </trkpt>
      <trkpt lat="44.00228" lon="3.85396">
        <ele>247.2</ele>
        <time>2016-05-01T08:55:27Z</time>
      </trkpt>
      <trkpt lat="44.00242" lon="3.85407">
        <ele>248.16</ele>
        <time>2016-05-01T08:55:28Z</time>
      </trkpt>
      <trkpt lat="44.00256" lon="3.85422">
        <ele>248.64</ele>
        <time>2016-05-01T08:55:29Z</time>
      </trkpt>
      <trkpt lat="44.0027" lon="3.85439">
        <ele>249.12</ele>
        <time>2016-05-01T08:55:30Z</time>
      </trkpt>
      <trkpt lat="44.00285" lon="3.85455">
        <ele>250.08</ele>
        <time>2016-05-01T08:55:31Z</time>
      </trkpt>
      <trkpt lat="44.00313" lon="3.85481">
        <ele>252</ele>
        <time>2016-05-01T08:55:33Z</time>
      </trkpt>
      <trkpt lat="44.00327" lon="3.85489">
        <ele>253.44</ele>
        <time>2016-05-01T08:55:34Z</time>
      </trkpt>
      <trkpt lat="44.00344" lon="3.8549">
        <ele>253.44</ele>
        <time>2016-05-01T08:55:35Z</time>
      </trkpt>
      <trkpt lat="44.00361" lon="3.8549">
        <ele>253.93</ele>
        <time>2016-05-01T08:55:36Z</time>
      </trkpt>
      <trkpt lat="44.00376" lon="3.85487">
        <ele>254.89</ele>
        <time>2016-05-01T08:55:37Z</time>
      </trkpt>
      <trkpt lat="44.0039" lon="3.85486">
        <ele>255.85</ele>
        <time>2016-05-01T08:55:38Z</time>
      </trkpt>
      <trkpt lat="44.00403" lon="3.85488">
        <ele>256.81</ele>
        <time>2016-05-01T08:55:39Z</time>
      </trkpt>
      <trkpt lat="44.00415" lon="3.85494">
        <ele>257.77</ele>
        <time>2016-05-01T08:55:40Z</time>
      </trkpt>
      <trkpt lat="44.00427" lon="3.85498">
        <ele>258.73</ele>
        <time>2016-05-01T08:55:41Z</time>
      </trkpt>
      <trkpt lat="44.0044" lon="3.85497">
        <ele>259.69</ele>
        <time>2016-05-01T08:55:42Z</time>
      </trkpt>
      <trkpt lat="44.00453" lon="3.85489">
        <ele>260.65</ele>
        <time>2016-05-01T08:55:43Z</time>
      </trkpt>
      <trkpt lat="44.00466" lon="3.85479">
        <ele>261.62</ele>
        <time>2016-05-01T08:55:44Z</time>
      </trkpt>
      <trkpt lat="44.00479" lon="3.85466">
        <ele>262.58</ele>
        <time>2016-05-01T08:55:45Z</time>
      </trkpt>
      <trkpt lat="44.00491" lon="3.85449">
        <ele>262.58</ele>
        <time>2016-05-01T08:55:46Z</time>
      </trkpt>
      <trkpt lat="44.00502" lon="3.85429">
        <ele>263.54</ele>
        <time>2016-05-01T08:55:47Z</time>
      </trkpt>
      <trkpt lat="44.00513" lon="3.85409">
        <ele>263.54</ele>
        <time>2016-05-01T08:55:48Z</time>
      </trkpt>
      <trkpt lat="44.00588" lon="3.85264">
        <ele>267.86</ele>
        <time>2016-05-01T08:55:55Z</time>
      </trkpt>
      <trkpt lat="44.00632" lon="3.852">
        <ele>270.27</ele>
        <time>2016-05-01T08:55:59Z</time>
      </trkpt>
      <trkpt lat="44.00644" lon="3.85189">
        <ele>270.75</ele>
        <time>2016-05-01T08:56:00Z</time>
      </trkpt>
      <trkpt lat="44.00658" lon="3.8518">
        <ele>271.71</ele>
        <time>2016-05-01T08:56:01Z</time>
      </trkpt>
      <trkpt lat="44.00672" lon="3.85177">
        <ele>272.67</ele>
        <time>2016-05-01T08:56:02Z</time>
      </trkpt>
      <trkpt lat="44.00687" lon="3.85175">
        <ele>273.15</ele>
        <time>2016-05-01T08:56:03Z</time>
      </trkpt>
      <trkpt lat="44.00702" lon="3.85176">
        <ele>274.11</ele>
        <time>2016-05-01T08:56:04Z</time>
      </trkpt>
      <trkpt lat="44.00717" lon="3.85184">
        <ele>272.67</ele>
        <time>2016-05-01T08:56:05Z</time>
      </trkpt>
      <trkpt lat="44.00732" lon="3.85193">
        <ele>272.67</ele>
        <time>2016-05-01T08:56:06Z</time>
      </trkpt>
      <trkpt lat="44.00747" lon="3.85205">
        <ele>272.67</ele>
        <time>2016-05-01T08:56:07Z</time>
      </trkpt>
      <trkpt lat="44.00761" lon="3.85219">
        <ele>272.19</ele>
        <time>2016-05-01T08:56:08Z</time>
      </trkpt>
      <trkpt lat="44.00775" lon="3.85234">
        <ele>272.19</ele>
        <time>2016-05-01T08:56:09Z</time>
      </trkpt>
      <trkpt lat="44.008" lon="3.85266">
        <ele>272.67</ele>
        <time>2016-05-01T08:56:11Z</time>
      </trkpt>
      <trkpt lat="44.00811" lon="3.85284">
        <ele>273.15</ele>
        <time>2016-05-01T08:56:12Z</time>
      </trkpt>
      <trkpt lat="44.00833" lon="3.8532">
        <ele>274.11</ele>
        <time>2016-05-01T08:56:14Z</time>
      </trkpt>
      <trkpt lat="44.00845" lon="3.85335">
        <ele>275.07</ele>
        <time>2016-05-01T08:56:15Z</time>
      </trkpt>
      <trkpt lat="44.00859" lon="3.85345">
        <ele>275.56</ele>
        <time>2016-05-01T08:56:16Z</time>
      </trkpt>
      <trkpt lat="44.00874" lon="3.85349">
        <ele>276.04</ele>
        <time>2016-05-01T08:56:17Z</time>
      </trkpt>
      <trkpt lat="44.00891" lon="3.85352">
        <ele>276.52</ele>
        <time>2016-05-01T08:56:18Z</time>
      </trkpt>
      <trkpt lat="44.00909" lon="3.85352">
        <ele>277</ele>
        <time>2016-05-01T08:56:19Z</time>
      </trkpt>
      <trkpt lat="44.00927" lon="3.8535">
        <ele>277</ele>
        <time>2016-05-01T08:56:20Z</time>
      </trkpt>
      <trkpt lat="44.00946" lon="3.85343">
        <ele>276.52</ele>
        <time>2016-05-01T08:56:21Z</time>
      </trkpt>
      <trkpt lat="44.00964" lon="3.85334">
        <ele>276.52</ele>
        <time>2016-05-01T08:56:22Z</time>
      </trkpt>
      <trkpt lat="44.00981" lon="3.85324">
        <ele>277</ele>
        <time>2016-05-01T08:56:23Z</time>
      </trkpt>
      <trkpt lat="44.01078" lon="3.853">
        <ele>282.28</ele>
        <time>2016-05-01T08:56:29Z</time>
      </trkpt>
      <trkpt lat="44.01096" lon="3.85306">
        <ele>283.25</ele>
        <time>2016-05-01T08:56:30Z</time>
      </trkpt>
      <trkpt lat="44.0115" lon="3.85328">
        <ele>285.17</ele>
        <time>2016-05-01T08:56:33Z</time>
      </trkpt>
      <trkpt lat="44.01164" lon="3.85344">
        <ele>286.13</ele>
        <time>2016-05-01T08:56:34Z</time>
      </trkpt>
      <trkpt lat="44.01177" lon="3.8536">
        <ele>287.09</ele>
        <time>2016-05-01T08:56:35Z</time>
      </trkpt>
      <trkpt lat="44.01197" lon="3.85384">
        <ele>288.53</ele>
        <time>2016-05-01T08:56:37Z</time>
      </trkpt>
      <trkpt lat="44.01208" lon="3.85388">
        <ele>289.49</ele>
        <time>2016-05-01T08:56:38Z</time>
      </trkpt>
      <trkpt lat="44.01218" lon="3.85385">
        <ele>289.49</ele>
        <time>2016-05-01T08:56:39Z</time>
      </trkpt>
      <trkpt lat="44.01228" lon="3.85375">
        <ele>289.97</ele>
        <time>2016-05-01T08:56:40Z</time>
      </trkpt>
      <trkpt lat="44.01233" lon="3.85361">
        <ele>290.94</ele>
        <time>2016-05-01T08:56:41Z</time>
      </trkpt>
      <trkpt lat="44.01234" lon="3.85344">
        <ele>291.42</ele>
        <time>2016-05-01T08:56:42Z</time>
      </trkpt>
      <trkpt lat="44.0123" lon="3.85326">
        <ele>290.94</ele>
        <time>2016-05-01T08:56:43Z</time>
      </trkpt>
      <trkpt lat="44.01227" lon="3.8531">
        <ele>291.42</ele>
        <time>2016-05-01T08:56:44Z</time>
      </trkpt>
      <trkpt lat="44.01224" lon="3.85296">
        <ele>292.38</ele>
        <time>2016-05-01T08:56:45Z</time>
      </trkpt>
      <trkpt lat="44.01224" lon="3.85281">
        <ele>292.38</ele>
        <time>2016-05-01T08:56:46Z</time>
      </trkpt>
      <trkpt lat="44.01228" lon="3.85261">
        <ele>293.82</ele>
        <time>2016-05-01T08:56:47Z</time>
      </trkpt>
      <trkpt lat="44.01231" lon="3.8524">
        <ele>294.3</ele>
        <time>2016-05-01T08:56:48Z</time>
      </trkpt>
      <trkpt lat="44.01234" lon="3.85218">
        <ele>294.78</ele>
        <time>2016-05-01T08:56:49Z</time>
      </trkpt>
      <trkpt lat="44.01237" lon="3.85198">
        <ele>294.78</ele>
        <time>2016-05-01T08:56:50Z</time>
      </trkpt>
      <trkpt lat="44.01243" lon="3.85182">
        <ele>295.74</ele>
        <time>2016-05-01T08:56:51Z</time>
      </trkpt>
      <trkpt lat="44.01252" lon="3.85173">
        <ele>296.7</ele>
        <time>2016-05-01T08:56:52Z</time>
      </trkpt>
      <trkpt lat="44.01263" lon="3.85169">
        <ele>297.67</ele>
        <time>2016-05-01T08:56:53Z</time>
      </trkpt>
      <trkpt lat="44.01274" lon="3.85168">
        <ele>298.63</ele>
        <time>2016-05-01T08:56:54Z</time>
      </trkpt>
      <trkpt lat="44.01285" lon="3.8517">
        <ele>299.59</ele>
        <time>2016-05-01T08:56:55Z</time>
      </trkpt>
      <trkpt lat="44.01295" lon="3.85171">
        <ele>300.07</ele>
        <time>2016-05-01T08:56:56Z</time>
      </trkpt>
      <trkpt lat="44.01305" lon="3.85167">
        <ele>300.07</ele>
        <time>2016-05-01T08:56:57Z</time>
      </trkpt>
      <trkpt lat="44.01313" lon="3.85157">
        <ele>301.03</ele>
        <time>2016-05-01T08:56:58Z</time>
      </trkpt>
      <trkpt lat="44.01316" lon="3.85143">
        <ele>301.51</ele>
        <time>2016-05-01T08:56:59Z</time>
      </trkpt>
      <trkpt lat="44.01319" lon="3.85129">
        <ele>302.47</ele>
        <time>2016-05-01T08:57:00Z</time>
      </trkpt>
      <trkpt lat="44.01323" lon="3.85113">
        <ele>303.43</ele>
        <time>2016-05-01T08:57:01Z</time>
      </trkpt>
      <trkpt lat="44.01329" lon="3.85098">
        <ele>303.91</ele>
        <time>2016-05-01T08:57:02Z</time>
      </trkpt>
      <trkpt lat="44.0134" lon="3.85088">
        <ele>304.39</ele>
        <time>2016-05-01T08:57:03Z</time>
      </trkpt>
      <trkpt lat="44.01352" lon="3.85084">
        <ele>304.88</ele>
        <time>2016-05-01T08:57:04Z</time>
      </trkpt>
      <trkpt lat="44.01366" lon="3.85083">
        <ele>305.84</ele>
        <time>2016-05-01T08:57:05Z</time>
      </trkpt>
      <trkpt lat="44.01381" lon="3.85082">
        <ele>306.8</ele>
        <time>2016-05-01T08:57:06Z</time>
      </trkpt>
      <trkpt lat="44.01396" lon="3.85078">
        <ele>307.28</ele>
        <time>2016-05-01T08:57:07Z</time>
      </trkpt>
      <trkpt lat="44.01411" lon="3.85077">
        <ele>307.76</ele>
        <time>2016-05-01T08:57:08Z</time>
      </trkpt>
      <trkpt lat="44.01426" lon="3.8508">
        <ele>309.2</ele>
        <time>2016-05-01T08:57:09Z</time>
      </trkpt>
      <trkpt lat="44.0144" lon="3.85083">
        <ele>310.16</ele>
        <time>2016-05-01T08:57:10Z</time>
      </trkpt>
      <trkpt lat="44.01453" lon="3.85083">
        <ele>311.12</ele>
        <time>2016-05-01T08:57:11Z</time>
      </trkpt>
      <trkpt lat="44.01466" lon="3.85082">
        <ele>312.09</ele>
        <time>2016-05-01T08:57:12Z</time>
      </trkpt>
      <trkpt lat="44.01478" lon="3.85076">
        <ele>312.57</ele>
        <time>2016-05-01T08:57:13Z</time>
      </trkpt>
      <trkpt lat="44.01486" lon="3.85065">
        <ele>313.05</ele>
        <time>2016-05-01T08:57:14Z</time>
      </trkpt>
      <trkpt lat="44.01492" lon="3.85053">
        <ele>313.53</ele>
        <time>2016-05-01T08:57:15Z</time>
      </trkpt>
      <trkpt lat="44.01493" lon="3.85037">
        <ele>313.53</ele>
        <time>2016-05-01T08:57:16Z</time>
      </trkpt>
      <trkpt lat="44.01488" lon="3.85024">
        <ele>314.01</ele>
        <time>2016-05-01T08:57:17Z</time>
      </trkpt>
      <trkpt lat="44.01479" lon="3.85013">
        <ele>313.53</ele>
        <time>2016-05-01T08:57:18Z</time>
      </trkpt>
      <trkpt lat="44.01468" lon="3.85008">
        <ele>314.01</ele>
        <time>2016-05-01T08:57:19Z</time>
      </trkpt>
      <trkpt lat="44.01459" lon="3.85004">
        <ele>312.57</ele>
        <time>2016-05-01T08:57:20Z</time>
      </trkpt>
      <trkpt lat="44.01444" lon="3.85005">
        <ele>313.53</ele>
        <time>2016-05-01T08:57:21Z</time>
      </trkpt>
      <trkpt lat="44.01432" lon="3.85001">
        <ele>314.01</ele>
        <time>2016-05-01T08:57:22Z</time>
      </trkpt>
      <trkpt lat="44.01425" lon="3.84989">
        <ele>314.49</ele>
        <time>2016-05-01T08:57:23Z</time>
      </trkpt>
      <trkpt lat="44.0142" lon="3.84974">
        <ele>314.97</ele>
        <time>2016-05-01T08:57:24Z</time>
      </trkpt>
      <trkpt lat="44.01415" lon="3.84959">
        <ele>314.97</ele>
        <time>2016-05-01T08:57:25Z</time>
      </trkpt>
      <trkpt lat="44.01409" lon="3.84943">
        <ele>315.93</ele>
        <time>2016-05-01T08:57:26Z</time>
      </trkpt>
      <trkpt lat="44.01403" lon="3.84934">
        <ele>315.93</ele>
        <time>2016-05-01T08:57:27Z</time>
      </trkpt>
      <trkpt lat="44.01394" lon="3.8493">
        <ele>315.93</ele>
        <time>2016-05-01T08:57:28Z</time>
      </trkpt>
      <trkpt lat="44.01382" lon="3.84932">
        <ele>317.37</ele>
        <time>2016-05-01T08:57:29Z</time>
      </trkpt>
      <trkpt lat="44.0137" lon="3.8493">
        <ele>317.85</ele>
        <time>2016-05-01T08:57:30Z</time>
      </trkpt>
      <trkpt lat="44.01359" lon="3.84919">
        <ele>318.81</ele>
        <time>2016-05-01T08:57:31Z</time>
      </trkpt>
      <trkpt lat="44.01351" lon="3.84907">
        <ele>318.81</ele>
        <time>2016-05-01T08:57:32Z</time>
      </trkpt>
      <trkpt lat="44.01341" lon="3.84892">
        <ele>320.26</ele>
        <time>2016-05-01T08:57:33Z</time>
      </trkpt>
      <trkpt lat="44.01328" lon="3.8488">
        <ele>320.74</ele>
        <time>2016-05-01T08:57:34Z</time>
      </trkpt>
      <trkpt lat="44.01314" lon="3.84873">
        <ele>322.18</ele>
        <time>2016-05-01T08:57:35Z</time>
      </trkpt>
      <trkpt lat="44.01301" lon="3.8487">
        <ele>322.66</ele>
        <time>2016-05-01T08:57:36Z</time>
      </trkpt>
      <trkpt lat="44.01289" lon="3.84865">
        <ele>323.62</ele>
        <time>2016-05-01T08:57:37Z</time>
      </trkpt>
      <trkpt lat="44.01281" lon="3.84854">
        <ele>324.58</ele>
        <time>2016-05-01T08:57:38Z</time>
      </trkpt>
      <trkpt lat="44.01277" lon="3.84839">
        <ele>326.02</ele>
        <time>2016-05-01T08:57:39Z</time>
      </trkpt>
      <trkpt lat="44.0128" lon="3.84823">
        <ele>326.99</ele>
        <time>2016-05-01T08:57:40Z</time>
      </trkpt>
      <trkpt lat="44.01315" lon="3.84794">
        <ele>332.27</ele>
        <time>2016-05-01T08:57:43Z</time>
      </trkpt>
      <trkpt lat="44.0133" lon="3.84795">
        <ele>334.2</ele>
        <time>2016-05-01T08:57:44Z</time>
      </trkpt>
      <trkpt lat="44.0135" lon="3.84812">
        <ele>331.79</ele>
        <time>2016-05-01T08:57:45Z</time>
      </trkpt>
      <trkpt lat="44.01363" lon="3.84825">
        <ele>332.27</ele>
        <time>2016-05-01T08:57:46Z</time>
      </trkpt>
      <trkpt lat="44.01376" lon="3.84836">
        <ele>332.75</ele>
        <time>2016-05-01T08:57:47Z</time>
      </trkpt>
      <trkpt lat="44.01416" lon="3.84847">
        <ele>334.2</ele>
        <time>2016-05-01T08:57:50Z</time>
      </trkpt>
      <trkpt lat="44.01431" lon="3.84845">
        <ele>333.23</ele>
        <time>2016-05-01T08:57:51Z</time>
      </trkpt>
      <trkpt lat="44.01446" lon="3.84841">
        <ele>331.79</ele>
        <time>2016-05-01T08:57:52Z</time>
      </trkpt>
      <trkpt lat="44.01461" lon="3.84834">
        <ele>329.87</ele>
        <time>2016-05-01T08:57:53Z</time>
      </trkpt>
      <trkpt lat="44.01474" lon="3.84827">
        <ele>328.43</ele>
        <time>2016-05-01T08:57:54Z</time>
      </trkpt>
      <trkpt lat="44.01486" lon="3.84823">
        <ele>329.87</ele>
        <time>2016-05-01T08:57:55Z</time>
      </trkpt>
      <trkpt lat="44.01497" lon="3.84822">
        <ele>330.35</ele>
        <time>2016-05-01T08:57:56Z</time>
      </trkpt>
      <trkpt lat="44.01507" lon="3.84831">
        <ele>331.79</ele>
        <time>2016-05-01T08:57:57Z</time>
      </trkpt>
      <trkpt lat="44.01516" lon="3.84844">
        <ele>332.75</ele>
        <time>2016-05-01T08:57:58Z</time>
      </trkpt>
      <trkpt lat="44.01525" lon="3.84858">
        <ele>333.71</ele>
        <time>2016-05-01T08:57:59Z</time>
      </trkpt>
      <trkpt lat="44.01536" lon="3.8487">
        <ele>334.68</ele>
        <time>2016-05-01T08:58:00Z</time>
      </trkpt>
      <trkpt lat="44.01549" lon="3.84877">
        <ele>335.16</ele>
        <time>2016-05-01T08:58:01Z</time>
      </trkpt>
      <trkpt lat="44.01562" lon="3.84881">
        <ele>335.64</ele>
        <time>2016-05-01T08:58:02Z</time>
      </trkpt>
      <trkpt lat="44.01576" lon="3.84878">
        <ele>336.6</ele>
        <time>2016-05-01T08:58:03Z</time>
      </trkpt>
      <trkpt lat="44.0159" lon="3.84869">
        <ele>337.08</ele>
        <time>2016-05-01T08:58:04Z</time>
      </trkpt>
      <trkpt lat="44.01603" lon="3.84859">
        <ele>337.56</ele>
        <time>2016-05-01T08:58:05Z</time>
      </trkpt>
      <trkpt lat="44.01616" lon="3.84849">
        <ele>338.52</ele>
        <time>2016-05-01T08:58:06Z</time>
      </trkpt>
      <trkpt lat="44.01629" lon="3.84844">
        <ele>339</ele>
        <time>2016-05-01T08:58:07Z</time>
      </trkpt>
      <trkpt lat="44.01642" lon="3.84844">
        <ele>339.96</ele>
        <time>2016-05-01T08:58:08Z</time>
      </trkpt>
      <trkpt lat="44.01654" lon="3.84847">
        <ele>340.44</ele>
        <time>2016-05-01T08:58:09Z</time>
      </trkpt>
      <trkpt lat="44.01664" lon="3.84856">
        <ele>341.41</ele>
        <time>2016-05-01T08:58:10Z</time>
      </trkpt>
      <trkpt lat="44.01671" lon="3.8487">
        <ele>342.37</ele>
        <time>2016-05-01T08:58:11Z</time>
      </trkpt>
      <trkpt lat="44.01671" lon="3.84888">
        <ele>344.29</ele>
        <time>2016-05-01T08:58:12Z</time>
      </trkpt>
      <trkpt lat="44.01671" lon="3.84903">
        <ele>345.25</ele>
        <time>2016-05-01T08:58:13Z</time>
      </trkpt>
      <trkpt lat="44.01668" lon="3.84918">
        <ele>344.77</ele>
        <time>2016-05-01T08:58:14Z</time>
      </trkpt>
      <trkpt lat="44.01662" lon="3.84935">
        <ele>345.25</ele>
        <time>2016-05-01T08:58:15Z</time>
      </trkpt>
      <trkpt lat="44.01659" lon="3.84952">
        <ele>345.73</ele>
        <time>2016-05-01T08:58:16Z</time>
      </trkpt>
      <trkpt lat="44.01659" lon="3.8497">
        <ele>346.69</ele>
        <time>2016-05-01T08:58:17Z</time>
      </trkpt>
      <trkpt lat="44.01661" lon="3.84989">
        <ele>347.65</ele>
        <time>2016-05-01T08:58:18Z</time>
      </trkpt>
      <trkpt lat="44.01664" lon="3.85009">
        <ele>348.62</ele>
        <time>2016-05-01T08:58:19Z</time>
      </trkpt>
      <trkpt lat="44.01667" lon="3.85028">
        <ele>349.1</ele>
        <time>2016-05-01T08:58:20Z</time>
      </trkpt>
      <trkpt lat="44.01674" lon="3.85045">
        <ele>350.06</ele>
        <time>2016-05-01T08:58:21Z</time>
      </trkpt>
      <trkpt lat="44.01682" lon="3.85058">
        <ele>351.5</ele>
        <time>2016-05-01T08:58:22Z</time>
      </trkpt>
      <trkpt lat="44.01692" lon="3.8507">
        <ele>351.98</ele>
        <time>2016-05-01T08:58:23Z</time>
      </trkpt>
      <trkpt lat="44.017" lon="3.85085">
        <ele>352.46</ele>
        <time>2016-05-01T08:58:24Z</time>
      </trkpt>
      <trkpt lat="44.01704" lon="3.85102">
        <ele>353.42</ele>
        <time>2016-05-01T08:58:25Z</time>
      </trkpt>
      <trkpt lat="44.01708" lon="3.8512">
        <ele>354.38</ele>
        <time>2016-05-01T08:58:26Z</time>
      </trkpt>
      <trkpt lat="44.01713" lon="3.85137">
        <ele>354.86</ele>
        <time>2016-05-01T08:58:27Z</time>
      </trkpt>
      <trkpt lat="44.01721" lon="3.85152">
        <ele>355.83</ele>
        <time>2016-05-01T08:58:28Z</time>
      </trkpt>
      <trkpt lat="44.01727" lon="3.85168">
        <ele>356.31</ele>
        <time>2016-05-01T08:58:29Z</time>
      </trkpt>
      <trkpt lat="44.01732" lon="3.85185">
        <ele>357.27</ele>
        <time>2016-05-01T08:58:30Z</time>
      </trkpt>
      <trkpt lat="44.01736" lon="3.85203">
        <ele>357.27</ele>
        <time>2016-05-01T08:58:31Z</time>
      </trkpt>
      <trkpt lat="44.01735" lon="3.85225">
        <ele>357.75</ele>
        <time>2016-05-01T08:58:32Z</time>
      </trkpt>
      <trkpt lat="44.01731" lon="3.85248">
        <ele>359.19</ele>
        <time>2016-05-01T08:58:33Z</time>
      </trkpt>
      <trkpt lat="44.01726" lon="3.8527">
        <ele>360.15</ele>
        <time>2016-05-01T08:58:34Z</time>
      </trkpt>
      <trkpt lat="44.01723" lon="3.85291">
        <ele>360.15</ele>
        <time>2016-05-01T08:58:35Z</time>
      </trkpt>
      <trkpt lat="44.01722" lon="3.85311">
        <ele>361.59</ele>
        <time>2016-05-01T08:58:36Z</time>
      </trkpt>
      <trkpt lat="44.01723" lon="3.85332">
        <ele>361.59</ele>
        <time>2016-05-01T08:58:37Z</time>
      </trkpt>
      <trkpt lat="44.0173" lon="3.85351">
        <ele>362.07</ele>
        <time>2016-05-01T08:58:38Z</time>
      </trkpt>
      <trkpt lat="44.01738" lon="3.85368">
        <ele>363.04</ele>
        <time>2016-05-01T08:58:39Z</time>
      </trkpt>
      <trkpt lat="44.0175" lon="3.85383">
        <ele>363.04</ele>
        <time>2016-05-01T08:58:40Z</time>
      </trkpt>
      <trkpt lat="44.01766" lon="3.85395">
        <ele>363.04</ele>
        <time>2016-05-01T08:58:41Z</time>
      </trkpt>
      <trkpt lat="44.01785" lon="3.85407">
        <ele>363.04</ele>
        <time>2016-05-01T08:58:42Z</time>
      </trkpt>
      <trkpt lat="44.01801" lon="3.85419">
        <ele>364.48</ele>
        <time>2016-05-01T08:58:43Z</time>
      </trkpt>
      <trkpt lat="44.01816" lon="3.85428">
        <ele>364.96</ele>
        <time>2016-05-01T08:58:44Z</time>
      </trkpt>
      <trkpt lat="44.01837" lon="3.8545">
        <ele>366.88</ele>
        <time>2016-05-01T08:58:46Z</time>
      </trkpt>
      <trkpt lat="44.01839" lon="3.85467">
        <ele>368.32</ele>
        <time>2016-05-01T08:58:47Z</time>
      </trkpt>
      <trkpt lat="44.01842" lon="3.85485">
        <ele>368.8</ele>
        <time>2016-05-01T08:58:48Z</time>
      </trkpt>
      <trkpt lat="44.01848" lon="3.85501">
        <ele>369.76</ele>
        <time>2016-05-01T08:58:49Z</time>
      </trkpt>
      <trkpt lat="44.01858" lon="3.85516">
        <ele>371.21</ele>
        <time>2016-05-01T08:58:50Z</time>
      </trkpt>
      <trkpt lat="44.01871" lon="3.85529">
        <ele>372.17</ele>
        <time>2016-05-01T08:58:51Z</time>
      </trkpt>
      <trkpt lat="44.01889" lon="3.85539">
        <ele>373.13</ele>
        <time>2016-05-01T08:58:52Z</time>
      </trkpt>
      <trkpt lat="44.01907" lon="3.85552">
        <ele>373.61</ele>
        <time>2016-05-01T08:58:53Z</time>
      </trkpt>
      <trkpt lat="44.01925" lon="3.85565">
        <ele>374.09</ele>
        <time>2016-05-01T08:58:54Z</time>
      </trkpt>
      <trkpt lat="44.01943" lon="3.85579">
        <ele>374.09</ele>
        <time>2016-05-01T08:58:55Z</time>
      </trkpt>
      <trkpt lat="44.01959" lon="3.85596">
        <ele>375.05</ele>
        <time>2016-05-01T08:58:56Z</time>
      </trkpt>
      <trkpt lat="44.01975" lon="3.85615">
        <ele>376.01</ele>
        <time>2016-05-01T08:58:57Z</time>
      </trkpt>
      <trkpt lat="44.02035" lon="3.85709">
        <ele>379.38</ele>
        <time>2016-05-01T08:59:02Z</time>
      </trkpt>
      <trkpt lat="44.02035" lon="3.85728">
        <ele>379.38</ele>
        <time>2016-05-01T08:59:03Z</time>
      </trkpt>
      <trkpt lat="44.02039" lon="3.85745">
        <ele>379.86</ele>
        <time>2016-05-01T08:59:04Z</time>
      </trkpt>
      <trkpt lat="44.02045" lon="3.85761">
        <ele>380.82</ele>
        <time>2016-05-01T08:59:05Z</time>
      </trkpt>
      <trkpt lat="44.02054" lon="3.85773">
        <ele>381.78</ele>
        <time>2016-05-01T08:59:06Z</time>
      </trkpt>
      <trkpt lat="44.02064" lon="3.85784">
        <ele>382.74</ele>
        <time>2016-05-01T08:59:07Z</time>
      </trkpt>
      <trkpt lat="44.02076" lon="3.85791">
        <ele>383.22</ele>
        <time>2016-05-01T08:59:08Z</time>
      </trkpt>
      <trkpt lat="44.02087" lon="3.85795">
        <ele>382.74</ele>
        <time>2016-05-01T08:59:09Z</time>
      </trkpt>
      <trkpt lat="44.02095" lon="3.85796">
        <ele>383.22</ele>
        <time>2016-05-01T08:59:10Z</time>
      </trkpt>
      <trkpt lat="44.02101" lon="3.85797">
        <ele>382.74</ele>
        <time>2016-05-01T08:59:11Z</time>
      </trkpt>
      <trkpt lat="44.02112" lon="3.85802">
        <ele>381.78</ele>
        <time>2016-05-01T08:59:13Z</time>
      </trkpt>
      <trkpt lat="44.02128" lon="3.85809">
        <ele>381.3</ele>
        <time>2016-05-01T08:59:15Z</time>
      </trkpt>
      <trkpt lat="44.02145" lon="3.85817">
        <ele>380.82</ele>
        <time>2016-05-01T08:59:17Z</time>
      </trkpt>
      <trkpt lat="44.02153" lon="3.85825">
        <ele>380.34</ele>
        <time>2016-05-01T08:59:18Z</time>
      </trkpt>
      <trkpt lat="44.0216" lon="3.85835">
        <ele>379.86</ele>
        <time>2016-05-01T08:59:19Z</time>
      </trkpt>
      <trkpt lat="44.02212" lon="3.8593">
        <ele>372.65</ele>
        <time>2016-05-01T08:59:27Z</time>
      </trkpt>
      <trkpt lat="44.02216" lon="3.85943">
        <ele>372.17</ele>
        <time>2016-05-01T08:59:28Z</time>
      </trkpt>
      <trkpt lat="44.02218" lon="3.85956">
        <ele>371.21</ele>
        <time>2016-05-01T08:59:29Z</time>
      </trkpt>
      <trkpt lat="44.02219" lon="3.85969">
        <ele>370.24</ele>
        <time>2016-05-01T08:59:30Z</time>
      </trkpt>
      <trkpt lat="44.0222" lon="3.85982">
        <ele>369.76</ele>
        <time>2016-05-01T08:59:31Z</time>
      </trkpt>
      <trkpt lat="44.0222" lon="3.85994">
        <ele>369.28</ele>
        <time>2016-05-01T08:59:32Z</time>
      </trkpt>
      <trkpt lat="44.02223" lon="3.86006">
        <ele>368.32</ele>
        <time>2016-05-01T08:59:33Z</time>
      </trkpt>
      <trkpt lat="44.02227" lon="3.86015">
        <ele>367.84</ele>
        <time>2016-05-01T08:59:34Z</time>
      </trkpt>
      <trkpt lat="44.02233" lon="3.86021">
        <ele>367.36</ele>
        <time>2016-05-01T08:59:35Z</time>
      </trkpt>
      <trkpt lat="44.02242" lon="3.86019">
        <ele>366.4</ele>
        <time>2016-05-01T08:59:36Z</time>
      </trkpt>
      <trkpt lat="44.02255" lon="3.86015">
        <ele>365.44</ele>
        <time>2016-05-01T08:59:37Z</time>
      </trkpt>
      <trkpt lat="44.02265" lon="3.86005">
        <ele>364.48</ele>
        <time>2016-05-01T08:59:38Z</time>
      </trkpt>
      <trkpt lat="44.02272" lon="3.85989">
        <ele>364</ele>
        <time>2016-05-01T08:59:39Z</time>
      </trkpt>
      <trkpt lat="44.02279" lon="3.85971">
        <ele>364.96</ele>
        <time>2016-05-01T08:59:40Z</time>
      </trkpt>
      <trkpt lat="44.02289" lon="3.85954">
        <ele>364</ele>
        <time>2016-05-01T08:59:41Z</time>
      </trkpt>
      <trkpt lat="44.02313" lon="3.8592">
        <ele>362.07</ele>
        <time>2016-05-01T08:59:43Z</time>
      </trkpt>
      <trkpt lat="44.02327" lon="3.85905">
        <ele>361.59</ele>
        <time>2016-05-01T08:59:44Z</time>
      </trkpt>
      <trkpt lat="44.02376" lon="3.85853">
        <ele>359.67</ele>
        <time>2016-05-01T08:59:48Z</time>
      </trkpt>
      <trkpt lat="44.02383" lon="3.85836">
        <ele>358.71</ele>
        <time>2016-05-01T08:59:49Z</time>
      </trkpt>
      <trkpt lat="44.02384" lon="3.85817">
        <ele>357.75</ele>
        <time>2016-05-01T08:59:50Z</time>
      </trkpt>
      <trkpt lat="44.02385" lon="3.858">
        <ele>355.83</ele>
        <time>2016-05-01T08:59:51Z</time>
      </trkpt>
      <trkpt lat="44.02382" lon="3.85784">
        <ele>354.38</ele>
        <time>2016-05-01T08:59:52Z</time>
      </trkpt>
      <trkpt lat="44.02376" lon="3.85766">
        <ele>352.94</ele>
        <time>2016-05-01T08:59:53Z</time>
      </trkpt>
      <trkpt lat="44.02374" lon="3.85749">
        <ele>352.46</ele>
        <time>2016-05-01T08:59:54Z</time>
      </trkpt>
      <trkpt lat="44.02374" lon="3.85734">
        <ele>351.98</ele>
        <time>2016-05-01T08:59:55Z</time>
      </trkpt>
      <trkpt lat="44.0238" lon="3.85724">
        <ele>351.02</ele>
        <time>2016-05-01T08:59:56Z</time>
      </trkpt>
      <trkpt lat="44.02389" lon="3.85719">
        <ele>350.54</ele>
        <time>2016-05-01T08:59:57Z</time>
      </trkpt>
      <trkpt lat="44.02409" lon="3.85721">
        <ele>350.54</ele>
        <time>2016-05-01T08:59:58Z</time>
      </trkpt>
      <trkpt lat="44.02424" lon="3.85724">
        <ele>349.1</ele>
        <time>2016-05-01T08:59:59Z</time>
      </trkpt>
      <trkpt lat="44.02437" lon="3.85731">
        <ele>348.13</ele>
        <time>2016-05-01T09:00:00Z</time>
      </trkpt>
      <trkpt lat="44.0245" lon="3.85736">
        <ele>347.65</ele>
        <time>2016-05-01T09:00:01Z</time>
      </trkpt>
      <trkpt lat="44.02463" lon="3.85738">
        <ele>347.17</ele>
        <time>2016-05-01T09:00:02Z</time>
      </trkpt>
      <trkpt lat="44.02476" lon="3.85734">
        <ele>346.21</ele>
        <time>2016-05-01T09:00:03Z</time>
      </trkpt>
      <trkpt lat="44.02486" lon="3.85723">
        <ele>345.73</ele>
        <time>2016-05-01T09:00:04Z</time>
      </trkpt>
      <trkpt lat="44.02494" lon="3.85708">
        <ele>345.25</ele>
        <time>2016-05-01T09:00:05Z</time>
      </trkpt>
      <trkpt lat="44.02504" lon="3.85693">
        <ele>344.77</ele>
        <time>2016-05-01T09:00:06Z</time>
      </trkpt>
      <trkpt lat="44.02516" lon="3.85677">
        <ele>344.77</ele>
        <time>2016-05-01T09:00:07Z</time>
      </trkpt>
      <trkpt lat="44.02526" lon="3.85659">
        <ele>344.29</ele>
        <time>2016-05-01T09:00:08Z</time>
      </trkpt>
      <trkpt lat="44.02534" lon="3.85641">
        <ele>343.81</ele>
        <time>2016-05-01T09:00:09Z</time>
      </trkpt>
      <trkpt lat="44.02542" lon="3.85624">
        <ele>343.33</ele>
        <time>2016-05-01T09:00:10Z</time>
      </trkpt>
      <trkpt lat="44.02551" lon="3.85608">
        <ele>342.37</ele>
        <time>2016-05-01T09:00:11Z</time>
      </trkpt>
      <trkpt lat="44.02564" lon="3.85597">
        <ele>341.89</ele>
        <time>2016-05-01T09:00:12Z</time>
      </trkpt>
      <trkpt lat="44.02581" lon="3.85588">
        <ele>341.89</ele>
        <time>2016-05-01T09:00:13Z</time>
      </trkpt>
      <trkpt lat="44.02598" lon="3.85581">
        <ele>340.92</ele>
        <time>2016-05-01T09:00:14Z</time>
      </trkpt>
      <trkpt lat="44.02614" lon="3.85572">
        <ele>340.44</ele>
        <time>2016-05-01T09:00:15Z</time>
      </trkpt>
      <trkpt lat="44.02629" lon="3.85562">
        <ele>339.48</ele>
        <time>2016-05-01T09:00:16Z</time>
      </trkpt>
      <trkpt lat="44.02642" lon="3.85551">
        <ele>338.52</ele>
        <time>2016-05-01T09:00:17Z</time>
      </trkpt>
      <trkpt lat="44.02655" lon="3.85541">
        <ele>337.56</ele>
        <time>2016-05-01T09:00:18Z</time>
      </trkpt>
      <trkpt lat="44.02668" lon="3.8554">
        <ele>337.08</ele>
        <time>2016-05-01T09:00:19Z</time>
      </trkpt>
      <trkpt lat="44.02681" lon="3.85544">
        <ele>336.12</ele>
        <time>2016-05-01T09:00:20Z</time>
      </trkpt>
      <trkpt lat="44.02694" lon="3.85555">
        <ele>335.16</ele>
        <time>2016-05-01T09:00:21Z</time>
      </trkpt>
      <trkpt lat="44.02705" lon="3.85575">
        <ele>334.2</ele>
        <time>2016-05-01T09:00:22Z</time>
      </trkpt>
      <trkpt lat="44.02715" lon="3.85595">
        <ele>333.23</ele>
        <time>2016-05-01T09:00:23Z</time>
      </trkpt>
      <trkpt lat="44.02725" lon="3.85615">
        <ele>332.27</ele>
        <time>2016-05-01T09:00:24Z</time>
      </trkpt>
      <trkpt lat="44.02742" lon="3.85658">
        <ele>331.31</ele>
        <time>2016-05-01T09:00:26Z</time>
      </trkpt>
      <trkpt lat="44.02745" lon="3.85681">
        <ele>330.35</ele>
        <time>2016-05-01T09:00:27Z</time>
      </trkpt>
      <trkpt lat="44.02746" lon="3.85703">
        <ele>329.39</ele>
        <time>2016-05-01T09:00:28Z</time>
      </trkpt>
      <trkpt lat="44.02745" lon="3.85725">
        <ele>328.91</ele>
        <time>2016-05-01T09:00:29Z</time>
      </trkpt>
      <trkpt lat="44.02743" lon="3.85746">
        <ele>327.95</ele>
        <time>2016-05-01T09:00:30Z</time>
      </trkpt>
      <trkpt lat="44.02741" lon="3.85767">
        <ele>326.5</ele>
        <time>2016-05-01T09:00:31Z</time>
      </trkpt>
      <trkpt lat="44.02738" lon="3.85787">
        <ele>325.54</ele>
        <time>2016-05-01T09:00:32Z</time>
      </trkpt>
      <trkpt lat="44.02731" lon="3.85804">
        <ele>323.62</ele>
        <time>2016-05-01T09:00:33Z</time>
      </trkpt>
      <trkpt lat="44.02719" lon="3.85813">
        <ele>323.14</ele>
        <time>2016-05-01T09:00:34Z</time>
      </trkpt>
      <trkpt lat="44.02709" lon="3.85824">
        <ele>322.18</ele>
        <time>2016-05-01T09:00:35Z</time>
      </trkpt>
      <trkpt lat="44.027" lon="3.85831">
        <ele>322.18</ele>
        <time>2016-05-01T09:00:36Z</time>
      </trkpt>
      <trkpt lat="44.02686" lon="3.8584">
        <ele>321.7</ele>
        <time>2016-05-01T09:00:37Z</time>
      </trkpt>
      <trkpt lat="44.02677" lon="3.85849">
        <ele>320.74</ele>
        <time>2016-05-01T09:00:38Z</time>
      </trkpt>
      <trkpt lat="44.02667" lon="3.85862">
        <ele>319.78</ele>
        <time>2016-05-01T09:00:39Z</time>
      </trkpt>
      <trkpt lat="44.02663" lon="3.85888">
        <ele>316.41</ele>
        <time>2016-05-01T09:00:41Z</time>
      </trkpt>
      <trkpt lat="44.02664" lon="3.85903">
        <ele>315.45</ele>
        <time>2016-05-01T09:00:42Z</time>
      </trkpt>
      <trkpt lat="44.02673" lon="3.85913">
        <ele>314.49</ele>
        <time>2016-05-01T09:00:43Z</time>
      </trkpt>
      <trkpt lat="44.02684" lon="3.8592">
        <ele>313.05</ele>
        <time>2016-05-01T09:00:44Z</time>
      </trkpt>
      <trkpt lat="44.02693" lon="3.85928">
        <ele>313.05</ele>
        <time>2016-05-01T09:00:45Z</time>
      </trkpt>
      <trkpt lat="44.02701" lon="3.85938">
        <ele>312.09</ele>
        <time>2016-05-01T09:00:46Z</time>
      </trkpt>
      <trkpt lat="44.02707" lon="3.85952">
        <ele>311.6</ele>
        <time>2016-05-01T09:00:47Z</time>
      </trkpt>
      <trkpt lat="44.02709" lon="3.85971">
        <ele>311.6</ele>
        <time>2016-05-01T09:00:48Z</time>
      </trkpt>
      <trkpt lat="44.02712" lon="3.86008">
        <ele>311.12</ele>
        <time>2016-05-01T09:00:50Z</time>
      </trkpt>
      <trkpt lat="44.02723" lon="3.86072">
        <ele>309.2</ele>
        <time>2016-05-01T09:00:54Z</time>
      </trkpt>
      <trkpt lat="44.02728" lon="3.86083">
        <ele>308.72</ele>
        <time>2016-05-01T09:00:55Z</time>
      </trkpt>
      <trkpt lat="44.02737" lon="3.86086">
        <ele>308.72</ele>
        <time>2016-05-01T09:00:56Z</time>
      </trkpt>
      <trkpt lat="44.0275" lon="3.86083">
        <ele>307.76</ele>
        <time>2016-05-01T09:00:57Z</time>
      </trkpt>
      <trkpt lat="44.02767" lon="3.86074">
        <ele>307.28</ele>
        <time>2016-05-01T09:00:58Z</time>
      </trkpt>
      <trkpt lat="44.0278" lon="3.86063">
        <ele>306.8</ele>
        <time>2016-05-01T09:00:59Z</time>
      </trkpt>
      <trkpt lat="44.02793" lon="3.8605">
        <ele>306.32</ele>
        <time>2016-05-01T09:01:00Z</time>
      </trkpt>
      <trkpt lat="44.02819" lon="3.86029">
        <ele>305.36</ele>
        <time>2016-05-01T09:01:02Z</time>
      </trkpt>
      <trkpt lat="44.02834" lon="3.86023">
        <ele>304.39</ele>
        <time>2016-05-01T09:01:03Z</time>
      </trkpt>
      <trkpt lat="44.0285" lon="3.86022">
        <ele>303.43</ele>
        <time>2016-05-01T09:01:04Z</time>
      </trkpt>
      <trkpt lat="44.02866" lon="3.86026">
        <ele>301.99</ele>
        <time>2016-05-01T09:01:05Z</time>
      </trkpt>
      <trkpt lat="44.0288" lon="3.86032">
        <ele>301.51</ele>
        <time>2016-05-01T09:01:06Z</time>
      </trkpt>
      <trkpt lat="44.02895" lon="3.86037">
        <ele>300.07</ele>
        <time>2016-05-01T09:01:07Z</time>
      </trkpt>
      <trkpt lat="44.02911" lon="3.86038">
        <ele>299.11</ele>
        <time>2016-05-01T09:01:08Z</time>
      </trkpt>
      <trkpt lat="44.02927" lon="3.86033">
        <ele>297.67</ele>
        <time>2016-05-01T09:01:09Z</time>
      </trkpt>
      <trkpt lat="44.02942" lon="3.86025">
        <ele>296.7</ele>
        <time>2016-05-01T09:01:10Z</time>
      </trkpt>
      <trkpt lat="44.03007" lon="3.85989">
        <ele>291.9</ele>
        <time>2016-05-01T09:01:15Z</time>
      </trkpt>
      <trkpt lat="44.03015" lon="3.85977">
        <ele>290.94</ele>
        <time>2016-05-01T09:01:16Z</time>
      </trkpt>
      <trkpt lat="44.03019" lon="3.85961">
        <ele>289.01</ele>
        <time>2016-05-01T09:01:17Z</time>
      </trkpt>
      <trkpt lat="44.0302" lon="3.85944">
        <ele>286.61</ele>
        <time>2016-05-01T09:01:18Z</time>
      </trkpt>
      <trkpt lat="44.03017" lon="3.85926">
        <ele>284.69</ele>
        <time>2016-05-01T09:01:19Z</time>
      </trkpt>
      <trkpt lat="44.0301" lon="3.85908">
        <ele>284.69</ele>
        <time>2016-05-01T09:01:20Z</time>
      </trkpt>
      <trkpt lat="44.03007" lon="3.8589">
        <ele>284.21</ele>
        <time>2016-05-01T09:01:21Z</time>
      </trkpt>
      <trkpt lat="44.03005" lon="3.85873">
        <ele>284.21</ele>
        <time>2016-05-01T09:01:22Z</time>
      </trkpt>
      <trkpt lat="44.03003" lon="3.85856">
        <ele>283.73</ele>
        <time>2016-05-01T09:01:23Z</time>
      </trkpt>
      <trkpt lat="44.02999" lon="3.85841">
        <ele>283.25</ele>
        <time>2016-05-01T09:01:24Z</time>
      </trkpt>
      <trkpt lat="44.02989" lon="3.85833">
        <ele>282.77</ele>
        <time>2016-05-01T09:01:25Z</time>
      </trkpt>
      <trkpt lat="44.02979" lon="3.85822">
        <ele>283.25</ele>
        <time>2016-05-01T09:01:26Z</time>
      </trkpt>
      <trkpt lat="44.02968" lon="3.85815">
        <ele>283.25</ele>
        <time>2016-05-01T09:01:27Z</time>
      </trkpt>
      <trkpt lat="44.02961" lon="3.85806">
        <ele>282.28</ele>
        <time>2016-05-01T09:01:28Z</time>
      </trkpt>
      <trkpt lat="44.02956" lon="3.85795">
        <ele>280.84</ele>
        <time>2016-05-01T09:01:29Z</time>
      </trkpt>
      <trkpt lat="44.02953" lon="3.85781">
        <ele>279.4</ele>
        <time>2016-05-01T09:01:30Z</time>
      </trkpt>
      <trkpt lat="44.02955" lon="3.85766">
        <ele>278.92</ele>
        <time>2016-05-01T09:01:31Z</time>
      </trkpt>
      <trkpt lat="44.02963" lon="3.85753">
        <ele>277.96</ele>
        <time>2016-05-01T09:01:32Z</time>
      </trkpt>
      <trkpt lat="44.02974" lon="3.85748">
        <ele>276.52</ele>
        <time>2016-05-01T09:01:33Z</time>
      </trkpt>
      <trkpt lat="44.02987" lon="3.85748">
        <ele>275.56</ele>
        <time>2016-05-01T09:01:34Z</time>
      </trkpt>
      <trkpt lat="44.03002" lon="3.85752">
        <ele>274.59</ele>
        <time>2016-05-01T09:01:35Z</time>
      </trkpt>
      <trkpt lat="44.03018" lon="3.85763">
        <ele>274.59</ele>
        <time>2016-05-01T09:01:36Z</time>
      </trkpt>
      <trkpt lat="44.03031" lon="3.85773">
        <ele>273.15</ele>
        <time>2016-05-01T09:01:37Z</time>
      </trkpt>
      <trkpt lat="44.03046" lon="3.85787">
        <ele>272.67</ele>
        <time>2016-05-01T09:01:38Z</time>
      </trkpt>
      <trkpt lat="44.0306" lon="3.85802">
        <ele>272.67</ele>
        <time>2016-05-01T09:01:39Z</time>
      </trkpt>
      <trkpt lat="44.03074" lon="3.85815">
        <ele>273.15</ele>
        <time>2016-05-01T09:01:40Z</time>
      </trkpt>
      <trkpt lat="44.03261" lon="3.85972">
        <ele>275.56</ele>
        <time>2016-05-01T09:01:53Z</time>
      </trkpt>
      <trkpt lat="44.03398" lon="3.86031">
        <ele>275.07</ele>
        <time>2016-05-01T09:02:01Z</time>
      </trkpt>
      <trkpt lat="44.03564" lon="3.86098">
        <ele>268.83</ele>
        <time>2016-05-01T09:02:11Z</time>
      </trkpt>
      <trkpt lat="44.03677" lon="3.86121">
        <ele>265.46</ele>
        <time>2016-05-01T09:02:19Z</time>
      </trkpt>
      <trkpt lat="44.03779" lon="3.8612">
        <ele>264.02</ele>
        <time>2016-05-01T09:02:26Z</time>
      </trkpt>
      <trkpt lat="44.03794" lon="3.86124">
        <ele>264.02</ele>
        <time>2016-05-01T09:02:27Z</time>
      </trkpt>
      <trkpt lat="44.0394" lon="3.86188">
        <ele>265.94</ele>
        <time>2016-05-01T09:02:36Z</time>
      </trkpt>
      <trkpt lat="44.03972" lon="3.86196">
        <ele>266.9</ele>
        <time>2016-05-01T09:02:38Z</time>
      </trkpt>
      <trkpt lat="44.03989" lon="3.86196">
        <ele>267.38</ele>
        <time>2016-05-01T09:02:39Z</time>
      </trkpt>
      <trkpt lat="44.04037" lon="3.86194">
        <ele>268.83</ele>
        <time>2016-05-01T09:02:42Z</time>
      </trkpt>
      <trkpt lat="44.04051" lon="3.86202">
        <ele>270.27</ele>
        <time>2016-05-01T09:02:43Z</time>
      </trkpt>
      <trkpt lat="44.04065" lon="3.86209">
        <ele>270.75</ele>
        <time>2016-05-01T09:02:44Z</time>
      </trkpt>
      <trkpt lat="44.04078" lon="3.86218">
        <ele>271.23</ele>
        <time>2016-05-01T09:02:45Z</time>
      </trkpt>
      <trkpt lat="44.0409" lon="3.86229">
        <ele>272.19</ele>
        <time>2016-05-01T09:02:46Z</time>
      </trkpt>
      <trkpt lat="44.04101" lon="3.8624">
        <ele>273.15</ele>
        <time>2016-05-01T09:02:47Z</time>
      </trkpt>
      <trkpt lat="44.04113" lon="3.86254">
        <ele>274.11</ele>
        <time>2016-05-01T09:02:48Z</time>
      </trkpt>
      <trkpt lat="44.04124" lon="3.8627">
        <ele>275.56</ele>
        <time>2016-05-01T09:02:49Z</time>
      </trkpt>
      <trkpt lat="44.04135" lon="3.86288">
        <ele>277</ele>
        <time>2016-05-01T09:02:50Z</time>
      </trkpt>
      <trkpt lat="44.04208" lon="3.86404">
        <ele>281.32</ele>
        <time>2016-05-01T09:02:57Z</time>
      </trkpt>
      <trkpt lat="44.04298" lon="3.86524">
        <ele>276.04</ele>
        <time>2016-05-01T09:03:05Z</time>
      </trkpt>
      <trkpt lat="44.04381" lon="3.86693">
        <ele>267.38</ele>
        <time>2016-05-01T09:03:12Z</time>
      </trkpt>
      <trkpt lat="44.04391" lon="3.86723">
        <ele>266.42</ele>
        <time>2016-05-01T09:03:13Z</time>
      </trkpt>
      <trkpt lat="44.04398" lon="3.86753">
        <ele>266.42</ele>
        <time>2016-05-01T09:03:14Z</time>
      </trkpt>
      <trkpt lat="44.04406" lon="3.86782">
        <ele>264.98</ele>
        <time>2016-05-01T09:03:15Z</time>
      </trkpt>
      <trkpt lat="44.04416" lon="3.8681">
        <ele>264.02</ele>
        <time>2016-05-01T09:03:16Z</time>
      </trkpt>
      <trkpt lat="44.04428" lon="3.86836">
        <ele>263.06</ele>
        <time>2016-05-01T09:03:17Z</time>
      </trkpt>
      <trkpt lat="44.04443" lon="3.8686">
        <ele>261.62</ele>
        <time>2016-05-01T09:03:18Z</time>
      </trkpt>
      <trkpt lat="44.0446" lon="3.86882">
        <ele>260.65</ele>
        <time>2016-05-01T09:03:19Z</time>
      </trkpt>
      <trkpt lat="44.0448" lon="3.86901">
        <ele>259.21</ele>
        <time>2016-05-01T09:03:20Z</time>
      </trkpt>
      <trkpt lat="44.04498" lon="3.86922">
        <ele>258.25</ele>
        <time>2016-05-01T09:03:21Z</time>
      </trkpt>
      <trkpt lat="44.04514" lon="3.86944">
        <ele>257.29</ele>
        <time>2016-05-01T09:03:22Z</time>
      </trkpt>
      <trkpt lat="44.04529" lon="3.86968">
        <ele>255.85</ele>
        <time>2016-05-01T09:03:23Z</time>
      </trkpt>
      <trkpt lat="44.04607" lon="3.87051">
        <ele>248.16</ele>
        <time>2016-05-01T09:03:28Z</time>
      </trkpt>
      <trkpt lat="44.04624" lon="3.87056">
        <ele>246.72</ele>
        <time>2016-05-01T09:03:29Z</time>
      </trkpt>
      <trkpt lat="44.04658" lon="3.87071">
        <ele>244.31</ele>
        <time>2016-05-01T09:03:31Z</time>
      </trkpt>
      <trkpt lat="44.04672" lon="3.87084">
        <ele>242.87</ele>
        <time>2016-05-01T09:03:32Z</time>
      </trkpt>
      <trkpt lat="44.04685" lon="3.87096">
        <ele>242.39</ele>
        <time>2016-05-01T09:03:33Z</time>
      </trkpt>
      <trkpt lat="44.047" lon="3.87106">
        <ele>241.43</ele>
        <time>2016-05-01T09:03:34Z</time>
      </trkpt>
      <trkpt lat="44.04714" lon="3.87113">
        <ele>240.47</ele>
        <time>2016-05-01T09:03:35Z</time>
      </trkpt>
      <trkpt lat="44.04729" lon="3.87118">
        <ele>239.51</ele>
        <time>2016-05-01T09:03:36Z</time>
      </trkpt>
      <trkpt lat="44.04744" lon="3.87121">
        <ele>238.54</ele>
        <time>2016-05-01T09:03:37Z</time>
      </trkpt>
      <trkpt lat="44.04759" lon="3.87118">
        <ele>238.06</ele>
        <time>2016-05-01T09:03:38Z</time>
      </trkpt>
      <trkpt lat="44.04773" lon="3.87114">
        <ele>237.1</ele>
        <time>2016-05-01T09:03:39Z</time>
      </trkpt>
      <trkpt lat="44.04785" lon="3.87112">
        <ele>236.14</ele>
        <time>2016-05-01T09:03:40Z</time>
      </trkpt>
      <trkpt lat="44.04797" lon="3.87115">
        <ele>234.7</ele>
        <time>2016-05-01T09:03:41Z</time>
      </trkpt>
      <trkpt lat="44.04806" lon="3.87124">
        <ele>233.74</ele>
        <time>2016-05-01T09:03:42Z</time>
      </trkpt>
      <trkpt lat="44.04809" lon="3.87141">
        <ele>233.26</ele>
        <time>2016-05-01T09:03:43Z</time>
      </trkpt>
      <trkpt lat="44.04809" lon="3.87159">
        <ele>232.78</ele>
        <time>2016-05-01T09:03:44Z</time>
      </trkpt>
      <trkpt lat="44.04803" lon="3.87175">
        <ele>231.81</ele>
        <time>2016-05-01T09:03:45Z</time>
      </trkpt>
      <trkpt lat="44.04791" lon="3.87189">
        <ele>231.33</ele>
        <time>2016-05-01T09:03:46Z</time>
      </trkpt>
      <trkpt lat="44.04778" lon="3.87198">
        <ele>232.3</ele>
        <time>2016-05-01T09:03:47Z</time>
      </trkpt>
      <trkpt lat="44.0476" lon="3.87212">
        <ele>231.33</ele>
        <time>2016-05-01T09:03:48Z</time>
      </trkpt>
      <trkpt lat="44.04749" lon="3.8723">
        <ele>229.41</ele>
        <time>2016-05-01T09:03:49Z</time>
      </trkpt>
      <trkpt lat="44.04674" lon="3.87342">
        <ele>226.05</ele>
        <time>2016-05-01T09:03:54Z</time>
      </trkpt>
      <trkpt lat="44.04651" lon="3.87385">
        <ele>225.09</ele>
        <time>2016-05-01T09:03:56Z</time>
      </trkpt>
      <trkpt lat="44.04642" lon="3.8741">
        <ele>224.61</ele>
        <time>2016-05-01T09:03:57Z</time>
      </trkpt>
      <trkpt lat="44.04635" lon="3.87437">
        <ele>223.64</ele>
        <time>2016-05-01T09:03:58Z</time>
      </trkpt>
      <trkpt lat="44.0463" lon="3.87465">
        <ele>222.68</ele>
        <time>2016-05-01T09:03:59Z</time>
      </trkpt>
      <trkpt lat="44.04626" lon="3.87494">
        <ele>221.24</ele>
        <time>2016-05-01T09:04:00Z</time>
      </trkpt>
      <trkpt lat="44.04624" lon="3.87523">
        <ele>220.76</ele>
        <time>2016-05-01T09:04:01Z</time>
      </trkpt>
      <trkpt lat="44.04625" lon="3.87554">
        <ele>220.28</ele>
        <time>2016-05-01T09:04:02Z</time>
      </trkpt>
      <trkpt lat="44.04627" lon="3.87585">
        <ele>219.32</ele>
        <time>2016-05-01T09:04:03Z</time>
      </trkpt>
      <trkpt lat="44.04617" lon="3.87775">
        <ele>214.99</ele>
        <time>2016-05-01T09:04:09Z</time>
      </trkpt>
      <trkpt lat="44.04606" lon="3.87852">
        <ele>212.59</ele>
        <time>2016-05-01T09:04:12Z</time>
      </trkpt>
      <trkpt lat="44.04598" lon="3.87871">
        <ele>212.11</ele>
        <time>2016-05-01T09:04:13Z</time>
      </trkpt>
      <trkpt lat="44.04586" lon="3.87887">
        <ele>211.15</ele>
        <time>2016-05-01T09:04:14Z</time>
      </trkpt>
      <trkpt lat="44.04571" lon="3.87899">
        <ele>210.19</ele>
        <time>2016-05-01T09:04:15Z</time>
      </trkpt>
      <trkpt lat="44.04555" lon="3.87911">
        <ele>209.7</ele>
        <time>2016-05-01T09:04:16Z</time>
      </trkpt>
      <trkpt lat="44.04536" lon="3.87919">
        <ele>208.74</ele>
        <time>2016-05-01T09:04:17Z</time>
      </trkpt>
      <trkpt lat="44.04516" lon="3.87925">
        <ele>207.78</ele>
        <time>2016-05-01T09:04:18Z</time>
      </trkpt>
      <trkpt lat="44.04497" lon="3.87929">
        <ele>207.78</ele>
        <time>2016-05-01T09:04:19Z</time>
      </trkpt>
      <trkpt lat="44.0448" lon="3.87932">
        <ele>207.78</ele>
        <time>2016-05-01T09:04:20Z</time>
      </trkpt>
      <trkpt lat="44.04464" lon="3.87938">
        <ele>207.78</ele>
        <time>2016-05-01T09:04:21Z</time>
      </trkpt>
      <trkpt lat="44.0445" lon="3.87946">
        <ele>206.82</ele>
        <time>2016-05-01T09:04:22Z</time>
      </trkpt>
      <trkpt lat="44.04437" lon="3.87961">
        <ele>206.34</ele>
        <time>2016-05-01T09:04:23Z</time>
      </trkpt>
      <trkpt lat="44.04427" lon="3.87983">
        <ele>205.86</ele>
        <time>2016-05-01T09:04:24Z</time>
      </trkpt>
      <trkpt lat="44.04417" lon="3.88006">
        <ele>206.82</ele>
        <time>2016-05-01T09:04:25Z</time>
      </trkpt>
      <trkpt lat="44.04408" lon="3.88032">
        <ele>207.78</ele>
        <time>2016-05-01T09:04:26Z</time>
      </trkpt>
      <trkpt lat="44.04399" lon="3.88056">
        <ele>209.22</ele>
        <time>2016-05-01T09:04:27Z</time>
      </trkpt>
      <trkpt lat="44.04371" lon="3.88187">
        <ele>212.11</ele>
        <time>2016-05-01T09:04:33Z</time>
      </trkpt>
      <trkpt lat="44.04363" lon="3.88355">
        <ele>214.51</ele>
        <time>2016-05-01T09:04:38Z</time>
      </trkpt>
      <trkpt lat="44.04357" lon="3.88417">
        <ele>215.47</ele>
        <time>2016-05-01T09:04:40Z</time>
      </trkpt>
      <trkpt lat="44.04351" lon="3.88447">
        <ele>215.95</ele>
        <time>2016-05-01T09:04:41Z</time>
      </trkpt>
      <trkpt lat="44.04341" lon="3.88474">
        <ele>216.91</ele>
        <time>2016-05-01T09:04:42Z</time>
      </trkpt>
      <trkpt lat="44.0431" lon="3.88585">
        <ele>219.32</ele>
        <time>2016-05-01T09:04:46Z</time>
      </trkpt>
      <trkpt lat="44.04295" lon="3.88729">
        <ele>219.8</ele>
        <time>2016-05-01T09:04:51Z</time>
      </trkpt>
      <trkpt lat="44.04298" lon="3.88755">
        <ele>220.28</ele>
        <time>2016-05-01T09:04:52Z</time>
      </trkpt>
      <trkpt lat="44.04303" lon="3.88782">
        <ele>220.76</ele>
        <time>2016-05-01T09:04:53Z</time>
      </trkpt>
      <trkpt lat="44.0434" lon="3.88926">
        <ele>221.24</ele>
        <time>2016-05-01T09:04:58Z</time>
      </trkpt>
      <trkpt lat="44.04352" lon="3.88953">
        <ele>220.76</ele>
        <time>2016-05-01T09:04:59Z</time>
      </trkpt>
      <trkpt lat="44.04403" lon="3.89115">
        <ele>216.43</ele>
        <time>2016-05-01T09:05:04Z</time>
      </trkpt>
      <trkpt lat="44.04457" lon="3.89318">
        <ele>209.22</ele>
        <time>2016-05-01T09:05:09Z</time>
      </trkpt>
      <trkpt lat="44.04464" lon="3.89358">
        <ele>208.74</ele>
        <time>2016-05-01T09:05:10Z</time>
      </trkpt>
      <trkpt lat="44.04468" lon="3.89398">
        <ele>208.26</ele>
        <time>2016-05-01T09:05:11Z</time>
      </trkpt>
      <trkpt lat="44.04493" lon="3.89593">
        <ele>204.9</ele>
        <time>2016-05-01T09:05:17Z</time>
      </trkpt>
      <trkpt lat="44.04504" lon="3.8961">
        <ele>204.9</ele>
        <time>2016-05-01T09:05:18Z</time>
      </trkpt>
      <trkpt lat="44.04522" lon="3.89622">
        <ele>203.94</ele>
        <time>2016-05-01T09:05:19Z</time>
      </trkpt>
      <trkpt lat="44.0454" lon="3.89636">
        <ele>203.46</ele>
        <time>2016-05-01T09:05:20Z</time>
      </trkpt>
      <trkpt lat="44.04562" lon="3.89649">
        <ele>203.46</ele>
        <time>2016-05-01T09:05:21Z</time>
      </trkpt>
      <trkpt lat="44.04586" lon="3.89665">
        <ele>202.98</ele>
        <time>2016-05-01T09:05:22Z</time>
      </trkpt>
      <trkpt lat="44.04682" lon="3.89772">
        <ele>206.34</ele>
        <time>2016-05-01T09:05:27Z</time>
      </trkpt>
      <trkpt lat="44.04691" lon="3.89798">
        <ele>206.82</ele>
        <time>2016-05-01T09:05:28Z</time>
      </trkpt>
      <trkpt lat="44.04741" lon="3.89889">
        <ele>205.86</ele>
        <time>2016-05-01T09:05:32Z</time>
      </trkpt>
      <trkpt lat="44.04763" lon="3.89908">
        <ele>204.9</ele>
        <time>2016-05-01T09:05:33Z</time>
      </trkpt>
      <trkpt lat="44.04788" lon="3.89925">
        <ele>203.94</ele>
        <time>2016-05-01T09:05:34Z</time>
      </trkpt>
      <trkpt lat="44.04815" lon="3.89942">
        <ele>202.49</ele>
        <time>2016-05-01T09:05:35Z</time>
      </trkpt>
      <trkpt lat="44.04842" lon="3.89957">
        <ele>202.01</ele>
        <time>2016-05-01T09:05:36Z</time>
      </trkpt>
      <trkpt lat="44.04869" lon="3.89971">
        <ele>202.01</ele>
        <time>2016-05-01T09:05:37Z</time>
      </trkpt>
      <trkpt lat="44.05028" lon="3.90106">
        <ele>205.86</ele>
        <time>2016-05-01T09:05:44Z</time>
      </trkpt>
      <trkpt lat="44.05069" lon="3.9016">
        <ele>207.78</ele>
        <time>2016-05-01T09:05:47Z</time>
      </trkpt>
      <trkpt lat="44.05089" lon="3.90166">
        <ele>208.26</ele>
        <time>2016-05-01T09:05:48Z</time>
      </trkpt>
      <trkpt lat="44.05109" lon="3.90173">
        <ele>209.7</ele>
        <time>2016-05-01T09:05:49Z</time>
      </trkpt>
      <trkpt lat="44.05134" lon="3.90177">
        <ele>210.67</ele>
        <time>2016-05-01T09:05:50Z</time>
      </trkpt>
      <trkpt lat="44.0516" lon="3.90183">
        <ele>211.63</ele>
        <time>2016-05-01T09:05:51Z</time>
      </trkpt>
      <trkpt lat="44.05327" lon="3.902">
        <ele>218.84</ele>
        <time>2016-05-01T09:05:58Z</time>
      </trkpt>
      <trkpt lat="44.05345" lon="3.90197">
        <ele>219.8</ele>
        <time>2016-05-01T09:05:59Z</time>
      </trkpt>
      <trkpt lat="44.0536" lon="3.902">
        <ele>220.28</ele>
        <time>2016-05-01T09:06:00Z</time>
      </trkpt>
      <trkpt lat="44.05372" lon="3.90209">
        <ele>221.24</ele>
        <time>2016-05-01T09:06:01Z</time>
      </trkpt>
      <trkpt lat="44.05382" lon="3.90227">
        <ele>221.72</ele>
        <time>2016-05-01T09:06:02Z</time>
      </trkpt>
      <trkpt lat="44.05389" lon="3.90251">
        <ele>221.72</ele>
        <time>2016-05-01T09:06:03Z</time>
      </trkpt>
      <trkpt lat="44.05392" lon="3.9028">
        <ele>222.68</ele>
        <time>2016-05-01T09:06:04Z</time>
      </trkpt>
      <trkpt lat="44.05396" lon="3.9031">
        <ele>222.2</ele>
        <time>2016-05-01T09:06:05Z</time>
      </trkpt>
      <trkpt lat="44.05402" lon="3.90339">
        <ele>222.2</ele>
        <time>2016-05-01T09:06:06Z</time>
      </trkpt>
      <trkpt lat="44.0541" lon="3.90365">
        <ele>222.68</ele>
        <time>2016-05-01T09:06:07Z</time>
      </trkpt>
      <trkpt lat="44.05423" lon="3.90387">
        <ele>223.16</ele>
        <time>2016-05-01T09:06:08Z</time>
      </trkpt>
      <trkpt lat="44.05437" lon="3.90404">
        <ele>223.16</ele>
        <time>2016-05-01T09:06:09Z</time>
      </trkpt>
      <trkpt lat="44.0546" lon="3.90417">
        <ele>223.64</ele>
        <time>2016-05-01T09:06:10Z</time>
      </trkpt>
      <trkpt lat="44.05484" lon="3.9043">
        <ele>224.12</ele>
        <time>2016-05-01T09:06:11Z</time>
      </trkpt>
      <trkpt lat="44.05509" lon="3.90444">
        <ele>224.12</ele>
        <time>2016-05-01T09:06:12Z</time>
      </trkpt>
      <trkpt lat="44.05532" lon="3.90459">
        <ele>223.64</ele>
        <time>2016-05-01T09:06:13Z</time>
      </trkpt>
      <trkpt lat="44.05577" lon="3.90484">
        <ele>223.16</ele>
        <time>2016-05-01T09:06:15Z</time>
      </trkpt>
      <trkpt lat="44.05602" lon="3.90487">
        <ele>222.68</ele>
        <time>2016-05-01T09:06:16Z</time>
      </trkpt>
      <trkpt lat="44.05626" lon="3.90488">
        <ele>222.68</ele>
        <time>2016-05-01T09:06:17Z</time>
      </trkpt>
      <trkpt lat="44.0565" lon="3.90491">
        <ele>222.68</ele>
        <time>2016-05-01T09:06:18Z</time>
      </trkpt>
      <trkpt lat="44.05673" lon="3.905">
        <ele>222.68</ele>
        <time>2016-05-01T09:06:19Z</time>
      </trkpt>
      <trkpt lat="44.05696" lon="3.90513">
        <ele>223.16</ele>
        <time>2016-05-01T09:06:20Z</time>
      </trkpt>
      <trkpt lat="44.05719" lon="3.90529">
        <ele>223.64</ele>
        <time>2016-05-01T09:06:21Z</time>
      </trkpt>
      <trkpt lat="44.05742" lon="3.90544">
        <ele>224.12</ele>
        <time>2016-05-01T09:06:22Z</time>
      </trkpt>
      <trkpt lat="44.05792" lon="3.90566">
        <ele>225.09</ele>
        <time>2016-05-01T09:06:24Z</time>
      </trkpt>
      <trkpt lat="44.05892" lon="3.9063">
        <ele>226.53</ele>
        <time>2016-05-01T09:06:28Z</time>
      </trkpt>
      <trkpt lat="44.05914" lon="3.90655">
        <ele>226.53</ele>
        <time>2016-05-01T09:06:29Z</time>
      </trkpt>
      <trkpt lat="44.05934" lon="3.90684">
        <ele>226.05</ele>
        <time>2016-05-01T09:06:30Z</time>
      </trkpt>
      <trkpt lat="44.05953" lon="3.90716">
        <ele>226.05</ele>
        <time>2016-05-01T09:06:31Z</time>
      </trkpt>
      <trkpt lat="44.0597" lon="3.90748">
        <ele>225.57</ele>
        <time>2016-05-01T09:06:32Z</time>
      </trkpt>
      <trkpt lat="44.06073" lon="3.90948">
        <ele>224.12</ele>
        <time>2016-05-01T09:06:39Z</time>
      </trkpt>
      <trkpt lat="44.06121" lon="3.91056">
        <ele>221.72</ele>
        <time>2016-05-01T09:06:43Z</time>
      </trkpt>
      <trkpt lat="44.06128" lon="3.91091">
        <ele>220.76</ele>
        <time>2016-05-01T09:06:44Z</time>
      </trkpt>
      <trkpt lat="44.06132" lon="3.91127">
        <ele>220.76</ele>
        <time>2016-05-01T09:06:45Z</time>
      </trkpt>
      <trkpt lat="44.06133" lon="3.91161">
        <ele>220.28</ele>
        <time>2016-05-01T09:06:46Z</time>
      </trkpt>
      <trkpt lat="44.06132" lon="3.91194">
        <ele>220.28</ele>
        <time>2016-05-01T09:06:47Z</time>
      </trkpt>
      <trkpt lat="44.06134" lon="3.91225">
        <ele>220.28</ele>
        <time>2016-05-01T09:06:48Z</time>
      </trkpt>
      <trkpt lat="44.06142" lon="3.91255">
        <ele>220.76</ele>
        <time>2016-05-01T09:06:49Z</time>
      </trkpt>
      <trkpt lat="44.06154" lon="3.91285">
        <ele>221.24</ele>
        <time>2016-05-01T09:06:50Z</time>
      </trkpt>
      <trkpt lat="44.06168" lon="3.91313">
        <ele>221.24</ele>
        <time>2016-05-01T09:06:51Z</time>
      </trkpt>
      <trkpt lat="44.0618" lon="3.91343">
        <ele>221.24</ele>
        <time>2016-05-01T09:06:52Z</time>
      </trkpt>
      <trkpt lat="44.0619" lon="3.91375">
        <ele>221.24</ele>
        <time>2016-05-01T09:06:53Z</time>
      </trkpt>
      <trkpt lat="44.06196" lon="3.91409">
        <ele>221.72</ele>
        <time>2016-05-01T09:06:54Z</time>
      </trkpt>
      <trkpt lat="44.06198" lon="3.91444">
        <ele>220.76</ele>
        <time>2016-05-01T09:06:55Z</time>
      </trkpt>
      <trkpt lat="44.06198" lon="3.91482">
        <ele>220.28</ele>
        <time>2016-05-01T09:06:56Z</time>
      </trkpt>
      <trkpt lat="44.06196" lon="3.91522">
        <ele>219.32</ele>
        <time>2016-05-01T09:06:57Z</time>
      </trkpt>
      <trkpt lat="44.06192" lon="3.91562">
        <ele>218.36</ele>
        <time>2016-05-01T09:06:58Z</time>
      </trkpt>
      <trkpt lat="44.06184" lon="3.91602">
        <ele>218.36</ele>
        <time>2016-05-01T09:06:59Z</time>
      </trkpt>
      <trkpt lat="44.06174" lon="3.91638">
        <ele>217.4</ele>
        <time>2016-05-01T09:07:00Z</time>
      </trkpt>
      <trkpt lat="44.06152" lon="3.91757">
        <ele>218.36</ele>
        <time>2016-05-01T09:07:04Z</time>
      </trkpt>
      <trkpt lat="44.06159" lon="3.91788">
        <ele>217.88</ele>
        <time>2016-05-01T09:07:05Z</time>
      </trkpt>
      <trkpt lat="44.0617" lon="3.91821">
        <ele>216.43</ele>
        <time>2016-05-01T09:07:06Z</time>
      </trkpt>
      <trkpt lat="44.06183" lon="3.91855">
        <ele>215.47</ele>
        <time>2016-05-01T09:07:07Z</time>
      </trkpt>
      <trkpt lat="44.06196" lon="3.91892">
        <ele>214.99</ele>
        <time>2016-05-01T09:07:08Z</time>
      </trkpt>
      <trkpt lat="44.06284" lon="3.92093">
        <ele>214.99</ele>
        <time>2016-05-01T09:07:14Z</time>
      </trkpt>
      <trkpt lat="44.06322" lon="3.92227">
        <ele>211.63</ele>
        <time>2016-05-01T09:07:18Z</time>
      </trkpt>
      <trkpt lat="44.06323" lon="3.92258">
        <ele>211.15</ele>
        <time>2016-05-01T09:07:19Z</time>
      </trkpt>
      <trkpt lat="44.0632" lon="3.92289">
        <ele>210.67</ele>
        <time>2016-05-01T09:07:20Z</time>
      </trkpt>
      <trkpt lat="44.06315" lon="3.9232">
        <ele>209.7</ele>
        <time>2016-05-01T09:07:21Z</time>
      </trkpt>
      <trkpt lat="44.0631" lon="3.92352">
        <ele>208.74</ele>
        <time>2016-05-01T09:07:22Z</time>
      </trkpt>
      <trkpt lat="44.06306" lon="3.92422">
        <ele>206.82</ele>
        <time>2016-05-01T09:07:24Z</time>
      </trkpt>
      <trkpt lat="44.0631" lon="3.92459">
        <ele>205.86</ele>
        <time>2016-05-01T09:07:25Z</time>
      </trkpt>
      <trkpt lat="44.06333" lon="3.92713">
        <ele>197.69</ele>
        <time>2016-05-01T09:07:32Z</time>
      </trkpt>
      <trkpt lat="44.06338" lon="3.92744">
        <ele>196.25</ele>
        <time>2016-05-01T09:07:33Z</time>
      </trkpt>
      <trkpt lat="44.06345" lon="3.92772">
        <ele>195.77</ele>
        <time>2016-05-01T09:07:34Z</time>
      </trkpt>
      <trkpt lat="44.06362" lon="3.92854">
        <ele>192.88</ele>
        <time>2016-05-01T09:07:37Z</time>
      </trkpt>
      <trkpt lat="44.06361" lon="3.92884">
        <ele>191.44</ele>
        <time>2016-05-01T09:07:38Z</time>
      </trkpt>
      <trkpt lat="44.06335" lon="3.9308">
        <ele>185.19</ele>
        <time>2016-05-01T09:07:44Z</time>
      </trkpt>
      <trkpt lat="44.06334" lon="3.93111">
        <ele>184.23</ele>
        <time>2016-05-01T09:07:45Z</time>
      </trkpt>
      <trkpt lat="44.06337" lon="3.93142">
        <ele>182.79</ele>
        <time>2016-05-01T09:07:46Z</time>
      </trkpt>
      <trkpt lat="44.06343" lon="3.93173">
        <ele>181.83</ele>
        <time>2016-05-01T09:07:47Z</time>
      </trkpt>
      <trkpt lat="44.06352" lon="3.93203">
        <ele>180.87</ele>
        <time>2016-05-01T09:07:48Z</time>
      </trkpt>
      <trkpt lat="44.06366" lon="3.9323">
        <ele>178.94</ele>
        <time>2016-05-01T09:07:49Z</time>
      </trkpt>
      <trkpt lat="44.06389" lon="3.93255">
        <ele>176.54</ele>
        <time>2016-05-01T09:07:50Z</time>
      </trkpt>
      <trkpt lat="44.06411" lon="3.9328">
        <ele>174.62</ele>
        <time>2016-05-01T09:07:51Z</time>
      </trkpt>
      <trkpt lat="44.06431" lon="3.93303">
        <ele>172.69</ele>
        <time>2016-05-01T09:07:52Z</time>
      </trkpt>
      <trkpt lat="44.06489" lon="3.93339">
        <ele>167.89</ele>
        <time>2016-05-01T09:07:55Z</time>
      </trkpt>
      <trkpt lat="44.06512" lon="3.93347">
        <ele>165.96</ele>
        <time>2016-05-01T09:07:56Z</time>
      </trkpt>
      <trkpt lat="44.06589" lon="3.93384">
        <ele>162.12</ele>
        <time>2016-05-01T09:07:59Z</time>
      </trkpt>
      <trkpt lat="44.06614" lon="3.93405">
        <ele>161.16</ele>
        <time>2016-05-01T09:08:00Z</time>
      </trkpt>
      <trkpt lat="44.06638" lon="3.93432">
        <ele>159.72</ele>
        <time>2016-05-01T09:08:01Z</time>
      </trkpt>
      <trkpt lat="44.06661" lon="3.93461">
        <ele>158.75</ele>
        <time>2016-05-01T09:08:02Z</time>
      </trkpt>
      <trkpt lat="44.06681" lon="3.9349">
        <ele>158.75</ele>
        <time>2016-05-01T09:08:03Z</time>
      </trkpt>
      <trkpt lat="44.06699" lon="3.93518">
        <ele>158.27</ele>
        <time>2016-05-01T09:08:04Z</time>
      </trkpt>
      <trkpt lat="44.0675" lon="3.93582">
        <ele>156.35</ele>
        <time>2016-05-01T09:08:08Z</time>
      </trkpt>
      <trkpt lat="44.06764" lon="3.93583">
        <ele>155.87</ele>
        <time>2016-05-01T09:08:09Z</time>
      </trkpt>
      <trkpt lat="44.0678" lon="3.93577">
        <ele>154.91</ele>
        <time>2016-05-01T09:08:10Z</time>
      </trkpt>
      <trkpt lat="44.06799" lon="3.93569">
        <ele>154.43</ele>
        <time>2016-05-01T09:08:11Z</time>
      </trkpt>
      <trkpt lat="44.06819" lon="3.93558">
        <ele>152.99</ele>
        <time>2016-05-01T09:08:12Z</time>
      </trkpt>
      <trkpt lat="44.06841" lon="3.93539">
        <ele>152.51</ele>
        <time>2016-05-01T09:08:13Z</time>
      </trkpt>
      <trkpt lat="44.06862" lon="3.9352">
        <ele>153.95</ele>
        <time>2016-05-01T09:08:14Z</time>
      </trkpt>
      <trkpt lat="44.06906" lon="3.93495">
        <ele>154.91</ele>
        <time>2016-05-01T09:08:16Z</time>
      </trkpt>
      <trkpt lat="44.06928" lon="3.93491">
        <ele>154.91</ele>
        <time>2016-05-01T09:08:17Z</time>
      </trkpt>
      <trkpt lat="44.06951" lon="3.9349">
        <ele>155.39</ele>
        <time>2016-05-01T09:08:18Z</time>
      </trkpt>
      <trkpt lat="44.06974" lon="3.93486">
        <ele>155.39</ele>
        <time>2016-05-01T09:08:19Z</time>
      </trkpt>
      <trkpt lat="44.06995" lon="3.93476">
        <ele>155.87</ele>
        <time>2016-05-01T09:08:20Z</time>
      </trkpt>
      <trkpt lat="44.07015" lon="3.93464">
        <ele>156.35</ele>
        <time>2016-05-01T09:08:21Z</time>
      </trkpt>
      <trkpt lat="44.07032" lon="3.93453">
        <ele>156.35</ele>
        <time>2016-05-01T09:08:22Z</time>
      </trkpt>
      <trkpt lat="44.07062" lon="3.9345">
        <ele>156.83</ele>
        <time>2016-05-01T09:08:24Z</time>
      </trkpt>
      <trkpt lat="44.07076" lon="3.9346">
        <ele>156.83</ele>
        <time>2016-05-01T09:08:25Z</time>
      </trkpt>
      <trkpt lat="44.0709" lon="3.93479">
        <ele>157.31</ele>
        <time>2016-05-01T09:08:26Z</time>
      </trkpt>
      <trkpt lat="44.07103" lon="3.93497">
        <ele>157.79</ele>
        <time>2016-05-01T09:08:27Z</time>
      </trkpt>
      <trkpt lat="44.07116" lon="3.93513">
        <ele>157.31</ele>
        <time>2016-05-01T09:08:28Z</time>
      </trkpt>
      <trkpt lat="44.07129" lon="3.93528">
        <ele>156.83</ele>
        <time>2016-05-01T09:08:29Z</time>
      </trkpt>
      <trkpt lat="44.07145" lon="3.93537">
        <ele>157.31</ele>
        <time>2016-05-01T09:08:30Z</time>
      </trkpt>
      <trkpt lat="44.07164" lon="3.93542">
        <ele>156.83</ele>
        <time>2016-05-01T09:08:31Z</time>
      </trkpt>
      <trkpt lat="44.07185" lon="3.93545">
        <ele>156.83</ele>
        <time>2016-05-01T09:08:32Z</time>
      </trkpt>
      <trkpt lat="44.0721" lon="3.93547">
        <ele>156.35</ele>
        <time>2016-05-01T09:08:33Z</time>
      </trkpt>
      <trkpt lat="44.07338" lon="3.93565">
        <ele>154.43</ele>
        <time>2016-05-01T09:08:39Z</time>
      </trkpt>
      <trkpt lat="44.07367" lon="3.93572">
        <ele>154.91</ele>
        <time>2016-05-01T09:08:42Z</time>
      </trkpt>
      <trkpt lat="44.07372" lon="3.93576">
        <ele>154.91</ele>
        <time>2016-05-01T09:08:43Z</time>
      </trkpt>
      <trkpt lat="44.07377" lon="3.93582">
        <ele>154.91</ele>
        <time>2016-05-01T09:08:44Z</time>
      </trkpt>
      <trkpt lat="44.07383" lon="3.93589">
        <ele>154.91</ele>
        <time>2016-05-01T09:08:45Z</time>
      </trkpt>
      <trkpt lat="44.07388" lon="3.93597">
        <ele>154.43</ele>
        <time>2016-05-01T09:08:46Z</time>
      </trkpt>
      <trkpt lat="44.07393" lon="3.93605">
        <ele>153.95</ele>
        <time>2016-05-01T09:08:47Z</time>
      </trkpt>
      <trkpt lat="44.07396" lon="3.93615">
        <ele>153.95</ele>
        <time>2016-05-01T09:08:48Z</time>
      </trkpt>
      <trkpt lat="44.07399" lon="3.93624">
        <ele>153.95</ele>
        <time>2016-05-01T09:08:49Z</time>
      </trkpt>
      <trkpt lat="44.074" lon="3.93633">
        <ele>153.95</ele>
        <time>2016-05-01T09:08:50Z</time>
      </trkpt>
      <trkpt lat="44.074" lon="3.93641">
        <ele>153.95</ele>
        <time>2016-05-01T09:08:51Z</time>
      </trkpt>
      <trkpt lat="44.074" lon="3.93649">
        <ele>153.95</ele>
        <time>2016-05-01T09:08:52Z</time>
      </trkpt>
      <trkpt lat="44.07399" lon="3.93657">
        <ele>153.95</ele>
        <time>2016-05-01T09:08:53Z</time>
      </trkpt>
      <trkpt lat="44.07397" lon="3.93664">
        <ele>153.95</ele>
        <time>2016-05-01T09:08:54Z</time>
      </trkpt>
      <trkpt lat="44.07384" lon="3.93693">
        <ele>152.99</ele>
        <time>2016-05-01T09:09:04Z</time>
      </trkpt>
      <trkpt lat="44.07384" lon="3.93696">
        <ele>153.47</ele>
        <time>2016-05-01T09:09:16Z</time>
      </trkpt>
      <trkpt lat="44.07383" lon="3.93705">
        <ele>152.51</ele>
        <time>2016-05-01T09:09:34Z</time>
      </trkpt>
      <trkpt lat="44.07382" lon="3.93716">
        <ele>152.51</ele>
        <time>2016-05-01T09:09:35Z</time>
      </trkpt>
      <trkpt lat="44.07378" lon="3.9374">
        <ele>152.51</ele>
        <time>2016-05-01T09:09:37Z</time>
      </trkpt>
      <trkpt lat="44.07381" lon="3.9375">
        <ele>152.51</ele>
        <time>2016-05-01T09:09:38Z</time>
      </trkpt>
      <trkpt lat="44.07384" lon="3.93755">
        <ele>152.03</ele>
        <time>2016-05-01T09:09:39Z</time>
      </trkpt>
      <trkpt lat="44.07395" lon="3.93755">
        <ele>151.54</ele>
        <time>2016-05-01T09:09:40Z</time>
      </trkpt>
      <trkpt lat="44.07404" lon="3.93751">
        <ele>151.54</ele>
        <time>2016-05-01T09:09:41Z</time>
      </trkpt>
      <trkpt lat="44.07414" lon="3.93749">
        <ele>152.03</ele>
        <time>2016-05-01T09:09:42Z</time>
      </trkpt>
      <trkpt lat="44.07425" lon="3.93752">
        <ele>152.03</ele>
        <time>2016-05-01T09:09:43Z</time>
      </trkpt>
      <trkpt lat="44.07435" lon="3.93759">
        <ele>152.03</ele>
        <time>2016-05-01T09:09:44Z</time>
      </trkpt>
      <trkpt lat="44.07445" lon="3.9377">
        <ele>152.99</ele>
        <time>2016-05-01T09:09:45Z</time>
      </trkpt>
      <trkpt lat="44.07456" lon="3.93781">
        <ele>152.99</ele>
        <time>2016-05-01T09:09:46Z</time>
      </trkpt>
      <trkpt lat="44.07502" lon="3.93821">
        <ele>153.95</ele>
        <time>2016-05-01T09:09:51Z</time>
      </trkpt>
      <trkpt lat="44.07512" lon="3.93818">
        <ele>153.95</ele>
        <time>2016-05-01T09:09:52Z</time>
      </trkpt>
      <trkpt lat="44.07521" lon="3.93806">
        <ele>153.95</ele>
        <time>2016-05-01T09:09:53Z</time>
      </trkpt>
      <trkpt lat="44.07527" lon="3.93788">
        <ele>153.95</ele>
        <time>2016-05-01T09:09:54Z</time>
      </trkpt>
      <trkpt lat="44.07535" lon="3.93768">
        <ele>153.47</ele>
        <time>2016-05-01T09:09:55Z</time>
      </trkpt>
      <trkpt lat="44.07544" lon="3.93745">
        <ele>153.95</ele>
        <time>2016-05-01T09:09:56Z</time>
      </trkpt>
      <trkpt lat="44.07585" lon="3.93671">
        <ele>153.95</ele>
        <time>2016-05-01T09:09:59Z</time>
      </trkpt>
      <trkpt lat="44.07605" lon="3.93648">
        <ele>153.95</ele>
        <time>2016-05-01T09:10:00Z</time>
      </trkpt>
      <trkpt lat="44.0772" lon="3.93506">
        <ele>153.95</ele>
        <time>2016-05-01T09:10:06Z</time>
      </trkpt>
      <trkpt lat="44.07735" lon="3.93477">
        <ele>153.95</ele>
        <time>2016-05-01T09:10:07Z</time>
      </trkpt>
      <trkpt lat="44.07748" lon="3.93445">
        <ele>153.47</ele>
        <time>2016-05-01T09:10:08Z</time>
      </trkpt>
      <trkpt lat="44.07757" lon="3.93413">
        <ele>153.47</ele>
        <time>2016-05-01T09:10:09Z</time>
      </trkpt>
      <trkpt lat="44.07764" lon="3.9338">
        <ele>153.47</ele>
        <time>2016-05-01T09:10:10Z</time>
      </trkpt>
      <trkpt lat="44.07766" lon="3.93346">
        <ele>153.47</ele>
        <time>2016-05-01T09:10:11Z</time>
      </trkpt>
      <trkpt lat="44.07763" lon="3.93311">
        <ele>153.95</ele>
        <time>2016-05-01T09:10:12Z</time>
      </trkpt>
      <trkpt lat="44.07756" lon="3.93276">
        <ele>153.47</ele>
        <time>2016-05-01T09:10:13Z</time>
      </trkpt>
      <trkpt lat="44.07745" lon="3.9324">
        <ele>153.95</ele>
        <time>2016-05-01T09:10:14Z</time>
      </trkpt>
      <trkpt lat="44.07727" lon="3.93205">
        <ele>154.43</ele>
        <time>2016-05-01T09:10:15Z</time>
      </trkpt>
      <trkpt lat="44.07707" lon="3.93171">
        <ele>154.91</ele>
        <time>2016-05-01T09:10:16Z</time>
      </trkpt>
      <trkpt lat="44.07685" lon="3.93139">
        <ele>156.83</ele>
        <time>2016-05-01T09:10:17Z</time>
      </trkpt>
      <trkpt lat="44.07662" lon="3.9311">
        <ele>157.79</ele>
        <time>2016-05-01T09:10:18Z</time>
      </trkpt>
      <trkpt lat="44.0764" lon="3.93085">
        <ele>158.75</ele>
        <time>2016-05-01T09:10:19Z</time>
      </trkpt>
      <trkpt lat="44.0762" lon="3.93064">
        <ele>159.72</ele>
        <time>2016-05-01T09:10:20Z</time>
      </trkpt>
      <trkpt lat="44.07596" lon="3.93019">
        <ele>162.12</ele>
        <time>2016-05-01T09:10:22Z</time>
      </trkpt>
      <trkpt lat="44.07595" lon="3.92994">
        <ele>163.08</ele>
        <time>2016-05-01T09:10:23Z</time>
      </trkpt>
      <trkpt lat="44.07597" lon="3.92969">
        <ele>163.08</ele>
        <time>2016-05-01T09:10:24Z</time>
      </trkpt>
      <trkpt lat="44.076" lon="3.92944">
        <ele>164.04</ele>
        <time>2016-05-01T09:10:25Z</time>
      </trkpt>
      <trkpt lat="44.0761" lon="3.92923">
        <ele>165.48</ele>
        <time>2016-05-01T09:10:26Z</time>
      </trkpt>
      <trkpt lat="44.07623" lon="3.92908">
        <ele>166.45</ele>
        <time>2016-05-01T09:10:27Z</time>
      </trkpt>
      <trkpt lat="44.07638" lon="3.92896">
        <ele>167.41</ele>
        <time>2016-05-01T09:10:28Z</time>
      </trkpt>
      <trkpt lat="44.07661" lon="3.92889">
        <ele>169.81</ele>
        <time>2016-05-01T09:10:29Z</time>
      </trkpt>
      <trkpt lat="44.07681" lon="3.92884">
        <ele>169.33</ele>
        <time>2016-05-01T09:10:30Z</time>
      </trkpt>
      <trkpt lat="44.07702" lon="3.92883">
        <ele>169.33</ele>
        <time>2016-05-01T09:10:31Z</time>
      </trkpt>
      <trkpt lat="44.07722" lon="3.92879">
        <ele>168.85</ele>
        <time>2016-05-01T09:10:32Z</time>
      </trkpt>
      <trkpt lat="44.07827" lon="3.92848">
        <ele>165</ele>
        <time>2016-05-01T09:10:37Z</time>
      </trkpt>
      <trkpt lat="44.07848" lon="3.92832">
        <ele>164.52</ele>
        <time>2016-05-01T09:10:38Z</time>
      </trkpt>
      <trkpt lat="44.07868" lon="3.92804">
        <ele>164.52</ele>
        <time>2016-05-01T09:10:39Z</time>
      </trkpt>
      <trkpt lat="44.07886" lon="3.92777">
        <ele>164.52</ele>
        <time>2016-05-01T09:10:40Z</time>
      </trkpt>
      <trkpt lat="44.07903" lon="3.92748">
        <ele>164.52</ele>
        <time>2016-05-01T09:10:41Z</time>
      </trkpt>
      <trkpt lat="44.08007" lon="3.92557">
        <ele>170.29</ele>
        <time>2016-05-01T09:10:48Z</time>
      </trkpt>
      <trkpt lat="44.08129" lon="3.92356">
        <ele>173.17</ele>
        <time>2016-05-01T09:10:57Z</time>
      </trkpt>
      <trkpt lat="44.08251" lon="3.92214">
        <ele>169.81</ele>
        <time>2016-05-01T09:11:03Z</time>
      </trkpt>
      <trkpt lat="44.08455" lon="3.92007">
        <ele>173.17</ele>
        <time>2016-05-01T09:11:10Z</time>
      </trkpt>
      <trkpt lat="44.08623" lon="3.9188">
        <ele>182.31</ele>
        <time>2016-05-01T09:11:16Z</time>
      </trkpt>
      <trkpt lat="44.08789" lon="3.91789">
        <ele>192.88</ele>
        <time>2016-05-01T09:11:23Z</time>
      </trkpt>
      <trkpt lat="44.08997" lon="3.91696">
        <ele>203.46</ele>
        <time>2016-05-01T09:11:32Z</time>
      </trkpt>
      <trkpt lat="44.09021" lon="3.91697">
        <ele>202.01</ele>
        <time>2016-05-01T09:11:33Z</time>
      </trkpt>
      <trkpt lat="44.09228" lon="3.91733">
        <ele>201.53</ele>
        <time>2016-05-01T09:11:41Z</time>
      </trkpt>
      <trkpt lat="44.09253" lon="3.91751">
        <ele>202.01</ele>
        <time>2016-05-01T09:11:42Z</time>
      </trkpt>
      <trkpt lat="44.09279" lon="3.91772">
        <ele>200.57</ele>
        <time>2016-05-01T09:11:43Z</time>
      </trkpt>
      <trkpt lat="44.09302" lon="3.91793">
        <ele>198.65</ele>
        <time>2016-05-01T09:11:44Z</time>
      </trkpt>
      <trkpt lat="44.09393" lon="3.9187">
        <ele>194.8</ele>
        <time>2016-05-01T09:11:49Z</time>
      </trkpt>
      <trkpt lat="44.09424" lon="3.91889">
        <ele>193.84</ele>
        <time>2016-05-01T09:11:51Z</time>
      </trkpt>
      <trkpt lat="44.09443" lon="3.91892">
        <ele>193.36</ele>
        <time>2016-05-01T09:11:52Z</time>
      </trkpt>
      <trkpt lat="44.09463" lon="3.91893">
        <ele>192.88</ele>
        <time>2016-05-01T09:11:53Z</time>
      </trkpt>
      <trkpt lat="44.09484" lon="3.91891">
        <ele>192.88</ele>
        <time>2016-05-01T09:11:54Z</time>
      </trkpt>
      <trkpt lat="44.09504" lon="3.91888">
        <ele>192.4</ele>
        <time>2016-05-01T09:11:55Z</time>
      </trkpt>
      <trkpt lat="44.09602" lon="3.91865">
        <ele>191.92</ele>
        <time>2016-05-01T09:12:01Z</time>
      </trkpt>
      <trkpt lat="44.09617" lon="3.91855">
        <ele>191.92</ele>
        <time>2016-05-01T09:12:02Z</time>
      </trkpt>
      <trkpt lat="44.09631" lon="3.91842">
        <ele>191.44</ele>
        <time>2016-05-01T09:12:03Z</time>
      </trkpt>
      <trkpt lat="44.09645" lon="3.91822">
        <ele>190.96</ele>
        <time>2016-05-01T09:12:04Z</time>
      </trkpt>
      <trkpt lat="44.09659" lon="3.91797">
        <ele>190.96</ele>
        <time>2016-05-01T09:12:05Z</time>
      </trkpt>
      <trkpt lat="44.09676" lon="3.9177">
        <ele>190.48</ele>
        <time>2016-05-01T09:12:06Z</time>
      </trkpt>
      <trkpt lat="44.09747" lon="3.91642">
        <ele>181.83</ele>
        <time>2016-05-01T09:12:11Z</time>
      </trkpt>
      <trkpt lat="44.09749" lon="3.91608">
        <ele>180.38</ele>
        <time>2016-05-01T09:12:12Z</time>
      </trkpt>
      <trkpt lat="44.09751" lon="3.91572">
        <ele>179.9</ele>
        <time>2016-05-01T09:12:13Z</time>
      </trkpt>
      <trkpt lat="44.09773" lon="3.91371">
        <ele>177.98</ele>
        <time>2016-05-01T09:12:19Z</time>
      </trkpt>
      <trkpt lat="44.09783" lon="3.91339">
        <ele>177.98</ele>
        <time>2016-05-01T09:12:20Z</time>
      </trkpt>
      <trkpt lat="44.09828" lon="3.91187">
        <ele>180.38</ele>
        <time>2016-05-01T09:12:26Z</time>
      </trkpt>
      <trkpt lat="44.09832" lon="3.91165">
        <ele>180.38</ele>
        <time>2016-05-01T09:12:27Z</time>
      </trkpt>
      <trkpt lat="44.09842" lon="3.91056">
        <ele>180.87</ele>
        <time>2016-05-01T09:12:32Z</time>
      </trkpt>
      <trkpt lat="44.0984" lon="3.91031">
        <ele>180.38</ele>
        <time>2016-05-01T09:12:33Z</time>
      </trkpt>
      <trkpt lat="44.09821" lon="3.90859">
        <ele>178.94</ele>
        <time>2016-05-01T09:12:38Z</time>
      </trkpt>
      <trkpt lat="44.09813" lon="3.90638">
        <ele>180.87</ele>
        <time>2016-05-01T09:12:44Z</time>
      </trkpt>
      <trkpt lat="44.09805" lon="3.90605">
        <ele>181.35</ele>
        <time>2016-05-01T09:12:45Z</time>
      </trkpt>
      <trkpt lat="44.09786" lon="3.90377">
        <ele>183.27</ele>
        <time>2016-05-01T09:12:51Z</time>
      </trkpt>
      <trkpt lat="44.09823" lon="3.90137">
        <ele>182.79</ele>
        <time>2016-05-01T09:12:57Z</time>
      </trkpt>
      <trkpt lat="44.09834" lon="3.90103">
        <ele>182.79</ele>
        <time>2016-05-01T09:12:58Z</time>
      </trkpt>
      <trkpt lat="44.0985" lon="3.9007">
        <ele>182.31</ele>
        <time>2016-05-01T09:12:59Z</time>
      </trkpt>
      <trkpt lat="44.09867" lon="3.90041">
        <ele>182.31</ele>
        <time>2016-05-01T09:13:00Z</time>
      </trkpt>
      <trkpt lat="44.09929" lon="3.8991">
        <ele>183.27</ele>
        <time>2016-05-01T09:13:05Z</time>
      </trkpt>
      <trkpt lat="44.09976" lon="3.89705">
        <ele>181.83</ele>
        <time>2016-05-01T09:13:13Z</time>
      </trkpt>
      <trkpt lat="44.10011" lon="3.89604">
        <ele>180.38</ele>
        <time>2016-05-01T09:13:17Z</time>
      </trkpt>
      <trkpt lat="44.10023" lon="3.89585">
        <ele>179.42</ele>
        <time>2016-05-01T09:13:18Z</time>
      </trkpt>
      <trkpt lat="44.10035" lon="3.89567">
        <ele>178.94</ele>
        <time>2016-05-01T09:13:19Z</time>
      </trkpt>
      <trkpt lat="44.10048" lon="3.89552">
        <ele>178.94</ele>
        <time>2016-05-01T09:13:20Z</time>
      </trkpt>
      <trkpt lat="44.10061" lon="3.8954">
        <ele>178.94</ele>
        <time>2016-05-01T09:13:21Z</time>
      </trkpt>
      <trkpt lat="44.10073" lon="3.89529">
        <ele>178.94</ele>
        <time>2016-05-01T09:13:22Z</time>
      </trkpt>
      <trkpt lat="44.10115" lon="3.89507">
        <ele>181.35</ele>
        <time>2016-05-01T09:13:27Z</time>
      </trkpt>
      <trkpt lat="44.10122" lon="3.89508">
        <ele>181.35</ele>
        <time>2016-05-01T09:13:28Z</time>
      </trkpt>
      <trkpt lat="44.10129" lon="3.89508">
        <ele>181.35</ele>
        <time>2016-05-01T09:13:29Z</time>
      </trkpt>
      <trkpt lat="44.10133" lon="3.89507">
        <ele>181.83</ele>
        <time>2016-05-01T09:13:30Z</time>
      </trkpt>
      <trkpt lat="44.10135" lon="3.89502">
        <ele>181.83</ele>
        <time>2016-05-01T09:13:31Z</time>
      </trkpt>
      <trkpt lat="44.10134" lon="3.89495">
        <ele>181.83</ele>
        <time>2016-05-01T09:13:32Z</time>
      </trkpt>
      <trkpt lat="44.10131" lon="3.89485">
        <ele>181.35</ele>
        <time>2016-05-01T09:13:33Z</time>
      </trkpt>
      <trkpt lat="44.10129" lon="3.89474">
        <ele>181.35</ele>
        <time>2016-05-01T09:13:34Z</time>
      </trkpt>
      <trkpt lat="44.10129" lon="3.89459">
        <ele>180.87</ele>
        <time>2016-05-01T09:13:35Z</time>
      </trkpt>
      <trkpt lat="44.10131" lon="3.89444">
        <ele>180.87</ele>
        <time>2016-05-01T09:13:36Z</time>
      </trkpt>
      <trkpt lat="44.10134" lon="3.89429">
        <ele>181.35</ele>
        <time>2016-05-01T09:13:37Z</time>
      </trkpt>
      <trkpt lat="44.10135" lon="3.89414">
        <ele>181.35</ele>
        <time>2016-05-01T09:13:38Z</time>
      </trkpt>
      <trkpt lat="44.10136" lon="3.89398">
        <ele>181.35</ele>
        <time>2016-05-01T09:13:39Z</time>
      </trkpt>
      <trkpt lat="44.10147" lon="3.89196">
        <ele>184.23</ele>
        <time>2016-05-01T09:13:50Z</time>
      </trkpt>
      <trkpt lat="44.10156" lon="3.89163">
        <ele>184.71</ele>
        <time>2016-05-01T09:13:53Z</time>
      </trkpt>
      <trkpt lat="44.10166" lon="3.89157">
        <ele>184.71</ele>
        <time>2016-05-01T09:13:54Z</time>
      </trkpt>
      <trkpt lat="44.10176" lon="3.89149">
        <ele>185.19</ele>
        <time>2016-05-01T09:13:55Z</time>
      </trkpt>
      <trkpt lat="44.10187" lon="3.89138">
        <ele>185.19</ele>
        <time>2016-05-01T09:13:56Z</time>
      </trkpt>
      <trkpt lat="44.10197" lon="3.89124">
        <ele>185.67</ele>
        <time>2016-05-01T09:13:57Z</time>
      </trkpt>
      <trkpt lat="44.10206" lon="3.89108">
        <ele>186.63</ele>
        <time>2016-05-01T09:13:58Z</time>
      </trkpt>
      <trkpt lat="44.10213" lon="3.89091">
        <ele>187.11</ele>
        <time>2016-05-01T09:13:59Z</time>
      </trkpt>
      <trkpt lat="44.10217" lon="3.89072">
        <ele>186.63</ele>
        <time>2016-05-01T09:14:00Z</time>
      </trkpt>
      <trkpt lat="44.1022" lon="3.89052">
        <ele>186.15</ele>
        <time>2016-05-01T09:14:01Z</time>
      </trkpt>
      <trkpt lat="44.10222" lon="3.89033">
        <ele>186.15</ele>
        <time>2016-05-01T09:14:02Z</time>
      </trkpt>
      <trkpt lat="44.10239" lon="3.88892">
        <ele>187.11</ele>
        <time>2016-05-01T09:14:10Z</time>
      </trkpt>
      <trkpt lat="44.10243" lon="3.88883">
        <ele>187.11</ele>
        <time>2016-05-01T09:14:11Z</time>
      </trkpt>
      <trkpt lat="44.1025" lon="3.88876">
        <ele>187.59</ele>
        <time>2016-05-01T09:14:12Z</time>
      </trkpt>
      <trkpt lat="44.1026" lon="3.8887">
        <ele>188.56</ele>
        <time>2016-05-01T09:14:13Z</time>
      </trkpt>
      <trkpt lat="44.10271" lon="3.88867">
        <ele>188.56</ele>
        <time>2016-05-01T09:14:14Z</time>
      </trkpt>
      <trkpt lat="44.10282" lon="3.88864">
        <ele>189.52</ele>
        <time>2016-05-01T09:14:15Z</time>
      </trkpt>
      <trkpt lat="44.10292" lon="3.88862">
        <ele>190</ele>
        <time>2016-05-01T09:14:16Z</time>
      </trkpt>
      <trkpt lat="44.10318" lon="3.88852">
        <ele>190.48</ele>
        <time>2016-05-01T09:14:19Z</time>
      </trkpt>
      <trkpt lat="44.10327" lon="3.88845">
        <ele>190.48</ele>
        <time>2016-05-01T09:14:20Z</time>
      </trkpt>
      <trkpt lat="44.10335" lon="3.88835">
        <ele>190</ele>
        <time>2016-05-01T09:14:21Z</time>
      </trkpt>
      <trkpt lat="44.10342" lon="3.88823">
        <ele>190</ele>
        <time>2016-05-01T09:14:22Z</time>
      </trkpt>
      <trkpt lat="44.1035" lon="3.8881">
        <ele>189.52</ele>
        <time>2016-05-01T09:14:23Z</time>
      </trkpt>
      <trkpt lat="44.10406" lon="3.88711">
        <ele>190</ele>
        <time>2016-05-01T09:14:32Z</time>
      </trkpt>
      <trkpt lat="44.10422" lon="3.88681">
        <ele>189.04</ele>
        <time>2016-05-01T09:14:35Z</time>
      </trkpt>
      <trkpt lat="44.10428" lon="3.88673">
        <ele>189.04</ele>
        <time>2016-05-01T09:14:36Z</time>
      </trkpt>
      <trkpt lat="44.10433" lon="3.88666">
        <ele>189.04</ele>
        <time>2016-05-01T09:14:37Z</time>
      </trkpt>
      <trkpt lat="44.10439" lon="3.88659">
        <ele>189.04</ele>
        <time>2016-05-01T09:14:38Z</time>
      </trkpt>
      <trkpt lat="44.10444" lon="3.88655">
        <ele>189.04</ele>
        <time>2016-05-01T09:14:39Z</time>
      </trkpt>
      <trkpt lat="44.10449" lon="3.88653">
        <ele>188.08</ele>
        <time>2016-05-01T09:14:40Z</time>
      </trkpt>
      <trkpt lat="44.10453" lon="3.88649">
        <ele>187.59</ele>
        <time>2016-05-01T09:14:41Z</time>
      </trkpt>
      <trkpt lat="44.10464" lon="3.88637">
        <ele>187.59</ele>
        <time>2016-05-01T09:14:44Z</time>
      </trkpt>
      <trkpt lat="44.10469" lon="3.88632">
        <ele>187.59</ele>
        <time>2016-05-01T09:14:45Z</time>
      </trkpt>
      <trkpt lat="44.10507" lon="3.88584">
        <ele>189.52</ele>
        <time>2016-05-01T09:14:51Z</time>
      </trkpt>
      <trkpt lat="44.10532" lon="3.88551">
        <ele>191.44</ele>
        <time>2016-05-01T09:14:55Z</time>
      </trkpt>
      <trkpt lat="44.1054" lon="3.88542">
        <ele>191.92</ele>
        <time>2016-05-01T09:14:56Z</time>
      </trkpt>
      <trkpt lat="44.1056" lon="3.88502">
        <ele>196.73</ele>
        <time>2016-05-01T09:15:03Z</time>
      </trkpt>
      <trkpt lat="44.10554" lon="3.88494">
        <ele>203.46</ele>
        <time>2016-05-01T09:15:11Z</time>
      </trkpt>
      <trkpt lat="44.10549" lon="3.88492">
        <ele>202.49</ele>
        <time>2016-05-01T09:15:12Z</time>
      </trkpt>
      <trkpt lat="44.10526" lon="3.88477">
        <ele>202.01</ele>
        <time>2016-05-01T09:15:16Z</time>
      </trkpt>
      <trkpt lat="44.1052" lon="3.88473">
        <ele>201.53</ele>
        <time>2016-05-01T09:15:17Z</time>
      </trkpt>
      <trkpt lat="44.10514" lon="3.8847">
        <ele>201.05</ele>
        <time>2016-05-01T09:15:18Z</time>
      </trkpt>
      <trkpt lat="44.10507" lon="3.88467">
        <ele>199.61</ele>
        <time>2016-05-01T09:15:19Z</time>
      </trkpt>
      <trkpt lat="44.105" lon="3.88464">
        <ele>199.61</ele>
        <time>2016-05-01T09:15:20Z</time>
      </trkpt>
      <trkpt lat="44.1047" lon="3.88445">
        <ele>197.21</ele>
        <time>2016-05-01T09:15:25Z</time>
      </trkpt>
      <trkpt lat="44.10466" lon="3.88444">
        <ele>196.73</ele>
        <time>2016-05-01T09:15:26Z</time>
      </trkpt>
      <trkpt lat="44.10463" lon="3.88445">
        <ele>196.73</ele>
        <time>2016-05-01T09:15:27Z</time>
      </trkpt>
      <trkpt lat="44.10461" lon="3.88447">
        <ele>196.25</ele>
        <time>2016-05-01T09:15:28Z</time>
      </trkpt>
      <trkpt lat="44.1046" lon="3.8845">
        <ele>194.8</ele>
        <time>2016-05-01T09:15:29Z</time>
      </trkpt>
      <trkpt lat="44.10459" lon="3.88454">
        <ele>193.36</ele>
        <time>2016-05-01T09:15:30Z</time>
      </trkpt>
      <trkpt lat="44.10457" lon="3.88458">
        <ele>192.88</ele>
        <time>2016-05-01T09:15:31Z</time>
      </trkpt>
      <trkpt lat="44.10455" lon="3.88462">
        <ele>192.4</ele>
        <time>2016-05-01T09:15:32Z</time>
      </trkpt>
      <trkpt lat="44.10453" lon="3.88465">
        <ele>192.4</ele>
        <time>2016-05-01T09:15:33Z</time>
      </trkpt>
      <trkpt lat="44.1045" lon="3.88474">
        <ele>191.92</ele>
        <time>2016-05-01T09:15:37Z</time>
      </trkpt>
      <trkpt lat="44.10451" lon="3.88476">
        <ele>191.92</ele>
        <time>2016-05-01T09:15:38Z</time>
      </trkpt>
      <trkpt lat="44.10454" lon="3.88477">
        <ele>191.92</ele>
        <time>2016-05-01T09:15:39Z</time>
      </trkpt>
      <trkpt lat="44.10459" lon="3.88477">
        <ele>196.73</ele>
        <time>2016-05-01T09:15:49Z</time>
      </trkpt>
      <trkpt lat="44.10456" lon="3.88475">
        <ele>188.56</ele>
        <time>2016-05-01T09:16:11Z</time>
      </trkpt>
      <trkpt lat="44.10457" lon="3.88473">
        <ele>194.8</ele>
        <time>2016-05-01T10:04:04Z</time>
      </trkpt>
      <trkpt lat="44.10456" lon="3.88476">
        <ele>190.96</ele>
        <time>2016-05-01T10:04:37Z</time>
      </trkpt>
      <trkpt lat="44.10459" lon="3.88474">
        <ele>187.11</ele>
        <time>2016-05-01T10:05:46Z</time>
      </trkpt>
      <trkpt lat="44.10459" lon="3.88465">
        <ele>188.56</ele>
        <time>2016-05-01T10:05:59Z</time>
      </trkpt>
      <trkpt lat="44.10457" lon="3.88467">
        <ele>195.28</ele>
        <time>2016-05-01T10:06:22Z</time>
      </trkpt>
      <trkpt lat="44.10464" lon="3.88453">
        <ele>197.21</ele>
        <time>2016-05-01T10:06:26Z</time>
      </trkpt>
      <trkpt lat="44.10468" lon="3.88449">
        <ele>197.69</ele>
        <time>2016-05-01T10:06:27Z</time>
      </trkpt>
      <trkpt lat="44.10475" lon="3.88444">
        <ele>198.17</ele>
        <time>2016-05-01T10:06:29Z</time>
      </trkpt>
      <trkpt lat="44.10479" lon="3.88445">
        <ele>198.17</ele>
        <time>2016-05-01T10:06:30Z</time>
      </trkpt>
      <trkpt lat="44.10484" lon="3.88448">
        <ele>197.69</ele>
        <time>2016-05-01T10:06:31Z</time>
      </trkpt>
      <trkpt lat="44.10488" lon="3.88451">
        <ele>197.69</ele>
        <time>2016-05-01T10:06:32Z</time>
      </trkpt>
      <trkpt lat="44.10493" lon="3.88453">
        <ele>197.21</ele>
        <time>2016-05-01T10:06:33Z</time>
      </trkpt>
      <trkpt lat="44.10498" lon="3.88456">
        <ele>196.73</ele>
        <time>2016-05-01T10:06:34Z</time>
      </trkpt>
      <trkpt lat="44.10502" lon="3.88458">
        <ele>196.73</ele>
        <time>2016-05-01T10:06:35Z</time>
      </trkpt>
      <trkpt lat="44.10508" lon="3.88462">
        <ele>196.25</ele>
        <time>2016-05-01T10:06:36Z</time>
      </trkpt>
      <trkpt lat="44.10577" lon="3.88518">
        <ele>200.57</ele>
        <time>2016-05-01T10:06:47Z</time>
      </trkpt>
      <trkpt lat="44.10642" lon="3.88574">
        <ele>202.01</ele>
        <time>2016-05-01T10:06:58Z</time>
      </trkpt>
      <trkpt lat="44.10653" lon="3.88589">
        <ele>202.49</ele>
        <time>2016-05-01T10:07:01Z</time>
      </trkpt>
      <trkpt lat="44.10656" lon="3.88598">
        <ele>202.01</ele>
        <time>2016-05-01T10:07:02Z</time>
      </trkpt>
      <trkpt lat="44.10658" lon="3.88607">
        <ele>202.49</ele>
        <time>2016-05-01T10:07:03Z</time>
      </trkpt>
      <trkpt lat="44.10656" lon="3.88619">
        <ele>202.49</ele>
        <time>2016-05-01T10:07:04Z</time>
      </trkpt>
      <trkpt lat="44.10653" lon="3.88631">
        <ele>202.49</ele>
        <time>2016-05-01T10:07:05Z</time>
      </trkpt>
      <trkpt lat="44.10649" lon="3.88642">
        <ele>202.49</ele>
        <time>2016-05-01T10:07:06Z</time>
      </trkpt>
      <trkpt lat="44.10645" lon="3.88653">
        <ele>202.01</ele>
        <time>2016-05-01T10:07:07Z</time>
      </trkpt>
      <trkpt lat="44.10613" lon="3.88763">
        <ele>200.09</ele>
        <time>2016-05-01T10:07:17Z</time>
      </trkpt>
      <trkpt lat="44.10561" lon="3.88919">
        <ele>203.46</ele>
        <time>2016-05-01T10:07:29Z</time>
      </trkpt>
      <trkpt lat="44.10478" lon="3.89035">
        <ele>208.26</ele>
        <time>2016-05-01T10:07:39Z</time>
      </trkpt>
      <trkpt lat="44.10394" lon="3.8916">
        <ele>208.74</ele>
        <time>2016-05-01T10:07:48Z</time>
      </trkpt>
      <trkpt lat="44.10311" lon="3.8935">
        <ele>200.57</ele>
        <time>2016-05-01T10:07:59Z</time>
      </trkpt>
      <trkpt lat="44.10256" lon="3.89435">
        <ele>195.28</ele>
        <time>2016-05-01T10:08:05Z</time>
      </trkpt>
      <trkpt lat="44.10246" lon="3.89444">
        <ele>194.32</ele>
        <time>2016-05-01T10:08:06Z</time>
      </trkpt>
      <trkpt lat="44.10235" lon="3.89451">
        <ele>193.84</ele>
        <time>2016-05-01T10:08:07Z</time>
      </trkpt>
      <trkpt lat="44.10134" lon="3.89495">
        <ele>188.08</ele>
        <time>2016-05-01T10:08:17Z</time>
      </trkpt>
      <trkpt lat="44.10117" lon="3.89499">
        <ele>187.59</ele>
        <time>2016-05-01T10:08:19Z</time>
      </trkpt>
      <trkpt lat="44.10107" lon="3.89504">
        <ele>187.11</ele>
        <time>2016-05-01T10:08:20Z</time>
      </trkpt>
      <trkpt lat="44.10034" lon="3.89557">
        <ele>186.63</ele>
        <time>2016-05-01T10:08:26Z</time>
      </trkpt>
      <trkpt lat="44.10014" lon="3.89581">
        <ele>186.15</ele>
        <time>2016-05-01T10:08:28Z</time>
      </trkpt>
      <trkpt lat="44.10006" lon="3.89594">
        <ele>186.15</ele>
        <time>2016-05-01T10:08:29Z</time>
      </trkpt>
      <trkpt lat="44.09999" lon="3.89609">
        <ele>186.15</ele>
        <time>2016-05-01T10:08:30Z</time>
      </trkpt>
      <trkpt lat="44.09992" lon="3.89624">
        <ele>186.15</ele>
        <time>2016-05-01T10:08:31Z</time>
      </trkpt>
      <trkpt lat="44.09985" lon="3.89641">
        <ele>185.67</ele>
        <time>2016-05-01T10:08:32Z</time>
      </trkpt>
      <trkpt lat="44.09946" lon="3.89809">
        <ele>186.63</ele>
        <time>2016-05-01T10:08:40Z</time>
      </trkpt>
      <trkpt lat="44.09909" lon="3.89961">
        <ele>187.59</ele>
        <time>2016-05-01T10:08:46Z</time>
      </trkpt>
      <trkpt lat="44.099" lon="3.89987">
        <ele>187.59</ele>
        <time>2016-05-01T10:08:47Z</time>
      </trkpt>
      <trkpt lat="44.09889" lon="3.90011">
        <ele>188.08</ele>
        <time>2016-05-01T10:08:48Z</time>
      </trkpt>
      <trkpt lat="44.09819" lon="3.9015">
        <ele>186.15</ele>
        <time>2016-05-01T10:08:54Z</time>
      </trkpt>
      <trkpt lat="44.09812" lon="3.90176">
        <ele>186.15</ele>
        <time>2016-05-01T10:08:55Z</time>
      </trkpt>
      <trkpt lat="44.09806" lon="3.90204">
        <ele>186.15</ele>
        <time>2016-05-01T10:08:56Z</time>
      </trkpt>
      <trkpt lat="44.09776" lon="3.90445">
        <ele>185.19</ele>
        <time>2016-05-01T10:09:04Z</time>
      </trkpt>
      <trkpt lat="44.09798" lon="3.90644">
        <ele>184.23</ele>
        <time>2016-05-01T10:09:10Z</time>
      </trkpt>
      <trkpt lat="44.09821" lon="3.90779">
        <ele>182.79</ele>
        <time>2016-05-01T10:09:14Z</time>
      </trkpt>
      <trkpt lat="44.0982" lon="3.90814">
        <ele>182.79</ele>
        <time>2016-05-01T10:09:15Z</time>
      </trkpt>
      <trkpt lat="44.0984" lon="3.91053">
        <ele>184.23</ele>
        <time>2016-05-01T10:09:22Z</time>
      </trkpt>
      <trkpt lat="44.09841" lon="3.91084">
        <ele>184.23</ele>
        <time>2016-05-01T10:09:23Z</time>
      </trkpt>
      <trkpt lat="44.0984" lon="3.91114">
        <ele>184.23</ele>
        <time>2016-05-01T10:09:24Z</time>
      </trkpt>
      <trkpt lat="44.09837" lon="3.91144">
        <ele>185.19</ele>
        <time>2016-05-01T10:09:25Z</time>
      </trkpt>
      <trkpt lat="44.09788" lon="3.91341">
        <ele>187.11</ele>
        <time>2016-05-01T10:09:32Z</time>
      </trkpt>
      <trkpt lat="44.0975" lon="3.91472">
        <ele>186.63</ele>
        <time>2016-05-01T10:09:37Z</time>
      </trkpt>
      <trkpt lat="44.09747" lon="3.915">
        <ele>186.63</ele>
        <time>2016-05-01T10:09:38Z</time>
      </trkpt>
      <trkpt lat="44.09746" lon="3.91529">
        <ele>186.15</ele>
        <time>2016-05-01T10:09:39Z</time>
      </trkpt>
      <trkpt lat="44.09732" lon="3.91691">
        <ele>185.19</ele>
        <time>2016-05-01T10:09:45Z</time>
      </trkpt>
      <trkpt lat="44.09719" lon="3.91711">
        <ele>185.19</ele>
        <time>2016-05-01T10:09:46Z</time>
      </trkpt>
      <trkpt lat="44.09706" lon="3.91731">
        <ele>185.67</ele>
        <time>2016-05-01T10:09:47Z</time>
      </trkpt>
      <trkpt lat="44.09606" lon="3.91863">
        <ele>190</ele>
        <time>2016-05-01T10:09:54Z</time>
      </trkpt>
      <trkpt lat="44.09587" lon="3.91875">
        <ele>190.96</ele>
        <time>2016-05-01T10:09:55Z</time>
      </trkpt>
      <trkpt lat="44.09566" lon="3.91882">
        <ele>191.44</ele>
        <time>2016-05-01T10:09:56Z</time>
      </trkpt>
      <trkpt lat="44.09543" lon="3.91886">
        <ele>191.92</ele>
        <time>2016-05-01T10:09:57Z</time>
      </trkpt>
      <trkpt lat="44.0952" lon="3.91889">
        <ele>191.92</ele>
        <time>2016-05-01T10:09:58Z</time>
      </trkpt>
      <trkpt lat="44.09428" lon="3.91889">
        <ele>193.84</ele>
        <time>2016-05-01T10:10:02Z</time>
      </trkpt>
      <trkpt lat="44.09405" lon="3.91876">
        <ele>193.84</ele>
        <time>2016-05-01T10:10:03Z</time>
      </trkpt>
      <trkpt lat="44.09383" lon="3.91858">
        <ele>194.32</ele>
        <time>2016-05-01T10:10:04Z</time>
      </trkpt>
      <trkpt lat="44.09362" lon="3.91841">
        <ele>194.8</ele>
        <time>2016-05-01T10:10:05Z</time>
      </trkpt>
      <trkpt lat="44.09341" lon="3.91822">
        <ele>195.77</ele>
        <time>2016-05-01T10:10:06Z</time>
      </trkpt>
      <trkpt lat="44.09164" lon="3.91712">
        <ele>202.49</ele>
        <time>2016-05-01T10:10:14Z</time>
      </trkpt>
      <trkpt lat="44.08999" lon="3.91698">
        <ele>204.42</ele>
        <time>2016-05-01T10:10:21Z</time>
      </trkpt>
      <trkpt lat="44.08954" lon="3.91701">
        <ele>203.46</ele>
        <time>2016-05-01T10:10:23Z</time>
      </trkpt>
      <trkpt lat="44.08931" lon="3.91708">
        <ele>202.49</ele>
        <time>2016-05-01T10:10:24Z</time>
      </trkpt>
      <trkpt lat="44.08908" lon="3.91718">
        <ele>201.53</ele>
        <time>2016-05-01T10:10:25Z</time>
      </trkpt>
      <trkpt lat="44.08674" lon="3.91851">
        <ele>189.52</ele>
        <time>2016-05-01T10:10:35Z</time>
      </trkpt>
      <trkpt lat="44.08484" lon="3.91985">
        <ele>177.5</ele>
        <time>2016-05-01T10:10:43Z</time>
      </trkpt>
      <trkpt lat="44.08278" lon="3.92187">
        <ele>167.41</ele>
        <time>2016-05-01T10:10:53Z</time>
      </trkpt>
      <trkpt lat="44.08123" lon="3.92361">
        <ele>172.21</ele>
        <time>2016-05-01T10:11:03Z</time>
      </trkpt>
      <trkpt lat="44.08013" lon="3.92542">
        <ele>175.1</ele>
        <time>2016-05-01T10:11:12Z</time>
      </trkpt>
      <trkpt lat="44.07886" lon="3.9277">
        <ele>168.85</ele>
        <time>2016-05-01T10:11:21Z</time>
      </trkpt>
      <trkpt lat="44.07815" lon="3.92862">
        <ele>164.52</ele>
        <time>2016-05-01T10:11:26Z</time>
      </trkpt>
      <trkpt lat="44.07799" lon="3.92873">
        <ele>164.04</ele>
        <time>2016-05-01T10:11:27Z</time>
      </trkpt>
      <trkpt lat="44.07782" lon="3.92882">
        <ele>163.56</ele>
        <time>2016-05-01T10:11:28Z</time>
      </trkpt>
      <trkpt lat="44.07764" lon="3.9289">
        <ele>162.6</ele>
        <time>2016-05-01T10:11:29Z</time>
      </trkpt>
      <trkpt lat="44.07747" lon="3.92895">
        <ele>161.64</ele>
        <time>2016-05-01T10:11:30Z</time>
      </trkpt>
      <trkpt lat="44.07729" lon="3.92898">
        <ele>161.64</ele>
        <time>2016-05-01T10:11:31Z</time>
      </trkpt>
      <trkpt lat="44.07621" lon="3.92924">
        <ele>165.96</ele>
        <time>2016-05-01T10:11:38Z</time>
      </trkpt>
      <trkpt lat="44.07608" lon="3.92936">
        <ele>166.45</ele>
        <time>2016-05-01T10:11:39Z</time>
      </trkpt>
      <trkpt lat="44.07601" lon="3.92956">
        <ele>167.89</ele>
        <time>2016-05-01T10:11:40Z</time>
      </trkpt>
      <trkpt lat="44.07594" lon="3.92974">
        <ele>168.37</ele>
        <time>2016-05-01T10:11:41Z</time>
      </trkpt>
      <trkpt lat="44.07589" lon="3.92993">
        <ele>168.37</ele>
        <time>2016-05-01T10:11:42Z</time>
      </trkpt>
      <trkpt lat="44.07588" lon="3.93014">
        <ele>168.85</ele>
        <time>2016-05-01T10:11:43Z</time>
      </trkpt>
      <trkpt lat="44.07594" lon="3.93037">
        <ele>169.33</ele>
        <time>2016-05-01T10:11:44Z</time>
      </trkpt>
      <trkpt lat="44.07601" lon="3.93056">
        <ele>168.37</ele>
        <time>2016-05-01T10:11:45Z</time>
      </trkpt>
      <trkpt lat="44.07611" lon="3.93076">
        <ele>168.37</ele>
        <time>2016-05-01T10:11:46Z</time>
      </trkpt>
      <trkpt lat="44.07626" lon="3.93095">
        <ele>167.89</ele>
        <time>2016-05-01T10:11:47Z</time>
      </trkpt>
      <trkpt lat="44.07644" lon="3.93115">
        <ele>167.41</ele>
        <time>2016-05-01T10:11:48Z</time>
      </trkpt>
      <trkpt lat="44.07662" lon="3.93136">
        <ele>165.48</ele>
        <time>2016-05-01T10:11:49Z</time>
      </trkpt>
      <trkpt lat="44.07737" lon="3.93249">
        <ele>161.16</ele>
        <time>2016-05-01T10:11:54Z</time>
      </trkpt>
      <trkpt lat="44.07745" lon="3.93273">
        <ele>160.68</ele>
        <time>2016-05-01T10:11:55Z</time>
      </trkpt>
      <trkpt lat="44.07752" lon="3.93297">
        <ele>160.68</ele>
        <time>2016-05-01T10:11:56Z</time>
      </trkpt>
      <trkpt lat="44.07756" lon="3.93323">
        <ele>160.68</ele>
        <time>2016-05-01T10:11:57Z</time>
      </trkpt>
      <trkpt lat="44.07758" lon="3.9335">
        <ele>160.2</ele>
        <time>2016-05-01T10:11:58Z</time>
      </trkpt>
      <trkpt lat="44.07758" lon="3.93378">
        <ele>159.72</ele>
        <time>2016-05-01T10:11:59Z</time>
      </trkpt>
      <trkpt lat="44.07756" lon="3.93408">
        <ele>159.72</ele>
        <time>2016-05-01T10:12:00Z</time>
      </trkpt>
      <trkpt lat="44.07749" lon="3.9344">
        <ele>159.24</ele>
        <time>2016-05-01T10:12:01Z</time>
      </trkpt>
      <trkpt lat="44.07739" lon="3.93471">
        <ele>159.72</ele>
        <time>2016-05-01T10:12:02Z</time>
      </trkpt>
      <trkpt lat="44.07725" lon="3.93499">
        <ele>159.24</ele>
        <time>2016-05-01T10:12:03Z</time>
      </trkpt>
      <trkpt lat="44.07708" lon="3.93525">
        <ele>159.24</ele>
        <time>2016-05-01T10:12:04Z</time>
      </trkpt>
      <trkpt lat="44.0769" lon="3.93551">
        <ele>158.75</ele>
        <time>2016-05-01T10:12:05Z</time>
      </trkpt>
      <trkpt lat="44.07671" lon="3.93577">
        <ele>158.27</ele>
        <time>2016-05-01T10:12:06Z</time>
      </trkpt>
      <trkpt lat="44.07552" lon="3.93725">
        <ele>158.27</ele>
        <time>2016-05-01T10:12:13Z</time>
      </trkpt>
      <trkpt lat="44.07541" lon="3.93746">
        <ele>158.75</ele>
        <time>2016-05-01T10:12:14Z</time>
      </trkpt>
      <trkpt lat="44.07533" lon="3.93768">
        <ele>159.24</ele>
        <time>2016-05-01T10:12:15Z</time>
      </trkpt>
      <trkpt lat="44.07509" lon="3.93817">
        <ele>160.2</ele>
        <time>2016-05-01T10:12:18Z</time>
      </trkpt>
      <trkpt lat="44.07499" lon="3.93821">
        <ele>160.68</ele>
        <time>2016-05-01T10:12:19Z</time>
      </trkpt>
      <trkpt lat="44.07489" lon="3.93816">
        <ele>160.2</ele>
        <time>2016-05-01T10:12:20Z</time>
      </trkpt>
      <trkpt lat="44.07478" lon="3.93805">
        <ele>160.2</ele>
        <time>2016-05-01T10:12:21Z</time>
      </trkpt>
      <trkpt lat="44.07466" lon="3.93794">
        <ele>160.2</ele>
        <time>2016-05-01T10:12:22Z</time>
      </trkpt>
      <trkpt lat="44.07453" lon="3.9378">
        <ele>160.68</ele>
        <time>2016-05-01T10:12:23Z</time>
      </trkpt>
      <trkpt lat="44.07441" lon="3.93767">
        <ele>160.68</ele>
        <time>2016-05-01T10:12:24Z</time>
      </trkpt>
      <trkpt lat="44.07389" lon="3.93722">
        <ele>160.2</ele>
        <time>2016-05-01T10:12:29Z</time>
      </trkpt>
      <trkpt lat="44.07382" lon="3.93725">
        <ele>160.2</ele>
        <time>2016-05-01T10:12:30Z</time>
      </trkpt>
      <trkpt lat="44.07376" lon="3.93733">
        <ele>160.2</ele>
        <time>2016-05-01T10:12:31Z</time>
      </trkpt>
      <trkpt lat="44.07369" lon="3.93748">
        <ele>160.2</ele>
        <time>2016-05-01T10:12:32Z</time>
      </trkpt>
      <trkpt lat="44.07364" lon="3.93768">
        <ele>161.16</ele>
        <time>2016-05-01T10:12:33Z</time>
      </trkpt>
      <trkpt lat="44.07359" lon="3.93789">
        <ele>161.64</ele>
        <time>2016-05-01T10:12:34Z</time>
      </trkpt>
      <trkpt lat="44.07357" lon="3.93814">
        <ele>162.6</ele>
        <time>2016-05-01T10:12:35Z</time>
      </trkpt>
      <trkpt lat="44.07354" lon="3.93839">
        <ele>162.6</ele>
        <time>2016-05-01T10:12:36Z</time>
      </trkpt>
      <trkpt lat="44.07351" lon="3.93864">
        <ele>162.12</ele>
        <time>2016-05-01T10:12:37Z</time>
      </trkpt>
      <trkpt lat="44.07349" lon="3.93888">
        <ele>162.12</ele>
        <time>2016-05-01T10:12:38Z</time>
      </trkpt>
      <trkpt lat="44.07348" lon="3.93913">
        <ele>161.64</ele>
        <time>2016-05-01T10:12:39Z</time>
      </trkpt>
      <trkpt lat="44.07343" lon="3.94107">
        <ele>160.2</ele>
        <time>2016-05-01T10:12:48Z</time>
      </trkpt>
      <trkpt lat="44.07335" lon="3.94257">
        <ele>158.75</ele>
        <time>2016-05-01T10:12:54Z</time>
      </trkpt>
      <trkpt lat="44.07328" lon="3.94281">
        <ele>157.79</ele>
        <time>2016-05-01T10:12:55Z</time>
      </trkpt>
      <trkpt lat="44.07315" lon="3.94299">
        <ele>156.83</ele>
        <time>2016-05-01T10:12:56Z</time>
      </trkpt>
      <trkpt lat="44.07301" lon="3.94317">
        <ele>156.83</ele>
        <time>2016-05-01T10:12:57Z</time>
      </trkpt>
      <trkpt lat="44.07286" lon="3.94331">
        <ele>157.31</ele>
        <time>2016-05-01T10:12:58Z</time>
      </trkpt>
      <trkpt lat="44.07271" lon="3.94346">
        <ele>158.27</ele>
        <time>2016-05-01T10:12:59Z</time>
      </trkpt>
      <trkpt lat="44.07255" lon="3.94359">
        <ele>159.24</ele>
        <time>2016-05-01T10:13:00Z</time>
      </trkpt>
      <trkpt lat="44.07238" lon="3.94372">
        <ele>160.2</ele>
        <time>2016-05-01T10:13:01Z</time>
      </trkpt>
      <trkpt lat="44.0707" lon="3.94501">
        <ele>162.12</ele>
        <time>2016-05-01T10:13:12Z</time>
      </trkpt>
      <trkpt lat="44.069" lon="3.94631">
        <ele>158.27</ele>
        <time>2016-05-01T10:13:22Z</time>
      </trkpt>
      <trkpt lat="44.06746" lon="3.94773">
        <ele>156.35</ele>
        <time>2016-05-01T10:13:30Z</time>
      </trkpt>
      <trkpt lat="44.06714" lon="3.94829">
        <ele>155.87</ele>
        <time>2016-05-01T10:13:32Z</time>
      </trkpt>
      <trkpt lat="44.06702" lon="3.94859">
        <ele>154.91</ele>
        <time>2016-05-01T10:13:33Z</time>
      </trkpt>
      <trkpt lat="44.06695" lon="3.94893">
        <ele>154.43</ele>
        <time>2016-05-01T10:13:34Z</time>
      </trkpt>
      <trkpt lat="44.06693" lon="3.94928">
        <ele>154.91</ele>
        <time>2016-05-01T10:13:35Z</time>
      </trkpt>
      <trkpt lat="44.06693" lon="3.94965">
        <ele>154.91</ele>
        <time>2016-05-01T10:13:36Z</time>
      </trkpt>
      <trkpt lat="44.06696" lon="3.95001">
        <ele>155.39</ele>
        <time>2016-05-01T10:13:37Z</time>
      </trkpt>
      <trkpt lat="44.06701" lon="3.95038">
        <ele>154.91</ele>
        <time>2016-05-01T10:13:38Z</time>
      </trkpt>
      <trkpt lat="44.0671" lon="3.95074">
        <ele>155.39</ele>
        <time>2016-05-01T10:13:39Z</time>
      </trkpt>
      <trkpt lat="44.06721" lon="3.95107">
        <ele>156.35</ele>
        <time>2016-05-01T10:13:40Z</time>
      </trkpt>
      <trkpt lat="44.06731" lon="3.95138">
        <ele>156.35</ele>
        <time>2016-05-01T10:13:41Z</time>
      </trkpt>
      <trkpt lat="44.06743" lon="3.95168">
        <ele>156.83</ele>
        <time>2016-05-01T10:13:42Z</time>
      </trkpt>
      <trkpt lat="44.06756" lon="3.95198">
        <ele>156.83</ele>
        <time>2016-05-01T10:13:43Z</time>
      </trkpt>
      <trkpt lat="44.06789" lon="3.95251">
        <ele>157.79</ele>
        <time>2016-05-01T10:13:45Z</time>
      </trkpt>
      <trkpt lat="44.06809" lon="3.95271">
        <ele>157.31</ele>
        <time>2016-05-01T10:13:46Z</time>
      </trkpt>
      <trkpt lat="44.06834" lon="3.95284">
        <ele>156.83</ele>
        <time>2016-05-01T10:13:47Z</time>
      </trkpt>
      <trkpt lat="44.06859" lon="3.95292">
        <ele>156.35</ele>
        <time>2016-05-01T10:13:48Z</time>
      </trkpt>
      <trkpt lat="44.06886" lon="3.95297">
        <ele>155.87</ele>
        <time>2016-05-01T10:13:49Z</time>
      </trkpt>
      <trkpt lat="44.06911" lon="3.953">
        <ele>155.87</ele>
        <time>2016-05-01T10:13:50Z</time>
      </trkpt>
      <trkpt lat="44.06939" lon="3.953">
        <ele>154.43</ele>
        <time>2016-05-01T10:13:51Z</time>
      </trkpt>
      <trkpt lat="44.06965" lon="3.95299">
        <ele>153.47</ele>
        <time>2016-05-01T10:13:52Z</time>
      </trkpt>
      <trkpt lat="44.0699" lon="3.95297">
        <ele>152.51</ele>
        <time>2016-05-01T10:13:53Z</time>
      </trkpt>
      <trkpt lat="44.0715" lon="3.9531">
        <ele>151.06</ele>
        <time>2016-05-01T10:14:00Z</time>
      </trkpt>
      <trkpt lat="44.0717" lon="3.95322">
        <ele>150.58</ele>
        <time>2016-05-01T10:14:01Z</time>
      </trkpt>
      <trkpt lat="44.0719" lon="3.95336">
        <ele>150.58</ele>
        <time>2016-05-01T10:14:02Z</time>
      </trkpt>
      <trkpt lat="44.07208" lon="3.95354">
        <ele>150.1</ele>
        <time>2016-05-01T10:14:03Z</time>
      </trkpt>
      <trkpt lat="44.07224" lon="3.95377">
        <ele>150.1</ele>
        <time>2016-05-01T10:14:04Z</time>
      </trkpt>
      <trkpt lat="44.07252" lon="3.95456">
        <ele>150.58</ele>
        <time>2016-05-01T10:14:07Z</time>
      </trkpt>
      <trkpt lat="44.07255" lon="3.95491">
        <ele>153.47</ele>
        <time>2016-05-01T10:14:08Z</time>
      </trkpt>
      <trkpt lat="44.07257" lon="3.95524">
        <ele>157.31</ele>
        <time>2016-05-01T10:14:09Z</time>
      </trkpt>
      <trkpt lat="44.07256" lon="3.95556">
        <ele>159.24</ele>
        <time>2016-05-01T10:14:10Z</time>
      </trkpt>
      <trkpt lat="44.0725" lon="3.95588">
        <ele>161.16</ele>
        <time>2016-05-01T10:14:11Z</time>
      </trkpt>
      <trkpt lat="44.07245" lon="3.95621">
        <ele>161.64</ele>
        <time>2016-05-01T10:14:12Z</time>
      </trkpt>
      <trkpt lat="44.07243" lon="3.95654">
        <ele>162.12</ele>
        <time>2016-05-01T10:14:13Z</time>
      </trkpt>
      <trkpt lat="44.07245" lon="3.95993">
        <ele>160.2</ele>
        <time>2016-05-01T10:14:23Z</time>
      </trkpt>
      <trkpt lat="44.07255" lon="3.96025">
        <ele>161.16</ele>
        <time>2016-05-01T10:14:24Z</time>
      </trkpt>
      <trkpt lat="44.07269" lon="3.96053">
        <ele>161.64</ele>
        <time>2016-05-01T10:14:25Z</time>
      </trkpt>
      <trkpt lat="44.07289" lon="3.96079">
        <ele>162.6</ele>
        <time>2016-05-01T10:14:26Z</time>
      </trkpt>
      <trkpt lat="44.07311" lon="3.96101">
        <ele>163.08</ele>
        <time>2016-05-01T10:14:27Z</time>
      </trkpt>
      <trkpt lat="44.07333" lon="3.96122">
        <ele>162.6</ele>
        <time>2016-05-01T10:14:28Z</time>
      </trkpt>
      <trkpt lat="44.07355" lon="3.96142">
        <ele>163.08</ele>
        <time>2016-05-01T10:14:29Z</time>
      </trkpt>
      <trkpt lat="44.07429" lon="3.96227">
        <ele>165</ele>
        <time>2016-05-01T10:14:33Z</time>
      </trkpt>
      <trkpt lat="44.07442" lon="3.96251">
        <ele>165.48</ele>
        <time>2016-05-01T10:14:34Z</time>
      </trkpt>
      <trkpt lat="44.07452" lon="3.96277">
        <ele>165.48</ele>
        <time>2016-05-01T10:14:35Z</time>
      </trkpt>
      <trkpt lat="44.07459" lon="3.96304">
        <ele>165.48</ele>
        <time>2016-05-01T10:14:36Z</time>
      </trkpt>
      <trkpt lat="44.07461" lon="3.96334">
        <ele>166.93</ele>
        <time>2016-05-01T10:14:37Z</time>
      </trkpt>
      <trkpt lat="44.07457" lon="3.96364">
        <ele>168.37</ele>
        <time>2016-05-01T10:14:38Z</time>
      </trkpt>
      <trkpt lat="44.07445" lon="3.96391">
        <ele>169.81</ele>
        <time>2016-05-01T10:14:39Z</time>
      </trkpt>
      <trkpt lat="44.0743" lon="3.96413">
        <ele>170.77</ele>
        <time>2016-05-01T10:14:40Z</time>
      </trkpt>
      <trkpt lat="44.07415" lon="3.96433">
        <ele>171.73</ele>
        <time>2016-05-01T10:14:41Z</time>
      </trkpt>
      <trkpt lat="44.07401" lon="3.96452">
        <ele>171.73</ele>
        <time>2016-05-01T10:14:42Z</time>
      </trkpt>
      <trkpt lat="44.0739" lon="3.96473">
        <ele>171.73</ele>
        <time>2016-05-01T10:14:43Z</time>
      </trkpt>
      <trkpt lat="44.0738" lon="3.96496">
        <ele>171.73</ele>
        <time>2016-05-01T10:14:44Z</time>
      </trkpt>
      <trkpt lat="44.07373" lon="3.9652">
        <ele>172.21</ele>
        <time>2016-05-01T10:14:45Z</time>
      </trkpt>
      <trkpt lat="44.07368" lon="3.96544">
        <ele>172.21</ele>
        <time>2016-05-01T10:14:46Z</time>
      </trkpt>
      <trkpt lat="44.07365" lon="3.96568">
        <ele>172.69</ele>
        <time>2016-05-01T10:14:47Z</time>
      </trkpt>
      <trkpt lat="44.07362" lon="3.96593">
        <ele>172.69</ele>
        <time>2016-05-01T10:14:48Z</time>
      </trkpt>
      <trkpt lat="44.07333" lon="3.96789">
        <ele>176.06</ele>
        <time>2016-05-01T10:14:56Z</time>
      </trkpt>
      <trkpt lat="44.07324" lon="3.96811">
        <ele>176.54</ele>
        <time>2016-05-01T10:14:57Z</time>
      </trkpt>
      <trkpt lat="44.07315" lon="3.9683">
        <ele>177.02</ele>
        <time>2016-05-01T10:14:58Z</time>
      </trkpt>
      <trkpt lat="44.07303" lon="3.96846">
        <ele>177.5</ele>
        <time>2016-05-01T10:14:59Z</time>
      </trkpt>
      <trkpt lat="44.07289" lon="3.96856">
        <ele>178.94</ele>
        <time>2016-05-01T10:15:00Z</time>
      </trkpt>
      <trkpt lat="44.07269" lon="3.96859">
        <ele>180.38</ele>
        <time>2016-05-01T10:15:01Z</time>
      </trkpt>
      <trkpt lat="44.07253" lon="3.96862">
        <ele>180.38</ele>
        <time>2016-05-01T10:15:02Z</time>
      </trkpt>
      <trkpt lat="44.07237" lon="3.96866">
        <ele>180.87</ele>
        <time>2016-05-01T10:15:03Z</time>
      </trkpt>
      <trkpt lat="44.0709" lon="3.96907">
        <ele>177.98</ele>
        <time>2016-05-01T10:15:11Z</time>
      </trkpt>
      <trkpt lat="44.06853" lon="3.97009">
        <ele>158.75</ele>
        <time>2016-05-01T10:15:22Z</time>
      </trkpt>
      <trkpt lat="44.0669" lon="3.97073">
        <ele>150.1</ele>
        <time>2016-05-01T10:15:31Z</time>
      </trkpt>
      <trkpt lat="44.06616" lon="3.97097">
        <ele>147.7</ele>
        <time>2016-05-01T10:15:37Z</time>
      </trkpt>
      <trkpt lat="44.06609" lon="3.97098">
        <ele>147.22</ele>
        <time>2016-05-01T10:15:38Z</time>
      </trkpt>
      <trkpt lat="44.06602" lon="3.97097">
        <ele>147.22</ele>
        <time>2016-05-01T10:15:39Z</time>
      </trkpt>
      <trkpt lat="44.06586" lon="3.97094">
        <ele>146.74</ele>
        <time>2016-05-01T10:15:41Z</time>
      </trkpt>
      <trkpt lat="44.0658" lon="3.97098">
        <ele>146.74</ele>
        <time>2016-05-01T10:15:42Z</time>
      </trkpt>
      <trkpt lat="44.06573" lon="3.97106">
        <ele>146.26</ele>
        <time>2016-05-01T10:15:43Z</time>
      </trkpt>
      <trkpt lat="44.06562" lon="3.97116">
        <ele>146.26</ele>
        <time>2016-05-01T10:15:44Z</time>
      </trkpt>
      <trkpt lat="44.06548" lon="3.97126">
        <ele>145.78</ele>
        <time>2016-05-01T10:15:45Z</time>
      </trkpt>
      <trkpt lat="44.0653" lon="3.97135">
        <ele>145.3</ele>
        <time>2016-05-01T10:15:46Z</time>
      </trkpt>
      <trkpt lat="44.0651" lon="3.97144">
        <ele>144.82</ele>
        <time>2016-05-01T10:15:47Z</time>
      </trkpt>
      <trkpt lat="44.06488" lon="3.97153">
        <ele>144.34</ele>
        <time>2016-05-01T10:15:48Z</time>
      </trkpt>
      <trkpt lat="44.06466" lon="3.97161">
        <ele>143.85</ele>
        <time>2016-05-01T10:15:49Z</time>
      </trkpt>
      <trkpt lat="44.06287" lon="3.97238">
        <ele>140.97</ele>
        <time>2016-05-01T10:15:57Z</time>
      </trkpt>
      <trkpt lat="44.06224" lon="3.97259">
        <ele>140.97</ele>
        <time>2016-05-01T10:16:01Z</time>
      </trkpt>
      <trkpt lat="44.06215" lon="3.97256">
        <ele>140.97</ele>
        <time>2016-05-01T10:16:02Z</time>
      </trkpt>
      <trkpt lat="44.06206" lon="3.97251">
        <ele>140.97</ele>
        <time>2016-05-01T10:16:03Z</time>
      </trkpt>
      <trkpt lat="44.06197" lon="3.97247">
        <ele>140.97</ele>
        <time>2016-05-01T10:16:04Z</time>
      </trkpt>
      <trkpt lat="44.06188" lon="3.97248">
        <ele>141.45</ele>
        <time>2016-05-01T10:16:05Z</time>
      </trkpt>
      <trkpt lat="44.06179" lon="3.97255">
        <ele>141.93</ele>
        <time>2016-05-01T10:16:06Z</time>
      </trkpt>
      <trkpt lat="44.06174" lon="3.97269">
        <ele>141.93</ele>
        <time>2016-05-01T10:16:07Z</time>
      </trkpt>
      <trkpt lat="44.06165" lon="3.97284">
        <ele>141.93</ele>
        <time>2016-05-01T10:16:08Z</time>
      </trkpt>
      <trkpt lat="44.06154" lon="3.97299">
        <ele>142.41</ele>
        <time>2016-05-01T10:16:09Z</time>
      </trkpt>
      <trkpt lat="44.06139" lon="3.97311">
        <ele>141.93</ele>
        <time>2016-05-01T10:16:10Z</time>
      </trkpt>
      <trkpt lat="44.06122" lon="3.9732">
        <ele>141.93</ele>
        <time>2016-05-01T10:16:11Z</time>
      </trkpt>
      <trkpt lat="44.06106" lon="3.97327">
        <ele>141.93</ele>
        <time>2016-05-01T10:16:12Z</time>
      </trkpt>
      <trkpt lat="44.0609" lon="3.97334">
        <ele>142.41</ele>
        <time>2016-05-01T10:16:13Z</time>
      </trkpt>
      <trkpt lat="44.05976" lon="3.97387">
        <ele>142.89</ele>
        <time>2016-05-01T10:16:21Z</time>
      </trkpt>
      <trkpt lat="44.05898" lon="3.97423">
        <ele>144.34</ele>
        <time>2016-05-01T10:16:26Z</time>
      </trkpt>
      <trkpt lat="44.05883" lon="3.97436">
        <ele>144.34</ele>
        <time>2016-05-01T10:16:27Z</time>
      </trkpt>
      <trkpt lat="44.05871" lon="3.97454">
        <ele>144.34</ele>
        <time>2016-05-01T10:16:28Z</time>
      </trkpt>
      <trkpt lat="44.05862" lon="3.97476">
        <ele>144.34</ele>
        <time>2016-05-01T10:16:29Z</time>
      </trkpt>
      <trkpt lat="44.05855" lon="3.97501">
        <ele>143.85</ele>
        <time>2016-05-01T10:16:30Z</time>
      </trkpt>
      <trkpt lat="44.05851" lon="3.97527">
        <ele>143.37</ele>
        <time>2016-05-01T10:16:31Z</time>
      </trkpt>
      <trkpt lat="44.05853" lon="3.97556">
        <ele>142.41</ele>
        <time>2016-05-01T10:16:32Z</time>
      </trkpt>
      <trkpt lat="44.05859" lon="3.97582">
        <ele>141.93</ele>
        <time>2016-05-01T10:16:33Z</time>
      </trkpt>
      <trkpt lat="44.05868" lon="3.9761">
        <ele>141.93</ele>
        <time>2016-05-01T10:16:34Z</time>
      </trkpt>
      <trkpt lat="44.05876" lon="3.97639">
        <ele>141.45</ele>
        <time>2016-05-01T10:16:35Z</time>
      </trkpt>
      <trkpt lat="44.05956" lon="3.9794">
        <ele>141.45</ele>
        <time>2016-05-01T10:16:45Z</time>
      </trkpt>
      <trkpt lat="44.06014" lon="3.98186">
        <ele>138.09</ele>
        <time>2016-05-01T10:16:54Z</time>
      </trkpt>
      <trkpt lat="44.06015" lon="3.98211">
        <ele>137.13</ele>
        <time>2016-05-01T10:16:55Z</time>
      </trkpt>
      <trkpt lat="44.06011" lon="3.98237">
        <ele>136.16</ele>
        <time>2016-05-01T10:16:56Z</time>
      </trkpt>
      <trkpt lat="44.06005" lon="3.98262">
        <ele>137.13</ele>
        <time>2016-05-01T10:16:57Z</time>
      </trkpt>
      <trkpt lat="44.05997" lon="3.98286">
        <ele>136.64</ele>
        <time>2016-05-01T10:16:58Z</time>
      </trkpt>
      <trkpt lat="44.05991" lon="3.9831">
        <ele>137.61</ele>
        <time>2016-05-01T10:16:59Z</time>
      </trkpt>
      <trkpt lat="44.05985" lon="3.98335">
        <ele>137.61</ele>
        <time>2016-05-01T10:17:00Z</time>
      </trkpt>
      <trkpt lat="44.05982" lon="3.98361">
        <ele>137.61</ele>
        <time>2016-05-01T10:17:01Z</time>
      </trkpt>
      <trkpt lat="44.05952" lon="3.98478">
        <ele>137.13</ele>
        <time>2016-05-01T10:17:06Z</time>
      </trkpt>
      <trkpt lat="44.05941" lon="3.98497">
        <ele>137.13</ele>
        <time>2016-05-01T10:17:07Z</time>
      </trkpt>
      <trkpt lat="44.05928" lon="3.98513">
        <ele>137.61</ele>
        <time>2016-05-01T10:17:08Z</time>
      </trkpt>
      <trkpt lat="44.05912" lon="3.98527">
        <ele>137.13</ele>
        <time>2016-05-01T10:17:09Z</time>
      </trkpt>
      <trkpt lat="44.05896" lon="3.98541">
        <ele>137.13</ele>
        <time>2016-05-01T10:17:10Z</time>
      </trkpt>
      <trkpt lat="44.05882" lon="3.98555">
        <ele>137.13</ele>
        <time>2016-05-01T10:17:11Z</time>
      </trkpt>
      <trkpt lat="44.05774" lon="3.98635">
        <ele>136.16</ele>
        <time>2016-05-01T10:17:19Z</time>
      </trkpt>
      <trkpt lat="44.05624" lon="3.98699">
        <ele>135.68</ele>
        <time>2016-05-01T10:17:29Z</time>
      </trkpt>
      <trkpt lat="44.0556" lon="3.98723">
        <ele>137.13</ele>
        <time>2016-05-01T10:17:35Z</time>
      </trkpt>
      <trkpt lat="44.05551" lon="3.98723">
        <ele>136.64</ele>
        <time>2016-05-01T10:17:36Z</time>
      </trkpt>
      <trkpt lat="44.05446" lon="3.98731">
        <ele>131.84</ele>
        <time>2016-05-01T10:17:45Z</time>
      </trkpt>
      <trkpt lat="44.05395" lon="3.98729">
        <ele>131.36</ele>
        <time>2016-05-01T10:17:50Z</time>
      </trkpt>
      <trkpt lat="44.05385" lon="3.98721">
        <ele>131.36</ele>
        <time>2016-05-01T10:17:51Z</time>
      </trkpt>
      <trkpt lat="44.05377" lon="3.98714">
        <ele>130.88</ele>
        <time>2016-05-01T10:17:52Z</time>
      </trkpt>
      <trkpt lat="44.05374" lon="3.98703">
        <ele>130.4</ele>
        <time>2016-05-01T10:17:53Z</time>
      </trkpt>
      <trkpt lat="44.05372" lon="3.98694">
        <ele>130.4</ele>
        <time>2016-05-01T10:17:54Z</time>
      </trkpt>
      <trkpt lat="44.05372" lon="3.98686">
        <ele>129.92</ele>
        <time>2016-05-01T10:17:55Z</time>
      </trkpt>
      <trkpt lat="44.05372" lon="3.98678">
        <ele>130.88</ele>
        <time>2016-05-01T10:17:56Z</time>
      </trkpt>
      <trkpt lat="44.05372" lon="3.98672">
        <ele>130.88</ele>
        <time>2016-05-01T10:17:57Z</time>
      </trkpt>
      <trkpt lat="44.05371" lon="3.98665">
        <ele>130.4</ele>
        <time>2016-05-01T10:17:58Z</time>
      </trkpt>
      <trkpt lat="44.05358" lon="3.98613">
        <ele>131.36</ele>
        <time>2016-05-01T10:18:03Z</time>
      </trkpt>
      <trkpt lat="44.05345" lon="3.98545">
        <ele>135.2</ele>
        <time>2016-05-01T10:18:10Z</time>
      </trkpt>
      <trkpt lat="44.0534" lon="3.98539">
        <ele>135.2</ele>
        <time>2016-05-01T10:18:11Z</time>
      </trkpt>
      <trkpt lat="44.05333" lon="3.98534">
        <ele>134.24</ele>
        <time>2016-05-01T10:18:12Z</time>
      </trkpt>
      <trkpt lat="44.05326" lon="3.9853">
        <ele>134.72</ele>
        <time>2016-05-01T10:18:13Z</time>
      </trkpt>
      <trkpt lat="44.05317" lon="3.98532">
        <ele>135.2</ele>
        <time>2016-05-01T10:18:14Z</time>
      </trkpt>
      <trkpt lat="44.05309" lon="3.98533">
        <ele>135.68</ele>
        <time>2016-05-01T10:18:15Z</time>
      </trkpt>
      <trkpt lat="44.05224" lon="3.98529">
        <ele>137.13</ele>
        <time>2016-05-01T10:18:26Z</time>
      </trkpt>
      <trkpt lat="44.0516" lon="3.98526">
        <ele>138.57</ele>
        <time>2016-05-01T10:18:35Z</time>
      </trkpt>
      <trkpt lat="44.05074" lon="3.98519">
        <ele>138.57</ele>
        <time>2016-05-01T10:18:45Z</time>
      </trkpt>
      <trkpt lat="44.04981" lon="3.98517">
        <ele>137.61</ele>
        <time>2016-05-01T10:18:52Z</time>
      </trkpt>
      <trkpt lat="44.04967" lon="3.98519">
        <ele>137.61</ele>
        <time>2016-05-01T10:18:53Z</time>
      </trkpt>
      <trkpt lat="44.04952" lon="3.98523">
        <ele>137.13</ele>
        <time>2016-05-01T10:18:54Z</time>
      </trkpt>
      <trkpt lat="44.04844" lon="3.98568">
        <ele>135.2</ele>
        <time>2016-05-01T10:19:02Z</time>
      </trkpt>
      <trkpt lat="44.04745" lon="3.98569">
        <ele>135.2</ele>
        <time>2016-05-01T10:19:07Z</time>
      </trkpt>
      <trkpt lat="44.04727" lon="3.98556">
        <ele>134.72</ele>
        <time>2016-05-01T10:19:08Z</time>
      </trkpt>
      <trkpt lat="44.04708" lon="3.9854">
        <ele>135.2</ele>
        <time>2016-05-01T10:19:09Z</time>
      </trkpt>
      <trkpt lat="44.0469" lon="3.98524">
        <ele>135.68</ele>
        <time>2016-05-01T10:19:10Z</time>
      </trkpt>
      <trkpt lat="44.04671" lon="3.98511">
        <ele>135.2</ele>
        <time>2016-05-01T10:19:11Z</time>
      </trkpt>
      <trkpt lat="44.0465" lon="3.985">
        <ele>135.68</ele>
        <time>2016-05-01T10:19:12Z</time>
      </trkpt>
      <trkpt lat="44.04629" lon="3.98493">
        <ele>135.2</ele>
        <time>2016-05-01T10:19:13Z</time>
      </trkpt>
      <trkpt lat="44.04606" lon="3.98489">
        <ele>135.2</ele>
        <time>2016-05-01T10:19:14Z</time>
      </trkpt>
      <trkpt lat="44.04583" lon="3.98488">
        <ele>135.68</ele>
        <time>2016-05-01T10:19:15Z</time>
      </trkpt>
      <trkpt lat="44.04281" lon="3.98474">
        <ele>136.64</ele>
        <time>2016-05-01T10:19:28Z</time>
      </trkpt>
      <trkpt lat="44.04163" lon="3.98474">
        <ele>137.13</ele>
        <time>2016-05-01T10:19:33Z</time>
      </trkpt>
      <trkpt lat="44.04141" lon="3.98485">
        <ele>137.61</ele>
        <time>2016-05-01T10:19:34Z</time>
      </trkpt>
      <trkpt lat="44.04121" lon="3.98499">
        <ele>137.61</ele>
        <time>2016-05-01T10:19:35Z</time>
      </trkpt>
      <trkpt lat="44.04101" lon="3.98519">
        <ele>138.09</ele>
        <time>2016-05-01T10:19:36Z</time>
      </trkpt>
      <trkpt lat="44.04088" lon="3.98545">
        <ele>138.57</ele>
        <time>2016-05-01T10:19:37Z</time>
      </trkpt>
      <trkpt lat="44.04077" lon="3.98577">
        <ele>137.61</ele>
        <time>2016-05-01T10:19:38Z</time>
      </trkpt>
      <trkpt lat="44.04064" lon="3.98607">
        <ele>137.13</ele>
        <time>2016-05-01T10:19:39Z</time>
      </trkpt>
      <trkpt lat="44.0392" lon="3.98916">
        <ele>133.76</ele>
        <time>2016-05-01T10:19:50Z</time>
      </trkpt>
      <trkpt lat="44.0389" lon="3.99026">
        <ele>128.47</ele>
        <time>2016-05-01T10:19:55Z</time>
      </trkpt>
      <trkpt lat="44.03893" lon="3.99052">
        <ele>127.51</ele>
        <time>2016-05-01T10:19:56Z</time>
      </trkpt>
      <trkpt lat="44.03899" lon="3.9908">
        <ele>127.51</ele>
        <time>2016-05-01T10:19:57Z</time>
      </trkpt>
      <trkpt lat="44.03901" lon="3.99108">
        <ele>127.99</ele>
        <time>2016-05-01T10:19:58Z</time>
      </trkpt>
      <trkpt lat="44.03896" lon="3.99135">
        <ele>127.51</ele>
        <time>2016-05-01T10:19:59Z</time>
      </trkpt>
      <trkpt lat="44.03885" lon="3.99161">
        <ele>127.51</ele>
        <time>2016-05-01T10:20:00Z</time>
      </trkpt>
      <trkpt lat="44.03873" lon="3.99187">
        <ele>127.51</ele>
        <time>2016-05-01T10:20:01Z</time>
      </trkpt>
      <trkpt lat="44.03839" lon="3.99303">
        <ele>127.03</ele>
        <time>2016-05-01T10:20:05Z</time>
      </trkpt>
      <trkpt lat="44.03834" lon="3.99335">
        <ele>126.07</ele>
        <time>2016-05-01T10:20:06Z</time>
      </trkpt>
      <trkpt lat="44.03833" lon="3.99369">
        <ele>126.07</ele>
        <time>2016-05-01T10:20:07Z</time>
      </trkpt>
      <trkpt lat="44.03833" lon="3.99402">
        <ele>125.59</ele>
        <time>2016-05-01T10:20:08Z</time>
      </trkpt>
      <trkpt lat="44.03833" lon="3.99436">
        <ele>124.63</ele>
        <time>2016-05-01T10:20:09Z</time>
      </trkpt>
      <trkpt lat="44.03835" lon="3.99471">
        <ele>124.15</ele>
        <time>2016-05-01T10:20:10Z</time>
      </trkpt>
      <trkpt lat="44.03858" lon="3.9968">
        <ele>123.19</ele>
        <time>2016-05-01T10:20:16Z</time>
      </trkpt>
      <trkpt lat="44.03855" lon="3.99718">
        <ele>123.67</ele>
        <time>2016-05-01T10:20:17Z</time>
      </trkpt>
      <trkpt lat="44.03847" lon="3.99976">
        <ele>124.15</ele>
        <time>2016-05-01T10:20:25Z</time>
      </trkpt>
      <trkpt lat="44.03837" lon="4.00042">
        <ele>127.03</ele>
        <time>2016-05-01T10:20:28Z</time>
      </trkpt>
      <trkpt lat="44.03824" lon="4.00052">
        <ele>127.51</ele>
        <time>2016-05-01T10:20:29Z</time>
      </trkpt>
      <trkpt lat="44.03806" lon="4.00057">
        <ele>127.03</ele>
        <time>2016-05-01T10:20:30Z</time>
      </trkpt>
      <trkpt lat="44.03788" lon="4.00058">
        <ele>127.99</ele>
        <time>2016-05-01T10:20:31Z</time>
      </trkpt>
      <trkpt lat="44.03771" lon="4.00063">
        <ele>128.47</ele>
        <time>2016-05-01T10:20:32Z</time>
      </trkpt>
      <trkpt lat="44.03724" lon="4.00081">
        <ele>126.55</ele>
        <time>2016-05-01T10:20:35Z</time>
      </trkpt>
      <trkpt lat="44.03709" lon="4.00093">
        <ele>126.07</ele>
        <time>2016-05-01T10:20:36Z</time>
      </trkpt>
      <trkpt lat="44.03699" lon="4.00109">
        <ele>125.59</ele>
        <time>2016-05-01T10:20:37Z</time>
      </trkpt>
      <trkpt lat="44.0369" lon="4.00127">
        <ele>125.59</ele>
        <time>2016-05-01T10:20:38Z</time>
      </trkpt>
      <trkpt lat="44.03685" lon="4.00148">
        <ele>125.59</ele>
        <time>2016-05-01T10:20:39Z</time>
      </trkpt>
      <trkpt lat="44.03678" lon="4.00169">
        <ele>125.59</ele>
        <time>2016-05-01T10:20:40Z</time>
      </trkpt>
      <trkpt lat="44.03671" lon="4.00189">
        <ele>126.07</ele>
        <time>2016-05-01T10:20:41Z</time>
      </trkpt>
      <trkpt lat="44.03575" lon="4.00362">
        <ele>127.51</ele>
        <time>2016-05-01T10:20:50Z</time>
      </trkpt>
      <trkpt lat="44.0348" lon="4.00566">
        <ele>127.99</ele>
        <time>2016-05-01T10:20:58Z</time>
      </trkpt>
      <trkpt lat="44.03331" lon="4.00877">
        <ele>127.03</ele>
        <time>2016-05-01T10:21:08Z</time>
      </trkpt>
      <trkpt lat="44.03168" lon="4.01126">
        <ele>125.11</ele>
        <time>2016-05-01T10:21:17Z</time>
      </trkpt>
      <trkpt lat="44.03055" lon="4.01319">
        <ele>123.67</ele>
        <time>2016-05-01T10:21:24Z</time>
      </trkpt>
      <trkpt lat="44.02949" lon="4.01559">
        <ele>122.71</ele>
        <time>2016-05-01T10:21:33Z</time>
      </trkpt>
      <trkpt lat="44.02877" lon="4.01715">
        <ele>123.67</ele>
        <time>2016-05-01T10:21:41Z</time>
      </trkpt>
      <trkpt lat="44.02816" lon="4.01816">
        <ele>124.15</ele>
        <time>2016-05-01T10:21:48Z</time>
      </trkpt>
      <trkpt lat="44.02772" lon="4.01924">
        <ele>124.15</ele>
        <time>2016-05-01T10:21:55Z</time>
      </trkpt>
      <trkpt lat="44.02709" lon="4.02104">
        <ele>124.15</ele>
        <time>2016-05-01T10:22:07Z</time>
      </trkpt>
      <trkpt lat="44.02663" lon="4.02208">
        <ele>124.63</ele>
        <time>2016-05-01T10:22:16Z</time>
      </trkpt>
      <trkpt lat="44.02657" lon="4.02219">
        <ele>124.63</ele>
        <time>2016-05-01T10:22:17Z</time>
      </trkpt>
      <trkpt lat="44.0265" lon="4.0223">
        <ele>124.63</ele>
        <time>2016-05-01T10:22:18Z</time>
      </trkpt>
      <trkpt lat="44.02559" lon="4.02322">
        <ele>123.19</ele>
        <time>2016-05-01T10:22:27Z</time>
      </trkpt>
      <trkpt lat="44.02495" lon="4.02395">
        <ele>122.71</ele>
        <time>2016-05-01T10:22:33Z</time>
      </trkpt>
      <trkpt lat="44.02488" lon="4.02411">
        <ele>122.71</ele>
        <time>2016-05-01T10:22:34Z</time>
      </trkpt>
      <trkpt lat="44.02481" lon="4.02428">
        <ele>123.19</ele>
        <time>2016-05-01T10:22:35Z</time>
      </trkpt>
      <trkpt lat="44.02477" lon="4.02447">
        <ele>123.19</ele>
        <time>2016-05-01T10:22:36Z</time>
      </trkpt>
      <trkpt lat="44.02473" lon="4.02464">
        <ele>123.67</ele>
        <time>2016-05-01T10:22:37Z</time>
      </trkpt>
      <trkpt lat="44.0247" lon="4.02481">
        <ele>123.67</ele>
        <time>2016-05-01T10:22:38Z</time>
      </trkpt>
      <trkpt lat="44.02465" lon="4.02508">
        <ele>123.67</ele>
        <time>2016-05-01T10:22:40Z</time>
      </trkpt>
      <trkpt lat="44.02461" lon="4.02519">
        <ele>123.67</ele>
        <time>2016-05-01T10:22:41Z</time>
      </trkpt>
      <trkpt lat="44.02455" lon="4.02525">
        <ele>124.15</ele>
        <time>2016-05-01T10:22:42Z</time>
      </trkpt>
      <trkpt lat="44.02448" lon="4.02527">
        <ele>124.15</ele>
        <time>2016-05-01T10:22:43Z</time>
      </trkpt>
      <trkpt lat="44.02439" lon="4.02531">
        <ele>123.67</ele>
        <time>2016-05-01T10:22:44Z</time>
      </trkpt>
      <trkpt lat="44.0243" lon="4.02537">
        <ele>123.67</ele>
        <time>2016-05-01T10:22:45Z</time>
      </trkpt>
      <trkpt lat="44.02424" lon="4.02548">
        <ele>123.67</ele>
        <time>2016-05-01T10:22:46Z</time>
      </trkpt>
      <trkpt lat="44.02421" lon="4.02562">
        <ele>123.67</ele>
        <time>2016-05-01T10:22:47Z</time>
      </trkpt>
      <trkpt lat="44.02421" lon="4.02574">
        <ele>123.19</ele>
        <time>2016-05-01T10:22:48Z</time>
      </trkpt>
      <trkpt lat="44.02425" lon="4.02587">
        <ele>122.71</ele>
        <time>2016-05-01T10:22:49Z</time>
      </trkpt>
      <trkpt lat="44.02434" lon="4.02601">
        <ele>122.22</ele>
        <time>2016-05-01T10:22:50Z</time>
      </trkpt>
      <trkpt lat="44.02442" lon="4.02617">
        <ele>122.22</ele>
        <time>2016-05-01T10:22:51Z</time>
      </trkpt>
      <trkpt lat="44.02449" lon="4.02633">
        <ele>122.22</ele>
        <time>2016-05-01T10:22:52Z</time>
      </trkpt>
      <trkpt lat="44.02473" lon="4.02687">
        <ele>121.74</ele>
        <time>2016-05-01T10:22:55Z</time>
      </trkpt>
      <trkpt lat="44.02477" lon="4.02709">
        <ele>121.74</ele>
        <time>2016-05-01T10:22:56Z</time>
      </trkpt>
      <trkpt lat="44.02479" lon="4.02732">
        <ele>121.74</ele>
        <time>2016-05-01T10:22:57Z</time>
      </trkpt>
      <trkpt lat="44.0248" lon="4.02757">
        <ele>121.74</ele>
        <time>2016-05-01T10:22:58Z</time>
      </trkpt>
      <trkpt lat="44.0248" lon="4.02784">
        <ele>121.74</ele>
        <time>2016-05-01T10:22:59Z</time>
      </trkpt>
      <trkpt lat="44.02466" lon="4.03031">
        <ele>121.26</ele>
        <time>2016-05-01T10:23:07Z</time>
      </trkpt>
      <trkpt lat="44.02451" lon="4.03353">
        <ele>120.3</ele>
        <time>2016-05-01T10:23:17Z</time>
      </trkpt>
      <trkpt lat="44.02396" lon="4.03569">
        <ele>119.82</ele>
        <time>2016-05-01T10:23:24Z</time>
      </trkpt>
      <trkpt lat="44.0228" lon="4.0388">
        <ele>119.34</ele>
        <time>2016-05-01T10:23:34Z</time>
      </trkpt>
      <trkpt lat="44.02193" lon="4.0415">
        <ele>118.86</ele>
        <time>2016-05-01T10:23:42Z</time>
      </trkpt>
      <trkpt lat="44.02171" lon="4.04483">
        <ele>117.9</ele>
        <time>2016-05-01T10:23:50Z</time>
      </trkpt>
      <trkpt lat="44.02154" lon="4.04669">
        <ele>117.42</ele>
        <time>2016-05-01T10:23:55Z</time>
      </trkpt>
      <trkpt lat="44.02145" lon="4.04704">
        <ele>117.42</ele>
        <time>2016-05-01T10:23:56Z</time>
      </trkpt>
      <trkpt lat="44.02134" lon="4.04737">
        <ele>117.42</ele>
        <time>2016-05-01T10:23:57Z</time>
      </trkpt>
      <trkpt lat="44.02121" lon="4.04769">
        <ele>117.42</ele>
        <time>2016-05-01T10:23:58Z</time>
      </trkpt>
      <trkpt lat="44.02107" lon="4.04799">
        <ele>116.94</ele>
        <time>2016-05-01T10:23:59Z</time>
      </trkpt>
      <trkpt lat="44.02091" lon="4.04827">
        <ele>116.94</ele>
        <time>2016-05-01T10:24:00Z</time>
      </trkpt>
      <trkpt lat="44.02075" lon="4.04854">
        <ele>116.94</ele>
        <time>2016-05-01T10:24:01Z</time>
      </trkpt>
      <trkpt lat="44.02019" lon="4.04955">
        <ele>117.9</ele>
        <time>2016-05-01T10:24:05Z</time>
      </trkpt>
      <trkpt lat="44.02009" lon="4.04981">
        <ele>117.9</ele>
        <time>2016-05-01T10:24:06Z</time>
      </trkpt>
      <trkpt lat="44.01981" lon="4.0511">
        <ele>116.94</ele>
        <time>2016-05-01T10:24:12Z</time>
      </trkpt>
      <trkpt lat="44.01977" lon="4.05139">
        <ele>116.46</ele>
        <time>2016-05-01T10:24:14Z</time>
      </trkpt>
      <trkpt lat="44.01973" lon="4.05152">
        <ele>116.46</ele>
        <time>2016-05-01T10:24:15Z</time>
      </trkpt>
      <trkpt lat="44.01968" lon="4.05164">
        <ele>116.46</ele>
        <time>2016-05-01T10:24:16Z</time>
      </trkpt>
      <trkpt lat="44.01966" lon="4.05175">
        <ele>116.94</ele>
        <time>2016-05-01T10:24:17Z</time>
      </trkpt>
      <trkpt lat="44.01969" lon="4.05188">
        <ele>116.46</ele>
        <time>2016-05-01T10:24:18Z</time>
      </trkpt>
      <trkpt lat="44.01973" lon="4.05204">
        <ele>116.46</ele>
        <time>2016-05-01T10:24:19Z</time>
      </trkpt>
      <trkpt lat="44.01976" lon="4.05224">
        <ele>115.98</ele>
        <time>2016-05-01T10:24:20Z</time>
      </trkpt>
      <trkpt lat="44.01976" lon="4.05245">
        <ele>115.98</ele>
        <time>2016-05-01T10:24:21Z</time>
      </trkpt>
      <trkpt lat="44.01967" lon="4.05455">
        <ele>115.5</ele>
        <time>2016-05-01T10:24:29Z</time>
      </trkpt>
      <trkpt lat="44.01967" lon="4.05481">
        <ele>115.5</ele>
        <time>2016-05-01T10:24:30Z</time>
      </trkpt>
      <trkpt lat="44.01971" lon="4.05526">
        <ele>114.53</ele>
        <time>2016-05-01T10:24:32Z</time>
      </trkpt>
      <trkpt lat="44.01979" lon="4.05546">
        <ele>114.05</ele>
        <time>2016-05-01T10:24:33Z</time>
      </trkpt>
      <trkpt lat="44.01993" lon="4.05563">
        <ele>113.09</ele>
        <time>2016-05-01T10:24:34Z</time>
      </trkpt>
      <trkpt lat="44.02011" lon="4.05581">
        <ele>113.09</ele>
        <time>2016-05-01T10:24:35Z</time>
      </trkpt>
      <trkpt lat="44.02031" lon="4.05599">
        <ele>113.09</ele>
        <time>2016-05-01T10:24:36Z</time>
      </trkpt>
      <trkpt lat="44.0205" lon="4.05615">
        <ele>113.09</ele>
        <time>2016-05-01T10:24:37Z</time>
      </trkpt>
      <trkpt lat="44.0207" lon="4.05629">
        <ele>113.09</ele>
        <time>2016-05-01T10:24:38Z</time>
      </trkpt>
      <trkpt lat="44.02157" lon="4.05693">
        <ele>113.09</ele>
        <time>2016-05-01T10:24:43Z</time>
      </trkpt>
      <trkpt lat="44.02172" lon="4.0571">
        <ele>113.09</ele>
        <time>2016-05-01T10:24:44Z</time>
      </trkpt>
      <trkpt lat="44.02186" lon="4.05728">
        <ele>113.09</ele>
        <time>2016-05-01T10:24:45Z</time>
      </trkpt>
      <trkpt lat="44.02199" lon="4.05749">
        <ele>113.09</ele>
        <time>2016-05-01T10:24:46Z</time>
      </trkpt>
      <trkpt lat="44.0221" lon="4.0577">
        <ele>113.09</ele>
        <time>2016-05-01T10:24:47Z</time>
      </trkpt>
      <trkpt lat="44.0222" lon="4.05793">
        <ele>113.57</ele>
        <time>2016-05-01T10:24:48Z</time>
      </trkpt>
      <trkpt lat="44.02229" lon="4.05817">
        <ele>113.09</ele>
        <time>2016-05-01T10:24:49Z</time>
      </trkpt>
      <trkpt lat="44.02237" lon="4.05844">
        <ele>113.09</ele>
        <time>2016-05-01T10:24:50Z</time>
      </trkpt>
      <trkpt lat="44.02244" lon="4.05873">
        <ele>113.57</ele>
        <time>2016-05-01T10:24:51Z</time>
      </trkpt>
      <trkpt lat="44.02298" lon="4.0612">
        <ele>113.09</ele>
        <time>2016-05-01T10:24:58Z</time>
      </trkpt>
      <trkpt lat="44.02388" lon="4.06521">
        <ele>112.13</ele>
        <time>2016-05-01T10:25:09Z</time>
      </trkpt>
      <trkpt lat="44.02457" lon="4.06883">
        <ele>110.69</ele>
        <time>2016-05-01T10:25:20Z</time>
      </trkpt>
      <trkpt lat="44.02476" lon="4.07035">
        <ele>110.21</ele>
        <time>2016-05-01T10:25:24Z</time>
      </trkpt>
      <trkpt lat="44.02476" lon="4.07073">
        <ele>110.21</ele>
        <time>2016-05-01T10:25:25Z</time>
      </trkpt>
      <trkpt lat="44.02463" lon="4.07268">
        <ele>109.73</ele>
        <time>2016-05-01T10:25:31Z</time>
      </trkpt>
      <trkpt lat="44.02437" lon="4.07463">
        <ele>110.21</ele>
        <time>2016-05-01T10:25:39Z</time>
      </trkpt>
      <trkpt lat="44.02384" lon="4.07684">
        <ele>111.17</ele>
        <time>2016-05-01T10:25:47Z</time>
      </trkpt>
      <trkpt lat="44.02384" lon="4.07746">
        <ele>110.69</ele>
        <time>2016-05-01T10:25:49Z</time>
      </trkpt>
      <trkpt lat="44.02389" lon="4.07777">
        <ele>110.69</ele>
        <time>2016-05-01T10:25:50Z</time>
      </trkpt>
      <trkpt lat="44.02394" lon="4.07807">
        <ele>110.21</ele>
        <time>2016-05-01T10:25:51Z</time>
      </trkpt>
      <trkpt lat="44.02428" lon="4.08041">
        <ele>108.77</ele>
        <time>2016-05-01T10:26:00Z</time>
      </trkpt>
      <trkpt lat="44.0243" lon="4.08165">
        <ele>107.81</ele>
        <time>2016-05-01T10:26:07Z</time>
      </trkpt>
      <trkpt lat="44.02429" lon="4.08332">
        <ele>107.32</ele>
        <time>2016-05-01T10:26:17Z</time>
      </trkpt>
      <trkpt lat="44.02407" lon="4.08523">
        <ele>107.32</ele>
        <time>2016-05-01T10:26:28Z</time>
      </trkpt>
      <trkpt lat="44.02409" lon="4.08681">
        <ele>107.81</ele>
        <time>2016-05-01T10:26:36Z</time>
      </trkpt>
      <trkpt lat="44.0239" lon="4.08848">
        <ele>107.81</ele>
        <time>2016-05-01T10:26:43Z</time>
      </trkpt>
      <trkpt lat="44.02318" lon="4.09261">
        <ele>107.81</ele>
        <time>2016-05-01T10:26:58Z</time>
      </trkpt>
      <trkpt lat="44.02271" lon="4.09506">
        <ele>107.32</ele>
        <time>2016-05-01T10:27:06Z</time>
      </trkpt>
      <trkpt lat="44.02257" lon="4.09711">
        <ele>106.84</ele>
        <time>2016-05-01T10:27:13Z</time>
      </trkpt>
      <trkpt lat="44.02249" lon="4.09738">
        <ele>106.84</ele>
        <time>2016-05-01T10:27:14Z</time>
      </trkpt>
      <trkpt lat="44.0224" lon="4.09765">
        <ele>106.84</ele>
        <time>2016-05-01T10:27:15Z</time>
      </trkpt>
      <trkpt lat="44.0223" lon="4.09791">
        <ele>106.84</ele>
        <time>2016-05-01T10:27:16Z</time>
      </trkpt>
      <trkpt lat="44.02217" lon="4.09815">
        <ele>106.84</ele>
        <time>2016-05-01T10:27:17Z</time>
      </trkpt>
      <trkpt lat="44.02204" lon="4.09839">
        <ele>106.84</ele>
        <time>2016-05-01T10:27:18Z</time>
      </trkpt>
      <trkpt lat="44.02082" lon="4.10064">
        <ele>107.32</ele>
        <time>2016-05-01T10:27:27Z</time>
      </trkpt>
      <trkpt lat="44.02046" lon="4.10141">
        <ele>108.29</ele>
        <time>2016-05-01T10:27:30Z</time>
      </trkpt>
      <trkpt lat="44.02033" lon="4.10162">
        <ele>108.29</ele>
        <time>2016-05-01T10:27:31Z</time>
      </trkpt>
      <trkpt lat="44.01985" lon="4.10225">
        <ele>108.77</ele>
        <time>2016-05-01T10:27:36Z</time>
      </trkpt>
      <trkpt lat="44.01976" lon="4.10231">
        <ele>108.29</ele>
        <time>2016-05-01T10:27:37Z</time>
      </trkpt>
      <trkpt lat="44.01966" lon="4.10236">
        <ele>108.29</ele>
        <time>2016-05-01T10:27:38Z</time>
      </trkpt>
      <trkpt lat="44.01956" lon="4.10243">
        <ele>108.29</ele>
        <time>2016-05-01T10:27:39Z</time>
      </trkpt>
      <trkpt lat="44.01945" lon="4.10255">
        <ele>107.81</ele>
        <time>2016-05-01T10:27:40Z</time>
      </trkpt>
      <trkpt lat="44.01934" lon="4.10268">
        <ele>107.81</ele>
        <time>2016-05-01T10:27:41Z</time>
      </trkpt>
      <trkpt lat="44.01921" lon="4.10279">
        <ele>107.81</ele>
        <time>2016-05-01T10:27:42Z</time>
      </trkpt>
      <trkpt lat="44.01906" lon="4.10291">
        <ele>107.81</ele>
        <time>2016-05-01T10:27:43Z</time>
      </trkpt>
      <trkpt lat="44.01783" lon="4.10404">
        <ele>109.25</ele>
        <time>2016-05-01T10:27:50Z</time>
      </trkpt>
      <trkpt lat="44.01642" lon="4.10578">
        <ele>110.69</ele>
        <time>2016-05-01T10:27:57Z</time>
      </trkpt>
      <trkpt lat="44.01627" lon="4.10612">
        <ele>111.17</ele>
        <time>2016-05-01T10:27:58Z</time>
      </trkpt>
      <trkpt lat="44.01614" lon="4.10648">
        <ele>111.65</ele>
        <time>2016-05-01T10:27:59Z</time>
      </trkpt>
      <trkpt lat="44.01519" lon="4.10836">
        <ele>114.05</ele>
        <time>2016-05-01T10:28:05Z</time>
      </trkpt>
      <trkpt lat="44.01326" lon="4.11055">
        <ele>115.98</ele>
        <time>2016-05-01T10:28:14Z</time>
      </trkpt>
      <trkpt lat="44.01104" lon="4.11246">
        <ele>115.01</ele>
        <time>2016-05-01T10:28:24Z</time>
      </trkpt>
      <trkpt lat="44.01087" lon="4.11268">
        <ele>114.53</ele>
        <time>2016-05-01T10:28:25Z</time>
      </trkpt>
      <trkpt lat="44.01072" lon="4.11293">
        <ele>114.05</ele>
        <time>2016-05-01T10:28:26Z</time>
      </trkpt>
      <trkpt lat="44.01059" lon="4.11321">
        <ele>113.57</ele>
        <time>2016-05-01T10:28:27Z</time>
      </trkpt>
      <trkpt lat="44.01049" lon="4.11351">
        <ele>113.09</ele>
        <time>2016-05-01T10:28:28Z</time>
      </trkpt>
      <trkpt lat="44.0104" lon="4.11383">
        <ele>112.61</ele>
        <time>2016-05-01T10:28:29Z</time>
      </trkpt>
      <trkpt lat="44.01034" lon="4.11416">
        <ele>112.13</ele>
        <time>2016-05-01T10:28:30Z</time>
      </trkpt>
      <trkpt lat="44.0103" lon="4.11449">
        <ele>111.17</ele>
        <time>2016-05-01T10:28:31Z</time>
      </trkpt>
      <trkpt lat="44.00996" lon="4.11605">
        <ele>108.29</ele>
        <time>2016-05-01T10:28:37Z</time>
      </trkpt>
      <trkpt lat="44.00946" lon="4.11762">
        <ele>107.81</ele>
        <time>2016-05-01T10:28:43Z</time>
      </trkpt>
      <trkpt lat="44.0086" lon="4.1201">
        <ele>107.81</ele>
        <time>2016-05-01T10:28:50Z</time>
      </trkpt>
      <trkpt lat="44.00765" lon="4.12211">
        <ele>107.32</ele>
        <time>2016-05-01T10:28:56Z</time>
      </trkpt>
      <trkpt lat="44.00673" lon="4.12407">
        <ele>107.32</ele>
        <time>2016-05-01T10:29:02Z</time>
      </trkpt>
      <trkpt lat="44.00662" lon="4.12441">
        <ele>107.32</ele>
        <time>2016-05-01T10:29:03Z</time>
      </trkpt>
      <trkpt lat="44.00654" lon="4.12475">
        <ele>107.32</ele>
        <time>2016-05-01T10:29:04Z</time>
      </trkpt>
      <trkpt lat="44.00648" lon="4.12509">
        <ele>107.32</ele>
        <time>2016-05-01T10:29:05Z</time>
      </trkpt>
      <trkpt lat="44.00644" lon="4.12541">
        <ele>107.32</ele>
        <time>2016-05-01T10:29:06Z</time>
      </trkpt>
      <trkpt lat="44.00642" lon="4.12572">
        <ele>106.36</ele>
        <time>2016-05-01T10:29:07Z</time>
      </trkpt>
      <trkpt lat="44.00641" lon="4.12601">
        <ele>105.88</ele>
        <time>2016-05-01T10:29:08Z</time>
      </trkpt>
      <trkpt lat="44.00642" lon="4.12628">
        <ele>104.92</ele>
        <time>2016-05-01T10:29:09Z</time>
      </trkpt>
      <trkpt lat="44.00643" lon="4.127">
        <ele>103</ele>
        <time>2016-05-01T10:29:12Z</time>
      </trkpt>
      <trkpt lat="44.0064" lon="4.12724">
        <ele>103</ele>
        <time>2016-05-01T10:29:13Z</time>
      </trkpt>
      <trkpt lat="44.00636" lon="4.12747">
        <ele>102.52</ele>
        <time>2016-05-01T10:29:14Z</time>
      </trkpt>
      <trkpt lat="44.00629" lon="4.1277">
        <ele>103.48</ele>
        <time>2016-05-01T10:29:15Z</time>
      </trkpt>
      <trkpt lat="44.00623" lon="4.12793">
        <ele>103.96</ele>
        <time>2016-05-01T10:29:16Z</time>
      </trkpt>
      <trkpt lat="44.00597" lon="4.12962">
        <ele>107.32</ele>
        <time>2016-05-01T10:29:24Z</time>
      </trkpt>
      <trkpt lat="44.00592" lon="4.12988">
        <ele>107.32</ele>
        <time>2016-05-01T10:29:26Z</time>
      </trkpt>
      <trkpt lat="44.00588" lon="4.12999">
        <ele>107.32</ele>
        <time>2016-05-01T10:29:27Z</time>
      </trkpt>
      <trkpt lat="44.00583" lon="4.13008">
        <ele>107.32</ele>
        <time>2016-05-01T10:29:28Z</time>
      </trkpt>
      <trkpt lat="44.00578" lon="4.13018">
        <ele>107.32</ele>
        <time>2016-05-01T10:29:29Z</time>
      </trkpt>
      <trkpt lat="44.00578" lon="4.13032">
        <ele>107.32</ele>
        <time>2016-05-01T10:29:30Z</time>
      </trkpt>
      <trkpt lat="44.0058" lon="4.13047">
        <ele>107.32</ele>
        <time>2016-05-01T10:29:31Z</time>
      </trkpt>
      <trkpt lat="44.00581" lon="4.13065">
        <ele>106.36</ele>
        <time>2016-05-01T10:29:32Z</time>
      </trkpt>
      <trkpt lat="44.0058" lon="4.13087">
        <ele>105.88</ele>
        <time>2016-05-01T10:29:33Z</time>
      </trkpt>
      <trkpt lat="44.00579" lon="4.13111">
        <ele>105.4</ele>
        <time>2016-05-01T10:29:34Z</time>
      </trkpt>
      <trkpt lat="44.00576" lon="4.13135">
        <ele>104.92</ele>
        <time>2016-05-01T10:29:35Z</time>
      </trkpt>
      <trkpt lat="44.00572" lon="4.13297">
        <ele>102.04</ele>
        <time>2016-05-01T10:29:43Z</time>
      </trkpt>
      <trkpt lat="44.00578" lon="4.13445">
        <ele>101.56</ele>
        <time>2016-05-01T10:29:51Z</time>
      </trkpt>
      <trkpt lat="44.00621" lon="4.1364">
        <ele>100.11</ele>
        <time>2016-05-01T10:29:58Z</time>
      </trkpt>
      <trkpt lat="44.0065" lon="4.13723">
        <ele>98.67</ele>
        <time>2016-05-01T10:30:01Z</time>
      </trkpt>
      <trkpt lat="44.00664" lon="4.13749">
        <ele>98.67</ele>
        <time>2016-05-01T10:30:02Z</time>
      </trkpt>
      <trkpt lat="44.00682" lon="4.13773">
        <ele>98.19</ele>
        <time>2016-05-01T10:30:03Z</time>
      </trkpt>
      <trkpt lat="44.00748" lon="4.13878">
        <ele>97.71</ele>
        <time>2016-05-01T10:30:07Z</time>
      </trkpt>
      <trkpt lat="44.00758" lon="4.13911">
        <ele>97.71</ele>
        <time>2016-05-01T10:30:08Z</time>
      </trkpt>
      <trkpt lat="44.0082" lon="4.1408">
        <ele>98.19</ele>
        <time>2016-05-01T10:30:13Z</time>
      </trkpt>
      <trkpt lat="44.00837" lon="4.14112">
        <ele>97.71</ele>
        <time>2016-05-01T10:30:14Z</time>
      </trkpt>
      <trkpt lat="44.00986" lon="4.14363">
        <ele>96.27</ele>
        <time>2016-05-01T10:30:22Z</time>
      </trkpt>
      <trkpt lat="44.01061" lon="4.14584">
        <ele>94.83</ele>
        <time>2016-05-01T10:30:28Z</time>
      </trkpt>
      <trkpt lat="44.01131" lon="4.1482">
        <ele>95.31</ele>
        <time>2016-05-01T10:30:35Z</time>
      </trkpt>
      <trkpt lat="44.01227" lon="4.15027">
        <ele>92.42</ele>
        <time>2016-05-01T10:30:43Z</time>
      </trkpt>
      <trkpt lat="44.01344" lon="4.15166">
        <ele>91.46</ele>
        <time>2016-05-01T10:30:51Z</time>
      </trkpt>
      <trkpt lat="44.01421" lon="4.15288">
        <ele>90.98</ele>
        <time>2016-05-01T10:30:57Z</time>
      </trkpt>
      <trkpt lat="44.01499" lon="4.15439">
        <ele>93.87</ele>
        <time>2016-05-01T10:31:05Z</time>
      </trkpt>
      <trkpt lat="44.01531" lon="4.15488">
        <ele>95.79</ele>
        <time>2016-05-01T10:31:10Z</time>
      </trkpt>
      <trkpt lat="44.01534" lon="4.15497">
        <ele>96.27</ele>
        <time>2016-05-01T10:31:11Z</time>
      </trkpt>
      <trkpt lat="44.01535" lon="4.15506">
        <ele>96.27</ele>
        <time>2016-05-01T10:31:12Z</time>
      </trkpt>
      <trkpt lat="44.01534" lon="4.15515">
        <ele>96.27</ele>
        <time>2016-05-01T10:31:13Z</time>
      </trkpt>
      <trkpt lat="44.0153" lon="4.15524">
        <ele>95.79</ele>
        <time>2016-05-01T10:31:14Z</time>
      </trkpt>
      <trkpt lat="44.01523" lon="4.15533">
        <ele>95.79</ele>
        <time>2016-05-01T10:31:15Z</time>
      </trkpt>
      <trkpt lat="44.01514" lon="4.15541">
        <ele>95.79</ele>
        <time>2016-05-01T10:31:16Z</time>
      </trkpt>
      <trkpt lat="44.01502" lon="4.15546">
        <ele>96.27</ele>
        <time>2016-05-01T10:31:17Z</time>
      </trkpt>
      <trkpt lat="44.01488" lon="4.15549">
        <ele>97.23</ele>
        <time>2016-05-01T10:31:18Z</time>
      </trkpt>
      <trkpt lat="44.01473" lon="4.1555">
        <ele>97.71</ele>
        <time>2016-05-01T10:31:19Z</time>
      </trkpt>
      <trkpt lat="44.01429" lon="4.15557">
        <ele>100.11</ele>
        <time>2016-05-01T10:31:22Z</time>
      </trkpt>
      <trkpt lat="44.01416" lon="4.15563">
        <ele>101.08</ele>
        <time>2016-05-01T10:31:23Z</time>
      </trkpt>
      <trkpt lat="44.01402" lon="4.15574">
        <ele>101.56</ele>
        <time>2016-05-01T10:31:24Z</time>
      </trkpt>
      <trkpt lat="44.01392" lon="4.15591">
        <ele>102.52</ele>
        <time>2016-05-01T10:31:25Z</time>
      </trkpt>
      <trkpt lat="44.01386" lon="4.1561">
        <ele>103</ele>
        <time>2016-05-01T10:31:26Z</time>
      </trkpt>
      <trkpt lat="44.01385" lon="4.1563">
        <ele>103</ele>
        <time>2016-05-01T10:31:27Z</time>
      </trkpt>
      <trkpt lat="44.01387" lon="4.1565">
        <ele>103.48</ele>
        <time>2016-05-01T10:31:28Z</time>
      </trkpt>
      <trkpt lat="44.01392" lon="4.15673">
        <ele>103.96</ele>
        <time>2016-05-01T10:31:29Z</time>
      </trkpt>
      <trkpt lat="44.01393" lon="4.15698">
        <ele>104.92</ele>
        <time>2016-05-01T10:31:30Z</time>
      </trkpt>
      <trkpt lat="44.0139" lon="4.15725">
        <ele>105.4</ele>
        <time>2016-05-01T10:31:31Z</time>
      </trkpt>
      <trkpt lat="44.01381" lon="4.15752">
        <ele>105.88</ele>
        <time>2016-05-01T10:31:32Z</time>
      </trkpt>
      <trkpt lat="44.01368" lon="4.15779">
        <ele>105.88</ele>
        <time>2016-05-01T10:31:33Z</time>
      </trkpt>
      <trkpt lat="44.01351" lon="4.15806">
        <ele>106.36</ele>
        <time>2016-05-01T10:31:34Z</time>
      </trkpt>
      <trkpt lat="44.01333" lon="4.15833">
        <ele>106.84</ele>
        <time>2016-05-01T10:31:35Z</time>
      </trkpt>
      <trkpt lat="44.01234" lon="4.16034">
        <ele>107.32</ele>
        <time>2016-05-01T10:31:41Z</time>
      </trkpt>
      <trkpt lat="44.01176" lon="4.16289">
        <ele>104.44</ele>
        <time>2016-05-01T10:31:47Z</time>
      </trkpt>
      <trkpt lat="44.01167" lon="4.16624">
        <ele>96.27</ele>
        <time>2016-05-01T10:31:54Z</time>
      </trkpt>
      <trkpt lat="44.01137" lon="4.16939">
        <ele>92.9</ele>
        <time>2016-05-01T10:32:01Z</time>
      </trkpt>
      <trkpt lat="44.01054" lon="4.1717">
        <ele>91.94</ele>
        <time>2016-05-01T10:32:07Z</time>
      </trkpt>
      <trkpt lat="44.00922" lon="4.17352">
        <ele>90.98</ele>
        <time>2016-05-01T10:32:13Z</time>
      </trkpt>
      <trkpt lat="44.00758" lon="4.1747">
        <ele>90.5</ele>
        <time>2016-05-01T10:32:19Z</time>
      </trkpt>
      <trkpt lat="44.00469" lon="4.17655">
        <ele>90.5</ele>
        <time>2016-05-01T10:32:29Z</time>
      </trkpt>
      <trkpt lat="44.00156" lon="4.17931">
        <ele>88.58</ele>
        <time>2016-05-01T10:32:40Z</time>
      </trkpt>
      <trkpt lat="44.00024" lon="4.18136">
        <ele>87.14</ele>
        <time>2016-05-01T10:32:46Z</time>
      </trkpt>
      <trkpt lat="43.99829" lon="4.18535">
        <ele>86.18</ele>
        <time>2016-05-01T10:32:57Z</time>
      </trkpt>
      <trkpt lat="43.99677" lon="4.18777">
        <ele>85.69</ele>
        <time>2016-05-01T10:33:04Z</time>
      </trkpt>
      <trkpt lat="43.99497" lon="4.18962">
        <ele>85.21</ele>
        <time>2016-05-01T10:33:11Z</time>
      </trkpt>
      <trkpt lat="43.9926" lon="4.19125">
        <ele>85.21</ele>
        <time>2016-05-01T10:33:20Z</time>
      </trkpt>
      <trkpt lat="43.98831" lon="4.19419">
        <ele>84.73</ele>
        <time>2016-05-01T10:33:36Z</time>
      </trkpt>
      <trkpt lat="43.98703" lon="4.19544">
        <ele>86.66</ele>
        <time>2016-05-01T10:33:42Z</time>
      </trkpt>
      <trkpt lat="43.98615" lon="4.19622">
        <ele>88.58</ele>
        <time>2016-05-01T10:33:48Z</time>
      </trkpt>
      <trkpt lat="43.98602" lon="4.19626">
        <ele>88.1</ele>
        <time>2016-05-01T10:33:49Z</time>
      </trkpt>
      <trkpt lat="43.98587" lon="4.19628">
        <ele>87.62</ele>
        <time>2016-05-01T10:33:50Z</time>
      </trkpt>
      <trkpt lat="43.98559" lon="4.19631">
        <ele>86.66</ele>
        <time>2016-05-01T10:33:52Z</time>
      </trkpt>
      <trkpt lat="43.98546" lon="4.19636">
        <ele>86.18</ele>
        <time>2016-05-01T10:33:53Z</time>
      </trkpt>
      <trkpt lat="43.98535" lon="4.19644">
        <ele>85.69</ele>
        <time>2016-05-01T10:33:54Z</time>
      </trkpt>
      <trkpt lat="43.98526" lon="4.19657">
        <ele>84.73</ele>
        <time>2016-05-01T10:33:55Z</time>
      </trkpt>
      <trkpt lat="43.9852" lon="4.19671">
        <ele>83.77</ele>
        <time>2016-05-01T10:33:56Z</time>
      </trkpt>
      <trkpt lat="43.98514" lon="4.19684">
        <ele>83.29</ele>
        <time>2016-05-01T10:33:57Z</time>
      </trkpt>
      <trkpt lat="43.98508" lon="4.19696">
        <ele>82.81</ele>
        <time>2016-05-01T10:33:58Z</time>
      </trkpt>
      <trkpt lat="43.98501" lon="4.19706">
        <ele>82.33</ele>
        <time>2016-05-01T10:33:59Z</time>
      </trkpt>
      <trkpt lat="43.98493" lon="4.19714">
        <ele>81.85</ele>
        <time>2016-05-01T10:34:00Z</time>
      </trkpt>
      <trkpt lat="43.98484" lon="4.19716">
        <ele>81.37</ele>
        <time>2016-05-01T10:34:01Z</time>
      </trkpt>
      <trkpt lat="43.98476" lon="4.19716">
        <ele>81.37</ele>
        <time>2016-05-01T10:34:02Z</time>
      </trkpt>
      <trkpt lat="43.9847" lon="4.19714">
        <ele>80.89</ele>
        <time>2016-05-01T10:34:03Z</time>
      </trkpt>
      <trkpt lat="43.98466" lon="4.19712">
        <ele>80.89</ele>
        <time>2016-05-01T10:34:04Z</time>
      </trkpt>
      <trkpt lat="43.98463" lon="4.1971">
        <ele>80.89</ele>
        <time>2016-05-01T10:34:05Z</time>
      </trkpt>
      <trkpt lat="43.98461" lon="4.19709">
        <ele>80.89</ele>
        <time>2016-05-01T10:34:06Z</time>
      </trkpt>
      <trkpt lat="43.98455" lon="4.19708">
        <ele>80.41</ele>
        <time>2016-05-01T10:34:08Z</time>
      </trkpt>
      <trkpt lat="43.98449" lon="4.19711">
        <ele>80.41</ele>
        <time>2016-05-01T10:34:09Z</time>
      </trkpt>
      <trkpt lat="43.98442" lon="4.19721">
        <ele>80.41</ele>
        <time>2016-05-01T10:34:10Z</time>
      </trkpt>
      <trkpt lat="43.98435" lon="4.19733">
        <ele>80.41</ele>
        <time>2016-05-01T10:34:11Z</time>
      </trkpt>
      <trkpt lat="43.98428" lon="4.19746">
        <ele>80.41</ele>
        <time>2016-05-01T10:34:12Z</time>
      </trkpt>
      <trkpt lat="43.98366" lon="4.19856">
        <ele>79.93</ele>
        <time>2016-05-01T10:34:18Z</time>
      </trkpt>
      <trkpt lat="43.9826" lon="4.20039">
        <ele>79.45</ele>
        <time>2016-05-01T10:34:25Z</time>
      </trkpt>
      <trkpt lat="43.98121" lon="4.20289">
        <ele>78.48</ele>
        <time>2016-05-01T10:34:33Z</time>
      </trkpt>
      <trkpt lat="43.97977" lon="4.20544">
        <ele>78</ele>
        <time>2016-05-01T10:34:41Z</time>
      </trkpt>
      <trkpt lat="43.97828" lon="4.20804">
        <ele>78</ele>
        <time>2016-05-01T10:34:51Z</time>
      </trkpt>
      <trkpt lat="43.97734" lon="4.20967">
        <ele>78.48</ele>
        <time>2016-05-01T10:35:00Z</time>
      </trkpt>
      <trkpt lat="43.97604" lon="4.21199">
        <ele>78</ele>
        <time>2016-05-01T10:35:10Z</time>
      </trkpt>
      <trkpt lat="43.97496" lon="4.21382">
        <ele>78.48</ele>
        <time>2016-05-01T10:35:19Z</time>
      </trkpt>
      <trkpt lat="43.97363" lon="4.21607">
        <ele>78.97</ele>
        <time>2016-05-01T10:35:30Z</time>
      </trkpt>
      <trkpt lat="43.97225" lon="4.21834">
        <ele>78</ele>
        <time>2016-05-01T10:35:38Z</time>
      </trkpt>
      <trkpt lat="43.97075" lon="4.22084">
        <ele>78.48</ele>
        <time>2016-05-01T10:35:47Z</time>
      </trkpt>
      <trkpt lat="43.9702" lon="4.22168">
        <ele>78</ele>
        <time>2016-05-01T10:35:52Z</time>
      </trkpt>
      <trkpt lat="43.97006" lon="4.22194">
        <ele>78</ele>
        <time>2016-05-01T10:35:56Z</time>
      </trkpt>
      <trkpt lat="43.97009" lon="4.22199">
        <ele>77.52</ele>
        <time>2016-05-01T10:35:57Z</time>
      </trkpt>
      <trkpt lat="43.97016" lon="4.22206">
        <ele>77.52</ele>
        <time>2016-05-01T10:35:58Z</time>
      </trkpt>
      <trkpt lat="43.97025" lon="4.22215">
        <ele>76.56</ele>
        <time>2016-05-01T10:35:59Z</time>
      </trkpt>
      <trkpt lat="43.97036" lon="4.22228">
        <ele>76.56</ele>
        <time>2016-05-01T10:36:00Z</time>
      </trkpt>
      <trkpt lat="43.97126" lon="4.22321">
        <ele>75.6</ele>
        <time>2016-05-01T10:36:06Z</time>
      </trkpt>
      <trkpt lat="43.97292" lon="4.2247">
        <ele>75.6</ele>
        <time>2016-05-01T10:36:14Z</time>
      </trkpt>
      <trkpt lat="43.97579" lon="4.22714">
        <ele>78.97</ele>
        <time>2016-05-01T10:36:26Z</time>
      </trkpt>
      <trkpt lat="43.97801" lon="4.22901">
        <ele>79.93</ele>
        <time>2016-05-01T10:36:36Z</time>
      </trkpt>
      <trkpt lat="43.97928" lon="4.23009">
        <ele>79.45</ele>
        <time>2016-05-01T10:36:44Z</time>
      </trkpt>
      <trkpt lat="43.97942" lon="4.23017">
        <ele>79.45</ele>
        <time>2016-05-01T10:36:45Z</time>
      </trkpt>
      <trkpt lat="43.97955" lon="4.23022">
        <ele>79.93</ele>
        <time>2016-05-01T10:36:46Z</time>
      </trkpt>
      <trkpt lat="43.97968" lon="4.23024">
        <ele>80.41</ele>
        <time>2016-05-01T10:36:47Z</time>
      </trkpt>
      <trkpt lat="43.9798" lon="4.23024">
        <ele>80.89</ele>
        <time>2016-05-01T10:36:48Z</time>
      </trkpt>
      <trkpt lat="43.97991" lon="4.23023">
        <ele>80.89</ele>
        <time>2016-05-01T10:36:49Z</time>
      </trkpt>
      <trkpt lat="43.98018" lon="4.23023">
        <ele>81.85</ele>
        <time>2016-05-01T10:36:52Z</time>
      </trkpt>
      <trkpt lat="43.98026" lon="4.23027">
        <ele>82.33</ele>
        <time>2016-05-01T10:36:53Z</time>
      </trkpt>
      <trkpt lat="43.98032" lon="4.23032">
        <ele>82.81</ele>
        <time>2016-05-01T10:36:54Z</time>
      </trkpt>
      <trkpt lat="43.98038" lon="4.23039">
        <ele>82.81</ele>
        <time>2016-05-01T10:36:55Z</time>
      </trkpt>
      <trkpt lat="43.98043" lon="4.23048">
        <ele>83.29</ele>
        <time>2016-05-01T10:36:56Z</time>
      </trkpt>
      <trkpt lat="43.98048" lon="4.23062">
        <ele>83.77</ele>
        <time>2016-05-01T10:36:57Z</time>
      </trkpt>
      <trkpt lat="43.98053" lon="4.23078">
        <ele>84.25</ele>
        <time>2016-05-01T10:36:58Z</time>
      </trkpt>
      <trkpt lat="43.98095" lon="4.23213">
        <ele>85.21</ele>
        <time>2016-05-01T10:37:05Z</time>
      </trkpt>
      <trkpt lat="43.98175" lon="4.23462">
        <ele>85.69</ele>
        <time>2016-05-01T10:37:16Z</time>
      </trkpt>
      <trkpt lat="43.98201" lon="4.23537">
        <ele>85.69</ele>
        <time>2016-05-01T10:37:22Z</time>
      </trkpt>
      <trkpt lat="43.9822" lon="4.23601">
        <ele>84.73</ele>
        <time>2016-05-01T10:37:30Z</time>
      </trkpt>
      <trkpt lat="43.98257" lon="4.23735">
        <ele>83.29</ele>
        <time>2016-05-01T10:37:37Z</time>
      </trkpt>
      <trkpt lat="43.98284" lon="4.23926">
        <ele>83.77</ele>
        <time>2016-05-01T10:37:44Z</time>
      </trkpt>
      <trkpt lat="43.98346" lon="4.24183">
        <ele>85.69</ele>
        <time>2016-05-01T10:37:54Z</time>
      </trkpt>
      <trkpt lat="43.98373" lon="4.24426">
        <ele>87.14</ele>
        <time>2016-05-01T10:38:02Z</time>
      </trkpt>
      <trkpt lat="43.98373" lon="4.24696">
        <ele>85.21</ele>
        <time>2016-05-01T10:38:11Z</time>
      </trkpt>
      <trkpt lat="43.98331" lon="4.24974">
        <ele>83.29</ele>
        <time>2016-05-01T10:38:20Z</time>
      </trkpt>
      <trkpt lat="43.98251" lon="4.25236">
        <ele>81.37</ele>
        <time>2016-05-01T10:38:29Z</time>
      </trkpt>
      <trkpt lat="43.98221" lon="4.25355">
        <ele>80.89</ele>
        <time>2016-05-01T10:38:33Z</time>
      </trkpt>
      <trkpt lat="43.98218" lon="4.25385">
        <ele>80.89</ele>
        <time>2016-05-01T10:38:34Z</time>
      </trkpt>
      <trkpt lat="43.98217" lon="4.25417">
        <ele>80.89</ele>
        <time>2016-05-01T10:38:35Z</time>
      </trkpt>
      <trkpt lat="43.98228" lon="4.25658">
        <ele>80.41</ele>
        <time>2016-05-01T10:38:42Z</time>
      </trkpt>
      <trkpt lat="43.98251" lon="4.25953">
        <ele>80.41</ele>
        <time>2016-05-01T10:38:51Z</time>
      </trkpt>
      <trkpt lat="43.98285" lon="4.26156">
        <ele>80.89</ele>
        <time>2016-05-01T10:38:58Z</time>
      </trkpt>
      <trkpt lat="43.98353" lon="4.26458">
        <ele>81.37</ele>
        <time>2016-05-01T10:39:09Z</time>
      </trkpt>
      <trkpt lat="43.9844" lon="4.26845">
        <ele>82.81</ele>
        <time>2016-05-01T10:39:21Z</time>
      </trkpt>
      <trkpt lat="43.9857" lon="4.27216">
        <ele>88.58</ele>
        <time>2016-05-01T10:39:33Z</time>
      </trkpt>
      <trkpt lat="43.98684" lon="4.27755">
        <ele>89.54</ele>
        <time>2016-05-01T10:39:48Z</time>
      </trkpt>
      <trkpt lat="43.98814" lon="4.28365">
        <ele>92.42</ele>
        <time>2016-05-01T10:40:04Z</time>
      </trkpt>
      <trkpt lat="43.98892" lon="4.28696">
        <ele>97.71</ele>
        <time>2016-05-01T10:40:14Z</time>
      </trkpt>
      <trkpt lat="43.98979" lon="4.28985">
        <ele>103</ele>
        <time>2016-05-01T10:40:25Z</time>
      </trkpt>
      <trkpt lat="43.98989" lon="4.2903">
        <ele>103.96</ele>
        <time>2016-05-01T10:40:27Z</time>
      </trkpt>
      <trkpt lat="43.98991" lon="4.29054">
        <ele>104.44</ele>
        <time>2016-05-01T10:40:28Z</time>
      </trkpt>
      <trkpt lat="43.99004" lon="4.2924">
        <ele>104.44</ele>
        <time>2016-05-01T10:40:34Z</time>
      </trkpt>
      <trkpt lat="43.9903" lon="4.29569">
        <ele>103.96</ele>
        <time>2016-05-01T10:40:43Z</time>
      </trkpt>
      <trkpt lat="43.99052" lon="4.29864">
        <ele>103.96</ele>
        <time>2016-05-01T10:40:52Z</time>
      </trkpt>
      <trkpt lat="43.99086" lon="4.30389">
        <ele>103.96</ele>
        <time>2016-05-01T10:41:06Z</time>
      </trkpt>
      <trkpt lat="43.99106" lon="4.30759">
        <ele>103.48</ele>
        <time>2016-05-01T10:41:16Z</time>
      </trkpt>
      <trkpt lat="43.99112" lon="4.30923">
        <ele>103</ele>
        <time>2016-05-01T10:41:23Z</time>
      </trkpt>
      <trkpt lat="43.99119" lon="4.31046">
        <ele>102.52</ele>
        <time>2016-05-01T10:41:31Z</time>
      </trkpt>
      <trkpt lat="43.99126" lon="4.31188">
        <ele>101.08</ele>
        <time>2016-05-01T10:41:39Z</time>
      </trkpt>
      <trkpt lat="43.99132" lon="4.31284">
        <ele>101.08</ele>
        <time>2016-05-01T10:41:45Z</time>
      </trkpt>
      <trkpt lat="43.9914" lon="4.31426">
        <ele>103.96</ele>
        <time>2016-05-01T10:41:53Z</time>
      </trkpt>
      <trkpt lat="43.99154" lon="4.31584">
        <ele>103.96</ele>
        <time>2016-05-01T10:42:02Z</time>
      </trkpt>
      <trkpt lat="43.99166" lon="4.31763">
        <ele>102.52</ele>
        <time>2016-05-01T10:42:09Z</time>
      </trkpt>
      <trkpt lat="43.9921" lon="4.32">
        <ele>99.15</ele>
        <time>2016-05-01T10:42:16Z</time>
      </trkpt>
      <trkpt lat="43.99218" lon="4.3223">
        <ele>96.27</ele>
        <time>2016-05-01T10:42:22Z</time>
      </trkpt>
      <trkpt lat="43.99226" lon="4.32596">
        <ele>90.98</ele>
        <time>2016-05-01T10:42:31Z</time>
      </trkpt>
      <trkpt lat="43.99236" lon="4.32952">
        <ele>87.62</ele>
        <time>2016-05-01T10:42:40Z</time>
      </trkpt>
      <trkpt lat="43.99223" lon="4.33194">
        <ele>87.14</ele>
        <time>2016-05-01T10:42:47Z</time>
      </trkpt>
      <trkpt lat="43.99201" lon="4.33351">
        <ele>88.58</ele>
        <time>2016-05-01T10:42:53Z</time>
      </trkpt>
      <trkpt lat="43.99198" lon="4.33403">
        <ele>89.06</ele>
        <time>2016-05-01T10:42:55Z</time>
      </trkpt>
      <trkpt lat="43.992" lon="4.33432">
        <ele>89.06</ele>
        <time>2016-05-01T10:42:56Z</time>
      </trkpt>
      <trkpt lat="43.99234" lon="4.33689">
        <ele>89.54</ele>
        <time>2016-05-01T10:43:04Z</time>
      </trkpt>
      <trkpt lat="43.99283" lon="4.34018">
        <ele>91.46</ele>
        <time>2016-05-01T10:43:13Z</time>
      </trkpt>
      <trkpt lat="43.99293" lon="4.34232">
        <ele>95.79</ele>
        <time>2016-05-01T10:43:19Z</time>
      </trkpt>
      <trkpt lat="43.99281" lon="4.34495">
        <ele>105.4</ele>
        <time>2016-05-01T10:43:27Z</time>
      </trkpt>
      <trkpt lat="43.99286" lon="4.34523">
        <ele>106.36</ele>
        <time>2016-05-01T10:43:28Z</time>
      </trkpt>
      <trkpt lat="43.99293" lon="4.34552">
        <ele>107.32</ele>
        <time>2016-05-01T10:43:29Z</time>
      </trkpt>
      <trkpt lat="43.99387" lon="4.34872">
        <ele>108.77</ele>
        <time>2016-05-01T10:43:40Z</time>
      </trkpt>
      <trkpt lat="43.99403" lon="4.34894">
        <ele>108.77</ele>
        <time>2016-05-01T10:43:41Z</time>
      </trkpt>
      <trkpt lat="43.99421" lon="4.34915">
        <ele>109.25</ele>
        <time>2016-05-01T10:43:42Z</time>
      </trkpt>
      <trkpt lat="43.99441" lon="4.34935">
        <ele>109.73</ele>
        <time>2016-05-01T10:43:43Z</time>
      </trkpt>
      <trkpt lat="43.99461" lon="4.34956">
        <ele>109.73</ele>
        <time>2016-05-01T10:43:44Z</time>
      </trkpt>
      <trkpt lat="43.99663" lon="4.35163">
        <ele>117.42</ele>
        <time>2016-05-01T10:43:54Z</time>
      </trkpt>
      <trkpt lat="43.99829" lon="4.35296">
        <ele>124.15</ele>
        <time>2016-05-01T10:44:01Z</time>
      </trkpt>
      <trkpt lat="44.00172" lon="4.35496">
        <ele>136.16</ele>
        <time>2016-05-01T10:44:15Z</time>
      </trkpt>
      <trkpt lat="44.00213" lon="4.35538">
        <ele>136.64</ele>
        <time>2016-05-01T10:44:17Z</time>
      </trkpt>
      <trkpt lat="44.00231" lon="4.35566">
        <ele>137.13</ele>
        <time>2016-05-01T10:44:18Z</time>
      </trkpt>
      <trkpt lat="44.00246" lon="4.35594">
        <ele>137.61</ele>
        <time>2016-05-01T10:44:19Z</time>
      </trkpt>
      <trkpt lat="44.00259" lon="4.35624">
        <ele>138.09</ele>
        <time>2016-05-01T10:44:20Z</time>
      </trkpt>
      <trkpt lat="44.0027" lon="4.35655">
        <ele>138.57</ele>
        <time>2016-05-01T10:44:21Z</time>
      </trkpt>
      <trkpt lat="44.00279" lon="4.35687">
        <ele>138.57</ele>
        <time>2016-05-01T10:44:22Z</time>
      </trkpt>
      <trkpt lat="44.00286" lon="4.3572">
        <ele>138.57</ele>
        <time>2016-05-01T10:44:23Z</time>
      </trkpt>
      <trkpt lat="44.00289" lon="4.35755">
        <ele>138.09</ele>
        <time>2016-05-01T10:44:24Z</time>
      </trkpt>
      <trkpt lat="44.0029" lon="4.3579">
        <ele>137.61</ele>
        <time>2016-05-01T10:44:25Z</time>
      </trkpt>
      <trkpt lat="44.00289" lon="4.35825">
        <ele>136.64</ele>
        <time>2016-05-01T10:44:26Z</time>
      </trkpt>
      <trkpt lat="44.00285" lon="4.35861">
        <ele>135.68</ele>
        <time>2016-05-01T10:44:27Z</time>
      </trkpt>
      <trkpt lat="44.0028" lon="4.35897">
        <ele>134.72</ele>
        <time>2016-05-01T10:44:28Z</time>
      </trkpt>
      <trkpt lat="44.00271" lon="4.35934">
        <ele>133.76</ele>
        <time>2016-05-01T10:44:29Z</time>
      </trkpt>
      <trkpt lat="44.00262" lon="4.3597">
        <ele>132.8</ele>
        <time>2016-05-01T10:44:30Z</time>
      </trkpt>
      <trkpt lat="44.00152" lon="4.3638">
        <ele>128.95</ele>
        <time>2016-05-01T10:44:41Z</time>
      </trkpt>
      <trkpt lat="44.00093" lon="4.366">
        <ele>131.36</ele>
        <time>2016-05-01T10:44:48Z</time>
      </trkpt>
      <trkpt lat="44.00044" lon="4.36832">
        <ele>128.95</ele>
        <time>2016-05-01T10:44:57Z</time>
      </trkpt>
      <trkpt lat="44.00008" lon="4.37032">
        <ele>124.63</ele>
        <time>2016-05-01T10:45:07Z</time>
      </trkpt>
      <trkpt lat="44.00003" lon="4.37088">
        <ele>124.15</ele>
        <time>2016-05-01T10:45:12Z</time>
      </trkpt>
      <trkpt lat="44.00004" lon="4.37097">
        <ele>124.15</ele>
        <time>2016-05-01T10:45:13Z</time>
      </trkpt>
      <trkpt lat="44.00006" lon="4.37106">
        <ele>123.67</ele>
        <time>2016-05-01T10:45:14Z</time>
      </trkpt>
      <trkpt lat="44.00008" lon="4.37115">
        <ele>123.19</ele>
        <time>2016-05-01T10:45:15Z</time>
      </trkpt>
      <trkpt lat="44.00011" lon="4.37125">
        <ele>122.71</ele>
        <time>2016-05-01T10:45:16Z</time>
      </trkpt>
      <trkpt lat="44.0004" lon="4.37217">
        <ele>119.82</ele>
        <time>2016-05-01T10:45:27Z</time>
      </trkpt>
      <trkpt lat="44.00049" lon="4.37241">
        <ele>118.86</ele>
        <time>2016-05-01T10:45:29Z</time>
      </trkpt>
      <trkpt lat="44.00052" lon="4.37252">
        <ele>117.9</ele>
        <time>2016-05-01T10:45:30Z</time>
      </trkpt>
      <trkpt lat="44.00073" lon="4.37356">
        <ele>115.98</ele>
        <time>2016-05-01T10:45:39Z</time>
      </trkpt>
      <trkpt lat="44.00074" lon="4.3737">
        <ele>116.46</ele>
        <time>2016-05-01T10:45:40Z</time>
      </trkpt>
      <trkpt lat="44.00074" lon="4.37382">
        <ele>115.98</ele>
        <time>2016-05-01T10:45:41Z</time>
      </trkpt>
      <trkpt lat="44.00072" lon="4.37395">
        <ele>115.5</ele>
        <time>2016-05-01T10:45:42Z</time>
      </trkpt>
      <trkpt lat="44.00069" lon="4.37407">
        <ele>115.01</ele>
        <time>2016-05-01T10:45:43Z</time>
      </trkpt>
      <trkpt lat="44.00065" lon="4.37419">
        <ele>114.53</ele>
        <time>2016-05-01T10:45:44Z</time>
      </trkpt>
      <trkpt lat="44.00061" lon="4.37428">
        <ele>114.05</ele>
        <time>2016-05-01T10:45:45Z</time>
      </trkpt>
      <trkpt lat="44.00057" lon="4.37436">
        <ele>114.05</ele>
        <time>2016-05-01T10:45:46Z</time>
      </trkpt>
      <trkpt lat="44.00052" lon="4.37444">
        <ele>113.57</ele>
        <time>2016-05-01T10:45:47Z</time>
      </trkpt>
      <trkpt lat="44.00042" lon="4.3746">
        <ele>113.09</ele>
        <time>2016-05-01T10:45:49Z</time>
      </trkpt>
      <trkpt lat="44.00039" lon="4.37469">
        <ele>112.61</ele>
        <time>2016-05-01T10:45:50Z</time>
      </trkpt>
      <trkpt lat="44.00038" lon="4.37479">
        <ele>111.65</ele>
        <time>2016-05-01T10:45:51Z</time>
      </trkpt>
      <trkpt lat="44.00038" lon="4.37489">
        <ele>111.17</ele>
        <time>2016-05-01T10:45:52Z</time>
      </trkpt>
      <trkpt lat="44.00042" lon="4.37502">
        <ele>109.73</ele>
        <time>2016-05-01T10:45:53Z</time>
      </trkpt>
      <trkpt lat="44.00048" lon="4.37516">
        <ele>109.25</ele>
        <time>2016-05-01T10:45:54Z</time>
      </trkpt>
      <trkpt lat="44.00056" lon="4.37533">
        <ele>108.29</ele>
        <time>2016-05-01T10:45:55Z</time>
      </trkpt>
      <trkpt lat="44.00065" lon="4.37551">
        <ele>107.81</ele>
        <time>2016-05-01T10:45:56Z</time>
      </trkpt>
      <trkpt lat="44.00074" lon="4.37569">
        <ele>106.84</ele>
        <time>2016-05-01T10:45:57Z</time>
      </trkpt>
      <trkpt lat="44.00103" lon="4.37669">
        <ele>103.96</ele>
        <time>2016-05-01T10:46:03Z</time>
      </trkpt>
      <trkpt lat="44.00105" lon="4.3769">
        <ele>103.48</ele>
        <time>2016-05-01T10:46:04Z</time>
      </trkpt>
      <trkpt lat="44.00131" lon="4.37874">
        <ele>96.27</ele>
        <time>2016-05-01T10:46:11Z</time>
      </trkpt>
      <trkpt lat="44.00134" lon="4.381">
        <ele>90.5</ele>
        <time>2016-05-01T10:46:18Z</time>
      </trkpt>
      <trkpt lat="44.00094" lon="4.38414">
        <ele>82.81</ele>
        <time>2016-05-01T10:46:27Z</time>
      </trkpt>
      <trkpt lat="44.0009" lon="4.38497">
        <ele>79.45</ele>
        <time>2016-05-01T10:46:30Z</time>
      </trkpt>
      <trkpt lat="44.00095" lon="4.38525">
        <ele>78.48</ele>
        <time>2016-05-01T10:46:31Z</time>
      </trkpt>
      <trkpt lat="44.00102" lon="4.38553">
        <ele>77.04</ele>
        <time>2016-05-01T10:46:32Z</time>
      </trkpt>
      <trkpt lat="44.00116" lon="4.38581">
        <ele>76.08</ele>
        <time>2016-05-01T10:46:33Z</time>
      </trkpt>
      <trkpt lat="44.00129" lon="4.38608">
        <ele>74.64</ele>
        <time>2016-05-01T10:46:34Z</time>
      </trkpt>
      <trkpt lat="44.00165" lon="4.38697">
        <ele>73.2</ele>
        <time>2016-05-01T10:46:37Z</time>
      </trkpt>
      <trkpt lat="44.00172" lon="4.38728">
        <ele>72.72</ele>
        <time>2016-05-01T10:46:38Z</time>
      </trkpt>
      <trkpt lat="44.00203" lon="4.38974">
        <ele>73.68</ele>
        <time>2016-05-01T10:46:45Z</time>
      </trkpt>
      <trkpt lat="44.0023" lon="4.39252">
        <ele>76.56</ele>
        <time>2016-05-01T10:46:53Z</time>
      </trkpt>
      <trkpt lat="44.00238" lon="4.39479">
        <ele>78</ele>
        <time>2016-05-01T10:47:00Z</time>
      </trkpt>
      <trkpt lat="44.00245" lon="4.39508">
        <ele>78</ele>
        <time>2016-05-01T10:47:01Z</time>
      </trkpt>
      <trkpt lat="44.00254" lon="4.39535">
        <ele>77.52</ele>
        <time>2016-05-01T10:47:02Z</time>
      </trkpt>
      <trkpt lat="44.00264" lon="4.39561">
        <ele>77.52</ele>
        <time>2016-05-01T10:47:03Z</time>
      </trkpt>
      <trkpt lat="44.00275" lon="4.39586">
        <ele>77.52</ele>
        <time>2016-05-01T10:47:04Z</time>
      </trkpt>
      <trkpt lat="44.00288" lon="4.39609">
        <ele>77.52</ele>
        <time>2016-05-01T10:47:05Z</time>
      </trkpt>
      <trkpt lat="44.00301" lon="4.3963">
        <ele>77.52</ele>
        <time>2016-05-01T10:47:06Z</time>
      </trkpt>
      <trkpt lat="44.00345" lon="4.39709">
        <ele>79.45</ele>
        <time>2016-05-01T10:47:10Z</time>
      </trkpt>
      <trkpt lat="44.00351" lon="4.39729">
        <ele>79.45</ele>
        <time>2016-05-01T10:47:11Z</time>
      </trkpt>
      <trkpt lat="44.00354" lon="4.3975">
        <ele>78.48</ele>
        <time>2016-05-01T10:47:12Z</time>
      </trkpt>
      <trkpt lat="44.00354" lon="4.39772">
        <ele>78</ele>
        <time>2016-05-01T10:47:13Z</time>
      </trkpt>
      <trkpt lat="44.00354" lon="4.39794">
        <ele>78</ele>
        <time>2016-05-01T10:47:14Z</time>
      </trkpt>
      <trkpt lat="44.00361" lon="4.4002">
        <ele>78.97</ele>
        <time>2016-05-01T10:47:24Z</time>
      </trkpt>
      <trkpt lat="44.00366" lon="4.40099">
        <ele>80.89</ele>
        <time>2016-05-01T10:47:30Z</time>
      </trkpt>
      <trkpt lat="44.00365" lon="4.4012">
        <ele>81.37</ele>
        <time>2016-05-01T10:47:32Z</time>
      </trkpt>
      <trkpt lat="44.00362" lon="4.40131">
        <ele>81.85</ele>
        <time>2016-05-01T10:47:33Z</time>
      </trkpt>
      <trkpt lat="44.00361" lon="4.40142">
        <ele>82.33</ele>
        <time>2016-05-01T10:47:34Z</time>
      </trkpt>
      <trkpt lat="44.00361" lon="4.40154">
        <ele>82.81</ele>
        <time>2016-05-01T10:47:35Z</time>
      </trkpt>
      <trkpt lat="44.00364" lon="4.40166">
        <ele>83.29</ele>
        <time>2016-05-01T10:47:36Z</time>
      </trkpt>
      <trkpt lat="44.00369" lon="4.40177">
        <ele>83.77</ele>
        <time>2016-05-01T10:47:37Z</time>
      </trkpt>
      <trkpt lat="44.00374" lon="4.40191">
        <ele>84.25</ele>
        <time>2016-05-01T10:47:38Z</time>
      </trkpt>
      <trkpt lat="44.00377" lon="4.40205">
        <ele>84.73</ele>
        <time>2016-05-01T10:47:39Z</time>
      </trkpt>
      <trkpt lat="44.00379" lon="4.40221">
        <ele>85.21</ele>
        <time>2016-05-01T10:47:40Z</time>
      </trkpt>
      <trkpt lat="44.00395" lon="4.40364">
        <ele>90.98</ele>
        <time>2016-05-01T10:47:48Z</time>
      </trkpt>
      <trkpt lat="44.00403" lon="4.40373">
        <ele>91.94</ele>
        <time>2016-05-01T10:47:49Z</time>
      </trkpt>
      <trkpt lat="44.00412" lon="4.4038">
        <ele>92.42</ele>
        <time>2016-05-01T10:47:50Z</time>
      </trkpt>
      <trkpt lat="44.00425" lon="4.40382">
        <ele>92.9</ele>
        <time>2016-05-01T10:47:51Z</time>
      </trkpt>
      <trkpt lat="44.00437" lon="4.40383">
        <ele>93.87</ele>
        <time>2016-05-01T10:47:52Z</time>
      </trkpt>
      <trkpt lat="44.00449" lon="4.40382">
        <ele>94.83</ele>
        <time>2016-05-01T10:47:53Z</time>
      </trkpt>
      <trkpt lat="44.00478" lon="4.40386">
        <ele>96.27</ele>
        <time>2016-05-01T10:47:56Z</time>
      </trkpt>
      <trkpt lat="44.00485" lon="4.40394">
        <ele>97.23</ele>
        <time>2016-05-01T10:47:57Z</time>
      </trkpt>
      <trkpt lat="44.00491" lon="4.40404">
        <ele>97.71</ele>
        <time>2016-05-01T10:47:58Z</time>
      </trkpt>
      <trkpt lat="44.00496" lon="4.40416">
        <ele>98.19</ele>
        <time>2016-05-01T10:47:59Z</time>
      </trkpt>
      <trkpt lat="44.00503" lon="4.40426">
        <ele>98.67</ele>
        <time>2016-05-01T10:48:00Z</time>
      </trkpt>
      <trkpt lat="44.00511" lon="4.40431">
        <ele>99.15</ele>
        <time>2016-05-01T10:48:01Z</time>
      </trkpt>
      <trkpt lat="44.00522" lon="4.40435">
        <ele>99.15</ele>
        <time>2016-05-01T10:48:02Z</time>
      </trkpt>
      <trkpt lat="44.00534" lon="4.40434">
        <ele>99.15</ele>
        <time>2016-05-01T10:48:03Z</time>
      </trkpt>
      <trkpt lat="44.00546" lon="4.40433">
        <ele>100.11</ele>
        <time>2016-05-01T10:48:04Z</time>
      </trkpt>
      <trkpt lat="44.00571" lon="4.40434">
        <ele>101.08</ele>
        <time>2016-05-01T10:48:06Z</time>
      </trkpt>
      <trkpt lat="44.00583" lon="4.40438">
        <ele>101.56</ele>
        <time>2016-05-01T10:48:07Z</time>
      </trkpt>
      <trkpt lat="44.00595" lon="4.40443">
        <ele>102.52</ele>
        <time>2016-05-01T10:48:08Z</time>
      </trkpt>
      <trkpt lat="44.00682" lon="4.40495">
        <ele>108.29</ele>
        <time>2016-05-01T10:48:15Z</time>
      </trkpt>
      <trkpt lat="44.00694" lon="4.40496">
        <ele>108.77</ele>
        <time>2016-05-01T10:48:16Z</time>
      </trkpt>
      <trkpt lat="44.00706" lon="4.40491">
        <ele>109.25</ele>
        <time>2016-05-01T10:48:17Z</time>
      </trkpt>
      <trkpt lat="44.00716" lon="4.40482">
        <ele>110.21</ele>
        <time>2016-05-01T10:48:18Z</time>
      </trkpt>
      <trkpt lat="44.00725" lon="4.40474">
        <ele>110.69</ele>
        <time>2016-05-01T10:48:19Z</time>
      </trkpt>
      <trkpt lat="44.00745" lon="4.40462">
        <ele>112.13</ele>
        <time>2016-05-01T10:48:21Z</time>
      </trkpt>
      <trkpt lat="44.00757" lon="4.40459">
        <ele>112.61</ele>
        <time>2016-05-01T10:48:22Z</time>
      </trkpt>
      <trkpt lat="44.00769" lon="4.4046">
        <ele>113.57</ele>
        <time>2016-05-01T10:48:23Z</time>
      </trkpt>
      <trkpt lat="44.00782" lon="4.40463">
        <ele>114.53</ele>
        <time>2016-05-01T10:48:24Z</time>
      </trkpt>
      <trkpt lat="44.00795" lon="4.40469">
        <ele>115.5</ele>
        <time>2016-05-01T10:48:25Z</time>
      </trkpt>
      <trkpt lat="44.00808" lon="4.40478">
        <ele>115.98</ele>
        <time>2016-05-01T10:48:26Z</time>
      </trkpt>
      <trkpt lat="44.00821" lon="4.40488">
        <ele>116.46</ele>
        <time>2016-05-01T10:48:27Z</time>
      </trkpt>
      <trkpt lat="44.00834" lon="4.405">
        <ele>117.42</ele>
        <time>2016-05-01T10:48:28Z</time>
      </trkpt>
      <trkpt lat="44.00869" lon="4.40528">
        <ele>119.34</ele>
        <time>2016-05-01T10:48:31Z</time>
      </trkpt>
      <trkpt lat="44.00881" lon="4.40534">
        <ele>119.82</ele>
        <time>2016-05-01T10:48:32Z</time>
      </trkpt>
      <trkpt lat="44.00894" lon="4.40537">
        <ele>120.78</ele>
        <time>2016-05-01T10:48:33Z</time>
      </trkpt>
      <trkpt lat="44.00907" lon="4.40538">
        <ele>121.26</ele>
        <time>2016-05-01T10:48:34Z</time>
      </trkpt>
      <trkpt lat="44.00921" lon="4.40538">
        <ele>122.22</ele>
        <time>2016-05-01T10:48:35Z</time>
      </trkpt>
      <trkpt lat="44.00935" lon="4.40541">
        <ele>122.71</ele>
        <time>2016-05-01T10:48:36Z</time>
      </trkpt>
      <trkpt lat="44.00949" lon="4.40544">
        <ele>123.67</ele>
        <time>2016-05-01T10:48:37Z</time>
      </trkpt>
      <trkpt lat="44.00985" lon="4.40557">
        <ele>125.59</ele>
        <time>2016-05-01T10:48:40Z</time>
      </trkpt>
      <trkpt lat="44.00994" lon="4.40564">
        <ele>126.07</ele>
        <time>2016-05-01T10:48:41Z</time>
      </trkpt>
      <trkpt lat="44.01001" lon="4.40572">
        <ele>126.55</ele>
        <time>2016-05-01T10:48:42Z</time>
      </trkpt>
      <trkpt lat="44.01007" lon="4.40586">
        <ele>127.51</ele>
        <time>2016-05-01T10:48:43Z</time>
      </trkpt>
      <trkpt lat="44.01011" lon="4.40601">
        <ele>128.47</ele>
        <time>2016-05-01T10:48:44Z</time>
      </trkpt>
      <trkpt lat="44.01014" lon="4.40616">
        <ele>128.95</ele>
        <time>2016-05-01T10:48:45Z</time>
      </trkpt>
      <trkpt lat="44.01016" lon="4.40632">
        <ele>129.43</ele>
        <time>2016-05-01T10:48:46Z</time>
      </trkpt>
      <trkpt lat="44.01035" lon="4.40748">
        <ele>130.88</ele>
        <time>2016-05-01T10:48:51Z</time>
      </trkpt>
      <trkpt lat="44.01065" lon="4.40971">
        <ele>128.47</ele>
        <time>2016-05-01T10:49:00Z</time>
      </trkpt>
      <trkpt lat="44.01102" lon="4.41185">
        <ele>127.03</ele>
        <time>2016-05-01T10:49:10Z</time>
      </trkpt>
      <trkpt lat="44.01124" lon="4.41328">
        <ele>124.15</ele>
        <time>2016-05-01T10:49:17Z</time>
      </trkpt>
      <trkpt lat="44.01152" lon="4.415">
        <ele>126.07</ele>
        <time>2016-05-01T10:49:27Z</time>
      </trkpt>
      <trkpt lat="44.01152" lon="4.41519">
        <ele>127.03</ele>
        <time>2016-05-01T10:49:29Z</time>
      </trkpt>
      <trkpt lat="44.01151" lon="4.41526">
        <ele>127.03</ele>
        <time>2016-05-01T10:49:30Z</time>
      </trkpt>
      <trkpt lat="44.01148" lon="4.41532">
        <ele>127.03</ele>
        <time>2016-05-01T10:49:31Z</time>
      </trkpt>
      <trkpt lat="44.01143" lon="4.41546">
        <ele>127.03</ele>
        <time>2016-05-01T10:49:33Z</time>
      </trkpt>
      <trkpt lat="44.01141" lon="4.41553">
        <ele>127.03</ele>
        <time>2016-05-01T10:49:34Z</time>
      </trkpt>
      <trkpt lat="44.01141" lon="4.4156">
        <ele>127.03</ele>
        <time>2016-05-01T10:49:35Z</time>
      </trkpt>
      <trkpt lat="44.0114" lon="4.41567">
        <ele>127.03</ele>
        <time>2016-05-01T10:49:36Z</time>
      </trkpt>
      <trkpt lat="44.01139" lon="4.41575">
        <ele>127.51</ele>
        <time>2016-05-01T10:49:37Z</time>
      </trkpt>
      <trkpt lat="44.01138" lon="4.41584">
        <ele>127.51</ele>
        <time>2016-05-01T10:49:38Z</time>
      </trkpt>
      <trkpt lat="44.0114" lon="4.4169">
        <ele>127.51</ele>
        <time>2016-05-01T10:49:48Z</time>
      </trkpt>
      <trkpt lat="44.01139" lon="4.41735">
        <ele>128.47</ele>
        <time>2016-05-01T10:49:53Z</time>
      </trkpt>
      <trkpt lat="44.0114" lon="4.41742">
        <ele>127.99</ele>
        <time>2016-05-01T10:49:54Z</time>
      </trkpt>
      <trkpt lat="44.01142" lon="4.41747">
        <ele>127.99</ele>
        <time>2016-05-01T10:49:55Z</time>
      </trkpt>
      <trkpt lat="44.01144" lon="4.41751">
        <ele>127.99</ele>
        <time>2016-05-01T10:49:56Z</time>
      </trkpt>
      <trkpt lat="44.01146" lon="4.41753">
        <ele>127.99</ele>
        <time>2016-05-01T10:49:57Z</time>
      </trkpt>
      <trkpt lat="44.01147" lon="4.41755">
        <ele>127.99</ele>
        <time>2016-05-01T10:49:58Z</time>
      </trkpt>
      <trkpt lat="44.01149" lon="4.41758">
        <ele>127.99</ele>
        <time>2016-05-01T10:50:00Z</time>
      </trkpt>
      <trkpt lat="44.01152" lon="4.41764">
        <ele>136.64</ele>
        <time>2016-05-01T10:50:17Z</time>
      </trkpt>
      <trkpt lat="44.01153" lon="4.41766">
        <ele>141.93</ele>
        <time>2016-05-01T10:50:31Z</time>
      </trkpt>
      <trkpt lat="44.01163" lon="4.41758">
        <ele>147.7</ele>
        <time>2016-05-01T12:40:23Z</time>
      </trkpt>
      <trkpt lat="44.01156" lon="4.41763">
        <ele>150.1</ele>
        <time>2016-05-01T12:40:43Z</time>
      </trkpt>
      <trkpt lat="44.0116" lon="4.41764">
        <ele>149.62</ele>
        <time>2016-05-01T12:41:17Z</time>
      </trkpt>
      <trkpt lat="44.01156" lon="4.41764">
        <ele>142.41</ele>
        <time>2016-05-01T12:42:04Z</time>
      </trkpt>
      <trkpt lat="44.01153" lon="4.41766">
        <ele>140.49</ele>
        <time>2016-05-01T12:42:31Z</time>
      </trkpt>
      <trkpt lat="44.01156" lon="4.41764">
        <ele>140.49</ele>
        <time>2016-05-01T12:42:58Z</time>
      </trkpt>
      <trkpt lat="44.0116" lon="4.41764">
        <ele>147.7</ele>
        <time>2016-05-01T12:43:32Z</time>
      </trkpt>
      <trkpt lat="44.01152" lon="4.41767">
        <ele>140.49</ele>
        <time>2016-05-01T12:43:59Z</time>
      </trkpt>
      <trkpt lat="44.01147" lon="4.41769">
        <ele>140.01</ele>
        <time>2016-05-01T12:44:23Z</time>
      </trkpt>
      <trkpt lat="44.01151" lon="4.41768">
        <ele>142.41</ele>
        <time>2016-05-01T12:44:48Z</time>
      </trkpt>
      <trkpt lat="44.0115" lon="4.41763">
        <ele>140.01</ele>
        <time>2016-05-01T12:45:04Z</time>
      </trkpt>
      <trkpt lat="44.01144" lon="4.41768">
        <ele>140.97</ele>
        <time>2016-05-01T12:45:34Z</time>
      </trkpt>
      <trkpt lat="44.01139" lon="4.41776">
        <ele>138.57</ele>
        <time>2016-05-01T12:45:39Z</time>
      </trkpt>
      <trkpt lat="44.01115" lon="4.41788">
        <ele>138.57</ele>
        <time>2016-05-01T12:45:50Z</time>
      </trkpt>
      <trkpt lat="44.01091" lon="4.4181">
        <ele>137.61</ele>
        <time>2016-05-01T12:45:59Z</time>
      </trkpt>
      <trkpt lat="44.01087" lon="4.41816">
        <ele>136.64</ele>
        <time>2016-05-01T12:46:00Z</time>
      </trkpt>
      <trkpt lat="44.01087" lon="4.41834">
        <ele>137.61</ele>
        <time>2016-05-01T12:46:01Z</time>
      </trkpt>
      <trkpt lat="44.01081" lon="4.41846">
        <ele>139.05</ele>
        <time>2016-05-01T12:46:02Z</time>
      </trkpt>
      <trkpt lat="44.01073" lon="4.41885">
        <ele>139.53</ele>
        <time>2016-05-01T12:46:05Z</time>
      </trkpt>
      <trkpt lat="44.01071" lon="4.41896">
        <ele>139.05</ele>
        <time>2016-05-01T12:46:06Z</time>
      </trkpt>
      <trkpt lat="44.01071" lon="4.41907">
        <ele>140.49</ele>
        <time>2016-05-01T12:46:07Z</time>
      </trkpt>
      <trkpt lat="44.01074" lon="4.41916">
        <ele>142.89</ele>
        <time>2016-05-01T12:46:08Z</time>
      </trkpt>
      <trkpt lat="44.01076" lon="4.41925">
        <ele>142.89</ele>
        <time>2016-05-01T12:46:09Z</time>
      </trkpt>
      <trkpt lat="44.0108" lon="4.41971">
        <ele>139.53</ele>
        <time>2016-05-01T12:46:14Z</time>
      </trkpt>
      <trkpt lat="44.01079" lon="4.41999">
        <ele>131.84</ele>
        <time>2016-05-01T12:46:18Z</time>
      </trkpt>
      <trkpt lat="44.01082" lon="4.42037">
        <ele>130.88</ele>
        <time>2016-05-01T12:46:21Z</time>
      </trkpt>
      <trkpt lat="44.01089" lon="4.42045">
        <ele>131.36</ele>
        <time>2016-05-01T12:46:22Z</time>
      </trkpt>
      <trkpt lat="44.01094" lon="4.42054">
        <ele>130.4</ele>
        <time>2016-05-01T12:46:23Z</time>
      </trkpt>
      <trkpt lat="44.01098" lon="4.42062">
        <ele>129.92</ele>
        <time>2016-05-01T12:46:24Z</time>
      </trkpt>
      <trkpt lat="44.01103" lon="4.42071">
        <ele>128.95</ele>
        <time>2016-05-01T12:46:25Z</time>
      </trkpt>
      <trkpt lat="44.01106" lon="4.42078">
        <ele>127.99</ele>
        <time>2016-05-01T12:46:26Z</time>
      </trkpt>
      <trkpt lat="44.0111" lon="4.42084">
        <ele>126.55</ele>
        <time>2016-05-01T12:46:27Z</time>
      </trkpt>
      <trkpt lat="44.01124" lon="4.42117">
        <ele>127.03</ele>
        <time>2016-05-01T12:46:31Z</time>
      </trkpt>
      <trkpt lat="44.01158" lon="4.42178">
        <ele>127.03</ele>
        <time>2016-05-01T12:46:40Z</time>
      </trkpt>
      <trkpt lat="44.01162" lon="4.42182">
        <ele>127.03</ele>
        <time>2016-05-01T12:46:41Z</time>
      </trkpt>
      <trkpt lat="44.01167" lon="4.42184">
        <ele>127.51</ele>
        <time>2016-05-01T12:46:42Z</time>
      </trkpt>
      <trkpt lat="44.01171" lon="4.42185">
        <ele>128.95</ele>
        <time>2016-05-01T12:46:43Z</time>
      </trkpt>
      <trkpt lat="44.01175" lon="4.42184">
        <ele>129.92</ele>
        <time>2016-05-01T12:46:44Z</time>
      </trkpt>
      <trkpt lat="44.0118" lon="4.42182">
        <ele>130.88</ele>
        <time>2016-05-01T12:46:45Z</time>
      </trkpt>
      <trkpt lat="44.01185" lon="4.42181">
        <ele>131.84</ele>
        <time>2016-05-01T12:46:46Z</time>
      </trkpt>
      <trkpt lat="44.01219" lon="4.42181">
        <ele>134.24</ele>
        <time>2016-05-01T12:46:52Z</time>
      </trkpt>
      <trkpt lat="44.01225" lon="4.42183">
        <ele>134.24</ele>
        <time>2016-05-01T12:46:53Z</time>
      </trkpt>
      <trkpt lat="44.01231" lon="4.42187">
        <ele>134.72</ele>
        <time>2016-05-01T12:46:54Z</time>
      </trkpt>
      <trkpt lat="44.01236" lon="4.42192">
        <ele>134.72</ele>
        <time>2016-05-01T12:46:55Z</time>
      </trkpt>
      <trkpt lat="44.0124" lon="4.42197">
        <ele>135.2</ele>
        <time>2016-05-01T12:46:56Z</time>
      </trkpt>
      <trkpt lat="44.01245" lon="4.42202">
        <ele>135.2</ele>
        <time>2016-05-01T12:46:57Z</time>
      </trkpt>
      <trkpt lat="44.0125" lon="4.42206">
        <ele>135.68</ele>
        <time>2016-05-01T12:46:58Z</time>
      </trkpt>
      <trkpt lat="44.01255" lon="4.42208">
        <ele>136.16</ele>
        <time>2016-05-01T12:46:59Z</time>
      </trkpt>
      <trkpt lat="44.01261" lon="4.42209">
        <ele>136.16</ele>
        <time>2016-05-01T12:47:00Z</time>
      </trkpt>
      <trkpt lat="44.01267" lon="4.42209">
        <ele>136.16</ele>
        <time>2016-05-01T12:47:01Z</time>
      </trkpt>
      <trkpt lat="44.01273" lon="4.4221">
        <ele>137.13</ele>
        <time>2016-05-01T12:47:02Z</time>
      </trkpt>
      <trkpt lat="44.01298" lon="4.4221">
        <ele>138.09</ele>
        <time>2016-05-01T12:47:06Z</time>
      </trkpt>
      <trkpt lat="44.01305" lon="4.42211">
        <ele>137.61</ele>
        <time>2016-05-01T12:47:07Z</time>
      </trkpt>
      <trkpt lat="44.01311" lon="4.42214">
        <ele>138.09</ele>
        <time>2016-05-01T12:47:08Z</time>
      </trkpt>
      <trkpt lat="44.01356" lon="4.42234">
        <ele>137.13</ele>
        <time>2016-05-01T12:47:16Z</time>
      </trkpt>
      <trkpt lat="44.01359" lon="4.42231">
        <ele>137.13</ele>
        <time>2016-05-01T12:47:17Z</time>
      </trkpt>
      <trkpt lat="44.01362" lon="4.42225">
        <ele>137.13</ele>
        <time>2016-05-01T12:47:18Z</time>
      </trkpt>
      <trkpt lat="44.01364" lon="4.42218">
        <ele>138.09</ele>
        <time>2016-05-01T12:47:19Z</time>
      </trkpt>
      <trkpt lat="44.01365" lon="4.42208">
        <ele>137.61</ele>
        <time>2016-05-01T12:47:20Z</time>
      </trkpt>
      <trkpt lat="44.01366" lon="4.42198">
        <ele>137.13</ele>
        <time>2016-05-01T12:47:21Z</time>
      </trkpt>
      <trkpt lat="44.01381" lon="4.42083">
        <ele>137.61</ele>
        <time>2016-05-01T12:47:34Z</time>
      </trkpt>
      <trkpt lat="44.01378" lon="4.42041">
        <ele>136.64</ele>
        <time>2016-05-01T12:47:39Z</time>
      </trkpt>
      <trkpt lat="44.01376" lon="4.42026">
        <ele>139.05</ele>
        <time>2016-05-01T12:47:41Z</time>
      </trkpt>
      <trkpt lat="44.01364" lon="4.41986">
        <ele>144.34</ele>
        <time>2016-05-01T12:47:50Z</time>
      </trkpt>
      <trkpt lat="44.01359" lon="4.41967">
        <ele>146.26</ele>
        <time>2016-05-01T12:47:53Z</time>
      </trkpt>
      <trkpt lat="44.01357" lon="4.41962">
        <ele>146.26</ele>
        <time>2016-05-01T12:47:54Z</time>
      </trkpt>
      <trkpt lat="44.01329" lon="4.41882">
        <ele>153.47</ele>
        <time>2016-05-01T12:48:06Z</time>
      </trkpt>
      <trkpt lat="44.01304" lon="4.41828">
        <ele>153.95</ele>
        <time>2016-05-01T12:48:16Z</time>
      </trkpt>
      <trkpt lat="44.01301" lon="4.41822">
        <ele>153.47</ele>
        <time>2016-05-01T12:48:17Z</time>
      </trkpt>
      <trkpt lat="44.01295" lon="4.41818">
        <ele>152.51</ele>
        <time>2016-05-01T12:48:18Z</time>
      </trkpt>
      <trkpt lat="44.01289" lon="4.41814">
        <ele>150.1</ele>
        <time>2016-05-01T12:48:19Z</time>
      </trkpt>
      <trkpt lat="44.01282" lon="4.41811">
        <ele>148.66</ele>
        <time>2016-05-01T12:48:20Z</time>
      </trkpt>
      <trkpt lat="44.0127" lon="4.41808">
        <ele>145.78</ele>
        <time>2016-05-01T12:48:22Z</time>
      </trkpt>
      <trkpt lat="44.01218" lon="4.41792">
        <ele>139.05</ele>
        <time>2016-05-01T12:48:32Z</time>
      </trkpt>
      <trkpt lat="44.01212" lon="4.4179">
        <ele>138.09</ele>
        <time>2016-05-01T12:48:33Z</time>
      </trkpt>
      <trkpt lat="44.01176" lon="4.41778">
        <ele>134.72</ele>
        <time>2016-05-01T12:48:40Z</time>
      </trkpt>
      <trkpt lat="44.01171" lon="4.41775">
        <ele>133.76</ele>
        <time>2016-05-01T12:48:41Z</time>
      </trkpt>
      <trkpt lat="44.01167" lon="4.41769">
        <ele>132.8</ele>
        <time>2016-05-01T12:48:42Z</time>
      </trkpt>
      <trkpt lat="44.01165" lon="4.41762">
        <ele>132.8</ele>
        <time>2016-05-01T12:48:43Z</time>
      </trkpt>
      <trkpt lat="44.01164" lon="4.41753">
        <ele>132.32</ele>
        <time>2016-05-01T12:48:44Z</time>
      </trkpt>
      <trkpt lat="44.01164" lon="4.41745">
        <ele>132.32</ele>
        <time>2016-05-01T12:48:45Z</time>
      </trkpt>
      <trkpt lat="44.01163" lon="4.41737">
        <ele>132.8</ele>
        <time>2016-05-01T12:48:46Z</time>
      </trkpt>
      <trkpt lat="44.01164" lon="4.41727">
        <ele>132.8</ele>
        <time>2016-05-01T12:48:47Z</time>
      </trkpt>
      <trkpt lat="44.01166" lon="4.41716">
        <ele>132.8</ele>
        <time>2016-05-01T12:48:48Z</time>
      </trkpt>
      <trkpt lat="44.01167" lon="4.41616">
        <ele>131.84</ele>
        <time>2016-05-01T12:48:57Z</time>
      </trkpt>
      <trkpt lat="44.01167" lon="4.41596">
        <ele>133.28</ele>
        <time>2016-05-01T12:48:59Z</time>
      </trkpt>
      <trkpt lat="44.01166" lon="4.41586">
        <ele>133.28</ele>
        <time>2016-05-01T12:49:00Z</time>
      </trkpt>
      <trkpt lat="44.01165" lon="4.41577">
        <ele>132.8</ele>
        <time>2016-05-01T12:49:01Z</time>
      </trkpt>
      <trkpt lat="44.01157" lon="4.4154">
        <ele>132.32</ele>
        <time>2016-05-01T12:49:08Z</time>
      </trkpt>
      <trkpt lat="44.01154" lon="4.41532">
        <ele>132.32</ele>
        <time>2016-05-01T12:49:09Z</time>
      </trkpt>
      <trkpt lat="44.01151" lon="4.41524">
        <ele>131.36</ele>
        <time>2016-05-01T12:49:10Z</time>
      </trkpt>
      <trkpt lat="44.0115" lon="4.41515">
        <ele>130.88</ele>
        <time>2016-05-01T12:49:11Z</time>
      </trkpt>
      <trkpt lat="44.01149" lon="4.41505">
        <ele>130.88</ele>
        <time>2016-05-01T12:49:12Z</time>
      </trkpt>
      <trkpt lat="44.01148" lon="4.41493">
        <ele>131.84</ele>
        <time>2016-05-01T12:49:13Z</time>
      </trkpt>
      <trkpt lat="44.01133" lon="4.41365">
        <ele>131.36</ele>
        <time>2016-05-01T12:49:24Z</time>
      </trkpt>
      <trkpt lat="44.01106" lon="4.41211">
        <ele>133.76</ele>
        <time>2016-05-01T12:49:38Z</time>
      </trkpt>
      <trkpt lat="44.01083" lon="4.41059">
        <ele>132.8</ele>
        <time>2016-05-01T12:49:49Z</time>
      </trkpt>
      <trkpt lat="44.01053" lon="4.40903">
        <ele>130.88</ele>
        <time>2016-05-01T12:49:59Z</time>
      </trkpt>
      <trkpt lat="44.01017" lon="4.40673">
        <ele>129.92</ele>
        <time>2016-05-01T12:50:13Z</time>
      </trkpt>
      <trkpt lat="44.01002" lon="4.40583">
        <ele>128.95</ele>
        <time>2016-05-01T12:50:19Z</time>
      </trkpt>
      <trkpt lat="44.00997" lon="4.40571">
        <ele>128.47</ele>
        <time>2016-05-01T12:50:20Z</time>
      </trkpt>
      <trkpt lat="44.0099" lon="4.4056">
        <ele>127.99</ele>
        <time>2016-05-01T12:50:21Z</time>
      </trkpt>
      <trkpt lat="44.00981" lon="4.40552">
        <ele>127.03</ele>
        <time>2016-05-01T12:50:22Z</time>
      </trkpt>
      <trkpt lat="44.0097" lon="4.40546">
        <ele>126.07</ele>
        <time>2016-05-01T12:50:23Z</time>
      </trkpt>
      <trkpt lat="44.00957" lon="4.40543">
        <ele>125.11</ele>
        <time>2016-05-01T12:50:24Z</time>
      </trkpt>
      <trkpt lat="44.00945" lon="4.40539">
        <ele>123.67</ele>
        <time>2016-05-01T12:50:25Z</time>
      </trkpt>
      <trkpt lat="44.00871" lon="4.4053">
        <ele>119.82</ele>
        <time>2016-05-01T12:50:31Z</time>
      </trkpt>
      <trkpt lat="44.00859" lon="4.40526">
        <ele>118.86</ele>
        <time>2016-05-01T12:50:32Z</time>
      </trkpt>
      <trkpt lat="44.00847" lon="4.40518">
        <ele>118.38</ele>
        <time>2016-05-01T12:50:33Z</time>
      </trkpt>
      <trkpt lat="44.00836" lon="4.40509">
        <ele>117.9</ele>
        <time>2016-05-01T12:50:34Z</time>
      </trkpt>
      <trkpt lat="44.00825" lon="4.405">
        <ele>117.42</ele>
        <time>2016-05-01T12:50:35Z</time>
      </trkpt>
      <trkpt lat="44.0076" lon="4.40461">
        <ele>114.05</ele>
        <time>2016-05-01T12:50:41Z</time>
      </trkpt>
      <trkpt lat="44.0075" lon="4.4046">
        <ele>113.57</ele>
        <time>2016-05-01T12:50:42Z</time>
      </trkpt>
      <trkpt lat="44.00739" lon="4.40461">
        <ele>112.61</ele>
        <time>2016-05-01T12:50:43Z</time>
      </trkpt>
      <trkpt lat="44.00729" lon="4.40465">
        <ele>112.61</ele>
        <time>2016-05-01T12:50:44Z</time>
      </trkpt>
      <trkpt lat="44.00719" lon="4.40472">
        <ele>111.65</ele>
        <time>2016-05-01T12:50:45Z</time>
      </trkpt>
      <trkpt lat="44.00709" lon="4.40479">
        <ele>111.17</ele>
        <time>2016-05-01T12:50:46Z</time>
      </trkpt>
      <trkpt lat="44.00686" lon="4.40492">
        <ele>109.25</ele>
        <time>2016-05-01T12:50:48Z</time>
      </trkpt>
      <trkpt lat="44.00672" lon="4.40493">
        <ele>108.77</ele>
        <time>2016-05-01T12:50:49Z</time>
      </trkpt>
      <trkpt lat="44.0066" lon="4.40486">
        <ele>107.81</ele>
        <time>2016-05-01T12:50:50Z</time>
      </trkpt>
      <trkpt lat="44.00649" lon="4.40478">
        <ele>107.32</ele>
        <time>2016-05-01T12:50:51Z</time>
      </trkpt>
      <trkpt lat="44.00637" lon="4.40469">
        <ele>106.36</ele>
        <time>2016-05-01T12:50:52Z</time>
      </trkpt>
      <trkpt lat="44.00549" lon="4.40431">
        <ele>101.56</ele>
        <time>2016-05-01T12:50:59Z</time>
      </trkpt>
      <trkpt lat="44.00537" lon="4.40431">
        <ele>101.08</ele>
        <time>2016-05-01T12:51:00Z</time>
      </trkpt>
      <trkpt lat="44.00513" lon="4.40433">
        <ele>100.11</ele>
        <time>2016-05-01T12:51:02Z</time>
      </trkpt>
      <trkpt lat="44.00503" lon="4.40431">
        <ele>99.15</ele>
        <time>2016-05-01T12:51:03Z</time>
      </trkpt>
      <trkpt lat="44.00494" lon="4.40422">
        <ele>98.19</ele>
        <time>2016-05-01T12:51:04Z</time>
      </trkpt>
      <trkpt lat="44.00488" lon="4.40412">
        <ele>97.71</ele>
        <time>2016-05-01T12:51:05Z</time>
      </trkpt>
      <trkpt lat="44.00484" lon="4.404">
        <ele>97.71</ele>
        <time>2016-05-01T12:51:06Z</time>
      </trkpt>
      <trkpt lat="44.00479" lon="4.40391">
        <ele>97.71</ele>
        <time>2016-05-01T12:51:07Z</time>
      </trkpt>
      <trkpt lat="44.00471" lon="4.40385">
        <ele>97.23</ele>
        <time>2016-05-01T12:51:08Z</time>
      </trkpt>
      <trkpt lat="44.00462" lon="4.40383">
        <ele>97.23</ele>
        <time>2016-05-01T12:51:09Z</time>
      </trkpt>
      <trkpt lat="44.00453" lon="4.40383">
        <ele>96.75</ele>
        <time>2016-05-01T12:51:10Z</time>
      </trkpt>
      <trkpt lat="44.00443" lon="4.40383">
        <ele>96.27</ele>
        <time>2016-05-01T12:51:11Z</time>
      </trkpt>
      <trkpt lat="44.00414" lon="4.40381">
        <ele>94.83</ele>
        <time>2016-05-01T12:51:14Z</time>
      </trkpt>
      <trkpt lat="44.00405" lon="4.40377">
        <ele>93.87</ele>
        <time>2016-05-01T12:51:15Z</time>
      </trkpt>
      <trkpt lat="44.00398" lon="4.40369">
        <ele>93.39</ele>
        <time>2016-05-01T12:51:16Z</time>
      </trkpt>
      <trkpt lat="44.00391" lon="4.40358">
        <ele>92.42</ele>
        <time>2016-05-01T12:51:17Z</time>
      </trkpt>
      <trkpt lat="44.00386" lon="4.40345">
        <ele>91.94</ele>
        <time>2016-05-01T12:51:18Z</time>
      </trkpt>
      <trkpt lat="44.00384" lon="4.40329">
        <ele>90.98</ele>
        <time>2016-05-01T12:51:19Z</time>
      </trkpt>
      <trkpt lat="44.00383" lon="4.40313">
        <ele>90.5</ele>
        <time>2016-05-01T12:51:20Z</time>
      </trkpt>
      <trkpt lat="44.00381" lon="4.40297">
        <ele>89.54</ele>
        <time>2016-05-01T12:51:21Z</time>
      </trkpt>
      <trkpt lat="44.00376" lon="4.40178">
        <ele>85.21</ele>
        <time>2016-05-01T12:51:30Z</time>
      </trkpt>
      <trkpt lat="44.00378" lon="4.40168">
        <ele>85.21</ele>
        <time>2016-05-01T12:51:31Z</time>
      </trkpt>
      <trkpt lat="44.00381" lon="4.40159">
        <ele>85.21</ele>
        <time>2016-05-01T12:51:32Z</time>
      </trkpt>
      <trkpt lat="44.00385" lon="4.40149">
        <ele>84.73</ele>
        <time>2016-05-01T12:51:33Z</time>
      </trkpt>
      <trkpt lat="44.00385" lon="4.40138">
        <ele>84.73</ele>
        <time>2016-05-01T12:51:34Z</time>
      </trkpt>
      <trkpt lat="44.00383" lon="4.40127">
        <ele>84.25</ele>
        <time>2016-05-01T12:51:35Z</time>
      </trkpt>
      <trkpt lat="44.00376" lon="4.4012">
        <ele>83.77</ele>
        <time>2016-05-01T12:51:36Z</time>
      </trkpt>
      <trkpt lat="44.0037" lon="4.40117">
        <ele>83.77</ele>
        <time>2016-05-01T12:51:37Z</time>
      </trkpt>
      <trkpt lat="44.00362" lon="4.4012">
        <ele>83.29</ele>
        <time>2016-05-01T12:51:38Z</time>
      </trkpt>
      <trkpt lat="44.00356" lon="4.40127">
        <ele>83.29</ele>
        <time>2016-05-01T12:51:39Z</time>
      </trkpt>
      <trkpt lat="44.00349" lon="4.40133">
        <ele>83.29</ele>
        <time>2016-05-01T12:51:40Z</time>
      </trkpt>
      <trkpt lat="44.00339" lon="4.40138">
        <ele>83.77</ele>
        <time>2016-05-01T12:51:41Z</time>
      </trkpt>
      <trkpt lat="44.00328" lon="4.40141">
        <ele>83.77</ele>
        <time>2016-05-01T12:51:42Z</time>
      </trkpt>
      <trkpt lat="44.00314" lon="4.40141">
        <ele>83.29</ele>
        <time>2016-05-01T12:51:43Z</time>
      </trkpt>
      <trkpt lat="44.00299" lon="4.4014">
        <ele>82.81</ele>
        <time>2016-05-01T12:51:44Z</time>
      </trkpt>
      <trkpt lat="44.00282" lon="4.40136">
        <ele>82.33</ele>
        <time>2016-05-01T12:51:45Z</time>
      </trkpt>
      <trkpt lat="44.00264" lon="4.40129">
        <ele>81.85</ele>
        <time>2016-05-01T12:51:46Z</time>
      </trkpt>
      <trkpt lat="44.00245" lon="4.4012">
        <ele>81.37</ele>
        <time>2016-05-01T12:51:47Z</time>
      </trkpt>
      <trkpt lat="44.00227" lon="4.4011">
        <ele>80.89</ele>
        <time>2016-05-01T12:51:48Z</time>
      </trkpt>
      <trkpt lat="44.00083" lon="4.39999">
        <ele>77.52</ele>
        <time>2016-05-01T12:51:57Z</time>
      </trkpt>
      <trkpt lat="44.00003" lon="4.39916">
        <ele>77.04</ele>
        <time>2016-05-01T12:52:03Z</time>
      </trkpt>
      <trkpt lat="43.99991" lon="4.39897">
        <ele>77.04</ele>
        <time>2016-05-01T12:52:04Z</time>
      </trkpt>
      <trkpt lat="43.99981" lon="4.39876">
        <ele>77.04</ele>
        <time>2016-05-01T12:52:05Z</time>
      </trkpt>
      <trkpt lat="43.99971" lon="4.39854">
        <ele>77.04</ele>
        <time>2016-05-01T12:52:06Z</time>
      </trkpt>
      <trkpt lat="43.99963" lon="4.39831">
        <ele>77.04</ele>
        <time>2016-05-01T12:52:07Z</time>
      </trkpt>
      <trkpt lat="43.99956" lon="4.39808">
        <ele>76.56</ele>
        <time>2016-05-01T12:52:08Z</time>
      </trkpt>
      <trkpt lat="43.99877" lon="4.39612">
        <ele>74.16</ele>
        <time>2016-05-01T12:52:16Z</time>
      </trkpt>
      <trkpt lat="43.99716" lon="4.39369">
        <ele>74.64</ele>
        <time>2016-05-01T12:52:27Z</time>
      </trkpt>
      <trkpt lat="43.99698" lon="4.39353">
        <ele>74.64</ele>
        <time>2016-05-01T12:52:28Z</time>
      </trkpt>
      <trkpt lat="43.99679" lon="4.39339">
        <ele>75.12</ele>
        <time>2016-05-01T12:52:29Z</time>
      </trkpt>
      <trkpt lat="43.99658" lon="4.39327">
        <ele>75.12</ele>
        <time>2016-05-01T12:52:30Z</time>
      </trkpt>
      <trkpt lat="43.99637" lon="4.39317">
        <ele>75.12</ele>
        <time>2016-05-01T12:52:31Z</time>
      </trkpt>
      <trkpt lat="43.99614" lon="4.3931">
        <ele>75.12</ele>
        <time>2016-05-01T12:52:32Z</time>
      </trkpt>
      <trkpt lat="43.99592" lon="4.39305">
        <ele>75.12</ele>
        <time>2016-05-01T12:52:33Z</time>
      </trkpt>
      <trkpt lat="43.99434" lon="4.39256">
        <ele>76.08</ele>
        <time>2016-05-01T12:52:40Z</time>
      </trkpt>
      <trkpt lat="43.99412" lon="4.39241">
        <ele>76.08</ele>
        <time>2016-05-01T12:52:41Z</time>
      </trkpt>
      <trkpt lat="43.99393" lon="4.39224">
        <ele>76.56</ele>
        <time>2016-05-01T12:52:42Z</time>
      </trkpt>
      <trkpt lat="43.99374" lon="4.39203">
        <ele>76.56</ele>
        <time>2016-05-01T12:52:43Z</time>
      </trkpt>
      <trkpt lat="43.99357" lon="4.3918">
        <ele>77.04</ele>
        <time>2016-05-01T12:52:44Z</time>
      </trkpt>
      <trkpt lat="43.99342" lon="4.39154">
        <ele>77.04</ele>
        <time>2016-05-01T12:52:45Z</time>
      </trkpt>
      <trkpt lat="43.99328" lon="4.39128">
        <ele>77.04</ele>
        <time>2016-05-01T12:52:46Z</time>
      </trkpt>
      <trkpt lat="43.99315" lon="4.39101">
        <ele>77.52</ele>
        <time>2016-05-01T12:52:47Z</time>
      </trkpt>
      <trkpt lat="43.99104" lon="4.3866">
        <ele>87.14</ele>
        <time>2016-05-01T12:53:03Z</time>
      </trkpt>
      <trkpt lat="43.99029" lon="4.3854">
        <ele>90.02</ele>
        <time>2016-05-01T12:53:08Z</time>
      </trkpt>
      <trkpt lat="43.99009" lon="4.38521">
        <ele>90.98</ele>
        <time>2016-05-01T12:53:09Z</time>
      </trkpt>
      <trkpt lat="43.98987" lon="4.38504">
        <ele>91.94</ele>
        <time>2016-05-01T12:53:10Z</time>
      </trkpt>
      <trkpt lat="43.98851" lon="4.38409">
        <ele>96.27</ele>
        <time>2016-05-01T12:53:17Z</time>
      </trkpt>
      <trkpt lat="43.98836" lon="4.38392">
        <ele>96.27</ele>
        <time>2016-05-01T12:53:18Z</time>
      </trkpt>
      <trkpt lat="43.98823" lon="4.38369">
        <ele>96.75</ele>
        <time>2016-05-01T12:53:19Z</time>
      </trkpt>
      <trkpt lat="43.98813" lon="4.38345">
        <ele>97.23</ele>
        <time>2016-05-01T12:53:20Z</time>
      </trkpt>
      <trkpt lat="43.98805" lon="4.38319">
        <ele>97.71</ele>
        <time>2016-05-01T12:53:21Z</time>
      </trkpt>
      <trkpt lat="43.98798" lon="4.38295">
        <ele>98.67</ele>
        <time>2016-05-01T12:53:22Z</time>
      </trkpt>
      <trkpt lat="43.98786" lon="4.38243">
        <ele>100.11</ele>
        <time>2016-05-01T12:53:24Z</time>
      </trkpt>
      <trkpt lat="43.98783" lon="4.38215">
        <ele>101.08</ele>
        <time>2016-05-01T12:53:25Z</time>
      </trkpt>
      <trkpt lat="43.98784" lon="4.38187">
        <ele>101.56</ele>
        <time>2016-05-01T12:53:26Z</time>
      </trkpt>
      <trkpt lat="43.98788" lon="4.38159">
        <ele>102.04</ele>
        <time>2016-05-01T12:53:27Z</time>
      </trkpt>
      <trkpt lat="43.98792" lon="4.38132">
        <ele>102.52</ele>
        <time>2016-05-01T12:53:28Z</time>
      </trkpt>
      <trkpt lat="43.98794" lon="4.38078">
        <ele>103.96</ele>
        <time>2016-05-01T12:53:30Z</time>
      </trkpt>
      <trkpt lat="43.98792" lon="4.38052">
        <ele>104.44</ele>
        <time>2016-05-01T12:53:31Z</time>
      </trkpt>
      <trkpt lat="43.98786" lon="4.38026">
        <ele>105.4</ele>
        <time>2016-05-01T12:53:32Z</time>
      </trkpt>
      <trkpt lat="43.98778" lon="4.38001">
        <ele>106.36</ele>
        <time>2016-05-01T12:53:33Z</time>
      </trkpt>
      <trkpt lat="43.98768" lon="4.37976">
        <ele>106.84</ele>
        <time>2016-05-01T12:53:34Z</time>
      </trkpt>
      <trkpt lat="43.98655" lon="4.37745">
        <ele>112.13</ele>
        <time>2016-05-01T12:53:43Z</time>
      </trkpt>
      <trkpt lat="43.98429" lon="4.37419">
        <ele>119.82</ele>
        <time>2016-05-01T12:53:56Z</time>
      </trkpt>
      <trkpt lat="43.98335" lon="4.37255">
        <ele>124.15</ele>
        <time>2016-05-01T12:54:03Z</time>
      </trkpt>
      <trkpt lat="43.98304" lon="4.37151">
        <ele>126.55</ele>
        <time>2016-05-01T12:54:09Z</time>
      </trkpt>
      <trkpt lat="43.98299" lon="4.37125">
        <ele>127.51</ele>
        <time>2016-05-01T12:54:11Z</time>
      </trkpt>
      <trkpt lat="43.98299" lon="4.37112">
        <ele>127.99</ele>
        <time>2016-05-01T12:54:12Z</time>
      </trkpt>
      <trkpt lat="43.983" lon="4.37099">
        <ele>127.99</ele>
        <time>2016-05-01T12:54:13Z</time>
      </trkpt>
      <trkpt lat="43.983" lon="4.37086">
        <ele>128.47</ele>
        <time>2016-05-01T12:54:14Z</time>
      </trkpt>
      <trkpt lat="43.98299" lon="4.37075">
        <ele>128.95</ele>
        <time>2016-05-01T12:54:15Z</time>
      </trkpt>
      <trkpt lat="43.98293" lon="4.37065">
        <ele>129.43</ele>
        <time>2016-05-01T12:54:16Z</time>
      </trkpt>
      <trkpt lat="43.98285" lon="4.37054">
        <ele>129.43</ele>
        <time>2016-05-01T12:54:17Z</time>
      </trkpt>
      <trkpt lat="43.98277" lon="4.37039">
        <ele>129.92</ele>
        <time>2016-05-01T12:54:18Z</time>
      </trkpt>
      <trkpt lat="43.9827" lon="4.37021">
        <ele>129.92</ele>
        <time>2016-05-01T12:54:19Z</time>
      </trkpt>
      <trkpt lat="43.98263" lon="4.37001">
        <ele>129.92</ele>
        <time>2016-05-01T12:54:20Z</time>
      </trkpt>
      <trkpt lat="43.9819" lon="4.36813">
        <ele>126.55</ele>
        <time>2016-05-01T12:54:28Z</time>
      </trkpt>
      <trkpt lat="43.98056" lon="4.36556">
        <ele>115.98</ele>
        <time>2016-05-01T12:54:37Z</time>
      </trkpt>
      <trkpt lat="43.97851" lon="4.36172">
        <ele>102.04</ele>
        <time>2016-05-01T12:54:49Z</time>
      </trkpt>
      <trkpt lat="43.97622" lon="4.35722">
        <ele>89.06</ele>
        <time>2016-05-01T12:55:04Z</time>
      </trkpt>
      <trkpt lat="43.97484" lon="4.35376">
        <ele>82.81</ele>
        <time>2016-05-01T12:55:15Z</time>
      </trkpt>
      <trkpt lat="43.9735" lon="4.35086">
        <ele>80.89</ele>
        <time>2016-05-01T12:55:24Z</time>
      </trkpt>
      <trkpt lat="43.97283" lon="4.34829">
        <ele>78.97</ele>
        <time>2016-05-01T12:55:31Z</time>
      </trkpt>
      <trkpt lat="43.97095" lon="4.34213">
        <ele>77.52</ele>
        <time>2016-05-01T12:55:48Z</time>
      </trkpt>
      <trkpt lat="43.96967" lon="4.3377">
        <ele>79.93</ele>
        <time>2016-05-01T12:56:01Z</time>
      </trkpt>
      <trkpt lat="43.96931" lon="4.33558">
        <ele>81.85</ele>
        <time>2016-05-01T12:56:09Z</time>
      </trkpt>
      <trkpt lat="43.96921" lon="4.33422">
        <ele>81.37</ele>
        <time>2016-05-01T12:56:17Z</time>
      </trkpt>
      <trkpt lat="43.96919" lon="4.33393">
        <ele>81.85</ele>
        <time>2016-05-01T12:56:24Z</time>
      </trkpt>
      <trkpt lat="43.96914" lon="4.33393">
        <ele>81.37</ele>
        <time>2016-05-01T12:56:27Z</time>
      </trkpt>
      <trkpt lat="43.96907" lon="4.33397">
        <ele>81.37</ele>
        <time>2016-05-01T12:56:28Z</time>
      </trkpt>
      <trkpt lat="43.96897" lon="4.33401">
        <ele>80.89</ele>
        <time>2016-05-01T12:56:29Z</time>
      </trkpt>
      <trkpt lat="43.96792" lon="4.33413">
        <ele>79.93</ele>
        <time>2016-05-01T12:56:36Z</time>
      </trkpt>
      <trkpt lat="43.96625" lon="4.33436">
        <ele>80.41</ele>
        <time>2016-05-01T12:56:44Z</time>
      </trkpt>
      <trkpt lat="43.96394" lon="4.33405">
        <ele>78</ele>
        <time>2016-05-01T12:56:55Z</time>
      </trkpt>
      <trkpt lat="43.96259" lon="4.33416">
        <ele>76.56</ele>
        <time>2016-05-01T12:57:01Z</time>
      </trkpt>
      <trkpt lat="43.96064" lon="4.33415">
        <ele>74.16</ele>
        <time>2016-05-01T12:57:09Z</time>
      </trkpt>
      <trkpt lat="43.95897" lon="4.33389">
        <ele>72.72</ele>
        <time>2016-05-01T12:57:16Z</time>
      </trkpt>
      <trkpt lat="43.95877" lon="4.33377">
        <ele>72.72</ele>
        <time>2016-05-01T12:57:17Z</time>
      </trkpt>
      <trkpt lat="43.9586" lon="4.33361">
        <ele>72.72</ele>
        <time>2016-05-01T12:57:18Z</time>
      </trkpt>
      <trkpt lat="43.95846" lon="4.33339">
        <ele>72.24</ele>
        <time>2016-05-01T12:57:19Z</time>
      </trkpt>
      <trkpt lat="43.95836" lon="4.33315">
        <ele>72.24</ele>
        <time>2016-05-01T12:57:20Z</time>
      </trkpt>
      <trkpt lat="43.95828" lon="4.33289">
        <ele>72.24</ele>
        <time>2016-05-01T12:57:21Z</time>
      </trkpt>
      <trkpt lat="43.95821" lon="4.33263">
        <ele>72.24</ele>
        <time>2016-05-01T12:57:22Z</time>
      </trkpt>
      <trkpt lat="43.95815" lon="4.33237">
        <ele>72.24</ele>
        <time>2016-05-01T12:57:23Z</time>
      </trkpt>
      <trkpt lat="43.95784" lon="4.33158">
        <ele>72.24</ele>
        <time>2016-05-01T12:57:26Z</time>
      </trkpt>
      <trkpt lat="43.9577" lon="4.33133">
        <ele>72.24</ele>
        <time>2016-05-01T12:57:27Z</time>
      </trkpt>
      <trkpt lat="43.9565" lon="4.32978">
        <ele>71.27</ele>
        <time>2016-05-01T12:57:34Z</time>
      </trkpt>
      <trkpt lat="43.95546" lon="4.32822">
        <ele>70.79</ele>
        <time>2016-05-01T12:57:40Z</time>
      </trkpt>
      <trkpt lat="43.95513" lon="4.32765">
        <ele>70.79</ele>
        <time>2016-05-01T12:57:42Z</time>
      </trkpt>
      <trkpt lat="43.95494" lon="4.32739">
        <ele>70.79</ele>
        <time>2016-05-01T12:57:43Z</time>
      </trkpt>
      <trkpt lat="43.95317" lon="4.32552">
        <ele>70.79</ele>
        <time>2016-05-01T12:57:51Z</time>
      </trkpt>
      <trkpt lat="43.95055" lon="4.32302">
        <ele>68.87</ele>
        <time>2016-05-01T12:58:03Z</time>
      </trkpt>
      <trkpt lat="43.95038" lon="4.32276">
        <ele>68.39</ele>
        <time>2016-05-01T12:58:04Z</time>
      </trkpt>
      <trkpt lat="43.95024" lon="4.32247">
        <ele>68.39</ele>
        <time>2016-05-01T12:58:05Z</time>
      </trkpt>
      <trkpt lat="43.95008" lon="4.32219">
        <ele>68.39</ele>
        <time>2016-05-01T12:58:06Z</time>
      </trkpt>
      <trkpt lat="43.94991" lon="4.32192">
        <ele>68.39</ele>
        <time>2016-05-01T12:58:07Z</time>
      </trkpt>
      <trkpt lat="43.94972" lon="4.32167">
        <ele>68.39</ele>
        <time>2016-05-01T12:58:08Z</time>
      </trkpt>
      <trkpt lat="43.94877" lon="4.32022">
        <ele>67.91</ele>
        <time>2016-05-01T12:58:14Z</time>
      </trkpt>
      <trkpt lat="43.94863" lon="4.31999">
        <ele>68.39</ele>
        <time>2016-05-01T12:58:15Z</time>
      </trkpt>
      <trkpt lat="43.94847" lon="4.3198">
        <ele>68.39</ele>
        <time>2016-05-01T12:58:16Z</time>
      </trkpt>
      <trkpt lat="43.94829" lon="4.31964">
        <ele>67.91</ele>
        <time>2016-05-01T12:58:17Z</time>
      </trkpt>
      <trkpt lat="43.94776" lon="4.31913">
        <ele>66.95</ele>
        <time>2016-05-01T12:58:20Z</time>
      </trkpt>
      <trkpt lat="43.94764" lon="4.31888">
        <ele>66.47</ele>
        <time>2016-05-01T12:58:21Z</time>
      </trkpt>
      <trkpt lat="43.94752" lon="4.31862">
        <ele>66.47</ele>
        <time>2016-05-01T12:58:22Z</time>
      </trkpt>
      <trkpt lat="43.94647" lon="4.3169">
        <ele>66.47</ele>
        <time>2016-05-01T12:58:29Z</time>
      </trkpt>
      <trkpt lat="43.94502" lon="4.31571">
        <ele>65.51</ele>
        <time>2016-05-01T12:58:36Z</time>
      </trkpt>
      <trkpt lat="43.94479" lon="4.31561">
        <ele>65.51</ele>
        <time>2016-05-01T12:58:37Z</time>
      </trkpt>
      <trkpt lat="43.94431" lon="4.31542">
        <ele>65.51</ele>
        <time>2016-05-01T12:58:39Z</time>
      </trkpt>
      <trkpt lat="43.94409" lon="4.31528">
        <ele>65.51</ele>
        <time>2016-05-01T12:58:40Z</time>
      </trkpt>
      <trkpt lat="43.94321" lon="4.31467">
        <ele>65.03</ele>
        <time>2016-05-01T12:58:44Z</time>
      </trkpt>
      <trkpt lat="43.94299" lon="4.31458">
        <ele>65.03</ele>
        <time>2016-05-01T12:58:45Z</time>
      </trkpt>
      <trkpt lat="43.94278" lon="4.31452">
        <ele>64.55</ele>
        <time>2016-05-01T12:58:46Z</time>
      </trkpt>
      <trkpt lat="43.94218" lon="4.31437">
        <ele>64.55</ele>
        <time>2016-05-01T12:58:49Z</time>
      </trkpt>
      <trkpt lat="43.942" lon="4.31426">
        <ele>64.07</ele>
        <time>2016-05-01T12:58:50Z</time>
      </trkpt>
      <trkpt lat="43.94183" lon="4.31411">
        <ele>64.07</ele>
        <time>2016-05-01T12:58:51Z</time>
      </trkpt>
      <trkpt lat="43.94168" lon="4.31389">
        <ele>63.58</ele>
        <time>2016-05-01T12:58:52Z</time>
      </trkpt>
      <trkpt lat="43.94155" lon="4.31366">
        <ele>63.58</ele>
        <time>2016-05-01T12:58:53Z</time>
      </trkpt>
      <trkpt lat="43.94141" lon="4.3134">
        <ele>63.58</ele>
        <time>2016-05-01T12:58:54Z</time>
      </trkpt>
      <trkpt lat="43.94128" lon="4.31314">
        <ele>64.07</ele>
        <time>2016-05-01T12:58:55Z</time>
      </trkpt>
      <trkpt lat="43.93979" lon="4.31006">
        <ele>64.55</ele>
        <time>2016-05-01T12:59:06Z</time>
      </trkpt>
      <trkpt lat="43.93911" lon="4.30846">
        <ele>64.07</ele>
        <time>2016-05-01T12:59:12Z</time>
      </trkpt>
      <trkpt lat="43.93906" lon="4.30816">
        <ele>63.1</ele>
        <time>2016-05-01T12:59:13Z</time>
      </trkpt>
      <trkpt lat="43.93905" lon="4.30787">
        <ele>62.62</ele>
        <time>2016-05-01T12:59:14Z</time>
      </trkpt>
      <trkpt lat="43.93908" lon="4.30759">
        <ele>63.1</ele>
        <time>2016-05-01T12:59:15Z</time>
      </trkpt>
      <trkpt lat="43.93911" lon="4.30732">
        <ele>63.1</ele>
        <time>2016-05-01T12:59:16Z</time>
      </trkpt>
      <trkpt lat="43.93914" lon="4.30709">
        <ele>63.1</ele>
        <time>2016-05-01T12:59:17Z</time>
      </trkpt>
      <trkpt lat="43.93915" lon="4.30646">
        <ele>62.62</ele>
        <time>2016-05-01T12:59:20Z</time>
      </trkpt>
      <trkpt lat="43.93913" lon="4.30627">
        <ele>62.62</ele>
        <time>2016-05-01T12:59:21Z</time>
      </trkpt>
      <trkpt lat="43.93908" lon="4.30609">
        <ele>62.62</ele>
        <time>2016-05-01T12:59:22Z</time>
      </trkpt>
      <trkpt lat="43.93901" lon="4.30596">
        <ele>62.14</ele>
        <time>2016-05-01T12:59:23Z</time>
      </trkpt>
      <trkpt lat="43.93892" lon="4.30584">
        <ele>61.66</ele>
        <time>2016-05-01T12:59:24Z</time>
      </trkpt>
      <trkpt lat="43.9388" lon="4.30576">
        <ele>60.7</ele>
        <time>2016-05-01T12:59:25Z</time>
      </trkpt>
      <trkpt lat="43.93866" lon="4.30572">
        <ele>60.22</ele>
        <time>2016-05-01T12:59:26Z</time>
      </trkpt>
      <trkpt lat="43.93847" lon="4.30575">
        <ele>59.26</ele>
        <time>2016-05-01T12:59:27Z</time>
      </trkpt>
      <trkpt lat="43.9383" lon="4.30579">
        <ele>58.78</ele>
        <time>2016-05-01T12:59:28Z</time>
      </trkpt>
      <trkpt lat="43.93816" lon="4.30589">
        <ele>57.82</ele>
        <time>2016-05-01T12:59:29Z</time>
      </trkpt>
      <trkpt lat="43.93802" lon="4.30598">
        <ele>57.34</ele>
        <time>2016-05-01T12:59:30Z</time>
      </trkpt>
      <trkpt lat="43.93659" lon="4.3064">
        <ele>57.34</ele>
        <time>2016-05-01T12:59:40Z</time>
      </trkpt>
      <trkpt lat="43.93587" lon="4.30619">
        <ele>57.34</ele>
        <time>2016-05-01T12:59:44Z</time>
      </trkpt>
      <trkpt lat="43.93569" lon="4.30607">
        <ele>57.34</ele>
        <time>2016-05-01T12:59:45Z</time>
      </trkpt>
      <trkpt lat="43.93552" lon="4.30594">
        <ele>57.82</ele>
        <time>2016-05-01T12:59:46Z</time>
      </trkpt>
      <trkpt lat="43.93537" lon="4.30579">
        <ele>57.82</ele>
        <time>2016-05-01T12:59:47Z</time>
      </trkpt>
      <trkpt lat="43.93522" lon="4.30564">
        <ele>57.82</ele>
        <time>2016-05-01T12:59:48Z</time>
      </trkpt>
      <trkpt lat="43.93509" lon="4.30548">
        <ele>57.82</ele>
        <time>2016-05-01T12:59:49Z</time>
      </trkpt>
      <trkpt lat="43.93496" lon="4.30531">
        <ele>57.82</ele>
        <time>2016-05-01T12:59:50Z</time>
      </trkpt>
      <trkpt lat="43.93485" lon="4.30514">
        <ele>57.82</ele>
        <time>2016-05-01T12:59:51Z</time>
      </trkpt>
      <trkpt lat="43.93476" lon="4.30497">
        <ele>57.82</ele>
        <time>2016-05-01T12:59:52Z</time>
      </trkpt>
      <trkpt lat="43.93468" lon="4.30481">
        <ele>57.82</ele>
        <time>2016-05-01T12:59:53Z</time>
      </trkpt>
      <trkpt lat="43.93395" lon="4.30332">
        <ele>58.78</ele>
        <time>2016-05-01T13:00:03Z</time>
      </trkpt>
      <trkpt lat="43.93328" lon="4.30201">
        <ele>59.74</ele>
        <time>2016-05-01T13:00:09Z</time>
      </trkpt>
      <trkpt lat="43.9332" lon="4.30176">
        <ele>60.22</ele>
        <time>2016-05-01T13:00:10Z</time>
      </trkpt>
      <trkpt lat="43.93312" lon="4.30149">
        <ele>60.7</ele>
        <time>2016-05-01T13:00:11Z</time>
      </trkpt>
      <trkpt lat="43.93306" lon="4.30124">
        <ele>61.18</ele>
        <time>2016-05-01T13:00:12Z</time>
      </trkpt>
      <trkpt lat="43.93279" lon="4.29981">
        <ele>60.7</ele>
        <time>2016-05-01T13:00:19Z</time>
      </trkpt>
      <trkpt lat="43.93276" lon="4.29907">
        <ele>59.26</ele>
        <time>2016-05-01T13:00:26Z</time>
      </trkpt>
      <trkpt lat="43.93274" lon="4.29834">
        <ele>58.3</ele>
        <time>2016-05-01T13:00:34Z</time>
      </trkpt>
      <trkpt lat="43.93275" lon="4.29822">
        <ele>59.26</ele>
        <time>2016-05-01T13:00:35Z</time>
      </trkpt>
      <trkpt lat="43.93305" lon="4.29699">
        <ele>60.22</ele>
        <time>2016-05-01T13:00:45Z</time>
      </trkpt>
      <trkpt lat="43.93325" lon="4.29618">
        <ele>60.7</ele>
        <time>2016-05-01T13:00:53Z</time>
      </trkpt>
      <trkpt lat="43.93327" lon="4.29605">
        <ele>60.7</ele>
        <time>2016-05-01T13:00:54Z</time>
      </trkpt>
      <trkpt lat="43.93326" lon="4.29592">
        <ele>60.7</ele>
        <time>2016-05-01T13:00:55Z</time>
      </trkpt>
      <trkpt lat="43.93324" lon="4.29579">
        <ele>60.22</ele>
        <time>2016-05-01T13:00:56Z</time>
      </trkpt>
      <trkpt lat="43.93321" lon="4.29566">
        <ele>59.74</ele>
        <time>2016-05-01T13:00:57Z</time>
      </trkpt>
      <trkpt lat="43.93304" lon="4.29422">
        <ele>55.89</ele>
        <time>2016-05-01T13:01:09Z</time>
      </trkpt>
      <trkpt lat="43.93305" lon="4.29411">
        <ele>55.89</ele>
        <time>2016-05-01T13:01:10Z</time>
      </trkpt>
      <trkpt lat="43.93308" lon="4.29267">
        <ele>57.34</ele>
        <time>2016-05-01T13:01:20Z</time>
      </trkpt>
      <trkpt lat="43.93305" lon="4.29067">
        <ele>58.78</ele>
        <time>2016-05-01T13:01:30Z</time>
      </trkpt>
      <trkpt lat="43.93291" lon="4.28836">
        <ele>59.26</ele>
        <time>2016-05-01T13:01:39Z</time>
      </trkpt>
      <trkpt lat="43.93285" lon="4.28755">
        <ele>59.26</ele>
        <time>2016-05-01T13:01:42Z</time>
      </trkpt>
      <trkpt lat="43.9328" lon="4.28728">
        <ele>59.26</ele>
        <time>2016-05-01T13:01:43Z</time>
      </trkpt>
      <trkpt lat="43.93273" lon="4.287">
        <ele>59.74</ele>
        <time>2016-05-01T13:01:44Z</time>
      </trkpt>
      <trkpt lat="43.9321" lon="4.28496">
        <ele>61.18</ele>
        <time>2016-05-01T13:01:52Z</time>
      </trkpt>
      <trkpt lat="43.93185" lon="4.28398">
        <ele>62.62</ele>
        <time>2016-05-01T13:01:57Z</time>
      </trkpt>
      <trkpt lat="43.93183" lon="4.28381">
        <ele>62.62</ele>
        <time>2016-05-01T13:01:58Z</time>
      </trkpt>
      <trkpt lat="43.93182" lon="4.28363">
        <ele>62.62</ele>
        <time>2016-05-01T13:01:59Z</time>
      </trkpt>
      <trkpt lat="43.9317" lon="4.28212">
        <ele>62.62</ele>
        <time>2016-05-01T13:02:05Z</time>
      </trkpt>
      <trkpt lat="43.93136" lon="4.27902">
        <ele>62.14</ele>
        <time>2016-05-01T13:02:15Z</time>
      </trkpt>
      <trkpt lat="43.93127" lon="4.27866">
        <ele>61.66</ele>
        <time>2016-05-01T13:02:16Z</time>
      </trkpt>
      <trkpt lat="43.93115" lon="4.27831">
        <ele>61.66</ele>
        <time>2016-05-01T13:02:17Z</time>
      </trkpt>
      <trkpt lat="43.93101" lon="4.27795">
        <ele>61.66</ele>
        <time>2016-05-01T13:02:18Z</time>
      </trkpt>
      <trkpt lat="43.93084" lon="4.2776">
        <ele>62.14</ele>
        <time>2016-05-01T13:02:19Z</time>
      </trkpt>
      <trkpt lat="43.92964" lon="4.27448">
        <ele>65.03</ele>
        <time>2016-05-01T13:02:28Z</time>
      </trkpt>
      <trkpt lat="43.92884" lon="4.27208">
        <ele>65.99</ele>
        <time>2016-05-01T13:02:35Z</time>
      </trkpt>
      <trkpt lat="43.9285" lon="4.2711">
        <ele>66.95</ele>
        <time>2016-05-01T13:02:39Z</time>
      </trkpt>
      <trkpt lat="43.92838" lon="4.27094">
        <ele>66.95</ele>
        <time>2016-05-01T13:02:40Z</time>
      </trkpt>
      <trkpt lat="43.92807" lon="4.27057">
        <ele>67.43</ele>
        <time>2016-05-01T13:02:43Z</time>
      </trkpt>
      <trkpt lat="43.928" lon="4.27045">
        <ele>67.91</ele>
        <time>2016-05-01T13:02:44Z</time>
      </trkpt>
      <trkpt lat="43.92741" lon="4.26948">
        <ele>69.83</ele>
        <time>2016-05-01T13:02:53Z</time>
      </trkpt>
      <trkpt lat="43.92671" lon="4.26837">
        <ele>72.24</ele>
        <time>2016-05-01T13:03:04Z</time>
      </trkpt>
      <trkpt lat="43.92625" lon="4.26757">
        <ele>74.64</ele>
        <time>2016-05-01T13:03:12Z</time>
      </trkpt>
      <trkpt lat="43.92621" lon="4.26745">
        <ele>74.64</ele>
        <time>2016-05-01T13:03:13Z</time>
      </trkpt>
      <trkpt lat="43.92617" lon="4.26732">
        <ele>74.16</ele>
        <time>2016-05-01T13:03:14Z</time>
      </trkpt>
      <trkpt lat="43.92615" lon="4.26718">
        <ele>74.16</ele>
        <time>2016-05-01T13:03:15Z</time>
      </trkpt>
      <trkpt lat="43.92614" lon="4.26704">
        <ele>74.16</ele>
        <time>2016-05-01T13:03:16Z</time>
      </trkpt>
      <trkpt lat="43.92614" lon="4.26688">
        <ele>74.16</ele>
        <time>2016-05-01T13:03:17Z</time>
      </trkpt>
      <trkpt lat="43.92614" lon="4.26673">
        <ele>74.64</ele>
        <time>2016-05-01T13:03:18Z</time>
      </trkpt>
      <trkpt lat="43.92608" lon="4.26568">
        <ele>76.08</ele>
        <time>2016-05-01T13:03:26Z</time>
      </trkpt>
      <trkpt lat="43.92587" lon="4.26449">
        <ele>79.93</ele>
        <time>2016-05-01T13:03:36Z</time>
      </trkpt>
      <trkpt lat="43.92583" lon="4.26438">
        <ele>80.41</ele>
        <time>2016-05-01T13:03:37Z</time>
      </trkpt>
      <trkpt lat="43.92577" lon="4.26429">
        <ele>81.37</ele>
        <time>2016-05-01T13:03:38Z</time>
      </trkpt>
      <trkpt lat="43.92571" lon="4.2642">
        <ele>81.85</ele>
        <time>2016-05-01T13:03:39Z</time>
      </trkpt>
      <trkpt lat="43.92564" lon="4.26415">
        <ele>82.33</ele>
        <time>2016-05-01T13:03:40Z</time>
      </trkpt>
      <trkpt lat="43.92548" lon="4.26396">
        <ele>84.73</ele>
        <time>2016-05-01T13:03:43Z</time>
      </trkpt>
      <trkpt lat="43.92544" lon="4.26388">
        <ele>84.73</ele>
        <time>2016-05-01T13:03:44Z</time>
      </trkpt>
      <trkpt lat="43.92541" lon="4.26379">
        <ele>85.21</ele>
        <time>2016-05-01T13:03:45Z</time>
      </trkpt>
      <trkpt lat="43.92539" lon="4.2637">
        <ele>85.21</ele>
        <time>2016-05-01T13:03:46Z</time>
      </trkpt>
      <trkpt lat="43.92537" lon="4.26361">
        <ele>85.21</ele>
        <time>2016-05-01T13:03:47Z</time>
      </trkpt>
      <trkpt lat="43.92526" lon="4.2633">
        <ele>85.21</ele>
        <time>2016-05-01T13:03:51Z</time>
      </trkpt>
      <trkpt lat="43.92523" lon="4.26325">
        <ele>84.73</ele>
        <time>2016-05-01T13:03:52Z</time>
      </trkpt>
      <trkpt lat="43.92513" lon="4.26299">
        <ele>83.77</ele>
        <time>2016-05-01T13:04:02Z</time>
      </trkpt>
      <trkpt lat="43.92512" lon="4.26297">
        <ele>83.77</ele>
        <time>2016-05-01T13:04:03Z</time>
      </trkpt>
      <trkpt lat="43.92512" lon="4.26295">
        <ele>83.29</ele>
        <time>2016-05-01T13:04:04Z</time>
      </trkpt>
      <trkpt lat="43.92512" lon="4.26292">
        <ele>83.29</ele>
        <time>2016-05-01T13:04:05Z</time>
      </trkpt>
      <trkpt lat="43.92517" lon="4.26258">
        <ele>82.81</ele>
        <time>2016-05-01T13:04:11Z</time>
      </trkpt>
      <trkpt lat="43.92519" lon="4.26252">
        <ele>82.81</ele>
        <time>2016-05-01T13:04:12Z</time>
      </trkpt>
      <trkpt lat="43.92528" lon="4.26226">
        <ele>81.37</ele>
        <time>2016-05-01T13:04:17Z</time>
      </trkpt>
      <trkpt lat="43.92528" lon="4.2622">
        <ele>80.89</ele>
        <time>2016-05-01T13:04:18Z</time>
      </trkpt>
      <trkpt lat="43.92519" lon="4.26213">
        <ele>81.85</ele>
        <time>2016-05-01T13:04:20Z</time>
      </trkpt>
      <trkpt lat="43.92513" lon="4.26191">
        <ele>81.85</ele>
        <time>2016-05-01T13:04:22Z</time>
      </trkpt>
      <trkpt lat="43.92512" lon="4.26178">
        <ele>81.37</ele>
        <time>2016-05-01T13:04:23Z</time>
      </trkpt>
      <trkpt lat="43.92495" lon="4.2606">
        <ele>78.97</ele>
        <time>2016-05-01T13:04:33Z</time>
      </trkpt>
      <trkpt lat="43.92472" lon="4.25929">
        <ele>75.6</ele>
        <time>2016-05-01T13:04:43Z</time>
      </trkpt>
      <trkpt lat="43.92454" lon="4.25836">
        <ele>74.16</ele>
        <time>2016-05-01T13:04:51Z</time>
      </trkpt>
      <trkpt lat="43.92437" lon="4.25732">
        <ele>74.16</ele>
        <time>2016-05-01T13:05:00Z</time>
      </trkpt>
      <trkpt lat="43.92419" lon="4.25608">
        <ele>75.12</ele>
        <time>2016-05-01T13:05:12Z</time>
      </trkpt>
      <trkpt lat="43.92419" lon="4.25596">
        <ele>75.12</ele>
        <time>2016-05-01T13:05:13Z</time>
      </trkpt>
      <trkpt lat="43.92421" lon="4.25585">
        <ele>75.12</ele>
        <time>2016-05-01T13:05:14Z</time>
      </trkpt>
      <trkpt lat="43.92424" lon="4.25574">
        <ele>75.12</ele>
        <time>2016-05-01T13:05:15Z</time>
      </trkpt>
      <trkpt lat="43.92426" lon="4.25564">
        <ele>75.12</ele>
        <time>2016-05-01T13:05:16Z</time>
      </trkpt>
      <trkpt lat="43.92427" lon="4.25554">
        <ele>75.12</ele>
        <time>2016-05-01T13:05:17Z</time>
      </trkpt>
      <trkpt lat="43.92424" lon="4.25546">
        <ele>75.12</ele>
        <time>2016-05-01T13:05:18Z</time>
      </trkpt>
      <trkpt lat="43.9242" lon="4.25539">
        <ele>75.12</ele>
        <time>2016-05-01T13:05:19Z</time>
      </trkpt>
      <trkpt lat="43.92415" lon="4.25532">
        <ele>74.64</ele>
        <time>2016-05-01T13:05:20Z</time>
      </trkpt>
      <trkpt lat="43.92411" lon="4.25523">
        <ele>74.64</ele>
        <time>2016-05-01T13:05:21Z</time>
      </trkpt>
      <trkpt lat="43.92407" lon="4.25512">
        <ele>74.64</ele>
        <time>2016-05-01T13:05:22Z</time>
      </trkpt>
      <trkpt lat="43.92404" lon="4.255">
        <ele>74.16</ele>
        <time>2016-05-01T13:05:23Z</time>
      </trkpt>
      <trkpt lat="43.92396" lon="4.25454">
        <ele>73.68</ele>
        <time>2016-05-01T13:05:26Z</time>
      </trkpt>
      <trkpt lat="43.92393" lon="4.25435">
        <ele>73.68</ele>
        <time>2016-05-01T13:05:27Z</time>
      </trkpt>
      <trkpt lat="43.92358" lon="4.25241">
        <ele>73.68</ele>
        <time>2016-05-01T13:05:36Z</time>
      </trkpt>
      <trkpt lat="43.9231" lon="4.25063">
        <ele>74.16</ele>
        <time>2016-05-01T13:05:42Z</time>
      </trkpt>
      <trkpt lat="43.92184" lon="4.24738">
        <ele>74.64</ele>
        <time>2016-05-01T13:05:53Z</time>
      </trkpt>
      <trkpt lat="43.92095" lon="4.2454">
        <ele>75.12</ele>
        <time>2016-05-01T13:05:59Z</time>
      </trkpt>
      <trkpt lat="43.92011" lon="4.24389">
        <ele>76.08</ele>
        <time>2016-05-01T13:06:05Z</time>
      </trkpt>
      <trkpt lat="43.91955" lon="4.24292">
        <ele>76.56</ele>
        <time>2016-05-01T13:06:11Z</time>
      </trkpt>
      <trkpt lat="43.91865" lon="4.2413">
        <ele>77.52</ele>
        <time>2016-05-01T13:06:18Z</time>
      </trkpt>
      <trkpt lat="43.91734" lon="4.2389">
        <ele>78.97</ele>
        <time>2016-05-01T13:06:26Z</time>
      </trkpt>
      <trkpt lat="43.9159" lon="4.23636">
        <ele>82.33</ele>
        <time>2016-05-01T13:06:34Z</time>
      </trkpt>
      <trkpt lat="43.91435" lon="4.23413">
        <ele>84.73</ele>
        <time>2016-05-01T13:06:42Z</time>
      </trkpt>
      <trkpt lat="43.91309" lon="4.2311">
        <ele>86.66</ele>
        <time>2016-05-01T13:06:51Z</time>
      </trkpt>
      <trkpt lat="43.9126" lon="4.23">
        <ele>87.14</ele>
        <time>2016-05-01T13:06:55Z</time>
      </trkpt>
      <trkpt lat="43.91245" lon="4.22976">
        <ele>86.66</ele>
        <time>2016-05-01T13:06:56Z</time>
      </trkpt>
      <trkpt lat="43.91149" lon="4.22832">
        <ele>86.18</ele>
        <time>2016-05-01T13:07:02Z</time>
      </trkpt>
      <trkpt lat="43.91139" lon="4.22804">
        <ele>86.18</ele>
        <time>2016-05-01T13:07:03Z</time>
      </trkpt>
      <trkpt lat="43.91132" lon="4.22774">
        <ele>86.18</ele>
        <time>2016-05-01T13:07:04Z</time>
      </trkpt>
      <trkpt lat="43.91128" lon="4.22742">
        <ele>86.66</ele>
        <time>2016-05-01T13:07:05Z</time>
      </trkpt>
      <trkpt lat="43.91124" lon="4.22713">
        <ele>86.66</ele>
        <time>2016-05-01T13:07:06Z</time>
      </trkpt>
      <trkpt lat="43.91087" lon="4.22563">
        <ele>85.21</ele>
        <time>2016-05-01T13:07:12Z</time>
      </trkpt>
      <trkpt lat="43.91076" lon="4.22541">
        <ele>84.73</ele>
        <time>2016-05-01T13:07:13Z</time>
      </trkpt>
      <trkpt lat="43.91041" lon="4.22484">
        <ele>83.77</ele>
        <time>2016-05-01T13:07:16Z</time>
      </trkpt>
      <trkpt lat="43.91026" lon="4.22475">
        <ele>83.77</ele>
        <time>2016-05-01T13:07:17Z</time>
      </trkpt>
      <trkpt lat="43.9101" lon="4.22471">
        <ele>83.29</ele>
        <time>2016-05-01T13:07:18Z</time>
      </trkpt>
      <trkpt lat="43.90994" lon="4.22473">
        <ele>83.29</ele>
        <time>2016-05-01T13:07:19Z</time>
      </trkpt>
      <trkpt lat="43.90977" lon="4.22478">
        <ele>83.29</ele>
        <time>2016-05-01T13:07:20Z</time>
      </trkpt>
      <trkpt lat="43.9096" lon="4.22482">
        <ele>83.29</ele>
        <time>2016-05-01T13:07:21Z</time>
      </trkpt>
      <trkpt lat="43.90941" lon="4.22485">
        <ele>83.77</ele>
        <time>2016-05-01T13:07:22Z</time>
      </trkpt>
      <trkpt lat="43.90922" lon="4.22485">
        <ele>83.77</ele>
        <time>2016-05-01T13:07:23Z</time>
      </trkpt>
      <trkpt lat="43.90862" lon="4.22479">
        <ele>83.77</ele>
        <time>2016-05-01T13:07:26Z</time>
      </trkpt>
      <trkpt lat="43.90841" lon="4.22467">
        <ele>83.77</ele>
        <time>2016-05-01T13:07:27Z</time>
      </trkpt>
      <trkpt lat="43.90821" lon="4.22448">
        <ele>83.77</ele>
        <time>2016-05-01T13:07:28Z</time>
      </trkpt>
      <trkpt lat="43.90803" lon="4.22423">
        <ele>83.77</ele>
        <time>2016-05-01T13:07:29Z</time>
      </trkpt>
      <trkpt lat="43.90786" lon="4.22398">
        <ele>83.77</ele>
        <time>2016-05-01T13:07:30Z</time>
      </trkpt>
      <trkpt lat="43.9077" lon="4.22372">
        <ele>83.77</ele>
        <time>2016-05-01T13:07:31Z</time>
      </trkpt>
      <trkpt lat="43.90655" lon="4.22179">
        <ele>83.29</ele>
        <time>2016-05-01T13:07:38Z</time>
      </trkpt>
      <trkpt lat="43.90618" lon="4.22133">
        <ele>83.29</ele>
        <time>2016-05-01T13:07:40Z</time>
      </trkpt>
      <trkpt lat="43.90596" lon="4.22117">
        <ele>83.29</ele>
        <time>2016-05-01T13:07:41Z</time>
      </trkpt>
      <trkpt lat="43.90571" lon="4.22106">
        <ele>83.77</ele>
        <time>2016-05-01T13:07:42Z</time>
      </trkpt>
      <trkpt lat="43.90546" lon="4.22097">
        <ele>83.77</ele>
        <time>2016-05-01T13:07:43Z</time>
      </trkpt>
      <trkpt lat="43.90519" lon="4.22088">
        <ele>83.77</ele>
        <time>2016-05-01T13:07:44Z</time>
      </trkpt>
      <trkpt lat="43.90424" lon="4.22047">
        <ele>84.25</ele>
        <time>2016-05-01T13:07:48Z</time>
      </trkpt>
      <trkpt lat="43.90403" lon="4.2203">
        <ele>84.25</ele>
        <time>2016-05-01T13:07:49Z</time>
      </trkpt>
      <trkpt lat="43.90317" lon="4.21956">
        <ele>84.73</ele>
        <time>2016-05-01T13:07:54Z</time>
      </trkpt>
      <trkpt lat="43.90299" lon="4.21948">
        <ele>84.73</ele>
        <time>2016-05-01T13:07:55Z</time>
      </trkpt>
      <trkpt lat="43.902" lon="4.21905">
        <ele>85.69</ele>
        <time>2016-05-01T13:08:02Z</time>
      </trkpt>
      <trkpt lat="43.90189" lon="4.21901">
        <ele>85.69</ele>
        <time>2016-05-01T13:08:03Z</time>
      </trkpt>
      <trkpt lat="43.90179" lon="4.21899">
        <ele>85.69</ele>
        <time>2016-05-01T13:08:04Z</time>
      </trkpt>
      <trkpt lat="43.90169" lon="4.21898">
        <ele>85.69</ele>
        <time>2016-05-01T13:08:05Z</time>
      </trkpt>
      <trkpt lat="43.90142" lon="4.21898">
        <ele>86.18</ele>
        <time>2016-05-01T13:08:08Z</time>
      </trkpt>
      <trkpt lat="43.90135" lon="4.21895">
        <ele>86.18</ele>
        <time>2016-05-01T13:08:09Z</time>
      </trkpt>
      <trkpt lat="43.9013" lon="4.21889">
        <ele>86.18</ele>
        <time>2016-05-01T13:08:10Z</time>
      </trkpt>
      <trkpt lat="43.90127" lon="4.21882">
        <ele>86.18</ele>
        <time>2016-05-01T13:08:11Z</time>
      </trkpt>
      <trkpt lat="43.90126" lon="4.21874">
        <ele>86.66</ele>
        <time>2016-05-01T13:08:12Z</time>
      </trkpt>
      <trkpt lat="43.90128" lon="4.21865">
        <ele>86.66</ele>
        <time>2016-05-01T13:08:13Z</time>
      </trkpt>
      <trkpt lat="43.90131" lon="4.21855">
        <ele>86.66</ele>
        <time>2016-05-01T13:08:14Z</time>
      </trkpt>
      <trkpt lat="43.90137" lon="4.21843">
        <ele>86.66</ele>
        <time>2016-05-01T13:08:15Z</time>
      </trkpt>
      <trkpt lat="43.90143" lon="4.21828">
        <ele>86.18</ele>
        <time>2016-05-01T13:08:16Z</time>
      </trkpt>
      <trkpt lat="43.90206" lon="4.21683">
        <ele>84.73</ele>
        <time>2016-05-01T13:08:24Z</time>
      </trkpt>
      <trkpt lat="43.90309" lon="4.21481">
        <ele>87.14</ele>
        <time>2016-05-01T13:08:34Z</time>
      </trkpt>
      <trkpt lat="43.90373" lon="4.2138">
        <ele>89.06</ele>
        <time>2016-05-01T13:08:39Z</time>
      </trkpt>
      <trkpt lat="43.90383" lon="4.21357">
        <ele>89.06</ele>
        <time>2016-05-01T13:08:40Z</time>
      </trkpt>
      <trkpt lat="43.90387" lon="4.21331">
        <ele>90.02</ele>
        <time>2016-05-01T13:08:41Z</time>
      </trkpt>
      <trkpt lat="43.90387" lon="4.21306">
        <ele>90.02</ele>
        <time>2016-05-01T13:08:42Z</time>
      </trkpt>
      <trkpt lat="43.90383" lon="4.21281">
        <ele>90.98</ele>
        <time>2016-05-01T13:08:43Z</time>
      </trkpt>
      <trkpt lat="43.90376" lon="4.21259">
        <ele>90.98</ele>
        <time>2016-05-01T13:08:44Z</time>
      </trkpt>
      <trkpt lat="43.90367" lon="4.21236">
        <ele>90.98</ele>
        <time>2016-05-01T13:08:45Z</time>
      </trkpt>
      <trkpt lat="43.90357" lon="4.21213">
        <ele>91.46</ele>
        <time>2016-05-01T13:08:46Z</time>
      </trkpt>
      <trkpt lat="43.90346" lon="4.21191">
        <ele>91.94</ele>
        <time>2016-05-01T13:08:47Z</time>
      </trkpt>
      <trkpt lat="43.90283" lon="4.21064">
        <ele>92.42</ele>
        <time>2016-05-01T13:08:54Z</time>
      </trkpt>
      <trkpt lat="43.90244" lon="4.20981">
        <ele>92.9</ele>
        <time>2016-05-01T13:09:02Z</time>
      </trkpt>
      <trkpt lat="43.90242" lon="4.20976">
        <ele>92.9</ele>
        <time>2016-05-01T13:09:03Z</time>
      </trkpt>
      <trkpt lat="43.90241" lon="4.2097">
        <ele>92.9</ele>
        <time>2016-05-01T13:09:04Z</time>
      </trkpt>
      <trkpt lat="43.9024" lon="4.20962">
        <ele>92.9</ele>
        <time>2016-05-01T13:09:05Z</time>
      </trkpt>
      <trkpt lat="43.9024" lon="4.20952">
        <ele>92.9</ele>
        <time>2016-05-01T13:09:06Z</time>
      </trkpt>
      <trkpt lat="43.90242" lon="4.20942">
        <ele>92.9</ele>
        <time>2016-05-01T13:09:07Z</time>
      </trkpt>
      <trkpt lat="43.90244" lon="4.20931">
        <ele>92.9</ele>
        <time>2016-05-01T13:09:08Z</time>
      </trkpt>
      <trkpt lat="43.90248" lon="4.20921">
        <ele>92.9</ele>
        <time>2016-05-01T13:09:09Z</time>
      </trkpt>
      <trkpt lat="43.90251" lon="4.20911">
        <ele>92.9</ele>
        <time>2016-05-01T13:09:10Z</time>
      </trkpt>
      <trkpt lat="43.90253" lon="4.20902">
        <ele>92.9</ele>
        <time>2016-05-01T13:09:11Z</time>
      </trkpt>
      <trkpt lat="43.90252" lon="4.20893">
        <ele>92.9</ele>
        <time>2016-05-01T13:09:12Z</time>
      </trkpt>
      <trkpt lat="43.90249" lon="4.20884">
        <ele>92.9</ele>
        <time>2016-05-01T13:09:13Z</time>
      </trkpt>
      <trkpt lat="43.90243" lon="4.20873">
        <ele>92.9</ele>
        <time>2016-05-01T13:09:14Z</time>
      </trkpt>
      <trkpt lat="43.90237" lon="4.20859">
        <ele>92.9</ele>
        <time>2016-05-01T13:09:15Z</time>
      </trkpt>
      <trkpt lat="43.90181" lon="4.20751">
        <ele>92.42</ele>
        <time>2016-05-01T13:09:21Z</time>
      </trkpt>
      <trkpt lat="43.90031" lon="4.20502">
        <ele>90.98</ele>
        <time>2016-05-01T13:09:32Z</time>
      </trkpt>
      <trkpt lat="43.89902" lon="4.203">
        <ele>92.42</ele>
        <time>2016-05-01T13:09:40Z</time>
      </trkpt>
      <trkpt lat="43.89712" lon="4.20086">
        <ele>96.27</ele>
        <time>2016-05-01T13:09:49Z</time>
      </trkpt>
      <trkpt lat="43.89539" lon="4.19946">
        <ele>97.23</ele>
        <time>2016-05-01T13:09:56Z</time>
      </trkpt>
      <trkpt lat="43.89385" lon="4.19829">
        <ele>97.23</ele>
        <time>2016-05-01T13:10:04Z</time>
      </trkpt>
      <trkpt lat="43.89286" lon="4.19727">
        <ele>98.67</ele>
        <time>2016-05-01T13:10:09Z</time>
      </trkpt>
      <trkpt lat="43.89225" lon="4.19672">
        <ele>99.63</ele>
        <time>2016-05-01T13:10:12Z</time>
      </trkpt>
      <trkpt lat="43.892" lon="4.19657">
        <ele>100.11</ele>
        <time>2016-05-01T13:10:13Z</time>
      </trkpt>
      <trkpt lat="43.89174" lon="4.19645">
        <ele>100.6</ele>
        <time>2016-05-01T13:10:14Z</time>
      </trkpt>
      <trkpt lat="43.88986" lon="4.1959">
        <ele>102.04</ele>
        <time>2016-05-01T13:10:21Z</time>
      </trkpt>
      <trkpt lat="43.88833" lon="4.19498">
        <ele>103.48</ele>
        <time>2016-05-01T13:10:27Z</time>
      </trkpt>
      <trkpt lat="43.8876" lon="4.19446">
        <ele>103.96</ele>
        <time>2016-05-01T13:10:30Z</time>
      </trkpt>
      <trkpt lat="43.88735" lon="4.19434">
        <ele>104.44</ele>
        <time>2016-05-01T13:10:31Z</time>
      </trkpt>
      <trkpt lat="43.88707" lon="4.19428">
        <ele>103.96</ele>
        <time>2016-05-01T13:10:32Z</time>
      </trkpt>
      <trkpt lat="43.88679" lon="4.19427">
        <ele>104.44</ele>
        <time>2016-05-01T13:10:33Z</time>
      </trkpt>
      <trkpt lat="43.8865" lon="4.19432">
        <ele>104.44</ele>
        <time>2016-05-01T13:10:34Z</time>
      </trkpt>
      <trkpt lat="43.88621" lon="4.19441">
        <ele>104.44</ele>
        <time>2016-05-01T13:10:35Z</time>
      </trkpt>
      <trkpt lat="43.88594" lon="4.19454">
        <ele>104.44</ele>
        <time>2016-05-01T13:10:36Z</time>
      </trkpt>
      <trkpt lat="43.88567" lon="4.19467">
        <ele>104.44</ele>
        <time>2016-05-01T13:10:37Z</time>
      </trkpt>
      <trkpt lat="43.88512" lon="4.19485">
        <ele>104.44</ele>
        <time>2016-05-01T13:10:39Z</time>
      </trkpt>
      <trkpt lat="43.88483" lon="4.19486">
        <ele>104.44</ele>
        <time>2016-05-01T13:10:40Z</time>
      </trkpt>
      <trkpt lat="43.88456" lon="4.19481">
        <ele>104.44</ele>
        <time>2016-05-01T13:10:41Z</time>
      </trkpt>
      <trkpt lat="43.88429" lon="4.19471">
        <ele>104.44</ele>
        <time>2016-05-01T13:10:42Z</time>
      </trkpt>
      <trkpt lat="43.88403" lon="4.19459">
        <ele>104.92</ele>
        <time>2016-05-01T13:10:43Z</time>
      </trkpt>
      <trkpt lat="43.88379" lon="4.19445">
        <ele>104.92</ele>
        <time>2016-05-01T13:10:44Z</time>
      </trkpt>
      <trkpt lat="43.88259" lon="4.19358">
        <ele>106.36</ele>
        <time>2016-05-01T13:10:50Z</time>
      </trkpt>
      <trkpt lat="43.88243" lon="4.19338">
        <ele>106.36</ele>
        <time>2016-05-01T13:10:51Z</time>
      </trkpt>
      <trkpt lat="43.88229" lon="4.19315">
        <ele>106.36</ele>
        <time>2016-05-01T13:10:52Z</time>
      </trkpt>
      <trkpt lat="43.88218" lon="4.19287">
        <ele>106.36</ele>
        <time>2016-05-01T13:10:53Z</time>
      </trkpt>
      <trkpt lat="43.8821" lon="4.19254">
        <ele>105.88</ele>
        <time>2016-05-01T13:10:54Z</time>
      </trkpt>
      <trkpt lat="43.88206" lon="4.19221">
        <ele>106.36</ele>
        <time>2016-05-01T13:10:55Z</time>
      </trkpt>
      <trkpt lat="43.88206" lon="4.19185">
        <ele>105.88</ele>
        <time>2016-05-01T13:10:56Z</time>
      </trkpt>
      <trkpt lat="43.8821" lon="4.1915">
        <ele>105.88</ele>
        <time>2016-05-01T13:10:57Z</time>
      </trkpt>
      <trkpt lat="43.88217" lon="4.19116">
        <ele>105.88</ele>
        <time>2016-05-01T13:10:58Z</time>
      </trkpt>
      <trkpt lat="43.88226" lon="4.19084">
        <ele>105.88</ele>
        <time>2016-05-01T13:10:59Z</time>
      </trkpt>
      <trkpt lat="43.88239" lon="4.19054">
        <ele>107.32</ele>
        <time>2016-05-01T13:11:00Z</time>
      </trkpt>
      <trkpt lat="43.88253" lon="4.19025">
        <ele>108.77</ele>
        <time>2016-05-01T13:11:01Z</time>
      </trkpt>
      <trkpt lat="43.88266" lon="4.18998">
        <ele>109.73</ele>
        <time>2016-05-01T13:11:02Z</time>
      </trkpt>
      <trkpt lat="43.88355" lon="4.18761">
        <ele>113.09</ele>
        <time>2016-05-01T13:11:10Z</time>
      </trkpt>
      <trkpt lat="43.88358" lon="4.1873">
        <ele>113.57</ele>
        <time>2016-05-01T13:11:11Z</time>
      </trkpt>
      <trkpt lat="43.88357" lon="4.18698">
        <ele>114.05</ele>
        <time>2016-05-01T13:11:12Z</time>
      </trkpt>
      <trkpt lat="43.88353" lon="4.18667">
        <ele>114.53</ele>
        <time>2016-05-01T13:11:13Z</time>
      </trkpt>
      <trkpt lat="43.88348" lon="4.18637">
        <ele>115.01</ele>
        <time>2016-05-01T13:11:14Z</time>
      </trkpt>
      <trkpt lat="43.88341" lon="4.1861">
        <ele>115.5</ele>
        <time>2016-05-01T13:11:15Z</time>
      </trkpt>
      <trkpt lat="43.88333" lon="4.18585">
        <ele>115.98</ele>
        <time>2016-05-01T13:11:16Z</time>
      </trkpt>
      <trkpt lat="43.88324" lon="4.18563">
        <ele>116.46</ele>
        <time>2016-05-01T13:11:17Z</time>
      </trkpt>
      <trkpt lat="43.88315" lon="4.18543">
        <ele>116.94</ele>
        <time>2016-05-01T13:11:18Z</time>
      </trkpt>
      <trkpt lat="43.88306" lon="4.18525">
        <ele>117.42</ele>
        <time>2016-05-01T13:11:19Z</time>
      </trkpt>
      <trkpt lat="43.88229" lon="4.18406">
        <ele>120.78</ele>
        <time>2016-05-01T13:11:27Z</time>
      </trkpt>
      <trkpt lat="43.8814" lon="4.18278">
        <ele>123.19</ele>
        <time>2016-05-01T13:11:34Z</time>
      </trkpt>
      <trkpt lat="43.88009" lon="4.18143">
        <ele>122.22</ele>
        <time>2016-05-01T13:11:41Z</time>
      </trkpt>
      <trkpt lat="43.87822" lon="4.17968">
        <ele>121.74</ele>
        <time>2016-05-01T13:11:50Z</time>
      </trkpt>
      <trkpt lat="43.8766" lon="4.17728">
        <ele>128.47</ele>
        <time>2016-05-01T13:11:59Z</time>
      </trkpt>
      <trkpt lat="43.8745" lon="4.17393">
        <ele>138.09</ele>
        <time>2016-05-01T13:12:12Z</time>
      </trkpt>
      <trkpt lat="43.87272" lon="4.1716">
        <ele>142.89</ele>
        <time>2016-05-01T13:12:22Z</time>
      </trkpt>
      <trkpt lat="43.87053" lon="4.16896">
        <ele>148.66</ele>
        <time>2016-05-01T13:12:33Z</time>
      </trkpt>
      <trkpt lat="43.86749" lon="4.16501">
        <ele>158.27</ele>
        <time>2016-05-01T13:12:48Z</time>
      </trkpt>
      <trkpt lat="43.86619" lon="4.16395">
        <ele>159.72</ele>
        <time>2016-05-01T13:12:54Z</time>
      </trkpt>
      <trkpt lat="43.86396" lon="4.16214">
        <ele>156.83</ele>
        <time>2016-05-01T13:13:04Z</time>
      </trkpt>
      <trkpt lat="43.86185" lon="4.16054">
        <ele>152.03</ele>
        <time>2016-05-01T13:13:13Z</time>
      </trkpt>
      <trkpt lat="43.86066" lon="4.15988">
        <ele>148.66</ele>
        <time>2016-05-01T13:13:19Z</time>
      </trkpt>
      <trkpt lat="43.86027" lon="4.15975">
        <ele>147.22</ele>
        <time>2016-05-01T13:13:22Z</time>
      </trkpt>
      <trkpt lat="43.86018" lon="4.15975">
        <ele>146.74</ele>
        <time>2016-05-01T13:13:23Z</time>
      </trkpt>
      <trkpt lat="43.85998" lon="4.15975">
        <ele>145.78</ele>
        <time>2016-05-01T13:13:26Z</time>
      </trkpt>
      <trkpt lat="43.85992" lon="4.15974">
        <ele>145.3</ele>
        <time>2016-05-01T13:13:27Z</time>
      </trkpt>
      <trkpt lat="43.85986" lon="4.1597">
        <ele>145.3</ele>
        <time>2016-05-01T13:13:28Z</time>
      </trkpt>
      <trkpt lat="43.85979" lon="4.15964">
        <ele>144.82</ele>
        <time>2016-05-01T13:13:29Z</time>
      </trkpt>
      <trkpt lat="43.85973" lon="4.15955">
        <ele>144.82</ele>
        <time>2016-05-01T13:13:30Z</time>
      </trkpt>
      <trkpt lat="43.85967" lon="4.15943">
        <ele>144.34</ele>
        <time>2016-05-01T13:13:31Z</time>
      </trkpt>
      <trkpt lat="43.85962" lon="4.15928">
        <ele>143.85</ele>
        <time>2016-05-01T13:13:32Z</time>
      </trkpt>
      <trkpt lat="43.85958" lon="4.1591">
        <ele>143.37</ele>
        <time>2016-05-01T13:13:33Z</time>
      </trkpt>
      <trkpt lat="43.85956" lon="4.15891">
        <ele>142.41</ele>
        <time>2016-05-01T13:13:34Z</time>
      </trkpt>
      <trkpt lat="43.85955" lon="4.15871">
        <ele>141.45</ele>
        <time>2016-05-01T13:13:35Z</time>
      </trkpt>
      <trkpt lat="43.85955" lon="4.1585">
        <ele>140.97</ele>
        <time>2016-05-01T13:13:36Z</time>
      </trkpt>
      <trkpt lat="43.85955" lon="4.15829">
        <ele>140.01</ele>
        <time>2016-05-01T13:13:37Z</time>
      </trkpt>
      <trkpt lat="43.85956" lon="4.15808">
        <ele>139.53</ele>
        <time>2016-05-01T13:13:38Z</time>
      </trkpt>
      <trkpt lat="43.85987" lon="4.15657">
        <ele>135.68</ele>
        <time>2016-05-01T13:13:45Z</time>
      </trkpt>
      <trkpt lat="43.86061" lon="4.15453">
        <ele>128.47</ele>
        <time>2016-05-01T13:13:53Z</time>
      </trkpt>
      <trkpt lat="43.86093" lon="4.15254">
        <ele>123.67</ele>
        <time>2016-05-01T13:13:59Z</time>
      </trkpt>
      <trkpt lat="43.86089" lon="4.1495">
        <ele>117.9</ele>
        <time>2016-05-01T13:14:07Z</time>
      </trkpt>
      <trkpt lat="43.86102" lon="4.14688">
        <ele>122.71</ele>
        <time>2016-05-01T13:14:14Z</time>
      </trkpt>
      <trkpt lat="43.86157" lon="4.14396">
        <ele>128.95</ele>
        <time>2016-05-01T13:14:22Z</time>
      </trkpt>
      <trkpt lat="43.86152" lon="4.1432">
        <ele>129.43</ele>
        <time>2016-05-01T13:14:24Z</time>
      </trkpt>
      <trkpt lat="43.86143" lon="4.14283">
        <ele>128.95</ele>
        <time>2016-05-01T13:14:25Z</time>
      </trkpt>
      <trkpt lat="43.86127" lon="4.14247">
        <ele>127.99</ele>
        <time>2016-05-01T13:14:26Z</time>
      </trkpt>
      <trkpt lat="43.86112" lon="4.14212">
        <ele>127.03</ele>
        <time>2016-05-01T13:14:27Z</time>
      </trkpt>
      <trkpt lat="43.86095" lon="4.14176">
        <ele>125.11</ele>
        <time>2016-05-01T13:14:28Z</time>
      </trkpt>
      <trkpt lat="43.86078" lon="4.14142">
        <ele>123.19</ele>
        <time>2016-05-01T13:14:29Z</time>
      </trkpt>
      <trkpt lat="43.85951" lon="4.1386">
        <ele>118.38</ele>
        <time>2016-05-01T13:14:37Z</time>
      </trkpt>
      <trkpt lat="43.85922" lon="4.13661">
        <ele>120.3</ele>
        <time>2016-05-01T13:14:42Z</time>
      </trkpt>
      <trkpt lat="43.8592" lon="4.13432">
        <ele>118.38</ele>
        <time>2016-05-01T13:14:49Z</time>
      </trkpt>
      <trkpt lat="43.85974" lon="4.13205">
        <ele>112.13</ele>
        <time>2016-05-01T13:14:57Z</time>
      </trkpt>
      <trkpt lat="43.85997" lon="4.13018">
        <ele>109.25</ele>
        <time>2016-05-01T13:15:03Z</time>
      </trkpt>
      <trkpt lat="43.85994" lon="4.12978">
        <ele>108.77</ele>
        <time>2016-05-01T13:15:04Z</time>
      </trkpt>
      <trkpt lat="43.85964" lon="4.12694">
        <ele>109.25</ele>
        <time>2016-05-01T13:15:11Z</time>
      </trkpt>
      <trkpt lat="43.85938" lon="4.12337">
        <ele>106.36</ele>
        <time>2016-05-01T13:15:20Z</time>
      </trkpt>
      <trkpt lat="43.85893" lon="4.11993">
        <ele>105.4</ele>
        <time>2016-05-01T13:15:29Z</time>
      </trkpt>
      <trkpt lat="43.85902" lon="4.11756">
        <ele>105.4</ele>
        <time>2016-05-01T13:15:36Z</time>
      </trkpt>
      <trkpt lat="43.8593" lon="4.11471">
        <ele>107.32</ele>
        <time>2016-05-01T13:15:46Z</time>
      </trkpt>
      <trkpt lat="43.85956" lon="4.11398">
        <ele>108.77</ele>
        <time>2016-05-01T13:15:49Z</time>
      </trkpt>
      <trkpt lat="43.85968" lon="4.11377">
        <ele>109.25</ele>
        <time>2016-05-01T13:15:50Z</time>
      </trkpt>
      <trkpt lat="43.86025" lon="4.11285">
        <ele>113.09</ele>
        <time>2016-05-01T13:15:55Z</time>
      </trkpt>
      <trkpt lat="43.86035" lon="4.11264">
        <ele>114.05</ele>
        <time>2016-05-01T13:15:56Z</time>
      </trkpt>
      <trkpt lat="43.86042" lon="4.1124">
        <ele>115.01</ele>
        <time>2016-05-01T13:15:57Z</time>
      </trkpt>
      <trkpt lat="43.86048" lon="4.11215">
        <ele>115.5</ele>
        <time>2016-05-01T13:15:58Z</time>
      </trkpt>
      <trkpt lat="43.86053" lon="4.11188">
        <ele>115.98</ele>
        <time>2016-05-01T13:15:59Z</time>
      </trkpt>
      <trkpt lat="43.86057" lon="4.1116">
        <ele>116.94</ele>
        <time>2016-05-01T13:16:00Z</time>
      </trkpt>
      <trkpt lat="43.86076" lon="4.10956">
        <ele>120.78</ele>
        <time>2016-05-01T13:16:06Z</time>
      </trkpt>
      <trkpt lat="43.86105" lon="4.10791">
        <ele>126.07</ele>
        <time>2016-05-01T13:16:11Z</time>
      </trkpt>
      <trkpt lat="43.86186" lon="4.10556">
        <ele>132.8</ele>
        <time>2016-05-01T13:16:19Z</time>
      </trkpt>
      <trkpt lat="43.86286" lon="4.10375">
        <ele>134.24</ele>
        <time>2016-05-01T13:16:25Z</time>
      </trkpt>
      <trkpt lat="43.86414" lon="4.10256">
        <ele>133.28</ele>
        <time>2016-05-01T13:16:30Z</time>
      </trkpt>
      <trkpt lat="43.8656" lon="4.10207">
        <ele>128.95</ele>
        <time>2016-05-01T13:16:35Z</time>
      </trkpt>
      <trkpt lat="43.86762" lon="4.1021">
        <ele>123.19</ele>
        <time>2016-05-01T13:16:42Z</time>
      </trkpt>
      <trkpt lat="43.8679" lon="4.10206">
        <ele>122.22</ele>
        <time>2016-05-01T13:16:43Z</time>
      </trkpt>
      <trkpt lat="43.86816" lon="4.10199">
        <ele>121.74</ele>
        <time>2016-05-01T13:16:44Z</time>
      </trkpt>
      <trkpt lat="43.8684" lon="4.10189">
        <ele>120.78</ele>
        <time>2016-05-01T13:16:45Z</time>
      </trkpt>
      <trkpt lat="43.86862" lon="4.10175">
        <ele>120.3</ele>
        <time>2016-05-01T13:16:46Z</time>
      </trkpt>
      <trkpt lat="43.86884" lon="4.10159">
        <ele>119.82</ele>
        <time>2016-05-01T13:16:47Z</time>
      </trkpt>
      <trkpt lat="43.86903" lon="4.1014">
        <ele>119.34</ele>
        <time>2016-05-01T13:16:48Z</time>
      </trkpt>
      <trkpt lat="43.8692" lon="4.10119">
        <ele>118.86</ele>
        <time>2016-05-01T13:16:49Z</time>
      </trkpt>
      <trkpt lat="43.86934" lon="4.10099">
        <ele>118.86</ele>
        <time>2016-05-01T13:16:50Z</time>
      </trkpt>
      <trkpt lat="43.86946" lon="4.10079">
        <ele>118.38</ele>
        <time>2016-05-01T13:16:51Z</time>
      </trkpt>
      <trkpt lat="43.87001" lon="4.09996">
        <ele>118.38</ele>
        <time>2016-05-01T13:16:57Z</time>
      </trkpt>
      <trkpt lat="43.87016" lon="4.09981">
        <ele>118.38</ele>
        <time>2016-05-01T13:16:59Z</time>
      </trkpt>
      <trkpt lat="43.87024" lon="4.09977">
        <ele>118.86</ele>
        <time>2016-05-01T13:17:00Z</time>
      </trkpt>
      <trkpt lat="43.87032" lon="4.09974">
        <ele>118.86</ele>
        <time>2016-05-01T13:17:01Z</time>
      </trkpt>
      <trkpt lat="43.87041" lon="4.0997">
        <ele>118.86</ele>
        <time>2016-05-01T13:17:02Z</time>
      </trkpt>
      <trkpt lat="43.87046" lon="4.09963">
        <ele>119.34</ele>
        <time>2016-05-01T13:17:03Z</time>
      </trkpt>
      <trkpt lat="43.87049" lon="4.09953">
        <ele>119.34</ele>
        <time>2016-05-01T13:17:04Z</time>
      </trkpt>
      <trkpt lat="43.87049" lon="4.09939">
        <ele>118.86</ele>
        <time>2016-05-01T13:17:05Z</time>
      </trkpt>
      <trkpt lat="43.87046" lon="4.09926">
        <ele>118.86</ele>
        <time>2016-05-01T13:17:06Z</time>
      </trkpt>
      <trkpt lat="43.87043" lon="4.09913">
        <ele>118.38</ele>
        <time>2016-05-01T13:17:07Z</time>
      </trkpt>
      <trkpt lat="43.87041" lon="4.099">
        <ele>118.38</ele>
        <time>2016-05-01T13:17:08Z</time>
      </trkpt>
      <trkpt lat="43.87043" lon="4.09885">
        <ele>117.9</ele>
        <time>2016-05-01T13:17:09Z</time>
      </trkpt>
      <trkpt lat="43.87048" lon="4.0987">
        <ele>117.9</ele>
        <time>2016-05-01T13:17:10Z</time>
      </trkpt>
      <trkpt lat="43.87055" lon="4.09854">
        <ele>117.9</ele>
        <time>2016-05-01T13:17:11Z</time>
      </trkpt>
      <trkpt lat="43.87063" lon="4.09838">
        <ele>118.38</ele>
        <time>2016-05-01T13:17:12Z</time>
      </trkpt>
      <trkpt lat="43.87086" lon="4.09784">
        <ele>118.38</ele>
        <time>2016-05-01T13:17:15Z</time>
      </trkpt>
      <trkpt lat="43.87091" lon="4.09764">
        <ele>118.38</ele>
        <time>2016-05-01T13:17:16Z</time>
      </trkpt>
      <trkpt lat="43.87095" lon="4.09742">
        <ele>117.9</ele>
        <time>2016-05-01T13:17:17Z</time>
      </trkpt>
      <trkpt lat="43.87097" lon="4.09719">
        <ele>117.9</ele>
        <time>2016-05-01T13:17:18Z</time>
      </trkpt>
      <trkpt lat="43.87097" lon="4.09695">
        <ele>117.42</ele>
        <time>2016-05-01T13:17:19Z</time>
      </trkpt>
      <trkpt lat="43.87098" lon="4.09668">
        <ele>117.42</ele>
        <time>2016-05-01T13:17:20Z</time>
      </trkpt>
      <trkpt lat="43.87072" lon="4.09461">
        <ele>112.61</ele>
        <time>2016-05-01T13:17:27Z</time>
      </trkpt>
      <trkpt lat="43.86997" lon="4.09289">
        <ele>103.96</ele>
        <time>2016-05-01T13:17:33Z</time>
      </trkpt>
      <trkpt lat="43.8694" lon="4.0911">
        <ele>94.35</ele>
        <time>2016-05-01T13:17:39Z</time>
      </trkpt>
      <trkpt lat="43.86934" lon="4.09021">
        <ele>89.54</ele>
        <time>2016-05-01T13:17:42Z</time>
      </trkpt>
      <trkpt lat="43.86936" lon="4.08993">
        <ele>87.62</ele>
        <time>2016-05-01T13:17:43Z</time>
      </trkpt>
      <trkpt lat="43.86939" lon="4.08965">
        <ele>85.69</ele>
        <time>2016-05-01T13:17:44Z</time>
      </trkpt>
      <trkpt lat="43.86982" lon="4.0876">
        <ele>73.2</ele>
        <time>2016-05-01T13:17:50Z</time>
      </trkpt>
      <trkpt lat="43.87074" lon="4.08445">
        <ele>60.7</ele>
        <time>2016-05-01T13:17:59Z</time>
      </trkpt>
      <trkpt lat="43.87196" lon="4.08199">
        <ele>52.53</ele>
        <time>2016-05-01T13:18:07Z</time>
      </trkpt>
      <trkpt lat="43.87301" lon="4.07946">
        <ele>48.68</ele>
        <time>2016-05-01T13:18:15Z</time>
      </trkpt>
      <trkpt lat="43.87349" lon="4.07854">
        <ele>46.76</ele>
        <time>2016-05-01T13:18:18Z</time>
      </trkpt>
      <trkpt lat="43.8737" lon="4.07826">
        <ele>46.28</ele>
        <time>2016-05-01T13:18:19Z</time>
      </trkpt>
      <trkpt lat="43.87583" lon="4.07563">
        <ele>43.88</ele>
        <time>2016-05-01T13:18:29Z</time>
      </trkpt>
      <trkpt lat="43.87688" lon="4.07383">
        <ele>45.32</ele>
        <time>2016-05-01T13:18:35Z</time>
      </trkpt>
      <trkpt lat="43.87856" lon="4.07022">
        <ele>47.72</ele>
        <time>2016-05-01T13:18:46Z</time>
      </trkpt>
      <trkpt lat="43.87862" lon="4.06983">
        <ele>48.2</ele>
        <time>2016-05-01T13:18:47Z</time>
      </trkpt>
      <trkpt lat="43.87865" lon="4.06943">
        <ele>48.2</ele>
        <time>2016-05-01T13:18:48Z</time>
      </trkpt>
      <trkpt lat="43.87866" lon="4.06904">
        <ele>48.68</ele>
        <time>2016-05-01T13:18:49Z</time>
      </trkpt>
      <trkpt lat="43.87865" lon="4.06866">
        <ele>48.68</ele>
        <time>2016-05-01T13:18:50Z</time>
      </trkpt>
      <trkpt lat="43.87871" lon="4.0662">
        <ele>48.68</ele>
        <time>2016-05-01T13:18:57Z</time>
      </trkpt>
      <trkpt lat="43.87843" lon="4.06394">
        <ele>48.2</ele>
        <time>2016-05-01T13:19:03Z</time>
      </trkpt>
      <trkpt lat="43.87813" lon="4.06203">
        <ele>49.65</ele>
        <time>2016-05-01T13:19:08Z</time>
      </trkpt>
      <trkpt lat="43.878" lon="4.06168">
        <ele>50.13</ele>
        <time>2016-05-01T13:19:09Z</time>
      </trkpt>
      <trkpt lat="43.87786" lon="4.06134">
        <ele>50.61</ele>
        <time>2016-05-01T13:19:10Z</time>
      </trkpt>
      <trkpt lat="43.8771" lon="4.05904">
        <ele>53.97</ele>
        <time>2016-05-01T13:19:17Z</time>
      </trkpt>
      <trkpt lat="43.87693" lon="4.05667">
        <ele>64.07</ele>
        <time>2016-05-01T13:19:24Z</time>
      </trkpt>
      <trkpt lat="43.87701" lon="4.05633">
        <ele>65.03</ele>
        <time>2016-05-01T13:19:25Z</time>
      </trkpt>
      <trkpt lat="43.87717" lon="4.05605">
        <ele>65.03</ele>
        <time>2016-05-01T13:19:26Z</time>
      </trkpt>
      <trkpt lat="43.8774" lon="4.05584">
        <ele>65.03</ele>
        <time>2016-05-01T13:19:27Z</time>
      </trkpt>
      <trkpt lat="43.87761" lon="4.0556">
        <ele>66.47</ele>
        <time>2016-05-01T13:19:28Z</time>
      </trkpt>
      <trkpt lat="43.87783" lon="4.05538">
        <ele>66.95</ele>
        <time>2016-05-01T13:19:29Z</time>
      </trkpt>
      <trkpt lat="43.87804" lon="4.05516">
        <ele>66.95</ele>
        <time>2016-05-01T13:19:30Z</time>
      </trkpt>
      <trkpt lat="43.87937" lon="4.05325">
        <ele>63.1</ele>
        <time>2016-05-01T13:19:37Z</time>
      </trkpt>
      <trkpt lat="43.88096" lon="4.05156">
        <ele>62.62</ele>
        <time>2016-05-01T13:19:44Z</time>
      </trkpt>
      <trkpt lat="43.88212" lon="4.05002">
        <ele>62.62</ele>
        <time>2016-05-01T13:19:50Z</time>
      </trkpt>
      <trkpt lat="43.88319" lon="4.04834">
        <ele>60.7</ele>
        <time>2016-05-01T13:19:57Z</time>
      </trkpt>
      <trkpt lat="43.88388" lon="4.04652">
        <ele>61.18</ele>
        <time>2016-05-01T13:20:04Z</time>
      </trkpt>
      <trkpt lat="43.88392" lon="4.04623">
        <ele>61.66</ele>
        <time>2016-05-01T13:20:05Z</time>
      </trkpt>
      <trkpt lat="43.88394" lon="4.04594">
        <ele>62.14</ele>
        <time>2016-05-01T13:20:06Z</time>
      </trkpt>
      <trkpt lat="43.88393" lon="4.04565">
        <ele>62.14</ele>
        <time>2016-05-01T13:20:07Z</time>
      </trkpt>
      <trkpt lat="43.88391" lon="4.04535">
        <ele>61.66</ele>
        <time>2016-05-01T13:20:08Z</time>
      </trkpt>
      <trkpt lat="43.88387" lon="4.04505">
        <ele>61.66</ele>
        <time>2016-05-01T13:20:09Z</time>
      </trkpt>
      <trkpt lat="43.88369" lon="4.04309">
        <ele>62.62</ele>
        <time>2016-05-01T13:20:15Z</time>
      </trkpt>
      <trkpt lat="43.88372" lon="4.04276">
        <ele>63.58</ele>
        <time>2016-05-01T13:20:16Z</time>
      </trkpt>
      <trkpt lat="43.88377" lon="4.04243">
        <ele>64.07</ele>
        <time>2016-05-01T13:20:17Z</time>
      </trkpt>
      <trkpt lat="43.88385" lon="4.04211">
        <ele>64.55</ele>
        <time>2016-05-01T13:20:18Z</time>
      </trkpt>
      <trkpt lat="43.88395" lon="4.04181">
        <ele>65.03</ele>
        <time>2016-05-01T13:20:19Z</time>
      </trkpt>
      <trkpt lat="43.88407" lon="4.04152">
        <ele>65.51</ele>
        <time>2016-05-01T13:20:20Z</time>
      </trkpt>
      <trkpt lat="43.88422" lon="4.04126">
        <ele>65.51</ele>
        <time>2016-05-01T13:20:21Z</time>
      </trkpt>
      <trkpt lat="43.88437" lon="4.04103">
        <ele>65.99</ele>
        <time>2016-05-01T13:20:22Z</time>
      </trkpt>
      <trkpt lat="43.88453" lon="4.04082">
        <ele>65.51</ele>
        <time>2016-05-01T13:20:23Z</time>
      </trkpt>
      <trkpt lat="43.88549" lon="4.03926">
        <ele>60.7</ele>
        <time>2016-05-01T13:20:30Z</time>
      </trkpt>
      <trkpt lat="43.88599" lon="4.03726">
        <ele>59.74</ele>
        <time>2016-05-01T13:20:37Z</time>
      </trkpt>
      <trkpt lat="43.88676" lon="4.03396">
        <ele>61.18</ele>
        <time>2016-05-01T13:20:48Z</time>
      </trkpt>
      <trkpt lat="43.88748" lon="4.03094">
        <ele>63.58</ele>
        <time>2016-05-01T13:20:59Z</time>
      </trkpt>
      <trkpt lat="43.88765" lon="4.02991">
        <ele>64.55</ele>
        <time>2016-05-01T13:21:03Z</time>
      </trkpt>
      <trkpt lat="43.88766" lon="4.02963">
        <ele>65.03</ele>
        <time>2016-05-01T13:21:04Z</time>
      </trkpt>
      <trkpt lat="43.88764" lon="4.02934">
        <ele>65.03</ele>
        <time>2016-05-01T13:21:05Z</time>
      </trkpt>
      <trkpt lat="43.8876" lon="4.02904">
        <ele>65.03</ele>
        <time>2016-05-01T13:21:06Z</time>
      </trkpt>
      <trkpt lat="43.88754" lon="4.02874">
        <ele>65.03</ele>
        <time>2016-05-01T13:21:07Z</time>
      </trkpt>
      <trkpt lat="43.88741" lon="4.02846">
        <ele>65.03</ele>
        <time>2016-05-01T13:21:08Z</time>
      </trkpt>
      <trkpt lat="43.88727" lon="4.02817">
        <ele>65.03</ele>
        <time>2016-05-01T13:21:09Z</time>
      </trkpt>
      <trkpt lat="43.8871" lon="4.02788">
        <ele>65.51</ele>
        <time>2016-05-01T13:21:10Z</time>
      </trkpt>
      <trkpt lat="43.88692" lon="4.02759">
        <ele>65.99</ele>
        <time>2016-05-01T13:21:11Z</time>
      </trkpt>
      <trkpt lat="43.88554" lon="4.02468">
        <ele>73.2</ele>
        <time>2016-05-01T13:21:20Z</time>
      </trkpt>
      <trkpt lat="43.88519" lon="4.02244">
        <ele>82.33</ele>
        <time>2016-05-01T13:21:26Z</time>
      </trkpt>
      <trkpt lat="43.88533" lon="4.0201">
        <ele>85.21</ele>
        <time>2016-05-01T13:21:32Z</time>
      </trkpt>
      <trkpt lat="43.88601" lon="4.01787">
        <ele>80.41</ele>
        <time>2016-05-01T13:21:38Z</time>
      </trkpt>
      <trkpt lat="43.88699" lon="4.01628">
        <ele>74.64</ele>
        <time>2016-05-01T13:21:43Z</time>
      </trkpt>
      <trkpt lat="43.88886" lon="4.01423">
        <ele>72.24</ele>
        <time>2016-05-01T13:21:51Z</time>
      </trkpt>
      <trkpt lat="43.89096" lon="4.01245">
        <ele>71.76</ele>
        <time>2016-05-01T13:22:00Z</time>
      </trkpt>
      <trkpt lat="43.89193" lon="4.01179">
        <ele>72.72</ele>
        <time>2016-05-01T13:22:06Z</time>
      </trkpt>
      <trkpt lat="43.89204" lon="4.01177">
        <ele>73.2</ele>
        <time>2016-05-01T13:22:07Z</time>
      </trkpt>
      <trkpt lat="43.89221" lon="4.01174">
        <ele>73.68</ele>
        <time>2016-05-01T13:22:09Z</time>
      </trkpt>
      <trkpt lat="43.89228" lon="4.01167">
        <ele>73.68</ele>
        <time>2016-05-01T13:22:10Z</time>
      </trkpt>
      <trkpt lat="43.89248" lon="4.01145">
        <ele>73.68</ele>
        <time>2016-05-01T13:22:12Z</time>
      </trkpt>
      <trkpt lat="43.89261" lon="4.01134">
        <ele>73.68</ele>
        <time>2016-05-01T13:22:13Z</time>
      </trkpt>
      <trkpt lat="43.89351" lon="4.01064">
        <ele>73.68</ele>
        <time>2016-05-01T13:22:18Z</time>
      </trkpt>
      <trkpt lat="43.89518" lon="4.009">
        <ele>73.68</ele>
        <time>2016-05-01T13:22:26Z</time>
      </trkpt>
      <trkpt lat="43.89703" lon="4.00772">
        <ele>74.16</ele>
        <time>2016-05-01T13:22:33Z</time>
      </trkpt>
      <trkpt lat="43.89924" lon="4.00689">
        <ele>74.64</ele>
        <time>2016-05-01T13:22:41Z</time>
      </trkpt>
      <trkpt lat="43.90108" lon="4.00647">
        <ele>75.12</ele>
        <time>2016-05-01T13:22:49Z</time>
      </trkpt>
      <trkpt lat="43.90232" lon="4.00619">
        <ele>75.6</ele>
        <time>2016-05-01T13:22:56Z</time>
      </trkpt>
      <trkpt lat="43.90357" lon="4.00592">
        <ele>75.6</ele>
        <time>2016-05-01T13:23:06Z</time>
      </trkpt>
      <trkpt lat="43.90493" lon="4.00551">
        <ele>75.12</ele>
        <time>2016-05-01T13:23:18Z</time>
      </trkpt>
      <trkpt lat="43.90562" lon="4.00525">
        <ele>75.12</ele>
        <time>2016-05-01T13:23:25Z</time>
      </trkpt>
      <trkpt lat="43.90571" lon="4.0052">
        <ele>75.12</ele>
        <time>2016-05-01T13:23:26Z</time>
      </trkpt>
      <trkpt lat="43.90579" lon="4.00515">
        <ele>75.12</ele>
        <time>2016-05-01T13:23:27Z</time>
      </trkpt>
      <trkpt lat="43.90588" lon="4.00511">
        <ele>75.12</ele>
        <time>2016-05-01T13:23:28Z</time>
      </trkpt>
      <trkpt lat="43.90597" lon="4.00509">
        <ele>75.12</ele>
        <time>2016-05-01T13:23:29Z</time>
      </trkpt>
      <trkpt lat="43.90606" lon="4.00504">
        <ele>75.12</ele>
        <time>2016-05-01T13:23:30Z</time>
      </trkpt>
      <trkpt lat="43.90612" lon="4.00493">
        <ele>75.12</ele>
        <time>2016-05-01T13:23:31Z</time>
      </trkpt>
      <trkpt lat="43.90614" lon="4.00479">
        <ele>74.64</ele>
        <time>2016-05-01T13:23:32Z</time>
      </trkpt>
      <trkpt lat="43.90612" lon="4.00463">
        <ele>74.64</ele>
        <time>2016-05-01T13:23:33Z</time>
      </trkpt>
      <trkpt lat="43.90605" lon="4.00449">
        <ele>74.16</ele>
        <time>2016-05-01T13:23:34Z</time>
      </trkpt>
      <trkpt lat="43.90595" lon="4.00439">
        <ele>74.16</ele>
        <time>2016-05-01T13:23:35Z</time>
      </trkpt>
      <trkpt lat="43.90581" lon="4.00434">
        <ele>74.16</ele>
        <time>2016-05-01T13:23:36Z</time>
      </trkpt>
      <trkpt lat="43.90566" lon="4.00428">
        <ele>74.16</ele>
        <time>2016-05-01T13:23:37Z</time>
      </trkpt>
      <trkpt lat="43.90552" lon="4.00418">
        <ele>74.16</ele>
        <time>2016-05-01T13:23:38Z</time>
      </trkpt>
      <trkpt lat="43.90539" lon="4.00405">
        <ele>74.16</ele>
        <time>2016-05-01T13:23:39Z</time>
      </trkpt>
      <trkpt lat="43.90418" lon="4.00247">
        <ele>75.6</ele>
        <time>2016-05-01T13:23:49Z</time>
      </trkpt>
      <trkpt lat="43.90336" lon="4.00135">
        <ele>77.04</ele>
        <time>2016-05-01T13:23:58Z</time>
      </trkpt>
      <trkpt lat="43.90331" lon="4.00123">
        <ele>77.04</ele>
        <time>2016-05-01T13:23:59Z</time>
      </trkpt>
      <trkpt lat="43.90325" lon="4.00111">
        <ele>77.04</ele>
        <time>2016-05-01T13:24:00Z</time>
      </trkpt>
      <trkpt lat="43.90318" lon="4.00105">
        <ele>77.04</ele>
        <time>2016-05-01T13:24:01Z</time>
      </trkpt>
      <trkpt lat="43.90311" lon="4.00103">
        <ele>77.04</ele>
        <time>2016-05-01T13:24:02Z</time>
      </trkpt>
      <trkpt lat="43.90302" lon="4.00106">
        <ele>76.56</ele>
        <time>2016-05-01T13:24:03Z</time>
      </trkpt>
      <trkpt lat="43.90295" lon="4.00114">
        <ele>76.56</ele>
        <time>2016-05-01T13:24:04Z</time>
      </trkpt>
      <trkpt lat="43.90288" lon="4.00125">
        <ele>76.08</ele>
        <time>2016-05-01T13:24:05Z</time>
      </trkpt>
      <trkpt lat="43.9028" lon="4.00133">
        <ele>76.56</ele>
        <time>2016-05-01T13:24:06Z</time>
      </trkpt>
      <trkpt lat="43.9027" lon="4.00136">
        <ele>76.08</ele>
        <time>2016-05-01T13:24:07Z</time>
      </trkpt>
      <trkpt lat="43.90258" lon="4.0013">
        <ele>76.08</ele>
        <time>2016-05-01T13:24:08Z</time>
      </trkpt>
      <trkpt lat="43.90245" lon="4.00123">
        <ele>76.08</ele>
        <time>2016-05-01T13:24:09Z</time>
      </trkpt>
      <trkpt lat="43.90232" lon="4.00117">
        <ele>75.6</ele>
        <time>2016-05-01T13:24:10Z</time>
      </trkpt>
      <trkpt lat="43.90216" lon="4.00115">
        <ele>75.6</ele>
        <time>2016-05-01T13:24:11Z</time>
      </trkpt>
      <trkpt lat="43.90199" lon="4.00114">
        <ele>75.12</ele>
        <time>2016-05-01T13:24:12Z</time>
      </trkpt>
      <trkpt lat="43.90038" lon="4.00118">
        <ele>71.27</ele>
        <time>2016-05-01T13:24:21Z</time>
      </trkpt>
      <trkpt lat="43.89854" lon="4.00162">
        <ele>71.76</ele>
        <time>2016-05-01T13:24:29Z</time>
      </trkpt>
      <trkpt lat="43.89622" lon="4.00238">
        <ele>71.76</ele>
        <time>2016-05-01T13:24:38Z</time>
      </trkpt>
      <trkpt lat="43.89441" lon="4.00273">
        <ele>72.24</ele>
        <time>2016-05-01T13:24:45Z</time>
      </trkpt>
      <trkpt lat="43.89395" lon="4.0028">
        <ele>72.24</ele>
        <time>2016-05-01T13:24:47Z</time>
      </trkpt>
      <trkpt lat="43.89371" lon="4.00275">
        <ele>72.72</ele>
        <time>2016-05-01T13:24:48Z</time>
      </trkpt>
      <trkpt lat="43.89346" lon="4.00267">
        <ele>72.72</ele>
        <time>2016-05-01T13:24:49Z</time>
      </trkpt>
      <trkpt lat="43.89323" lon="4.00254">
        <ele>73.2</ele>
        <time>2016-05-01T13:24:50Z</time>
      </trkpt>
      <trkpt lat="43.89303" lon="4.00235">
        <ele>73.2</ele>
        <time>2016-05-01T13:24:51Z</time>
      </trkpt>
      <trkpt lat="43.89286" lon="4.00213">
        <ele>73.68</ele>
        <time>2016-05-01T13:24:52Z</time>
      </trkpt>
      <trkpt lat="43.89271" lon="4.00193">
        <ele>74.16</ele>
        <time>2016-05-01T13:24:53Z</time>
      </trkpt>
      <trkpt lat="43.89256" lon="4.00176">
        <ele>74.64</ele>
        <time>2016-05-01T13:24:54Z</time>
      </trkpt>
      <trkpt lat="43.89239" lon="4.00163">
        <ele>74.64</ele>
        <time>2016-05-01T13:24:55Z</time>
      </trkpt>
      <trkpt lat="43.8922" lon="4.00155">
        <ele>74.64</ele>
        <time>2016-05-01T13:24:56Z</time>
      </trkpt>
      <trkpt lat="43.89199" lon="4.00156">
        <ele>75.6</ele>
        <time>2016-05-01T13:24:57Z</time>
      </trkpt>
      <trkpt lat="43.89177" lon="4.00157">
        <ele>76.08</ele>
        <time>2016-05-01T13:24:58Z</time>
      </trkpt>
      <trkpt lat="43.89155" lon="4.00158">
        <ele>76.56</ele>
        <time>2016-05-01T13:24:59Z</time>
      </trkpt>
      <trkpt lat="43.88974" lon="4.00176">
        <ele>76.56</ele>
        <time>2016-05-01T13:25:07Z</time>
      </trkpt>
      <trkpt lat="43.88932" lon="4.00197">
        <ele>74.64</ele>
        <time>2016-05-01T13:25:09Z</time>
      </trkpt>
      <trkpt lat="43.88914" lon="4.00216">
        <ele>74.16</ele>
        <time>2016-05-01T13:25:10Z</time>
      </trkpt>
      <trkpt lat="43.88896" lon="4.00238">
        <ele>73.68</ele>
        <time>2016-05-01T13:25:11Z</time>
      </trkpt>
      <trkpt lat="43.88879" lon="4.00261">
        <ele>73.2</ele>
        <time>2016-05-01T13:25:12Z</time>
      </trkpt>
      <trkpt lat="43.88864" lon="4.00287">
        <ele>72.72</ele>
        <time>2016-05-01T13:25:13Z</time>
      </trkpt>
      <trkpt lat="43.8885" lon="4.00314">
        <ele>72.24</ele>
        <time>2016-05-01T13:25:14Z</time>
      </trkpt>
      <trkpt lat="43.88798" lon="4.00391">
        <ele>70.79</ele>
        <time>2016-05-01T13:25:17Z</time>
      </trkpt>
      <trkpt lat="43.88776" lon="4.00412">
        <ele>70.31</ele>
        <time>2016-05-01T13:25:18Z</time>
      </trkpt>
      <trkpt lat="43.88751" lon="4.00428">
        <ele>69.83</ele>
        <time>2016-05-01T13:25:19Z</time>
      </trkpt>
      <trkpt lat="43.88698" lon="4.00466">
        <ele>69.35</ele>
        <time>2016-05-01T13:25:21Z</time>
      </trkpt>
      <trkpt lat="43.88672" lon="4.00491">
        <ele>68.87</ele>
        <time>2016-05-01T13:25:22Z</time>
      </trkpt>
      <trkpt lat="43.88451" lon="4.00682">
        <ele>68.87</ele>
        <time>2016-05-01T13:25:30Z</time>
      </trkpt>
      <trkpt lat="43.88351" lon="4.0075">
        <ele>69.35</ele>
        <time>2016-05-01T13:25:34Z</time>
      </trkpt>
      <trkpt lat="43.88324" lon="4.00756">
        <ele>69.83</ele>
        <time>2016-05-01T13:25:35Z</time>
      </trkpt>
      <trkpt lat="43.88297" lon="4.00757">
        <ele>69.83</ele>
        <time>2016-05-01T13:25:36Z</time>
      </trkpt>
      <trkpt lat="43.88269" lon="4.00753">
        <ele>70.31</ele>
        <time>2016-05-01T13:25:37Z</time>
      </trkpt>
      <trkpt lat="43.88241" lon="4.00743">
        <ele>70.31</ele>
        <time>2016-05-01T13:25:38Z</time>
      </trkpt>
      <trkpt lat="43.88214" lon="4.00733">
        <ele>68.87</ele>
        <time>2016-05-01T13:25:39Z</time>
      </trkpt>
      <trkpt lat="43.88161" lon="4.00721">
        <ele>67.91</ele>
        <time>2016-05-01T13:25:41Z</time>
      </trkpt>
      <trkpt lat="43.88135" lon="4.0072">
        <ele>67.91</ele>
        <time>2016-05-01T13:25:42Z</time>
      </trkpt>
      <trkpt lat="43.88109" lon="4.00721">
        <ele>67.91</ele>
        <time>2016-05-01T13:25:43Z</time>
      </trkpt>
      <trkpt lat="43.88085" lon="4.00725">
        <ele>67.91</ele>
        <time>2016-05-01T13:25:44Z</time>
      </trkpt>
      <trkpt lat="43.88062" lon="4.00735">
        <ele>68.39</ele>
        <time>2016-05-01T13:25:45Z</time>
      </trkpt>
      <trkpt lat="43.8804" lon="4.0075">
        <ele>68.87</ele>
        <time>2016-05-01T13:25:46Z</time>
      </trkpt>
      <trkpt lat="43.8802" lon="4.0077">
        <ele>69.35</ele>
        <time>2016-05-01T13:25:47Z</time>
      </trkpt>
      <trkpt lat="43.88002" lon="4.00794">
        <ele>69.83</ele>
        <time>2016-05-01T13:25:48Z</time>
      </trkpt>
      <trkpt lat="43.87986" lon="4.00822">
        <ele>70.31</ele>
        <time>2016-05-01T13:25:49Z</time>
      </trkpt>
      <trkpt lat="43.87971" lon="4.00852">
        <ele>70.79</ele>
        <time>2016-05-01T13:25:50Z</time>
      </trkpt>
      <trkpt lat="43.87956" lon="4.00882">
        <ele>70.79</ele>
        <time>2016-05-01T13:25:51Z</time>
      </trkpt>
      <trkpt lat="43.87802" lon="4.011">
        <ele>74.64</ele>
        <time>2016-05-01T13:25:59Z</time>
      </trkpt>
      <trkpt lat="43.87668" lon="4.01247">
        <ele>78.48</ele>
        <time>2016-05-01T13:26:06Z</time>
      </trkpt>
      <trkpt lat="43.8765" lon="4.01256">
        <ele>79.45</ele>
        <time>2016-05-01T13:26:07Z</time>
      </trkpt>
      <trkpt lat="43.8763" lon="4.01263">
        <ele>79.93</ele>
        <time>2016-05-01T13:26:08Z</time>
      </trkpt>
      <trkpt lat="43.87473" lon="4.01319">
        <ele>79.45</ele>
        <time>2016-05-01T13:26:16Z</time>
      </trkpt>
      <trkpt lat="43.8739" lon="4.01358">
        <ele>78</ele>
        <time>2016-05-01T13:26:20Z</time>
      </trkpt>
      <trkpt lat="43.87369" lon="4.01376">
        <ele>77.52</ele>
        <time>2016-05-01T13:26:21Z</time>
      </trkpt>
      <trkpt lat="43.87346" lon="4.014">
        <ele>77.04</ele>
        <time>2016-05-01T13:26:22Z</time>
      </trkpt>
      <trkpt lat="43.87185" lon="4.01565">
        <ele>69.83</ele>
        <time>2016-05-01T13:26:29Z</time>
      </trkpt>
      <trkpt lat="43.87156" lon="4.01579">
        <ele>67.91</ele>
        <time>2016-05-01T13:26:30Z</time>
      </trkpt>
      <trkpt lat="43.87126" lon="4.01587">
        <ele>66.47</ele>
        <time>2016-05-01T13:26:31Z</time>
      </trkpt>
      <trkpt lat="43.87096" lon="4.01588">
        <ele>65.51</ele>
        <time>2016-05-01T13:26:32Z</time>
      </trkpt>
      <trkpt lat="43.87064" lon="4.01585">
        <ele>65.51</ele>
        <time>2016-05-01T13:26:33Z</time>
      </trkpt>
      <trkpt lat="43.87034" lon="4.01582">
        <ele>65.51</ele>
        <time>2016-05-01T13:26:34Z</time>
      </trkpt>
      <trkpt lat="43.86807" lon="4.01546">
        <ele>68.39</ele>
        <time>2016-05-01T13:26:42Z</time>
      </trkpt>
      <trkpt lat="43.86778" lon="4.01551">
        <ele>68.87</ele>
        <time>2016-05-01T13:26:43Z</time>
      </trkpt>
      <trkpt lat="43.86548" lon="4.01607">
        <ele>69.35</ele>
        <time>2016-05-01T13:26:51Z</time>
      </trkpt>
      <trkpt lat="43.86385" lon="4.01678">
        <ele>72.24</ele>
        <time>2016-05-01T13:26:57Z</time>
      </trkpt>
      <trkpt lat="43.86333" lon="4.01705">
        <ele>75.12</ele>
        <time>2016-05-01T13:26:59Z</time>
      </trkpt>
      <trkpt lat="43.86306" lon="4.01712">
        <ele>76.08</ele>
        <time>2016-05-01T13:27:00Z</time>
      </trkpt>
      <trkpt lat="43.86278" lon="4.01714">
        <ele>77.52</ele>
        <time>2016-05-01T13:27:01Z</time>
      </trkpt>
      <trkpt lat="43.86248" lon="4.0171">
        <ele>78.48</ele>
        <time>2016-05-01T13:27:02Z</time>
      </trkpt>
      <trkpt lat="43.86219" lon="4.01703">
        <ele>79.45</ele>
        <time>2016-05-01T13:27:03Z</time>
      </trkpt>
      <trkpt lat="43.86191" lon="4.01696">
        <ele>80.89</ele>
        <time>2016-05-01T13:27:04Z</time>
      </trkpt>
      <trkpt lat="43.86016" lon="4.01701">
        <ele>83.29</ele>
        <time>2016-05-01T13:27:10Z</time>
      </trkpt>
      <trkpt lat="43.85727" lon="4.01695">
        <ele>86.18</ele>
        <time>2016-05-01T13:27:20Z</time>
      </trkpt>
      <trkpt lat="43.85466" lon="4.01717">
        <ele>88.1</ele>
        <time>2016-05-01T13:27:29Z</time>
      </trkpt>
      <trkpt lat="43.85156" lon="4.01793">
        <ele>90.98</ele>
        <time>2016-05-01T13:27:40Z</time>
      </trkpt>
      <trkpt lat="43.84868" lon="4.01916">
        <ele>94.83</ele>
        <time>2016-05-01T13:27:51Z</time>
      </trkpt>
      <trkpt lat="43.84708" lon="4.02012">
        <ele>97.23</ele>
        <time>2016-05-01T13:27:58Z</time>
      </trkpt>
      <trkpt lat="43.84633" lon="4.02063">
        <ele>97.23</ele>
        <time>2016-05-01T13:28:01Z</time>
      </trkpt>
      <trkpt lat="43.84607" lon="4.02074">
        <ele>98.19</ele>
        <time>2016-05-01T13:28:02Z</time>
      </trkpt>
      <trkpt lat="43.84481" lon="4.0212">
        <ele>101.56</ele>
        <time>2016-05-01T13:28:08Z</time>
      </trkpt>
      <trkpt lat="43.84462" lon="4.02122">
        <ele>102.04</ele>
        <time>2016-05-01T13:28:09Z</time>
      </trkpt>
      <trkpt lat="43.84379" lon="4.02127">
        <ele>105.4</ele>
        <time>2016-05-01T13:28:14Z</time>
      </trkpt>
      <trkpt lat="43.84369" lon="4.02135">
        <ele>105.88</ele>
        <time>2016-05-01T13:28:15Z</time>
      </trkpt>
      <trkpt lat="43.84358" lon="4.02145">
        <ele>106.84</ele>
        <time>2016-05-01T13:28:16Z</time>
      </trkpt>
      <trkpt lat="43.84349" lon="4.02158">
        <ele>107.32</ele>
        <time>2016-05-01T13:28:17Z</time>
      </trkpt>
      <trkpt lat="43.8434" lon="4.02173">
        <ele>107.81</ele>
        <time>2016-05-01T13:28:18Z</time>
      </trkpt>
      <trkpt lat="43.84309" lon="4.02213">
        <ele>109.25</ele>
        <time>2016-05-01T13:28:21Z</time>
      </trkpt>
      <trkpt lat="43.84296" lon="4.02224">
        <ele>109.73</ele>
        <time>2016-05-01T13:28:22Z</time>
      </trkpt>
      <trkpt lat="43.84282" lon="4.02233">
        <ele>110.21</ele>
        <time>2016-05-01T13:28:23Z</time>
      </trkpt>
      <trkpt lat="43.84215" lon="4.02276">
        <ele>113.09</ele>
        <time>2016-05-01T13:28:28Z</time>
      </trkpt>
      <trkpt lat="43.84206" lon="4.02287">
        <ele>113.57</ele>
        <time>2016-05-01T13:28:29Z</time>
      </trkpt>
      <trkpt lat="43.84201" lon="4.02302">
        <ele>114.05</ele>
        <time>2016-05-01T13:28:30Z</time>
      </trkpt>
      <trkpt lat="43.84198" lon="4.02318">
        <ele>114.53</ele>
        <time>2016-05-01T13:28:31Z</time>
      </trkpt>
      <trkpt lat="43.84201" lon="4.02334">
        <ele>114.53</ele>
        <time>2016-05-01T13:28:32Z</time>
      </trkpt>
      <trkpt lat="43.84204" lon="4.02349">
        <ele>114.53</ele>
        <time>2016-05-01T13:28:33Z</time>
      </trkpt>
      <trkpt lat="43.84211" lon="4.02364">
        <ele>114.53</ele>
        <time>2016-05-01T13:28:34Z</time>
      </trkpt>
      <trkpt lat="43.84218" lon="4.02378">
        <ele>114.05</ele>
        <time>2016-05-01T13:28:35Z</time>
      </trkpt>
      <trkpt lat="43.84223" lon="4.02395">
        <ele>114.53</ele>
        <time>2016-05-01T13:28:36Z</time>
      </trkpt>
      <trkpt lat="43.84226" lon="4.02414">
        <ele>114.53</ele>
        <time>2016-05-01T13:28:37Z</time>
      </trkpt>
      <trkpt lat="43.84225" lon="4.02434">
        <ele>114.53</ele>
        <time>2016-05-01T13:28:38Z</time>
      </trkpt>
      <trkpt lat="43.84222" lon="4.02453">
        <ele>114.05</ele>
        <time>2016-05-01T13:28:39Z</time>
      </trkpt>
      <trkpt lat="43.84219" lon="4.02472">
        <ele>114.05</ele>
        <time>2016-05-01T13:28:40Z</time>
      </trkpt>
      <trkpt lat="43.84212" lon="4.02535">
        <ele>112.61</ele>
        <time>2016-05-01T13:28:43Z</time>
      </trkpt>
      <trkpt lat="43.84214" lon="4.02557">
        <ele>112.13</ele>
        <time>2016-05-01T13:28:44Z</time>
      </trkpt>
      <trkpt lat="43.84217" lon="4.02579">
        <ele>111.17</ele>
        <time>2016-05-01T13:28:45Z</time>
      </trkpt>
      <trkpt lat="43.84222" lon="4.02601">
        <ele>110.69</ele>
        <time>2016-05-01T13:28:46Z</time>
      </trkpt>
      <trkpt lat="43.84228" lon="4.02622">
        <ele>110.21</ele>
        <time>2016-05-01T13:28:47Z</time>
      </trkpt>
      <trkpt lat="43.84235" lon="4.02642">
        <ele>109.73</ele>
        <time>2016-05-01T13:28:48Z</time>
      </trkpt>
      <trkpt lat="43.84267" lon="4.02738">
        <ele>107.32</ele>
        <time>2016-05-01T13:28:53Z</time>
      </trkpt>
      <trkpt lat="43.84271" lon="4.02758">
        <ele>106.84</ele>
        <time>2016-05-01T13:28:54Z</time>
      </trkpt>
      <trkpt lat="43.84272" lon="4.02778">
        <ele>105.88</ele>
        <time>2016-05-01T13:28:55Z</time>
      </trkpt>
      <trkpt lat="43.84273" lon="4.02797">
        <ele>104.92</ele>
        <time>2016-05-01T13:28:56Z</time>
      </trkpt>
      <trkpt lat="43.8427" lon="4.02814">
        <ele>103.96</ele>
        <time>2016-05-01T13:28:57Z</time>
      </trkpt>
      <trkpt lat="43.84266" lon="4.02829">
        <ele>103</ele>
        <time>2016-05-01T13:28:58Z</time>
      </trkpt>
      <trkpt lat="43.84259" lon="4.02843">
        <ele>102.52</ele>
        <time>2016-05-01T13:28:59Z</time>
      </trkpt>
      <trkpt lat="43.84248" lon="4.02854">
        <ele>101.56</ele>
        <time>2016-05-01T13:29:00Z</time>
      </trkpt>
      <trkpt lat="43.84235" lon="4.02863">
        <ele>101.08</ele>
        <time>2016-05-01T13:29:01Z</time>
      </trkpt>
      <trkpt lat="43.84221" lon="4.02871">
        <ele>100.11</ele>
        <time>2016-05-01T13:29:02Z</time>
      </trkpt>
      <trkpt lat="43.84207" lon="4.02878">
        <ele>99.15</ele>
        <time>2016-05-01T13:29:03Z</time>
      </trkpt>
      <trkpt lat="43.8419" lon="4.02883">
        <ele>98.19</ele>
        <time>2016-05-01T13:29:04Z</time>
      </trkpt>
      <trkpt lat="43.84173" lon="4.02886">
        <ele>97.71</ele>
        <time>2016-05-01T13:29:05Z</time>
      </trkpt>
      <trkpt lat="43.84156" lon="4.0289">
        <ele>96.75</ele>
        <time>2016-05-01T13:29:06Z</time>
      </trkpt>
      <trkpt lat="43.84038" lon="4.02911">
        <ele>90.02</ele>
        <time>2016-05-01T13:29:11Z</time>
      </trkpt>
      <trkpt lat="43.83993" lon="4.02927">
        <ele>86.66</ele>
        <time>2016-05-01T13:29:13Z</time>
      </trkpt>
      <trkpt lat="43.83972" lon="4.02943">
        <ele>84.73</ele>
        <time>2016-05-01T13:29:14Z</time>
      </trkpt>
      <trkpt lat="43.83949" lon="4.02967">
        <ele>82.81</ele>
        <time>2016-05-01T13:29:15Z</time>
      </trkpt>
      <trkpt lat="43.83839" lon="4.03079">
        <ele>76.56</ele>
        <time>2016-05-01T13:29:19Z</time>
      </trkpt>
      <trkpt lat="43.83652" lon="4.03277">
        <ele>69.35</ele>
        <time>2016-05-01T13:29:26Z</time>
      </trkpt>
      <trkpt lat="43.83552" lon="4.03456">
        <ele>64.55</ele>
        <time>2016-05-01T13:29:31Z</time>
      </trkpt>
      <trkpt lat="43.83429" lon="4.03667">
        <ele>57.34</ele>
        <time>2016-05-01T13:29:37Z</time>
      </trkpt>
      <trkpt lat="43.83299" lon="4.0389">
        <ele>52.05</ele>
        <time>2016-05-01T13:29:44Z</time>
      </trkpt>
      <trkpt lat="43.83274" lon="4.03909">
        <ele>51.09</ele>
        <time>2016-05-01T13:29:45Z</time>
      </trkpt>
      <trkpt lat="43.83249" lon="4.03926">
        <ele>50.61</ele>
        <time>2016-05-01T13:29:46Z</time>
      </trkpt>
      <trkpt lat="43.83183" lon="4.03982">
        <ele>50.13</ele>
        <time>2016-05-01T13:29:49Z</time>
      </trkpt>
      <trkpt lat="43.83164" lon="4.04008">
        <ele>49.65</ele>
        <time>2016-05-01T13:29:50Z</time>
      </trkpt>
      <trkpt lat="43.83034" lon="4.04169">
        <ele>47.24</ele>
        <time>2016-05-01T13:29:56Z</time>
      </trkpt>
      <trkpt lat="43.82902" lon="4.04331">
        <ele>44.36</ele>
        <time>2016-05-01T13:30:02Z</time>
      </trkpt>
      <trkpt lat="43.82809" lon="4.04459">
        <ele>41.47</ele>
        <time>2016-05-01T13:30:07Z</time>
      </trkpt>
      <trkpt lat="43.82797" lon="4.04489">
        <ele>40.99</ele>
        <time>2016-05-01T13:30:08Z</time>
      </trkpt>
      <trkpt lat="43.82788" lon="4.04525">
        <ele>40.99</ele>
        <time>2016-05-01T13:30:09Z</time>
      </trkpt>
      <trkpt lat="43.8278" lon="4.0456">
        <ele>41.47</ele>
        <time>2016-05-01T13:30:10Z</time>
      </trkpt>
      <trkpt lat="43.8277" lon="4.04593">
        <ele>42.44</ele>
        <time>2016-05-01T13:30:11Z</time>
      </trkpt>
      <trkpt lat="43.82714" lon="4.04715">
        <ele>45.32</ele>
        <time>2016-05-01T13:30:15Z</time>
      </trkpt>
      <trkpt lat="43.82601" lon="4.04894">
        <ele>51.09</ele>
        <time>2016-05-01T13:30:21Z</time>
      </trkpt>
      <trkpt lat="43.82509" lon="4.05084">
        <ele>59.74</ele>
        <time>2016-05-01T13:30:27Z</time>
      </trkpt>
      <trkpt lat="43.82438" lon="4.05173">
        <ele>65.99</ele>
        <time>2016-05-01T13:30:31Z</time>
      </trkpt>
      <trkpt lat="43.8242" lon="4.05184">
        <ele>66.95</ele>
        <time>2016-05-01T13:30:32Z</time>
      </trkpt>
      <trkpt lat="43.82399" lon="4.05189">
        <ele>67.43</ele>
        <time>2016-05-01T13:30:33Z</time>
      </trkpt>
      <trkpt lat="43.82376" lon="4.05189">
        <ele>67.91</ele>
        <time>2016-05-01T13:30:34Z</time>
      </trkpt>
      <trkpt lat="43.8235" lon="4.05187">
        <ele>69.35</ele>
        <time>2016-05-01T13:30:35Z</time>
      </trkpt>
      <trkpt lat="43.82324" lon="4.05186">
        <ele>69.35</ele>
        <time>2016-05-01T13:30:36Z</time>
      </trkpt>
      <trkpt lat="43.82298" lon="4.05185">
        <ele>68.39</ele>
        <time>2016-05-01T13:30:37Z</time>
      </trkpt>
      <trkpt lat="43.82066" lon="4.0521">
        <ele>72.72</ele>
        <time>2016-05-01T13:30:46Z</time>
      </trkpt>
      <trkpt lat="43.81904" lon="4.05265">
        <ele>77.52</ele>
        <time>2016-05-01T13:30:52Z</time>
      </trkpt>
      <trkpt lat="43.81886" lon="4.05281">
        <ele>78.97</ele>
        <time>2016-05-01T13:30:53Z</time>
      </trkpt>
      <trkpt lat="43.81871" lon="4.05303">
        <ele>80.41</ele>
        <time>2016-05-01T13:30:54Z</time>
      </trkpt>
      <trkpt lat="43.81858" lon="4.05329">
        <ele>81.37</ele>
        <time>2016-05-01T13:30:55Z</time>
      </trkpt>
      <trkpt lat="43.81848" lon="4.05357">
        <ele>82.81</ele>
        <time>2016-05-01T13:30:56Z</time>
      </trkpt>
      <trkpt lat="43.81842" lon="4.05389">
        <ele>83.77</ele>
        <time>2016-05-01T13:30:57Z</time>
      </trkpt>
      <trkpt lat="43.81841" lon="4.05424">
        <ele>85.21</ele>
        <time>2016-05-01T13:30:58Z</time>
      </trkpt>
      <trkpt lat="43.81839" lon="4.05461">
        <ele>85.69</ele>
        <time>2016-05-01T13:30:59Z</time>
      </trkpt>
      <trkpt lat="43.81837" lon="4.05496">
        <ele>85.69</ele>
        <time>2016-05-01T13:31:00Z</time>
      </trkpt>
      <trkpt lat="43.81831" lon="4.0553">
        <ele>86.18</ele>
        <time>2016-05-01T13:31:01Z</time>
      </trkpt>
      <trkpt lat="43.81821" lon="4.05561">
        <ele>86.66</ele>
        <time>2016-05-01T13:31:02Z</time>
      </trkpt>
      <trkpt lat="43.81809" lon="4.0559">
        <ele>87.14</ele>
        <time>2016-05-01T13:31:03Z</time>
      </trkpt>
      <trkpt lat="43.81794" lon="4.05616">
        <ele>87.14</ele>
        <time>2016-05-01T13:31:04Z</time>
      </trkpt>
      <trkpt lat="43.81775" lon="4.05641">
        <ele>86.66</ele>
        <time>2016-05-01T13:31:05Z</time>
      </trkpt>
      <trkpt lat="43.81752" lon="4.05664">
        <ele>85.21</ele>
        <time>2016-05-01T13:31:06Z</time>
      </trkpt>
      <trkpt lat="43.8173" lon="4.05687">
        <ele>83.77</ele>
        <time>2016-05-01T13:31:07Z</time>
      </trkpt>
      <trkpt lat="43.81708" lon="4.05709">
        <ele>82.33</ele>
        <time>2016-05-01T13:31:08Z</time>
      </trkpt>
      <trkpt lat="43.81549" lon="4.05887">
        <ele>70.79</ele>
        <time>2016-05-01T13:31:16Z</time>
      </trkpt>
      <trkpt lat="43.81413" lon="4.05991">
        <ele>59.74</ele>
        <time>2016-05-01T13:31:23Z</time>
      </trkpt>
      <trkpt lat="43.81343" lon="4.06012">
        <ele>53.01</ele>
        <time>2016-05-01T13:31:28Z</time>
      </trkpt>
      <trkpt lat="43.81333" lon="4.06011">
        <ele>52.53</ele>
        <time>2016-05-01T13:31:29Z</time>
      </trkpt>
      <trkpt lat="43.81324" lon="4.06008">
        <ele>52.05</ele>
        <time>2016-05-01T13:31:30Z</time>
      </trkpt>
      <trkpt lat="43.81315" lon="4.06007">
        <ele>51.57</ele>
        <time>2016-05-01T13:31:31Z</time>
      </trkpt>
      <trkpt lat="43.81307" lon="4.0601">
        <ele>51.09</ele>
        <time>2016-05-01T13:31:32Z</time>
      </trkpt>
      <trkpt lat="43.81297" lon="4.06018">
        <ele>50.61</ele>
        <time>2016-05-01T13:31:33Z</time>
      </trkpt>
      <trkpt lat="43.81286" lon="4.06028">
        <ele>50.13</ele>
        <time>2016-05-01T13:31:34Z</time>
      </trkpt>
      <trkpt lat="43.81272" lon="4.06037">
        <ele>49.65</ele>
        <time>2016-05-01T13:31:35Z</time>
      </trkpt>
      <trkpt lat="43.81256" lon="4.06045">
        <ele>49.16</ele>
        <time>2016-05-01T13:31:36Z</time>
      </trkpt>
      <trkpt lat="43.81238" lon="4.06053">
        <ele>48.2</ele>
        <time>2016-05-01T13:31:37Z</time>
      </trkpt>
      <trkpt lat="43.81103" lon="4.06105">
        <ele>42.44</ele>
        <time>2016-05-01T13:31:43Z</time>
      </trkpt>
      <trkpt lat="43.80961" lon="4.06232">
        <ele>38.11</ele>
        <time>2016-05-01T13:31:49Z</time>
      </trkpt>
      <trkpt lat="43.80843" lon="4.06436">
        <ele>35.23</ele>
        <time>2016-05-01T13:31:55Z</time>
      </trkpt>
      <trkpt lat="43.80674" lon="4.06691">
        <ele>34.74</ele>
        <time>2016-05-01T13:32:03Z</time>
      </trkpt>
      <trkpt lat="43.80542" lon="4.06784">
        <ele>34.74</ele>
        <time>2016-05-01T13:32:08Z</time>
      </trkpt>
      <trkpt lat="43.80411" lon="4.06909">
        <ele>34.74</ele>
        <time>2016-05-01T13:32:14Z</time>
      </trkpt>
      <trkpt lat="43.80335" lon="4.07046">
        <ele>35.23</ele>
        <time>2016-05-01T13:32:20Z</time>
      </trkpt>
      <trkpt lat="43.80271" lon="4.07178">
        <ele>32.82</ele>
        <time>2016-05-01T13:32:28Z</time>
      </trkpt>
      <trkpt lat="43.80257" lon="4.07198">
        <ele>32.82</ele>
        <time>2016-05-01T13:32:30Z</time>
      </trkpt>
      <trkpt lat="43.80248" lon="4.07205">
        <ele>32.82</ele>
        <time>2016-05-01T13:32:31Z</time>
      </trkpt>
      <trkpt lat="43.8024" lon="4.07214">
        <ele>32.82</ele>
        <time>2016-05-01T13:32:32Z</time>
      </trkpt>
      <trkpt lat="43.80233" lon="4.07224">
        <ele>32.82</ele>
        <time>2016-05-01T13:32:33Z</time>
      </trkpt>
      <trkpt lat="43.80227" lon="4.07237">
        <ele>32.82</ele>
        <time>2016-05-01T13:32:34Z</time>
      </trkpt>
      <trkpt lat="43.8022" lon="4.07248">
        <ele>32.34</ele>
        <time>2016-05-01T13:32:35Z</time>
      </trkpt>
      <trkpt lat="43.80211" lon="4.07257">
        <ele>32.34</ele>
        <time>2016-05-01T13:32:36Z</time>
      </trkpt>
      <trkpt lat="43.802" lon="4.07265">
        <ele>31.86</ele>
        <time>2016-05-01T13:32:37Z</time>
      </trkpt>
      <trkpt lat="43.80189" lon="4.07273">
        <ele>31.86</ele>
        <time>2016-05-01T13:32:38Z</time>
      </trkpt>
      <trkpt lat="43.80176" lon="4.07281">
        <ele>31.86</ele>
        <time>2016-05-01T13:32:39Z</time>
      </trkpt>
      <trkpt lat="43.80161" lon="4.07287">
        <ele>31.38</ele>
        <time>2016-05-01T13:32:40Z</time>
      </trkpt>
      <trkpt lat="43.80146" lon="4.07293">
        <ele>31.38</ele>
        <time>2016-05-01T13:32:41Z</time>
      </trkpt>
      <trkpt lat="43.80129" lon="4.07297">
        <ele>31.38</ele>
        <time>2016-05-01T13:32:42Z</time>
      </trkpt>
      <trkpt lat="43.79924" lon="4.07337">
        <ele>28.5</ele>
        <time>2016-05-01T13:32:53Z</time>
      </trkpt>
      <trkpt lat="43.79787" lon="4.07399">
        <ele>27.53</ele>
        <time>2016-05-01T13:33:00Z</time>
      </trkpt>
      <trkpt lat="43.79703" lon="4.0743">
        <ele>27.05</ele>
        <time>2016-05-01T13:33:05Z</time>
      </trkpt>
      <trkpt lat="43.79686" lon="4.07431">
        <ele>26.57</ele>
        <time>2016-05-01T13:33:06Z</time>
      </trkpt>
      <trkpt lat="43.79669" lon="4.07428">
        <ele>26.57</ele>
        <time>2016-05-01T13:33:07Z</time>
      </trkpt>
      <trkpt lat="43.79653" lon="4.07424">
        <ele>27.05</ele>
        <time>2016-05-01T13:33:08Z</time>
      </trkpt>
      <trkpt lat="43.79637" lon="4.07418">
        <ele>27.53</ele>
        <time>2016-05-01T13:33:09Z</time>
      </trkpt>
      <trkpt lat="43.79524" lon="4.07383">
        <ele>28.02</ele>
        <time>2016-05-01T13:33:16Z</time>
      </trkpt>
      <trkpt lat="43.79509" lon="4.07384">
        <ele>28.02</ele>
        <time>2016-05-01T13:33:17Z</time>
      </trkpt>
      <trkpt lat="43.79495" lon="4.07387">
        <ele>28.5</ele>
        <time>2016-05-01T13:33:18Z</time>
      </trkpt>
      <trkpt lat="43.79482" lon="4.07394">
        <ele>28.5</ele>
        <time>2016-05-01T13:33:19Z</time>
      </trkpt>
      <trkpt lat="43.79469" lon="4.07403">
        <ele>28.5</ele>
        <time>2016-05-01T13:33:20Z</time>
      </trkpt>
      <trkpt lat="43.79458" lon="4.07415">
        <ele>28.98</ele>
        <time>2016-05-01T13:33:21Z</time>
      </trkpt>
      <trkpt lat="43.79449" lon="4.0743">
        <ele>28.5</ele>
        <time>2016-05-01T13:33:22Z</time>
      </trkpt>
      <trkpt lat="43.79442" lon="4.07447">
        <ele>28.5</ele>
        <time>2016-05-01T13:33:23Z</time>
      </trkpt>
      <trkpt lat="43.79435" lon="4.07466">
        <ele>28.5</ele>
        <time>2016-05-01T13:33:24Z</time>
      </trkpt>
      <trkpt lat="43.79429" lon="4.07485">
        <ele>28.02</ele>
        <time>2016-05-01T13:33:25Z</time>
      </trkpt>
      <trkpt lat="43.79369" lon="4.07623">
        <ele>28.5</ele>
        <time>2016-05-01T13:33:32Z</time>
      </trkpt>
      <trkpt lat="43.79357" lon="4.0764">
        <ele>28.5</ele>
        <time>2016-05-01T13:33:33Z</time>
      </trkpt>
      <trkpt lat="43.79289" lon="4.07728">
        <ele>30.9</ele>
        <time>2016-05-01T13:33:39Z</time>
      </trkpt>
      <trkpt lat="43.79278" lon="4.07739">
        <ele>30.9</ele>
        <time>2016-05-01T13:33:40Z</time>
      </trkpt>
      <trkpt lat="43.79266" lon="4.07747">
        <ele>31.38</ele>
        <time>2016-05-01T13:33:41Z</time>
      </trkpt>
      <trkpt lat="43.79242" lon="4.07762">
        <ele>31.38</ele>
        <time>2016-05-01T13:33:43Z</time>
      </trkpt>
      <trkpt lat="43.7923" lon="4.07774">
        <ele>31.38</ele>
        <time>2016-05-01T13:33:44Z</time>
      </trkpt>
      <trkpt lat="43.79218" lon="4.07787">
        <ele>31.38</ele>
        <time>2016-05-01T13:33:45Z</time>
      </trkpt>
      <trkpt lat="43.79098" lon="4.07958">
        <ele>32.34</ele>
        <time>2016-05-01T13:33:56Z</time>
      </trkpt>
      <trkpt lat="43.79014" lon="4.08101">
        <ele>30.9</ele>
        <time>2016-05-01T13:34:05Z</time>
      </trkpt>
      <trkpt lat="43.7897" lon="4.08159">
        <ele>30.9</ele>
        <time>2016-05-01T13:34:10Z</time>
      </trkpt>
      <trkpt lat="43.78961" lon="4.08167">
        <ele>31.38</ele>
        <time>2016-05-01T13:34:11Z</time>
      </trkpt>
      <trkpt lat="43.78952" lon="4.08173">
        <ele>31.86</ele>
        <time>2016-05-01T13:34:12Z</time>
      </trkpt>
      <trkpt lat="43.78947" lon="4.08177">
        <ele>32.82</ele>
        <time>2016-05-01T13:34:13Z</time>
      </trkpt>
      <trkpt lat="43.7894" lon="4.08179">
        <ele>32.82</ele>
        <time>2016-05-01T13:34:14Z</time>
      </trkpt>
      <trkpt lat="43.7892" lon="4.08185">
        <ele>32.34</ele>
        <time>2016-05-01T13:34:18Z</time>
      </trkpt>
      <trkpt lat="43.78915" lon="4.08185">
        <ele>31.86</ele>
        <time>2016-05-01T13:34:19Z</time>
      </trkpt>
      <trkpt lat="43.78909" lon="4.08183">
        <ele>31.86</ele>
        <time>2016-05-01T13:34:20Z</time>
      </trkpt>
      <trkpt lat="43.78903" lon="4.08181">
        <ele>31.38</ele>
        <time>2016-05-01T13:34:21Z</time>
      </trkpt>
      <trkpt lat="43.78895" lon="4.08182">
        <ele>31.38</ele>
        <time>2016-05-01T13:34:22Z</time>
      </trkpt>
      <trkpt lat="43.78889" lon="4.08185">
        <ele>30.9</ele>
        <time>2016-05-01T13:34:23Z</time>
      </trkpt>
      <trkpt lat="43.78883" lon="4.08191">
        <ele>30.9</ele>
        <time>2016-05-01T13:34:24Z</time>
      </trkpt>
      <trkpt lat="43.78878" lon="4.082">
        <ele>30.9</ele>
        <time>2016-05-01T13:34:25Z</time>
      </trkpt>
      <trkpt lat="43.78874" lon="4.08209">
        <ele>30.9</ele>
        <time>2016-05-01T13:34:26Z</time>
      </trkpt>
      <trkpt lat="43.78869" lon="4.08218">
        <ele>30.42</ele>
        <time>2016-05-01T13:34:27Z</time>
      </trkpt>
      <trkpt lat="43.78862" lon="4.08226">
        <ele>30.42</ele>
        <time>2016-05-01T13:34:28Z</time>
      </trkpt>
      <trkpt lat="43.78854" lon="4.08233">
        <ele>29.94</ele>
        <time>2016-05-01T13:34:29Z</time>
      </trkpt>
      <trkpt lat="43.78845" lon="4.0824">
        <ele>29.46</ele>
        <time>2016-05-01T13:34:30Z</time>
      </trkpt>
      <trkpt lat="43.78738" lon="4.08331">
        <ele>26.57</ele>
        <time>2016-05-01T13:34:40Z</time>
      </trkpt>
      <trkpt lat="43.78672" lon="4.08378">
        <ele>26.09</ele>
        <time>2016-05-01T13:34:47Z</time>
      </trkpt>
      <trkpt lat="43.78609" lon="4.08411">
        <ele>25.61</ele>
        <time>2016-05-01T13:34:58Z</time>
      </trkpt>
      <trkpt lat="43.78549" lon="4.08438">
        <ele>25.61</ele>
        <time>2016-05-01T13:35:09Z</time>
      </trkpt>
      <trkpt lat="43.78538" lon="4.08442">
        <ele>25.61</ele>
        <time>2016-05-01T13:35:11Z</time>
      </trkpt>
      <trkpt lat="43.78533" lon="4.08448">
        <ele>25.61</ele>
        <time>2016-05-01T13:35:12Z</time>
      </trkpt>
      <trkpt lat="43.78529" lon="4.08456">
        <ele>25.61</ele>
        <time>2016-05-01T13:35:13Z</time>
      </trkpt>
      <trkpt lat="43.78523" lon="4.08465">
        <ele>25.13</ele>
        <time>2016-05-01T13:35:14Z</time>
      </trkpt>
      <trkpt lat="43.78517" lon="4.08475">
        <ele>25.13</ele>
        <time>2016-05-01T13:35:15Z</time>
      </trkpt>
      <trkpt lat="43.78509" lon="4.08485">
        <ele>25.13</ele>
        <time>2016-05-01T13:35:16Z</time>
      </trkpt>
      <trkpt lat="43.7845" lon="4.08552">
        <ele>25.13</ele>
        <time>2016-05-01T13:35:24Z</time>
      </trkpt>
      <trkpt lat="43.78392" lon="4.08615">
        <ele>24.17</ele>
        <time>2016-05-01T13:35:33Z</time>
      </trkpt>
      <trkpt lat="43.78325" lon="4.08683">
        <ele>24.65</ele>
        <time>2016-05-01T13:35:44Z</time>
      </trkpt>
      <trkpt lat="43.7832" lon="4.08685">
        <ele>24.65</ele>
        <time>2016-05-01T13:35:45Z</time>
      </trkpt>
      <trkpt lat="43.78316" lon="4.08684">
        <ele>25.13</ele>
        <time>2016-05-01T13:35:46Z</time>
      </trkpt>
      <trkpt lat="43.78313" lon="4.0867">
        <ele>24.65</ele>
        <time>2016-05-01T13:35:52Z</time>
      </trkpt>
      <trkpt lat="43.78315" lon="4.08669">
        <ele>24.65</ele>
        <time>2016-05-01T13:35:53Z</time>
      </trkpt>
      <trkpt lat="43.78322" lon="4.0866">
        <ele>24.17</ele>
        <time>2016-05-01T13:35:59Z</time>
      </trkpt>
      <trkpt lat="43.78318" lon="4.08652">
        <ele>25.13</ele>
        <time>2016-05-01T13:36:18Z</time>
      </trkpt>
      <trkpt lat="43.78318" lon="4.08652">
        <ele>25.13</ele>
        <time>2016-05-01T13:36:24Z</time>
      </trkpt>
      <trkpt lat="43.78283" lon="4.08656">
        <ele>25.61</ele>
        <time>2016-05-01T13:36:32Z</time>
      </trkpt>
      <trkpt lat="43.78244" lon="4.08668">
        <ele>25.61</ele>
        <time>2016-05-01T13:36:38Z</time>
      </trkpt>
      <trkpt lat="43.7824" lon="4.08671">
        <ele>25.61</ele>
        <time>2016-05-01T13:36:39Z</time>
      </trkpt>
      <trkpt lat="43.78229" lon="4.0868">
        <ele>25.13</ele>
        <time>2016-05-01T13:36:48Z</time>
      </trkpt>
      <trkpt lat="43.78222" lon="4.08685">
        <ele>25.13</ele>
        <time>2016-05-01T13:36:51Z</time>
      </trkpt>
      <trkpt lat="43.78216" lon="4.08685">
        <ele>25.13</ele>
        <time>2016-05-01T13:36:52Z</time>
      </trkpt>
      <trkpt lat="43.7821" lon="4.08683">
        <ele>25.13</ele>
        <time>2016-05-01T13:36:53Z</time>
      </trkpt>
      <trkpt lat="43.78204" lon="4.08677">
        <ele>25.13</ele>
        <time>2016-05-01T13:36:54Z</time>
      </trkpt>
      <trkpt lat="43.78199" lon="4.08669">
        <ele>25.13</ele>
        <time>2016-05-01T13:36:55Z</time>
      </trkpt>
      <trkpt lat="43.78196" lon="4.08658">
        <ele>25.13</ele>
        <time>2016-05-01T13:36:56Z</time>
      </trkpt>
      <trkpt lat="43.78194" lon="4.08648">
        <ele>25.13</ele>
        <time>2016-05-01T13:36:57Z</time>
      </trkpt>
      <trkpt lat="43.78188" lon="4.08641">
        <ele>25.13</ele>
        <time>2016-05-01T13:36:58Z</time>
      </trkpt>
      <trkpt lat="43.78181" lon="4.08636">
        <ele>25.13</ele>
        <time>2016-05-01T13:36:59Z</time>
      </trkpt>
      <trkpt lat="43.78173" lon="4.08633">
        <ele>25.13</ele>
        <time>2016-05-01T13:37:00Z</time>
      </trkpt>
      <trkpt lat="43.78165" lon="4.0863">
        <ele>25.13</ele>
        <time>2016-05-01T13:37:01Z</time>
      </trkpt>
      <trkpt lat="43.78149" lon="4.08621">
        <ele>25.13</ele>
        <time>2016-05-01T13:37:03Z</time>
      </trkpt>
      <trkpt lat="43.78142" lon="4.08612">
        <ele>25.13</ele>
        <time>2016-05-01T13:37:04Z</time>
      </trkpt>
      <trkpt lat="43.78136" lon="4.086">
        <ele>25.61</ele>
        <time>2016-05-01T13:37:05Z</time>
      </trkpt>
      <trkpt lat="43.78133" lon="4.08586">
        <ele>25.61</ele>
        <time>2016-05-01T13:37:06Z</time>
      </trkpt>
      <trkpt lat="43.78131" lon="4.08572">
        <ele>25.61</ele>
        <time>2016-05-01T13:37:07Z</time>
      </trkpt>
      <trkpt lat="43.7813" lon="4.0856">
        <ele>26.09</ele>
        <time>2016-05-01T13:37:08Z</time>
      </trkpt>
      <trkpt lat="43.78131" lon="4.08549">
        <ele>26.09</ele>
        <time>2016-05-01T13:37:09Z</time>
      </trkpt>
      <trkpt lat="43.78115" lon="4.08409">
        <ele>29.94</ele>
        <time>2016-05-01T13:37:21Z</time>
      </trkpt>
      <trkpt lat="43.78108" lon="4.08319">
        <ele>29.46</ele>
        <time>2016-05-01T13:37:29Z</time>
      </trkpt>
      <trkpt lat="43.78104" lon="4.08224">
        <ele>28.98</ele>
        <time>2016-05-01T13:37:38Z</time>
      </trkpt>
      <trkpt lat="43.78103" lon="4.08183">
        <ele>29.46</ele>
        <time>2016-05-01T13:37:42Z</time>
      </trkpt>
      <trkpt lat="43.78104" lon="4.08172">
        <ele>29.46</ele>
        <time>2016-05-01T13:37:43Z</time>
      </trkpt>
      <trkpt lat="43.78125" lon="4.08077">
        <ele>28.98</ele>
        <time>2016-05-01T13:37:51Z</time>
      </trkpt>
      <trkpt lat="43.78125" lon="4.08069">
        <ele>28.98</ele>
        <time>2016-05-01T13:37:52Z</time>
      </trkpt>
      <trkpt lat="43.78123" lon="4.08063">
        <ele>28.98</ele>
        <time>2016-05-01T13:37:53Z</time>
      </trkpt>
      <trkpt lat="43.7812" lon="4.08058">
        <ele>28.98</ele>
        <time>2016-05-01T13:37:54Z</time>
      </trkpt>
      <trkpt lat="43.78118" lon="4.08055">
        <ele>28.98</ele>
        <time>2016-05-01T13:37:55Z</time>
      </trkpt>
      <trkpt lat="43.78115" lon="4.08053">
        <ele>28.98</ele>
        <time>2016-05-01T13:37:56Z</time>
      </trkpt>
      <trkpt lat="43.78111" lon="4.08053">
        <ele>28.98</ele>
        <time>2016-05-01T13:37:57Z</time>
      </trkpt>
      <trkpt lat="43.78108" lon="4.08054">
        <ele>28.5</ele>
        <time>2016-05-01T13:37:58Z</time>
      </trkpt>
      <trkpt lat="43.78105" lon="4.08058">
        <ele>28.5</ele>
        <time>2016-05-01T13:37:59Z</time>
      </trkpt>
      <trkpt lat="43.78105" lon="4.08063">
        <ele>27.53</ele>
        <time>2016-05-01T13:38:00Z</time>
      </trkpt>
      <trkpt lat="43.78106" lon="4.08068">
        <ele>27.53</ele>
        <time>2016-05-01T13:38:01Z</time>
      </trkpt>
      <trkpt lat="43.78107" lon="4.08074">
        <ele>27.05</ele>
        <time>2016-05-01T13:38:02Z</time>
      </trkpt>
      <trkpt lat="43.78106" lon="4.0808">
        <ele>27.05</ele>
        <time>2016-05-01T13:38:03Z</time>
      </trkpt>
      <trkpt lat="43.78105" lon="4.08086">
        <ele>27.05</ele>
        <time>2016-05-01T13:38:04Z</time>
      </trkpt>
      <trkpt lat="43.78103" lon="4.08091">
        <ele>27.05</ele>
        <time>2016-05-01T13:38:05Z</time>
      </trkpt>
      <trkpt lat="43.781" lon="4.08103">
        <ele>27.05</ele>
        <time>2016-05-01T13:38:12Z</time>
      </trkpt>
      <trkpt lat="43.78099" lon="4.08105">
        <ele>27.05</ele>
        <time>2016-05-01T13:38:13Z</time>
      </trkpt>
      <trkpt lat="43.78099" lon="4.08107">
        <ele>27.05</ele>
        <time>2016-05-01T13:38:30Z</time>
      </trkpt>
      <trkpt lat="43.78099" lon="4.08107">
        <ele>27.05</ele>
        <time>2016-05-01T13:38:32Z</time>
      </trkpt>
      <trkpt lat="43.78113" lon="4.08078">
        <ele>26.09</ele>
        <time>2016-05-01T13:56:37Z</time>
      </trkpt>
      <trkpt lat="43.78116" lon="4.08079">
        <ele>26.09</ele>
        <time>2016-05-01T13:56:50Z</time>
      </trkpt>
      <trkpt lat="43.78121" lon="4.08088">
        <ele>25.61</ele>
        <time>2016-05-01T13:57:09Z</time>
      </trkpt>
      <trkpt lat="43.7812" lon="4.08095">
        <ele>25.61</ele>
        <time>2016-05-01T13:57:10Z</time>
      </trkpt>
      <trkpt lat="43.78116" lon="4.08116">
        <ele>25.13</ele>
        <time>2016-05-01T13:57:13Z</time>
      </trkpt>
      <trkpt lat="43.78108" lon="4.08138">
        <ele>24.65</ele>
        <time>2016-05-01T13:57:16Z</time>
      </trkpt>
      <trkpt lat="43.78104" lon="4.08145">
        <ele>24.65</ele>
        <time>2016-05-01T13:57:17Z</time>
      </trkpt>
      <trkpt lat="43.781" lon="4.08152">
        <ele>24.65</ele>
        <time>2016-05-01T13:57:18Z</time>
      </trkpt>
      <trkpt lat="43.78095" lon="4.08159">
        <ele>24.65</ele>
        <time>2016-05-01T13:57:19Z</time>
      </trkpt>
      <trkpt lat="43.78093" lon="4.08168">
        <ele>24.65</ele>
        <time>2016-05-01T13:57:20Z</time>
      </trkpt>
      <trkpt lat="43.78093" lon="4.08179">
        <ele>24.65</ele>
        <time>2016-05-01T13:57:21Z</time>
      </trkpt>
      <trkpt lat="43.78096" lon="4.0819">
        <ele>24.65</ele>
        <time>2016-05-01T13:57:22Z</time>
      </trkpt>
      <trkpt lat="43.78099" lon="4.08202">
        <ele>24.65</ele>
        <time>2016-05-01T13:57:23Z</time>
      </trkpt>
      <trkpt lat="43.78102" lon="4.08214">
        <ele>24.65</ele>
        <time>2016-05-01T13:57:24Z</time>
      </trkpt>
      <trkpt lat="43.78104" lon="4.08227">
        <ele>24.65</ele>
        <time>2016-05-01T13:57:25Z</time>
      </trkpt>
      <trkpt lat="43.78105" lon="4.0824">
        <ele>24.65</ele>
        <time>2016-05-01T13:57:26Z</time>
      </trkpt>
      <trkpt lat="43.78106" lon="4.08252">
        <ele>24.65</ele>
        <time>2016-05-01T13:57:27Z</time>
      </trkpt>
      <trkpt lat="43.78109" lon="4.08337">
        <ele>24.17</ele>
        <time>2016-05-01T13:57:36Z</time>
      </trkpt>
      <trkpt lat="43.7812" lon="4.08447">
        <ele>24.65</ele>
        <time>2016-05-01T13:57:47Z</time>
      </trkpt>
      <trkpt lat="43.78137" lon="4.0857">
        <ele>24.17</ele>
        <time>2016-05-01T13:57:58Z</time>
      </trkpt>
      <trkpt lat="43.78142" lon="4.08608">
        <ele>24.17</ele>
        <time>2016-05-01T13:58:02Z</time>
      </trkpt>
      <trkpt lat="43.78145" lon="4.08617">
        <ele>24.17</ele>
        <time>2016-05-01T13:58:03Z</time>
      </trkpt>
      <trkpt lat="43.7815" lon="4.08625">
        <ele>24.17</ele>
        <time>2016-05-01T13:58:04Z</time>
      </trkpt>
      <trkpt lat="43.78157" lon="4.08629">
        <ele>24.17</ele>
        <time>2016-05-01T13:58:05Z</time>
      </trkpt>
      <trkpt lat="43.78164" lon="4.08631">
        <ele>23.69</ele>
        <time>2016-05-01T13:58:06Z</time>
      </trkpt>
      <trkpt lat="43.78172" lon="4.08633">
        <ele>23.69</ele>
        <time>2016-05-01T13:58:07Z</time>
      </trkpt>
      <trkpt lat="43.78185" lon="4.08638">
        <ele>23.69</ele>
        <time>2016-05-01T13:58:09Z</time>
      </trkpt>
      <trkpt lat="43.78191" lon="4.08642">
        <ele>23.69</ele>
        <time>2016-05-01T13:58:10Z</time>
      </trkpt>
      <trkpt lat="43.78194" lon="4.08646">
        <ele>23.69</ele>
        <time>2016-05-01T13:58:11Z</time>
      </trkpt>
      <trkpt lat="43.78197" lon="4.08651">
        <ele>23.69</ele>
        <time>2016-05-01T13:58:12Z</time>
      </trkpt>
      <trkpt lat="43.78197" lon="4.08656">
        <ele>23.21</ele>
        <time>2016-05-01T13:58:13Z</time>
      </trkpt>
      <trkpt lat="43.78197" lon="4.08661">
        <ele>23.21</ele>
        <time>2016-05-01T13:58:14Z</time>
      </trkpt>
      <trkpt lat="43.78195" lon="4.08666">
        <ele>23.21</ele>
        <time>2016-05-01T13:58:15Z</time>
      </trkpt>
      <trkpt lat="43.78192" lon="4.0867">
        <ele>23.21</ele>
        <time>2016-05-01T13:58:16Z</time>
      </trkpt>
      <trkpt lat="43.78186" lon="4.08673">
        <ele>22.73</ele>
        <time>2016-05-01T13:58:17Z</time>
      </trkpt>
      <trkpt lat="43.78179" lon="4.08673">
        <ele>22.25</ele>
        <time>2016-05-01T13:58:18Z</time>
      </trkpt>
      <trkpt lat="43.78172" lon="4.08671">
        <ele>22.25</ele>
        <time>2016-05-01T13:58:19Z</time>
      </trkpt>
      <trkpt lat="43.78163" lon="4.08668">
        <ele>22.25</ele>
        <time>2016-05-01T13:58:20Z</time>
      </trkpt>
      <trkpt lat="43.78155" lon="4.08666">
        <ele>22.25</ele>
        <time>2016-05-01T13:58:21Z</time>
      </trkpt>
      <trkpt lat="43.78146" lon="4.08665">
        <ele>22.25</ele>
        <time>2016-05-01T13:58:22Z</time>
      </trkpt>
      <trkpt lat="43.78136" lon="4.08667">
        <ele>22.25</ele>
        <time>2016-05-01T13:58:23Z</time>
      </trkpt>
      <trkpt lat="43.78065" lon="4.0868">
        <ele>22.25</ele>
        <time>2016-05-01T13:58:29Z</time>
      </trkpt>
      <trkpt lat="43.78051" lon="4.08679">
        <ele>21.77</ele>
        <time>2016-05-01T13:58:30Z</time>
      </trkpt>
      <trkpt lat="43.78037" lon="4.08675">
        <ele>21.77</ele>
        <time>2016-05-01T13:58:31Z</time>
      </trkpt>
      <trkpt lat="43.77928" lon="4.08647">
        <ele>22.73</ele>
        <time>2016-05-01T13:58:40Z</time>
      </trkpt>
      <trkpt lat="43.77919" lon="4.08643">
        <ele>22.73</ele>
        <time>2016-05-01T13:58:41Z</time>
      </trkpt>
      <trkpt lat="43.77912" lon="4.08637">
        <ele>23.21</ele>
        <time>2016-05-01T13:58:42Z</time>
      </trkpt>
      <trkpt lat="43.77903" lon="4.08631">
        <ele>23.21</ele>
        <time>2016-05-01T13:58:43Z</time>
      </trkpt>
      <trkpt lat="43.77894" lon="4.08628">
        <ele>23.21</ele>
        <time>2016-05-01T13:58:44Z</time>
      </trkpt>
      <trkpt lat="43.77884" lon="4.08632">
        <ele>23.21</ele>
        <time>2016-05-01T13:58:45Z</time>
      </trkpt>
      <trkpt lat="43.77874" lon="4.08637">
        <ele>23.21</ele>
        <time>2016-05-01T13:58:46Z</time>
      </trkpt>
      <trkpt lat="43.77862" lon="4.08641">
        <ele>23.69</ele>
        <time>2016-05-01T13:58:47Z</time>
      </trkpt>
      <trkpt lat="43.77848" lon="4.08641">
        <ele>23.69</ele>
        <time>2016-05-01T13:58:48Z</time>
      </trkpt>
      <trkpt lat="43.77736" lon="4.08648">
        <ele>24.17</ele>
        <time>2016-05-01T13:58:55Z</time>
      </trkpt>
      <trkpt lat="43.77592" lon="4.08708">
        <ele>23.69</ele>
        <time>2016-05-01T13:59:03Z</time>
      </trkpt>
      <trkpt lat="43.77573" lon="4.0871">
        <ele>23.69</ele>
        <time>2016-05-01T13:59:04Z</time>
      </trkpt>
      <trkpt lat="43.77553" lon="4.08708">
        <ele>23.69</ele>
        <time>2016-05-01T13:59:05Z</time>
      </trkpt>
      <trkpt lat="43.77534" lon="4.08705">
        <ele>23.69</ele>
        <time>2016-05-01T13:59:06Z</time>
      </trkpt>
      <trkpt lat="43.77516" lon="4.087">
        <ele>23.21</ele>
        <time>2016-05-01T13:59:07Z</time>
      </trkpt>
      <trkpt lat="43.77497" lon="4.08692">
        <ele>23.21</ele>
        <time>2016-05-01T13:59:08Z</time>
      </trkpt>
      <trkpt lat="43.7748" lon="4.08682">
        <ele>23.21</ele>
        <time>2016-05-01T13:59:09Z</time>
      </trkpt>
      <trkpt lat="43.77464" lon="4.08672">
        <ele>23.21</ele>
        <time>2016-05-01T13:59:10Z</time>
      </trkpt>
      <trkpt lat="43.77251" lon="4.08536">
        <ele>23.69</ele>
        <time>2016-05-01T13:59:23Z</time>
      </trkpt>
      <trkpt lat="43.77069" lon="4.08429">
        <ele>22.73</ele>
        <time>2016-05-01T13:59:34Z</time>
      </trkpt>
      <trkpt lat="43.7687" lon="4.08367">
        <ele>20.81</ele>
        <time>2016-05-01T13:59:45Z</time>
      </trkpt>
      <trkpt lat="43.76705" lon="4.08355">
        <ele>21.29</ele>
        <time>2016-05-01T13:59:54Z</time>
      </trkpt>
      <trkpt lat="43.76607" lon="4.08354">
        <ele>21.29</ele>
        <time>2016-05-01T14:00:01Z</time>
      </trkpt>
      <trkpt lat="43.76583" lon="4.0835">
        <ele>21.29</ele>
        <time>2016-05-01T14:00:04Z</time>
      </trkpt>
      <trkpt lat="43.76576" lon="4.08347">
        <ele>21.77</ele>
        <time>2016-05-01T14:00:05Z</time>
      </trkpt>
      <trkpt lat="43.76569" lon="4.08341">
        <ele>21.77</ele>
        <time>2016-05-01T14:00:06Z</time>
      </trkpt>
      <trkpt lat="43.76554" lon="4.0833">
        <ele>22.25</ele>
        <time>2016-05-01T14:00:08Z</time>
      </trkpt>
      <trkpt lat="43.76547" lon="4.0833">
        <ele>22.25</ele>
        <time>2016-05-01T14:00:09Z</time>
      </trkpt>
      <trkpt lat="43.76538" lon="4.08333">
        <ele>22.25</ele>
        <time>2016-05-01T14:00:10Z</time>
      </trkpt>
      <trkpt lat="43.76528" lon="4.08335">
        <ele>22.25</ele>
        <time>2016-05-01T14:00:11Z</time>
      </trkpt>
      <trkpt lat="43.76515" lon="4.08332">
        <ele>22.25</ele>
        <time>2016-05-01T14:00:12Z</time>
      </trkpt>
      <trkpt lat="43.76502" lon="4.08327">
        <ele>22.25</ele>
        <time>2016-05-01T14:00:13Z</time>
      </trkpt>
      <trkpt lat="43.76489" lon="4.08322">
        <ele>22.25</ele>
        <time>2016-05-01T14:00:14Z</time>
      </trkpt>
      <trkpt lat="43.76371" lon="4.08261">
        <ele>23.21</ele>
        <time>2016-05-01T14:00:22Z</time>
      </trkpt>
      <trkpt lat="43.7626" lon="4.08177">
        <ele>26.09</ele>
        <time>2016-05-01T14:00:30Z</time>
      </trkpt>
      <trkpt lat="43.76214" lon="4.08141">
        <ele>27.05</ele>
        <time>2016-05-01T14:00:34Z</time>
      </trkpt>
      <trkpt lat="43.76202" lon="4.08136">
        <ele>27.53</ele>
        <time>2016-05-01T14:00:35Z</time>
      </trkpt>
      <trkpt lat="43.76189" lon="4.08132">
        <ele>28.02</ele>
        <time>2016-05-01T14:00:36Z</time>
      </trkpt>
      <trkpt lat="43.76111" lon="4.08108">
        <ele>27.05</ele>
        <time>2016-05-01T14:00:44Z</time>
      </trkpt>
      <trkpt lat="43.76105" lon="4.08103">
        <ele>27.05</ele>
        <time>2016-05-01T14:00:45Z</time>
      </trkpt>
      <trkpt lat="43.76099" lon="4.08098">
        <ele>27.05</ele>
        <time>2016-05-01T14:00:46Z</time>
      </trkpt>
      <trkpt lat="43.76093" lon="4.08092">
        <ele>27.05</ele>
        <time>2016-05-01T14:00:47Z</time>
      </trkpt>
      <trkpt lat="43.76087" lon="4.08084">
        <ele>27.53</ele>
        <time>2016-05-01T14:00:48Z</time>
      </trkpt>
      <trkpt lat="43.76082" lon="4.08076">
        <ele>27.53</ele>
        <time>2016-05-01T14:00:49Z</time>
      </trkpt>
      <trkpt lat="43.76077" lon="4.08067">
        <ele>28.02</ele>
        <time>2016-05-01T14:00:50Z</time>
      </trkpt>
      <trkpt lat="43.76005" lon="4.07946">
        <ele>32.82</ele>
        <time>2016-05-01T14:01:01Z</time>
      </trkpt>
      <trkpt lat="43.7597" lon="4.07888">
        <ele>36.19</ele>
        <time>2016-05-01T14:01:08Z</time>
      </trkpt>
      <trkpt lat="43.75912" lon="4.07795">
        <ele>40.99</ele>
        <time>2016-05-01T14:01:16Z</time>
      </trkpt>
      <trkpt lat="43.75872" lon="4.07729">
        <ele>43.88</ele>
        <time>2016-05-01T14:01:25Z</time>
      </trkpt>
      <trkpt lat="43.75841" lon="4.07682">
        <ele>45.32</ele>
        <time>2016-05-01T14:01:30Z</time>
      </trkpt>
      <trkpt lat="43.75832" lon="4.07673">
        <ele>45.8</ele>
        <time>2016-05-01T14:01:31Z</time>
      </trkpt>
      <trkpt lat="43.75822" lon="4.07664">
        <ele>46.28</ele>
        <time>2016-05-01T14:01:32Z</time>
      </trkpt>
      <trkpt lat="43.75811" lon="4.07655">
        <ele>46.76</ele>
        <time>2016-05-01T14:01:33Z</time>
      </trkpt>
      <trkpt lat="43.75799" lon="4.07648">
        <ele>46.76</ele>
        <time>2016-05-01T14:01:34Z</time>
      </trkpt>
      <trkpt lat="43.75785" lon="4.07646">
        <ele>46.76</ele>
        <time>2016-05-01T14:01:35Z</time>
      </trkpt>
      <trkpt lat="43.75769" lon="4.07646">
        <ele>47.24</ele>
        <time>2016-05-01T14:01:36Z</time>
      </trkpt>
      <trkpt lat="43.75753" lon="4.07648">
        <ele>48.2</ele>
        <time>2016-05-01T14:01:37Z</time>
      </trkpt>
      <trkpt lat="43.75738" lon="4.07651">
        <ele>48.68</ele>
        <time>2016-05-01T14:01:38Z</time>
      </trkpt>
      <trkpt lat="43.75694" lon="4.07654">
        <ele>50.61</ele>
        <time>2016-05-01T14:01:41Z</time>
      </trkpt>
      <trkpt lat="43.7568" lon="4.07652">
        <ele>51.09</ele>
        <time>2016-05-01T14:01:42Z</time>
      </trkpt>
      <trkpt lat="43.75553" lon="4.07583">
        <ele>55.41</ele>
        <time>2016-05-01T14:01:51Z</time>
      </trkpt>
      <trkpt lat="43.75408" lon="4.07426">
        <ele>59.74</ele>
        <time>2016-05-01T14:02:01Z</time>
      </trkpt>
      <trkpt lat="43.7525" lon="4.0723">
        <ele>62.14</ele>
        <time>2016-05-01T14:02:11Z</time>
      </trkpt>
      <trkpt lat="43.75134" lon="4.07079">
        <ele>60.22</ele>
        <time>2016-05-01T14:02:20Z</time>
      </trkpt>
      <trkpt lat="43.75124" lon="4.07056">
        <ele>59.74</ele>
        <time>2016-05-01T14:02:21Z</time>
      </trkpt>
      <trkpt lat="43.75115" lon="4.0703">
        <ele>59.26</ele>
        <time>2016-05-01T14:02:22Z</time>
      </trkpt>
      <trkpt lat="43.75061" lon="4.0684">
        <ele>59.26</ele>
        <time>2016-05-01T14:02:28Z</time>
      </trkpt>
      <trkpt lat="43.74992" lon="4.06584">
        <ele>62.62</ele>
        <time>2016-05-01T14:02:35Z</time>
      </trkpt>
      <trkpt lat="43.74944" lon="4.0642">
        <ele>66.47</ele>
        <time>2016-05-01T14:02:41Z</time>
      </trkpt>
      <trkpt lat="43.7492" lon="4.06239">
        <ele>70.31</ele>
        <time>2016-05-01T14:02:48Z</time>
      </trkpt>
      <trkpt lat="43.74941" lon="4.05993">
        <ele>74.16</ele>
        <time>2016-05-01T14:02:57Z</time>
      </trkpt>
      <trkpt lat="43.74962" lon="4.05741">
        <ele>73.2</ele>
        <time>2016-05-01T14:03:06Z</time>
      </trkpt>
      <trkpt lat="43.74959" lon="4.05714">
        <ele>72.72</ele>
        <time>2016-05-01T14:03:07Z</time>
      </trkpt>
      <trkpt lat="43.74954" lon="4.05687">
        <ele>72.72</ele>
        <time>2016-05-01T14:03:08Z</time>
      </trkpt>
      <trkpt lat="43.74946" lon="4.05661">
        <ele>72.72</ele>
        <time>2016-05-01T14:03:09Z</time>
      </trkpt>
      <trkpt lat="43.74934" lon="4.05634">
        <ele>72.24</ele>
        <time>2016-05-01T14:03:10Z</time>
      </trkpt>
      <trkpt lat="43.74919" lon="4.05609">
        <ele>71.76</ele>
        <time>2016-05-01T14:03:11Z</time>
      </trkpt>
      <trkpt lat="43.74902" lon="4.05585">
        <ele>71.27</ele>
        <time>2016-05-01T14:03:12Z</time>
      </trkpt>
      <trkpt lat="43.74883" lon="4.05563">
        <ele>70.79</ele>
        <time>2016-05-01T14:03:13Z</time>
      </trkpt>
      <trkpt lat="43.74863" lon="4.05543">
        <ele>69.83</ele>
        <time>2016-05-01T14:03:14Z</time>
      </trkpt>
      <trkpt lat="43.74743" lon="4.05426">
        <ele>67.91</ele>
        <time>2016-05-01T14:03:19Z</time>
      </trkpt>
      <trkpt lat="43.74562" lon="4.05245">
        <ele>64.55</ele>
        <time>2016-05-01T14:03:26Z</time>
      </trkpt>
      <trkpt lat="43.74434" lon="4.05156">
        <ele>65.99</ele>
        <time>2016-05-01T14:03:31Z</time>
      </trkpt>
      <trkpt lat="43.74238" lon="4.05099">
        <ele>69.35</ele>
        <time>2016-05-01T14:03:37Z</time>
      </trkpt>
      <trkpt lat="43.74046" lon="4.05047">
        <ele>70.79</ele>
        <time>2016-05-01T14:03:43Z</time>
      </trkpt>
      <trkpt lat="43.73616" lon="4.04926">
        <ele>77.52</ele>
        <time>2016-05-01T14:03:58Z</time>
      </trkpt>
      <trkpt lat="43.733" lon="4.04836">
        <ele>85.21</ele>
        <time>2016-05-01T14:04:11Z</time>
      </trkpt>
      <trkpt lat="43.73255" lon="4.04819">
        <ele>86.66</ele>
        <time>2016-05-01T14:04:13Z</time>
      </trkpt>
      <trkpt lat="43.73233" lon="4.04807">
        <ele>87.62</ele>
        <time>2016-05-01T14:04:14Z</time>
      </trkpt>
      <trkpt lat="43.73212" lon="4.04791">
        <ele>88.58</ele>
        <time>2016-05-01T14:04:15Z</time>
      </trkpt>
      <trkpt lat="43.73192" lon="4.04774">
        <ele>89.54</ele>
        <time>2016-05-01T14:04:16Z</time>
      </trkpt>
      <trkpt lat="43.73173" lon="4.04756">
        <ele>90.5</ele>
        <time>2016-05-01T14:04:17Z</time>
      </trkpt>
      <trkpt lat="43.73156" lon="4.04737">
        <ele>91.46</ele>
        <time>2016-05-01T14:04:18Z</time>
      </trkpt>
      <trkpt lat="43.73079" lon="4.04612">
        <ele>95.31</ele>
        <time>2016-05-01T14:04:24Z</time>
      </trkpt>
      <trkpt lat="43.72983" lon="4.0441">
        <ele>97.23</ele>
        <time>2016-05-01T14:04:33Z</time>
      </trkpt>
      <trkpt lat="43.72886" lon="4.04317">
        <ele>93.87</ele>
        <time>2016-05-01T14:04:39Z</time>
      </trkpt>
      <trkpt lat="43.72703" lon="4.04164">
        <ele>89.54</ele>
        <time>2016-05-01T14:04:51Z</time>
      </trkpt>
      <trkpt lat="43.72551" lon="4.04039">
        <ele>84.73</ele>
        <time>2016-05-01T14:05:03Z</time>
      </trkpt>
      <trkpt lat="43.72451" lon="4.03958">
        <ele>82.33</ele>
        <time>2016-05-01T14:05:13Z</time>
      </trkpt>
      <trkpt lat="43.7239" lon="4.03904">
        <ele>83.77</ele>
        <time>2016-05-01T14:05:20Z</time>
      </trkpt>
      <trkpt lat="43.72385" lon="4.03895">
        <ele>84.73</ele>
        <time>2016-05-01T14:05:21Z</time>
      </trkpt>
      <trkpt lat="43.72382" lon="4.03886">
        <ele>85.21</ele>
        <time>2016-05-01T14:05:22Z</time>
      </trkpt>
      <trkpt lat="43.7238" lon="4.03875">
        <ele>85.69</ele>
        <time>2016-05-01T14:05:23Z</time>
      </trkpt>
      <trkpt lat="43.72379" lon="4.03865">
        <ele>85.69</ele>
        <time>2016-05-01T14:05:24Z</time>
      </trkpt>
      <trkpt lat="43.72374" lon="4.03846">
        <ele>86.18</ele>
        <time>2016-05-01T14:05:26Z</time>
      </trkpt>
      <trkpt lat="43.72331" lon="4.03756">
        <ele>87.62</ele>
        <time>2016-05-01T14:05:35Z</time>
      </trkpt>
      <trkpt lat="43.7228" lon="4.03661">
        <ele>83.77</ele>
        <time>2016-05-01T14:05:46Z</time>
      </trkpt>
      <trkpt lat="43.72264" lon="4.03637">
        <ele>83.77</ele>
        <time>2016-05-01T14:05:48Z</time>
      </trkpt>
      <trkpt lat="43.72254" lon="4.03627">
        <ele>84.25</ele>
        <time>2016-05-01T14:05:49Z</time>
      </trkpt>
      <trkpt lat="43.72242" lon="4.0362">
        <ele>83.77</ele>
        <time>2016-05-01T14:05:50Z</time>
      </trkpt>
      <trkpt lat="43.72229" lon="4.03614">
        <ele>83.77</ele>
        <time>2016-05-01T14:05:51Z</time>
      </trkpt>
      <trkpt lat="43.72216" lon="4.03608">
        <ele>84.25</ele>
        <time>2016-05-01T14:05:52Z</time>
      </trkpt>
      <trkpt lat="43.72099" lon="4.03579">
        <ele>87.62</ele>
        <time>2016-05-01T14:06:00Z</time>
      </trkpt>
      <trkpt lat="43.72083" lon="4.03572">
        <ele>87.14</ele>
        <time>2016-05-01T14:06:01Z</time>
      </trkpt>
      <trkpt lat="43.71964" lon="4.03507">
        <ele>86.66</ele>
        <time>2016-05-01T14:06:07Z</time>
      </trkpt>
      <trkpt lat="43.71857" lon="4.03429">
        <ele>88.58</ele>
        <time>2016-05-01T14:06:13Z</time>
      </trkpt>
      <trkpt lat="43.71844" lon="4.03413">
        <ele>88.58</ele>
        <time>2016-05-01T14:06:14Z</time>
      </trkpt>
      <trkpt lat="43.71736" lon="4.03276">
        <ele>82.33</ele>
        <time>2016-05-01T14:06:22Z</time>
      </trkpt>
      <trkpt lat="43.71603" lon="4.03165">
        <ele>74.64</ele>
        <time>2016-05-01T14:06:28Z</time>
      </trkpt>
      <trkpt lat="43.71476" lon="4.03059">
        <ele>71.76</ele>
        <time>2016-05-01T14:06:34Z</time>
      </trkpt>
      <trkpt lat="43.71343" lon="4.02957">
        <ele>76.08</ele>
        <time>2016-05-01T14:06:39Z</time>
      </trkpt>
      <trkpt lat="43.71155" lon="4.02833">
        <ele>83.77</ele>
        <time>2016-05-01T14:06:47Z</time>
      </trkpt>
      <trkpt lat="43.71018" lon="4.02784">
        <ele>90.98</ele>
        <time>2016-05-01T14:06:53Z</time>
      </trkpt>
      <trkpt lat="43.70823" lon="4.02682">
        <ele>86.66</ele>
        <time>2016-05-01T14:07:01Z</time>
      </trkpt>
      <trkpt lat="43.70575" lon="4.02554">
        <ele>80.89</ele>
        <time>2016-05-01T14:07:11Z</time>
      </trkpt>
      <trkpt lat="43.70418" lon="4.02461">
        <ele>77.52</ele>
        <time>2016-05-01T14:07:18Z</time>
      </trkpt>
      <trkpt lat="43.70395" lon="4.0244">
        <ele>76.56</ele>
        <time>2016-05-01T14:07:19Z</time>
      </trkpt>
      <trkpt lat="43.70234" lon="4.02238">
        <ele>68.87</ele>
        <time>2016-05-01T14:07:27Z</time>
      </trkpt>
      <trkpt lat="43.70121" lon="4.0205">
        <ele>64.55</ele>
        <time>2016-05-01T14:07:35Z</time>
      </trkpt>
      <trkpt lat="43.69992" lon="4.01857">
        <ele>61.18</ele>
        <time>2016-05-01T14:07:43Z</time>
      </trkpt>
      <trkpt lat="43.69764" lon="4.01584">
        <ele>51.09</ele>
        <time>2016-05-01T14:07:55Z</time>
      </trkpt>
      <trkpt lat="43.69559" lon="4.01338">
        <ele>45.32</ele>
        <time>2016-05-01T14:08:07Z</time>
      </trkpt>
      <trkpt lat="43.69447" lon="4.01171">
        <ele>42.44</ele>
        <time>2016-05-01T14:08:15Z</time>
      </trkpt>
      <trkpt lat="43.69282" lon="4.009">
        <ele>40.99</ele>
        <time>2016-05-01T14:08:28Z</time>
      </trkpt>
      <trkpt lat="43.69122" lon="4.00665">
        <ele>41.47</ele>
        <time>2016-05-01T14:08:40Z</time>
      </trkpt>
      <trkpt lat="43.6909" lon="4.00604">
        <ele>40.51</ele>
        <time>2016-05-01T14:08:43Z</time>
      </trkpt>
      <trkpt lat="43.69082" lon="4.00581">
        <ele>39.55</ele>
        <time>2016-05-01T14:08:44Z</time>
      </trkpt>
      <trkpt lat="43.69075" lon="4.00555">
        <ele>39.55</ele>
        <time>2016-05-01T14:08:45Z</time>
      </trkpt>
      <trkpt lat="43.6907" lon="4.00527">
        <ele>39.55</ele>
        <time>2016-05-01T14:08:46Z</time>
      </trkpt>
      <trkpt lat="43.69064" lon="4.00499">
        <ele>39.55</ele>
        <time>2016-05-01T14:08:47Z</time>
      </trkpt>
      <trkpt lat="43.69005" lon="4.0025">
        <ele>43.88</ele>
        <time>2016-05-01T14:08:57Z</time>
      </trkpt>
      <trkpt lat="43.68901" lon="4.00051">
        <ele>44.36</ele>
        <time>2016-05-01T14:09:07Z</time>
      </trkpt>
      <trkpt lat="43.68892" lon="4.00029">
        <ele>44.36</ele>
        <time>2016-05-01T14:09:08Z</time>
      </trkpt>
      <trkpt lat="43.68885" lon="4.00006">
        <ele>44.36</ele>
        <time>2016-05-01T14:09:09Z</time>
      </trkpt>
      <trkpt lat="43.68836" lon="3.99792">
        <ele>45.32</ele>
        <time>2016-05-01T14:09:18Z</time>
      </trkpt>
      <trkpt lat="43.6882" lon="3.99748">
        <ele>45.32</ele>
        <time>2016-05-01T14:09:20Z</time>
      </trkpt>
      <trkpt lat="43.68807" lon="3.99727">
        <ele>45.8</ele>
        <time>2016-05-01T14:09:21Z</time>
      </trkpt>
      <trkpt lat="43.68794" lon="3.99709">
        <ele>45.8</ele>
        <time>2016-05-01T14:09:22Z</time>
      </trkpt>
      <trkpt lat="43.6878" lon="3.99692">
        <ele>45.8</ele>
        <time>2016-05-01T14:09:23Z</time>
      </trkpt>
      <trkpt lat="43.68764" lon="3.99676">
        <ele>45.8</ele>
        <time>2016-05-01T14:09:24Z</time>
      </trkpt>
      <trkpt lat="43.68649" lon="3.99587">
        <ele>44.84</ele>
        <time>2016-05-01T14:09:30Z</time>
      </trkpt>
      <trkpt lat="43.68462" lon="3.9947">
        <ele>44.84</ele>
        <time>2016-05-01T14:09:37Z</time>
      </trkpt>
      <trkpt lat="43.68436" lon="3.99448">
        <ele>44.36</ele>
        <time>2016-05-01T14:09:38Z</time>
      </trkpt>
      <trkpt lat="43.68413" lon="3.99422">
        <ele>43.88</ele>
        <time>2016-05-01T14:09:39Z</time>
      </trkpt>
      <trkpt lat="43.6839" lon="3.99393">
        <ele>43.88</ele>
        <time>2016-05-01T14:09:40Z</time>
      </trkpt>
      <trkpt lat="43.68243" lon="3.99224">
        <ele>48.2</ele>
        <time>2016-05-01T14:09:47Z</time>
      </trkpt>
      <trkpt lat="43.68155" lon="3.99117">
        <ele>52.05</ele>
        <time>2016-05-01T14:09:53Z</time>
      </trkpt>
      <trkpt lat="43.68125" lon="3.99062">
        <ele>53.49</ele>
        <time>2016-05-01T14:09:58Z</time>
      </trkpt>
      <trkpt lat="43.68085" lon="3.9899">
        <ele>55.41</ele>
        <time>2016-05-01T14:10:10Z</time>
      </trkpt>
      <trkpt lat="43.68007" lon="3.98849">
        <ele>59.26</ele>
        <time>2016-05-01T14:10:21Z</time>
      </trkpt>
      <trkpt lat="43.67944" lon="3.98685">
        <ele>63.1</ele>
        <time>2016-05-01T14:10:32Z</time>
      </trkpt>
      <trkpt lat="43.67917" lon="3.98609">
        <ele>66.47</ele>
        <time>2016-05-01T14:10:40Z</time>
      </trkpt>
      <trkpt lat="43.67901" lon="3.98557">
        <ele>67.43</ele>
        <time>2016-05-01T14:10:48Z</time>
      </trkpt>
      <trkpt lat="43.67845" lon="3.98437">
        <ele>66.95</ele>
        <time>2016-05-01T14:10:59Z</time>
      </trkpt>
      <trkpt lat="43.67828" lon="3.9841">
        <ele>66.47</ele>
        <time>2016-05-01T14:11:02Z</time>
      </trkpt>
      <trkpt lat="43.67822" lon="3.98403">
        <ele>65.99</ele>
        <time>2016-05-01T14:11:03Z</time>
      </trkpt>
      <trkpt lat="43.67805" lon="3.98388">
        <ele>64.55</ele>
        <time>2016-05-01T14:11:06Z</time>
      </trkpt>
      <trkpt lat="43.67797" lon="3.98386">
        <ele>64.07</ele>
        <time>2016-05-01T14:11:07Z</time>
      </trkpt>
      <trkpt lat="43.67789" lon="3.98383">
        <ele>63.58</ele>
        <time>2016-05-01T14:11:08Z</time>
      </trkpt>
      <trkpt lat="43.67781" lon="3.98382">
        <ele>63.1</ele>
        <time>2016-05-01T14:11:09Z</time>
      </trkpt>
      <trkpt lat="43.67773" lon="3.98381">
        <ele>63.1</ele>
        <time>2016-05-01T14:11:10Z</time>
      </trkpt>
      <trkpt lat="43.67737" lon="3.98382">
        <ele>61.66</ele>
        <time>2016-05-01T14:11:16Z</time>
      </trkpt>
      <trkpt lat="43.67733" lon="3.98386">
        <ele>62.14</ele>
        <time>2016-05-01T14:11:17Z</time>
      </trkpt>
      <trkpt lat="43.67729" lon="3.98393">
        <ele>62.14</ele>
        <time>2016-05-01T14:11:18Z</time>
      </trkpt>
      <trkpt lat="43.67677" lon="3.9848">
        <ele>59.74</ele>
        <time>2016-05-01T14:11:30Z</time>
      </trkpt>
      <trkpt lat="43.67638" lon="3.98543">
        <ele>57.34</ele>
        <time>2016-05-01T14:11:37Z</time>
      </trkpt>
      <trkpt lat="43.6764" lon="3.98553">
        <ele>56.37</ele>
        <time>2016-05-01T14:11:38Z</time>
      </trkpt>
      <trkpt lat="43.67644" lon="3.9856">
        <ele>56.37</ele>
        <time>2016-05-01T14:11:39Z</time>
      </trkpt>
      <trkpt lat="43.67651" lon="3.98568">
        <ele>56.37</ele>
        <time>2016-05-01T14:11:40Z</time>
      </trkpt>
      <trkpt lat="43.67658" lon="3.98577">
        <ele>56.37</ele>
        <time>2016-05-01T14:11:41Z</time>
      </trkpt>
      <trkpt lat="43.67664" lon="3.98584">
        <ele>56.86</ele>
        <time>2016-05-01T14:11:42Z</time>
      </trkpt>
      <trkpt lat="43.67672" lon="3.98599">
        <ele>56.86</ele>
        <time>2016-05-01T14:11:44Z</time>
      </trkpt>
      <trkpt lat="43.6767" lon="3.98607">
        <ele>56.37</ele>
        <time>2016-05-01T14:11:45Z</time>
      </trkpt>
      <trkpt lat="43.67668" lon="3.98618">
        <ele>56.37</ele>
        <time>2016-05-01T14:11:46Z</time>
      </trkpt>
      <trkpt lat="43.67664" lon="3.98628">
        <ele>55.89</ele>
        <time>2016-05-01T14:11:47Z</time>
      </trkpt>
      <trkpt lat="43.6766" lon="3.98638">
        <ele>55.89</ele>
        <time>2016-05-01T14:11:48Z</time>
      </trkpt>
      <trkpt lat="43.67645" lon="3.98685">
        <ele>55.89</ele>
        <time>2016-05-01T14:11:52Z</time>
      </trkpt>
      <trkpt lat="43.67643" lon="3.98696">
        <ele>55.89</ele>
        <time>2016-05-01T14:11:53Z</time>
      </trkpt>
      <trkpt lat="43.67642" lon="3.98707">
        <ele>55.41</ele>
        <time>2016-05-01T14:11:54Z</time>
      </trkpt>
      <trkpt lat="43.67642" lon="3.98718">
        <ele>55.41</ele>
        <time>2016-05-01T14:11:55Z</time>
      </trkpt>
      <trkpt lat="43.67644" lon="3.98728">
        <ele>55.41</ele>
        <time>2016-05-01T14:11:56Z</time>
      </trkpt>
      <trkpt lat="43.67645" lon="3.98737">
        <ele>55.41</ele>
        <time>2016-05-01T14:11:57Z</time>
      </trkpt>
      <trkpt lat="43.67648" lon="3.98746">
        <ele>54.45</ele>
        <time>2016-05-01T14:11:58Z</time>
      </trkpt>
      <trkpt lat="43.67655" lon="3.98775">
        <ele>54.93</ele>
        <time>2016-05-01T14:12:01Z</time>
      </trkpt>
      <trkpt lat="43.6766" lon="3.98784">
        <ele>54.45</ele>
        <time>2016-05-01T14:12:02Z</time>
      </trkpt>
      <trkpt lat="43.67665" lon="3.98793">
        <ele>54.45</ele>
        <time>2016-05-01T14:12:03Z</time>
      </trkpt>
      <trkpt lat="43.67679" lon="3.9882">
        <ele>53.97</ele>
        <time>2016-05-01T14:12:06Z</time>
      </trkpt>
      <trkpt lat="43.67681" lon="3.9883">
        <ele>53.49</ele>
        <time>2016-05-01T14:12:07Z</time>
      </trkpt>
      <trkpt lat="43.67681" lon="3.9884">
        <ele>53.01</ele>
        <time>2016-05-01T14:12:08Z</time>
      </trkpt>
      <trkpt lat="43.6768" lon="3.98851">
        <ele>52.53</ele>
        <time>2016-05-01T14:12:09Z</time>
      </trkpt>
      <trkpt lat="43.67675" lon="3.98862">
        <ele>52.05</ele>
        <time>2016-05-01T14:12:10Z</time>
      </trkpt>
      <trkpt lat="43.67668" lon="3.98872">
        <ele>51.09</ele>
        <time>2016-05-01T14:12:11Z</time>
      </trkpt>
      <trkpt lat="43.6766" lon="3.98881">
        <ele>50.61</ele>
        <time>2016-05-01T14:12:12Z</time>
      </trkpt>
      <trkpt lat="43.67652" lon="3.98891">
        <ele>49.65</ele>
        <time>2016-05-01T14:12:13Z</time>
      </trkpt>
      <trkpt lat="43.6761" lon="3.98933">
        <ele>47.24</ele>
        <time>2016-05-01T14:12:20Z</time>
      </trkpt>
      <trkpt lat="43.67593" lon="3.98945">
        <ele>46.76</ele>
        <time>2016-05-01T14:12:26Z</time>
      </trkpt>
      <trkpt lat="43.67511" lon="3.9898">
        <ele>46.28</ele>
        <time>2016-05-01T14:12:33Z</time>
      </trkpt>
      <trkpt lat="43.67458" lon="3.99001">
        <ele>47.24</ele>
        <time>2016-05-01T14:12:38Z</time>
      </trkpt>
      <trkpt lat="43.67449" lon="3.99">
        <ele>47.24</ele>
        <time>2016-05-01T14:12:39Z</time>
      </trkpt>
      <trkpt lat="43.67442" lon="3.98995">
        <ele>47.24</ele>
        <time>2016-05-01T14:12:40Z</time>
      </trkpt>
      <trkpt lat="43.67437" lon="3.98987">
        <ele>47.24</ele>
        <time>2016-05-01T14:12:41Z</time>
      </trkpt>
      <trkpt lat="43.67435" lon="3.98978">
        <ele>47.72</ele>
        <time>2016-05-01T14:12:42Z</time>
      </trkpt>
      <trkpt lat="43.67432" lon="3.98969">
        <ele>48.2</ele>
        <time>2016-05-01T14:12:43Z</time>
      </trkpt>
      <trkpt lat="43.6743" lon="3.98957">
        <ele>48.2</ele>
        <time>2016-05-01T14:12:44Z</time>
      </trkpt>
      <trkpt lat="43.67412" lon="3.98873">
        <ele>50.61</ele>
        <time>2016-05-01T14:12:52Z</time>
      </trkpt>
      <trkpt lat="43.67409" lon="3.98869">
        <ele>50.61</ele>
        <time>2016-05-01T14:12:53Z</time>
      </trkpt>
      <trkpt lat="43.67403" lon="3.9887">
        <ele>50.61</ele>
        <time>2016-05-01T14:12:54Z</time>
      </trkpt>
      <trkpt lat="43.67398" lon="3.98873">
        <ele>50.61</ele>
        <time>2016-05-01T14:12:55Z</time>
      </trkpt>
      <trkpt lat="43.67392" lon="3.98878">
        <ele>50.61</ele>
        <time>2016-05-01T14:12:56Z</time>
      </trkpt>
      <trkpt lat="43.67387" lon="3.98886">
        <ele>50.61</ele>
        <time>2016-05-01T14:12:57Z</time>
      </trkpt>
      <trkpt lat="43.67382" lon="3.98896">
        <ele>50.61</ele>
        <time>2016-05-01T14:12:58Z</time>
      </trkpt>
      <trkpt lat="43.67378" lon="3.98906">
        <ele>51.09</ele>
        <time>2016-05-01T14:12:59Z</time>
      </trkpt>
      <trkpt lat="43.67376" lon="3.98917">
        <ele>50.13</ele>
        <time>2016-05-01T14:13:00Z</time>
      </trkpt>
      <trkpt lat="43.67374" lon="3.98928">
        <ele>49.65</ele>
        <time>2016-05-01T14:13:01Z</time>
      </trkpt>
      <trkpt lat="43.67375" lon="3.98939">
        <ele>49.16</ele>
        <time>2016-05-01T14:13:02Z</time>
      </trkpt>
      <trkpt lat="43.67374" lon="3.9895">
        <ele>49.65</ele>
        <time>2016-05-01T14:13:03Z</time>
      </trkpt>
      <trkpt lat="43.67373" lon="3.98959">
        <ele>49.65</ele>
        <time>2016-05-01T14:13:04Z</time>
      </trkpt>
      <trkpt lat="43.6737" lon="3.98966">
        <ele>49.65</ele>
        <time>2016-05-01T14:13:05Z</time>
      </trkpt>
      <trkpt lat="43.67367" lon="3.98972">
        <ele>49.65</ele>
        <time>2016-05-01T14:13:06Z</time>
      </trkpt>
      <trkpt lat="43.67353" lon="3.99005">
        <ele>51.09</ele>
        <time>2016-05-01T14:13:17Z</time>
      </trkpt>
      <trkpt lat="43.67348" lon="3.99021">
        <ele>52.05</ele>
        <time>2016-05-01T14:13:31Z</time>
      </trkpt>
      <trkpt lat="43.67347" lon="3.99028">
        <ele>53.01</ele>
        <time>2016-05-01T14:13:43Z</time>
      </trkpt>
      <trkpt lat="43.67347" lon="3.99028">
        <ele>54.45</ele>
        <time>2016-05-01T14:13:54Z</time>
      </trkpt>
      <trkpt lat="43.67344" lon="3.99028">
        <ele>54.93</ele>
        <time>2016-05-01T15:16:14Z</time>
      </trkpt>
      <trkpt lat="43.67346" lon="3.99027">
        <ele>54.93</ele>
        <time>2016-05-01T15:16:28Z</time>
      </trkpt>
      <trkpt lat="43.67336" lon="3.99029">
        <ele>55.41</ele>
        <time>2016-05-01T15:16:32Z</time>
      </trkpt>
      <trkpt lat="43.67331" lon="3.99032">
        <ele>55.41</ele>
        <time>2016-05-01T15:16:33Z</time>
      </trkpt>
      <trkpt lat="43.67327" lon="3.99035">
        <ele>55.41</ele>
        <time>2016-05-01T15:16:34Z</time>
      </trkpt>
      <trkpt lat="43.67322" lon="3.99037">
        <ele>55.89</ele>
        <time>2016-05-01T15:16:35Z</time>
      </trkpt>
      <trkpt lat="43.67318" lon="3.99037">
        <ele>55.89</ele>
        <time>2016-05-01T15:16:36Z</time>
      </trkpt>
      <trkpt lat="43.67311" lon="3.99037">
        <ele>55.41</ele>
        <time>2016-05-01T15:16:38Z</time>
      </trkpt>
      <trkpt lat="43.6731" lon="3.9904">
        <ele>55.41</ele>
        <time>2016-05-01T15:16:39Z</time>
      </trkpt>
      <trkpt lat="43.67311" lon="3.99042">
        <ele>55.41</ele>
        <time>2016-05-01T15:16:40Z</time>
      </trkpt>
      <trkpt lat="43.67313" lon="3.99044">
        <ele>55.41</ele>
        <time>2016-05-01T15:16:41Z</time>
      </trkpt>
      <trkpt lat="43.67315" lon="3.99044">
        <ele>54.93</ele>
        <time>2016-05-01T15:16:42Z</time>
      </trkpt>
      <trkpt lat="43.67318" lon="3.99042">
        <ele>54.45</ele>
        <time>2016-05-01T15:16:43Z</time>
      </trkpt>
      <trkpt lat="43.67322" lon="3.9904">
        <ele>54.45</ele>
        <time>2016-05-01T15:16:44Z</time>
      </trkpt>
      <trkpt lat="43.67327" lon="3.99037">
        <ele>54.45</ele>
        <time>2016-05-01T15:16:45Z</time>
      </trkpt>
      <trkpt lat="43.6734" lon="3.99029">
        <ele>53.49</ele>
        <time>2016-05-01T15:16:48Z</time>
      </trkpt>
      <trkpt lat="43.67344" lon="3.99025">
        <ele>53.49</ele>
        <time>2016-05-01T15:16:49Z</time>
      </trkpt>
      <trkpt lat="43.67347" lon="3.9902">
        <ele>53.49</ele>
        <time>2016-05-01T15:16:50Z</time>
      </trkpt>
      <trkpt lat="43.67349" lon="3.99014">
        <ele>53.49</ele>
        <time>2016-05-01T15:16:51Z</time>
      </trkpt>
      <trkpt lat="43.67352" lon="3.99008">
        <ele>53.49</ele>
        <time>2016-05-01T15:16:52Z</time>
      </trkpt>
      <trkpt lat="43.67373" lon="3.9896">
        <ele>53.01</ele>
        <time>2016-05-01T15:16:59Z</time>
      </trkpt>
      <trkpt lat="43.67376" lon="3.98951">
        <ele>53.01</ele>
        <time>2016-05-01T15:17:00Z</time>
      </trkpt>
      <trkpt lat="43.67376" lon="3.98941">
        <ele>52.53</ele>
        <time>2016-05-01T15:17:01Z</time>
      </trkpt>
      <trkpt lat="43.67377" lon="3.9892">
        <ele>52.05</ele>
        <time>2016-05-01T15:17:03Z</time>
      </trkpt>
      <trkpt lat="43.6738" lon="3.9891">
        <ele>52.05</ele>
        <time>2016-05-01T15:17:04Z</time>
      </trkpt>
      <trkpt lat="43.67383" lon="3.98899">
        <ele>52.05</ele>
        <time>2016-05-01T15:17:05Z</time>
      </trkpt>
      <trkpt lat="43.67392" lon="3.98881">
        <ele>52.53</ele>
        <time>2016-05-01T15:17:07Z</time>
      </trkpt>
      <trkpt lat="43.67397" lon="3.98875">
        <ele>52.53</ele>
        <time>2016-05-01T15:17:08Z</time>
      </trkpt>
      <trkpt lat="43.67402" lon="3.98871">
        <ele>52.53</ele>
        <time>2016-05-01T15:17:09Z</time>
      </trkpt>
      <trkpt lat="43.67408" lon="3.98868">
        <ele>52.53</ele>
        <time>2016-05-01T15:17:14Z</time>
      </trkpt>
      <trkpt lat="43.67409" lon="3.98865">
        <ele>52.53</ele>
        <time>2016-05-01T15:17:15Z</time>
      </trkpt>
      <trkpt lat="43.67409" lon="3.9886">
        <ele>52.53</ele>
        <time>2016-05-01T15:17:16Z</time>
      </trkpt>
      <trkpt lat="43.67408" lon="3.98852">
        <ele>53.01</ele>
        <time>2016-05-01T15:17:17Z</time>
      </trkpt>
      <trkpt lat="43.67405" lon="3.98842">
        <ele>53.01</ele>
        <time>2016-05-01T15:17:18Z</time>
      </trkpt>
      <trkpt lat="43.67403" lon="3.98832">
        <ele>53.49</ele>
        <time>2016-05-01T15:17:19Z</time>
      </trkpt>
      <trkpt lat="43.67401" lon="3.98823">
        <ele>53.49</ele>
        <time>2016-05-01T15:17:20Z</time>
      </trkpt>
      <trkpt lat="43.67396" lon="3.9879">
        <ele>53.97</ele>
        <time>2016-05-01T15:17:23Z</time>
      </trkpt>
      <trkpt lat="43.67393" lon="3.98761">
        <ele>54.93</ele>
        <time>2016-05-01T15:17:25Z</time>
      </trkpt>
      <trkpt lat="43.6739" lon="3.98746">
        <ele>54.93</ele>
        <time>2016-05-01T15:17:26Z</time>
      </trkpt>
      <trkpt lat="43.67345" lon="3.98575">
        <ele>52.53</ele>
        <time>2016-05-01T15:17:38Z</time>
      </trkpt>
      <trkpt lat="43.67288" lon="3.98425">
        <ele>49.16</ele>
        <time>2016-05-01T15:17:49Z</time>
      </trkpt>
      <trkpt lat="43.67267" lon="3.98378">
        <ele>47.72</ele>
        <time>2016-05-01T15:17:53Z</time>
      </trkpt>
      <trkpt lat="43.67264" lon="3.98367">
        <ele>47.72</ele>
        <time>2016-05-01T15:17:54Z</time>
      </trkpt>
      <trkpt lat="43.67264" lon="3.98356">
        <ele>47.24</ele>
        <time>2016-05-01T15:17:55Z</time>
      </trkpt>
      <trkpt lat="43.67268" lon="3.98349">
        <ele>46.76</ele>
        <time>2016-05-01T15:17:56Z</time>
      </trkpt>
      <trkpt lat="43.67276" lon="3.98346">
        <ele>46.76</ele>
        <time>2016-05-01T15:17:57Z</time>
      </trkpt>
      <trkpt lat="43.67283" lon="3.98344">
        <ele>46.76</ele>
        <time>2016-05-01T15:17:58Z</time>
      </trkpt>
      <trkpt lat="43.67289" lon="3.98341">
        <ele>46.76</ele>
        <time>2016-05-01T15:17:59Z</time>
      </trkpt>
      <trkpt lat="43.67293" lon="3.98335">
        <ele>46.76</ele>
        <time>2016-05-01T15:18:00Z</time>
      </trkpt>
      <trkpt lat="43.67294" lon="3.98328">
        <ele>46.28</ele>
        <time>2016-05-01T15:18:01Z</time>
      </trkpt>
      <trkpt lat="43.67294" lon="3.98319">
        <ele>46.28</ele>
        <time>2016-05-01T15:18:02Z</time>
      </trkpt>
      <trkpt lat="43.67294" lon="3.98308">
        <ele>46.28</ele>
        <time>2016-05-01T15:18:03Z</time>
      </trkpt>
      <trkpt lat="43.67296" lon="3.98298">
        <ele>46.28</ele>
        <time>2016-05-01T15:18:04Z</time>
      </trkpt>
      <trkpt lat="43.673" lon="3.98288">
        <ele>46.28</ele>
        <time>2016-05-01T15:18:05Z</time>
      </trkpt>
      <trkpt lat="43.67306" lon="3.98279">
        <ele>46.76</ele>
        <time>2016-05-01T15:18:06Z</time>
      </trkpt>
      <trkpt lat="43.67313" lon="3.98271">
        <ele>46.76</ele>
        <time>2016-05-01T15:18:07Z</time>
      </trkpt>
      <trkpt lat="43.67344" lon="3.98231">
        <ele>47.72</ele>
        <time>2016-05-01T15:18:12Z</time>
      </trkpt>
      <trkpt lat="43.6735" lon="3.98226">
        <ele>47.72</ele>
        <time>2016-05-01T15:18:13Z</time>
      </trkpt>
      <trkpt lat="43.67357" lon="3.98227">
        <ele>48.2</ele>
        <time>2016-05-01T15:18:14Z</time>
      </trkpt>
      <trkpt lat="43.67364" lon="3.9823">
        <ele>48.2</ele>
        <time>2016-05-01T15:18:15Z</time>
      </trkpt>
      <trkpt lat="43.67369" lon="3.98236">
        <ele>48.2</ele>
        <time>2016-05-01T15:18:16Z</time>
      </trkpt>
      <trkpt lat="43.67375" lon="3.98242">
        <ele>48.68</ele>
        <time>2016-05-01T15:18:17Z</time>
      </trkpt>
      <trkpt lat="43.67379" lon="3.98249">
        <ele>48.68</ele>
        <time>2016-05-01T15:18:18Z</time>
      </trkpt>
      <trkpt lat="43.67395" lon="3.98264">
        <ele>49.16</ele>
        <time>2016-05-01T15:18:21Z</time>
      </trkpt>
      <trkpt lat="43.67399" lon="3.98265">
        <ele>49.16</ele>
        <time>2016-05-01T15:18:22Z</time>
      </trkpt>
      <trkpt lat="43.67403" lon="3.98265">
        <ele>49.16</ele>
        <time>2016-05-01T15:18:23Z</time>
      </trkpt>
      <trkpt lat="43.67422" lon="3.98252">
        <ele>50.13</ele>
        <time>2016-05-01T15:18:29Z</time>
      </trkpt>
      <trkpt lat="43.67429" lon="3.98251">
        <ele>50.61</ele>
        <time>2016-05-01T15:18:30Z</time>
      </trkpt>
      <trkpt lat="43.67436" lon="3.98254">
        <ele>50.61</ele>
        <time>2016-05-01T15:18:31Z</time>
      </trkpt>
      <trkpt lat="43.67443" lon="3.98258">
        <ele>50.61</ele>
        <time>2016-05-01T15:18:32Z</time>
      </trkpt>
      <trkpt lat="43.67449" lon="3.98261">
        <ele>50.61</ele>
        <time>2016-05-01T15:18:33Z</time>
      </trkpt>
      <trkpt lat="43.67457" lon="3.98262">
        <ele>50.61</ele>
        <time>2016-05-01T15:18:34Z</time>
      </trkpt>
      <trkpt lat="43.67463" lon="3.98257">
        <ele>50.61</ele>
        <time>2016-05-01T15:18:35Z</time>
      </trkpt>
      <trkpt lat="43.67469" lon="3.98249">
        <ele>50.61</ele>
        <time>2016-05-01T15:18:36Z</time>
      </trkpt>
      <trkpt lat="43.67471" lon="3.9824">
        <ele>50.61</ele>
        <time>2016-05-01T15:18:37Z</time>
      </trkpt>
      <trkpt lat="43.67472" lon="3.98231">
        <ele>50.13</ele>
        <time>2016-05-01T15:18:38Z</time>
      </trkpt>
      <trkpt lat="43.6747" lon="3.98221">
        <ele>50.13</ele>
        <time>2016-05-01T15:18:39Z</time>
      </trkpt>
      <trkpt lat="43.67465" lon="3.98213">
        <ele>50.13</ele>
        <time>2016-05-01T15:18:40Z</time>
      </trkpt>
      <trkpt lat="43.67458" lon="3.98209">
        <ele>49.65</ele>
        <time>2016-05-01T15:18:41Z</time>
      </trkpt>
      <trkpt lat="43.67448" lon="3.98209">
        <ele>50.13</ele>
        <time>2016-05-01T15:18:42Z</time>
      </trkpt>
      <trkpt lat="43.67441" lon="3.98215">
        <ele>50.13</ele>
        <time>2016-05-01T15:18:43Z</time>
      </trkpt>
      <trkpt lat="43.67435" lon="3.98224">
        <ele>50.13</ele>
        <time>2016-05-01T15:18:44Z</time>
      </trkpt>
      <trkpt lat="43.67429" lon="3.98233">
        <ele>50.13</ele>
        <time>2016-05-01T15:18:45Z</time>
      </trkpt>
      <trkpt lat="43.67421" lon="3.9824">
        <ele>50.13</ele>
        <time>2016-05-01T15:18:46Z</time>
      </trkpt>
      <trkpt lat="43.67413" lon="3.98243">
        <ele>50.13</ele>
        <time>2016-05-01T15:18:47Z</time>
      </trkpt>
      <trkpt lat="43.67403" lon="3.98242">
        <ele>50.61</ele>
        <time>2016-05-01T15:18:48Z</time>
      </trkpt>
      <trkpt lat="43.67393" lon="3.98238">
        <ele>50.61</ele>
        <time>2016-05-01T15:18:49Z</time>
      </trkpt>
      <trkpt lat="43.67383" lon="3.9823">
        <ele>50.13</ele>
        <time>2016-05-01T15:18:50Z</time>
      </trkpt>
      <trkpt lat="43.67374" lon="3.98222">
        <ele>50.13</ele>
        <time>2016-05-01T15:18:51Z</time>
      </trkpt>
      <trkpt lat="43.67364" lon="3.98214">
        <ele>49.65</ele>
        <time>2016-05-01T15:18:52Z</time>
      </trkpt>
      <trkpt lat="43.67264" lon="3.98125">
        <ele>48.2</ele>
        <time>2016-05-01T15:19:01Z</time>
      </trkpt>
      <trkpt lat="43.67212" lon="3.98065">
        <ele>48.2</ele>
        <time>2016-05-01T15:19:06Z</time>
      </trkpt>
      <trkpt lat="43.67145" lon="3.97955">
        <ele>45.32</ele>
        <time>2016-05-01T15:19:13Z</time>
      </trkpt>
      <trkpt lat="43.67027" lon="3.97706">
        <ele>47.72</ele>
        <time>2016-05-01T15:19:28Z</time>
      </trkpt>
      <trkpt lat="43.66939" lon="3.97562">
        <ele>49.65</ele>
        <time>2016-05-01T15:19:37Z</time>
      </trkpt>
      <trkpt lat="43.66925" lon="3.9755">
        <ele>50.13</ele>
        <time>2016-05-01T15:19:38Z</time>
      </trkpt>
      <trkpt lat="43.66912" lon="3.97539">
        <ele>50.13</ele>
        <time>2016-05-01T15:19:39Z</time>
      </trkpt>
      <trkpt lat="43.66876" lon="3.97511">
        <ele>50.61</ele>
        <time>2016-05-01T15:19:42Z</time>
      </trkpt>
      <trkpt lat="43.66869" lon="3.97497">
        <ele>50.61</ele>
        <time>2016-05-01T15:19:43Z</time>
      </trkpt>
      <trkpt lat="43.66863" lon="3.97481">
        <ele>51.09</ele>
        <time>2016-05-01T15:19:44Z</time>
      </trkpt>
      <trkpt lat="43.66857" lon="3.97466">
        <ele>51.09</ele>
        <time>2016-05-01T15:19:45Z</time>
      </trkpt>
      <trkpt lat="43.66848" lon="3.97454">
        <ele>51.09</ele>
        <time>2016-05-01T15:19:46Z</time>
      </trkpt>
      <trkpt lat="43.66836" lon="3.97447">
        <ele>51.09</ele>
        <time>2016-05-01T15:19:47Z</time>
      </trkpt>
      <trkpt lat="43.66822" lon="3.97444">
        <ele>51.09</ele>
        <time>2016-05-01T15:19:48Z</time>
      </trkpt>
      <trkpt lat="43.66808" lon="3.97445">
        <ele>51.09</ele>
        <time>2016-05-01T15:19:49Z</time>
      </trkpt>
      <trkpt lat="43.66794" lon="3.97445">
        <ele>50.61</ele>
        <time>2016-05-01T15:19:50Z</time>
      </trkpt>
      <trkpt lat="43.6678" lon="3.9744">
        <ele>50.61</ele>
        <time>2016-05-01T15:19:51Z</time>
      </trkpt>
      <trkpt lat="43.66767" lon="3.97428">
        <ele>50.61</ele>
        <time>2016-05-01T15:19:52Z</time>
      </trkpt>
      <trkpt lat="43.66758" lon="3.9741">
        <ele>50.61</ele>
        <time>2016-05-01T15:19:53Z</time>
      </trkpt>
      <trkpt lat="43.6675" lon="3.97388">
        <ele>50.61</ele>
        <time>2016-05-01T15:19:54Z</time>
      </trkpt>
      <trkpt lat="43.66745" lon="3.97364">
        <ele>50.13</ele>
        <time>2016-05-01T15:19:55Z</time>
      </trkpt>
      <trkpt lat="43.6674" lon="3.97337">
        <ele>50.13</ele>
        <time>2016-05-01T15:19:56Z</time>
      </trkpt>
      <trkpt lat="43.66734" lon="3.97311">
        <ele>50.13</ele>
        <time>2016-05-01T15:19:57Z</time>
      </trkpt>
      <trkpt lat="43.66682" lon="3.97185">
        <ele>49.16</ele>
        <time>2016-05-01T15:20:02Z</time>
      </trkpt>
      <trkpt lat="43.66666" lon="3.97164">
        <ele>49.65</ele>
        <time>2016-05-01T15:20:03Z</time>
      </trkpt>
      <trkpt lat="43.66649" lon="3.97145">
        <ele>49.16</ele>
        <time>2016-05-01T15:20:04Z</time>
      </trkpt>
      <trkpt lat="43.66631" lon="3.97128">
        <ele>49.16</ele>
        <time>2016-05-01T15:20:05Z</time>
      </trkpt>
      <trkpt lat="43.66611" lon="3.97111">
        <ele>49.16</ele>
        <time>2016-05-01T15:20:06Z</time>
      </trkpt>
      <trkpt lat="43.66394" lon="3.96923">
        <ele>46.28</ele>
        <time>2016-05-01T15:20:18Z</time>
      </trkpt>
      <trkpt lat="43.66241" lon="3.96743">
        <ele>44.36</ele>
        <time>2016-05-01T15:20:28Z</time>
      </trkpt>
      <trkpt lat="43.66051" lon="3.96519">
        <ele>44.84</ele>
        <time>2016-05-01T15:20:41Z</time>
      </trkpt>
      <trkpt lat="43.65897" lon="3.96378">
        <ele>46.28</ele>
        <time>2016-05-01T15:20:51Z</time>
      </trkpt>
      <trkpt lat="43.65837" lon="3.9633">
        <ele>45.32</ele>
        <time>2016-05-01T15:20:57Z</time>
      </trkpt>
      <trkpt lat="43.65829" lon="3.9632">
        <ele>45.32</ele>
        <time>2016-05-01T15:20:59Z</time>
      </trkpt>
      <trkpt lat="43.65825" lon="3.96314">
        <ele>44.84</ele>
        <time>2016-05-01T15:21:00Z</time>
      </trkpt>
      <trkpt lat="43.65823" lon="3.96305">
        <ele>44.84</ele>
        <time>2016-05-01T15:21:01Z</time>
      </trkpt>
      <trkpt lat="43.65821" lon="3.96295">
        <ele>45.32</ele>
        <time>2016-05-01T15:21:02Z</time>
      </trkpt>
      <trkpt lat="43.65821" lon="3.96283">
        <ele>45.32</ele>
        <time>2016-05-01T15:21:03Z</time>
      </trkpt>
      <trkpt lat="43.65822" lon="3.9627">
        <ele>45.32</ele>
        <time>2016-05-01T15:21:04Z</time>
      </trkpt>
      <trkpt lat="43.6582" lon="3.96122">
        <ele>45.8</ele>
        <time>2016-05-01T15:21:12Z</time>
      </trkpt>
      <trkpt lat="43.65814" lon="3.95903">
        <ele>51.09</ele>
        <time>2016-05-01T15:21:20Z</time>
      </trkpt>
      <trkpt lat="43.6585" lon="3.95698">
        <ele>54.45</ele>
        <time>2016-05-01T15:21:27Z</time>
      </trkpt>
      <trkpt lat="43.65908" lon="3.95384">
        <ele>54.45</ele>
        <time>2016-05-01T15:21:37Z</time>
      </trkpt>
      <trkpt lat="43.65947" lon="3.95168">
        <ele>57.34</ele>
        <time>2016-05-01T15:21:45Z</time>
      </trkpt>
      <trkpt lat="43.65955" lon="3.95156">
        <ele>57.82</ele>
        <time>2016-05-01T15:21:46Z</time>
      </trkpt>
      <trkpt lat="43.65964" lon="3.95149">
        <ele>57.82</ele>
        <time>2016-05-01T15:21:47Z</time>
      </trkpt>
      <trkpt lat="43.65973" lon="3.9514">
        <ele>57.82</ele>
        <time>2016-05-01T15:21:48Z</time>
      </trkpt>
      <trkpt lat="43.6598" lon="3.95128">
        <ele>58.3</ele>
        <time>2016-05-01T15:21:49Z</time>
      </trkpt>
      <trkpt lat="43.65984" lon="3.95112">
        <ele>58.3</ele>
        <time>2016-05-01T15:21:50Z</time>
      </trkpt>
      <trkpt lat="43.65983" lon="3.95096">
        <ele>58.3</ele>
        <time>2016-05-01T15:21:51Z</time>
      </trkpt>
      <trkpt lat="43.65981" lon="3.95078">
        <ele>58.3</ele>
        <time>2016-05-01T15:21:52Z</time>
      </trkpt>
      <trkpt lat="43.65979" lon="3.95059">
        <ele>58.3</ele>
        <time>2016-05-01T15:21:53Z</time>
      </trkpt>
      <trkpt lat="43.65979" lon="3.95038">
        <ele>58.3</ele>
        <time>2016-05-01T15:21:54Z</time>
      </trkpt>
      <trkpt lat="43.65982" lon="3.95015">
        <ele>58.78</ele>
        <time>2016-05-01T15:21:55Z</time>
      </trkpt>
      <trkpt lat="43.65988" lon="3.9499">
        <ele>58.78</ele>
        <time>2016-05-01T15:21:56Z</time>
      </trkpt>
      <trkpt lat="43.65996" lon="3.94963">
        <ele>58.78</ele>
        <time>2016-05-01T15:21:57Z</time>
      </trkpt>
      <trkpt lat="43.66005" lon="3.94935">
        <ele>59.26</ele>
        <time>2016-05-01T15:21:58Z</time>
      </trkpt>
      <trkpt lat="43.66055" lon="3.94742">
        <ele>59.74</ele>
        <time>2016-05-01T15:22:06Z</time>
      </trkpt>
      <trkpt lat="43.66061" lon="3.94655">
        <ele>58.78</ele>
        <time>2016-05-01T15:22:10Z</time>
      </trkpt>
      <trkpt lat="43.66067" lon="3.94646">
        <ele>58.3</ele>
        <time>2016-05-01T15:22:11Z</time>
      </trkpt>
      <trkpt lat="43.66075" lon="3.94641">
        <ele>58.3</ele>
        <time>2016-05-01T15:22:12Z</time>
      </trkpt>
      <trkpt lat="43.66084" lon="3.94636">
        <ele>57.82</ele>
        <time>2016-05-01T15:22:13Z</time>
      </trkpt>
      <trkpt lat="43.66092" lon="3.94628">
        <ele>57.34</ele>
        <time>2016-05-01T15:22:14Z</time>
      </trkpt>
      <trkpt lat="43.66097" lon="3.94616">
        <ele>56.86</ele>
        <time>2016-05-01T15:22:15Z</time>
      </trkpt>
      <trkpt lat="43.66097" lon="3.94601">
        <ele>56.37</ele>
        <time>2016-05-01T15:22:16Z</time>
      </trkpt>
      <trkpt lat="43.66092" lon="3.94586">
        <ele>55.89</ele>
        <time>2016-05-01T15:22:17Z</time>
      </trkpt>
      <trkpt lat="43.66084" lon="3.94572">
        <ele>56.37</ele>
        <time>2016-05-01T15:22:18Z</time>
      </trkpt>
      <trkpt lat="43.66075" lon="3.94554">
        <ele>56.37</ele>
        <time>2016-05-01T15:22:19Z</time>
      </trkpt>
      <trkpt lat="43.66067" lon="3.94532">
        <ele>56.37</ele>
        <time>2016-05-01T15:22:20Z</time>
      </trkpt>
      <trkpt lat="43.66057" lon="3.94471">
        <ele>55.89</ele>
        <time>2016-05-01T15:22:22Z</time>
      </trkpt>
      <trkpt lat="43.66055" lon="3.94438">
        <ele>54.93</ele>
        <time>2016-05-01T15:22:23Z</time>
      </trkpt>
      <trkpt lat="43.66056" lon="3.94401">
        <ele>54.93</ele>
        <time>2016-05-01T15:22:24Z</time>
      </trkpt>
      <trkpt lat="43.66027" lon="3.94162">
        <ele>52.05</ele>
        <time>2016-05-01T15:22:30Z</time>
      </trkpt>
      <trkpt lat="43.65966" lon="3.93857">
        <ele>48.68</ele>
        <time>2016-05-01T15:22:38Z</time>
      </trkpt>
      <trkpt lat="43.65923" lon="3.93697">
        <ele>47.24</ele>
        <time>2016-05-01T15:22:44Z</time>
      </trkpt>
      <trkpt lat="43.65898" lon="3.93623">
        <ele>46.28</ele>
        <time>2016-05-01T15:22:48Z</time>
      </trkpt>
      <trkpt lat="43.65896" lon="3.93607">
        <ele>45.8</ele>
        <time>2016-05-01T15:22:49Z</time>
      </trkpt>
      <trkpt lat="43.659" lon="3.93591">
        <ele>45.32</ele>
        <time>2016-05-01T15:22:50Z</time>
      </trkpt>
      <trkpt lat="43.65904" lon="3.93575">
        <ele>44.84</ele>
        <time>2016-05-01T15:22:51Z</time>
      </trkpt>
      <trkpt lat="43.65904" lon="3.93558">
        <ele>44.84</ele>
        <time>2016-05-01T15:22:52Z</time>
      </trkpt>
      <trkpt lat="43.65902" lon="3.93543">
        <ele>44.84</ele>
        <time>2016-05-01T15:22:53Z</time>
      </trkpt>
      <trkpt lat="43.65895" lon="3.93525">
        <ele>44.84</ele>
        <time>2016-05-01T15:22:54Z</time>
      </trkpt>
      <trkpt lat="43.65889" lon="3.93506">
        <ele>44.84</ele>
        <time>2016-05-01T15:22:55Z</time>
      </trkpt>
      <trkpt lat="43.65886" lon="3.93485">
        <ele>44.84</ele>
        <time>2016-05-01T15:22:56Z</time>
      </trkpt>
      <trkpt lat="43.65887" lon="3.93463">
        <ele>45.32</ele>
        <time>2016-05-01T15:22:57Z</time>
      </trkpt>
      <trkpt lat="43.65892" lon="3.9344">
        <ele>45.32</ele>
        <time>2016-05-01T15:22:58Z</time>
      </trkpt>
      <trkpt lat="43.65899" lon="3.93416">
        <ele>44.84</ele>
        <time>2016-05-01T15:22:59Z</time>
      </trkpt>
      <trkpt lat="43.65906" lon="3.93392">
        <ele>45.32</ele>
        <time>2016-05-01T15:23:00Z</time>
      </trkpt>
      <trkpt lat="43.65937" lon="3.93255">
        <ele>46.76</ele>
        <time>2016-05-01T15:23:07Z</time>
      </trkpt>
      <trkpt lat="43.65959" lon="3.93138">
        <ele>47.72</ele>
        <time>2016-05-01T15:23:14Z</time>
      </trkpt>
      <trkpt lat="43.65969" lon="3.93092">
        <ele>48.2</ele>
        <time>2016-05-01T15:23:18Z</time>
      </trkpt>
      <trkpt lat="43.65973" lon="3.93083">
        <ele>48.2</ele>
        <time>2016-05-01T15:23:19Z</time>
      </trkpt>
      <trkpt lat="43.6598" lon="3.93074">
        <ele>48.2</ele>
        <time>2016-05-01T15:23:20Z</time>
      </trkpt>
      <trkpt lat="43.65989" lon="3.93065">
        <ele>48.2</ele>
        <time>2016-05-01T15:23:21Z</time>
      </trkpt>
      <trkpt lat="43.65999" lon="3.93055">
        <ele>48.68</ele>
        <time>2016-05-01T15:23:22Z</time>
      </trkpt>
      <trkpt lat="43.66009" lon="3.93045">
        <ele>48.68</ele>
        <time>2016-05-01T15:23:23Z</time>
      </trkpt>
      <trkpt lat="43.66018" lon="3.93034">
        <ele>48.68</ele>
        <time>2016-05-01T15:23:24Z</time>
      </trkpt>
      <trkpt lat="43.66034" lon="3.93011">
        <ele>48.68</ele>
        <time>2016-05-01T15:23:26Z</time>
      </trkpt>
      <trkpt lat="43.66041" lon="3.93">
        <ele>48.68</ele>
        <time>2016-05-01T15:23:27Z</time>
      </trkpt>
      <trkpt lat="43.66047" lon="3.92987">
        <ele>48.68</ele>
        <time>2016-05-01T15:23:28Z</time>
      </trkpt>
      <trkpt lat="43.66052" lon="3.92974">
        <ele>48.2</ele>
        <time>2016-05-01T15:23:29Z</time>
      </trkpt>
      <trkpt lat="43.66057" lon="3.9296">
        <ele>48.2</ele>
        <time>2016-05-01T15:23:30Z</time>
      </trkpt>
      <trkpt lat="43.66059" lon="3.92945">
        <ele>48.2</ele>
        <time>2016-05-01T15:23:31Z</time>
      </trkpt>
      <trkpt lat="43.66059" lon="3.92931">
        <ele>48.2</ele>
        <time>2016-05-01T15:23:32Z</time>
      </trkpt>
      <trkpt lat="43.66057" lon="3.92918">
        <ele>47.72</ele>
        <time>2016-05-01T15:23:33Z</time>
      </trkpt>
      <trkpt lat="43.66054" lon="3.92905">
        <ele>47.72</ele>
        <time>2016-05-01T15:23:34Z</time>
      </trkpt>
      <trkpt lat="43.66051" lon="3.92894">
        <ele>47.72</ele>
        <time>2016-05-01T15:23:35Z</time>
      </trkpt>
      <trkpt lat="43.66042" lon="3.92871">
        <ele>47.72</ele>
        <time>2016-05-01T15:23:37Z</time>
      </trkpt>
      <trkpt lat="43.66036" lon="3.92862">
        <ele>47.72</ele>
        <time>2016-05-01T15:23:38Z</time>
      </trkpt>
      <trkpt lat="43.66027" lon="3.92857">
        <ele>47.72</ele>
        <time>2016-05-01T15:23:39Z</time>
      </trkpt>
      <trkpt lat="43.66018" lon="3.92853">
        <ele>47.72</ele>
        <time>2016-05-01T15:23:40Z</time>
      </trkpt>
      <trkpt lat="43.66008" lon="3.9285">
        <ele>48.2</ele>
        <time>2016-05-01T15:23:41Z</time>
      </trkpt>
      <trkpt lat="43.65999" lon="3.92846">
        <ele>48.2</ele>
        <time>2016-05-01T15:23:42Z</time>
      </trkpt>
      <trkpt lat="43.65991" lon="3.92838">
        <ele>48.68</ele>
        <time>2016-05-01T15:23:43Z</time>
      </trkpt>
      <trkpt lat="43.65984" lon="3.92828">
        <ele>49.16</ele>
        <time>2016-05-01T15:23:44Z</time>
      </trkpt>
      <trkpt lat="43.65978" lon="3.92812">
        <ele>49.65</ele>
        <time>2016-05-01T15:23:45Z</time>
      </trkpt>
      <trkpt lat="43.65973" lon="3.92791">
        <ele>50.13</ele>
        <time>2016-05-01T15:23:46Z</time>
      </trkpt>
      <trkpt lat="43.65967" lon="3.92765">
        <ele>50.61</ele>
        <time>2016-05-01T15:23:47Z</time>
      </trkpt>
      <trkpt lat="43.65915" lon="3.92606">
        <ele>56.86</ele>
        <time>2016-05-01T15:23:53Z</time>
      </trkpt>
      <trkpt lat="43.6581" lon="3.92458">
        <ele>59.26</ele>
        <time>2016-05-01T15:24:01Z</time>
      </trkpt>
      <trkpt lat="43.65677" lon="3.92371">
        <ele>57.82</ele>
        <time>2016-05-01T15:24:08Z</time>
      </trkpt>
      <trkpt lat="43.65456" lon="3.92244">
        <ele>63.58</ele>
        <time>2016-05-01T15:24:17Z</time>
      </trkpt>
      <trkpt lat="43.6527" lon="3.92133">
        <ele>74.16</ele>
        <time>2016-05-01T15:24:25Z</time>
      </trkpt>
      <trkpt lat="43.65224" lon="3.92107">
        <ele>77.04</ele>
        <time>2016-05-01T15:24:29Z</time>
      </trkpt>
      <trkpt lat="43.65219" lon="3.92098">
        <ele>77.52</ele>
        <time>2016-05-01T15:24:30Z</time>
      </trkpt>
      <trkpt lat="43.65214" lon="3.92086">
        <ele>78.48</ele>
        <time>2016-05-01T15:24:31Z</time>
      </trkpt>
      <trkpt lat="43.65205" lon="3.92063">
        <ele>79.45</ele>
        <time>2016-05-01T15:24:33Z</time>
      </trkpt>
      <trkpt lat="43.65198" lon="3.92057">
        <ele>79.45</ele>
        <time>2016-05-01T15:24:34Z</time>
      </trkpt>
      <trkpt lat="43.6519" lon="3.92053">
        <ele>79.93</ele>
        <time>2016-05-01T15:24:35Z</time>
      </trkpt>
      <trkpt lat="43.65181" lon="3.92053">
        <ele>79.93</ele>
        <time>2016-05-01T15:24:36Z</time>
      </trkpt>
      <trkpt lat="43.65172" lon="3.92055">
        <ele>80.41</ele>
        <time>2016-05-01T15:24:37Z</time>
      </trkpt>
      <trkpt lat="43.65162" lon="3.92059">
        <ele>80.41</ele>
        <time>2016-05-01T15:24:38Z</time>
      </trkpt>
      <trkpt lat="43.6515" lon="3.92062">
        <ele>80.89</ele>
        <time>2016-05-01T15:24:39Z</time>
      </trkpt>
      <trkpt lat="43.65135" lon="3.92058">
        <ele>80.89</ele>
        <time>2016-05-01T15:24:40Z</time>
      </trkpt>
      <trkpt lat="43.65117" lon="3.92049">
        <ele>81.37</ele>
        <time>2016-05-01T15:24:41Z</time>
      </trkpt>
      <trkpt lat="43.65097" lon="3.92036">
        <ele>81.37</ele>
        <time>2016-05-01T15:24:42Z</time>
      </trkpt>
      <trkpt lat="43.65075" lon="3.92018">
        <ele>81.37</ele>
        <time>2016-05-01T15:24:43Z</time>
      </trkpt>
      <trkpt lat="43.65054" lon="3.91998">
        <ele>81.85</ele>
        <time>2016-05-01T15:24:44Z</time>
      </trkpt>
      <trkpt lat="43.65033" lon="3.91975">
        <ele>81.85</ele>
        <time>2016-05-01T15:24:45Z</time>
      </trkpt>
      <trkpt lat="43.65013" lon="3.91948">
        <ele>82.33</ele>
        <time>2016-05-01T15:24:46Z</time>
      </trkpt>
      <trkpt lat="43.64994" lon="3.91918">
        <ele>82.81</ele>
        <time>2016-05-01T15:24:47Z</time>
      </trkpt>
      <trkpt lat="43.64975" lon="3.91885">
        <ele>82.33</ele>
        <time>2016-05-01T15:24:48Z</time>
      </trkpt>
      <trkpt lat="43.64958" lon="3.9185">
        <ele>82.33</ele>
        <time>2016-05-01T15:24:49Z</time>
      </trkpt>
      <trkpt lat="43.64943" lon="3.91812">
        <ele>81.85</ele>
        <time>2016-05-01T15:24:50Z</time>
      </trkpt>
      <trkpt lat="43.64928" lon="3.91771">
        <ele>81.37</ele>
        <time>2016-05-01T15:24:51Z</time>
      </trkpt>
      <trkpt lat="43.64916" lon="3.91729">
        <ele>80.89</ele>
        <time>2016-05-01T15:24:52Z</time>
      </trkpt>
      <trkpt lat="43.64905" lon="3.91685">
        <ele>80.89</ele>
        <time>2016-05-01T15:24:53Z</time>
      </trkpt>
      <trkpt lat="43.64895" lon="3.91641">
        <ele>80.89</ele>
        <time>2016-05-01T15:24:54Z</time>
      </trkpt>
      <trkpt lat="43.64812" lon="3.91343">
        <ele>80.41</ele>
        <time>2016-05-01T15:25:01Z</time>
      </trkpt>
      <trkpt lat="43.64749" lon="3.91086">
        <ele>72.24</ele>
        <time>2016-05-01T15:25:07Z</time>
      </trkpt>
      <trkpt lat="43.64662" lon="3.90721">
        <ele>53.49</ele>
        <time>2016-05-01T15:25:16Z</time>
      </trkpt>
      <trkpt lat="43.6453" lon="3.90392">
        <ele>49.65</ele>
        <time>2016-05-01T15:25:25Z</time>
      </trkpt>
      <trkpt lat="43.64458" lon="3.90122">
        <ele>47.72</ele>
        <time>2016-05-01T15:25:33Z</time>
      </trkpt>
      <trkpt lat="43.64425" lon="3.8992">
        <ele>42.44</ele>
        <time>2016-05-01T15:25:38Z</time>
      </trkpt>
      <trkpt lat="43.64341" lon="3.89668">
        <ele>41.95</ele>
        <time>2016-05-01T15:25:44Z</time>
      </trkpt>
      <trkpt lat="43.64318" lon="3.89528">
        <ele>40.51</ele>
        <time>2016-05-01T15:25:47Z</time>
      </trkpt>
      <trkpt lat="43.64317" lon="3.89483">
        <ele>40.03</ele>
        <time>2016-05-01T15:25:48Z</time>
      </trkpt>
      <trkpt lat="43.6432" lon="3.89439">
        <ele>39.55</ele>
        <time>2016-05-01T15:25:49Z</time>
      </trkpt>
      <trkpt lat="43.64326" lon="3.89398">
        <ele>38.59</ele>
        <time>2016-05-01T15:25:50Z</time>
      </trkpt>
      <trkpt lat="43.64333" lon="3.89361">
        <ele>38.59</ele>
        <time>2016-05-01T15:25:51Z</time>
      </trkpt>
      <trkpt lat="43.64341" lon="3.89326">
        <ele>38.11</ele>
        <time>2016-05-01T15:25:52Z</time>
      </trkpt>
      <trkpt lat="43.64351" lon="3.89296">
        <ele>37.15</ele>
        <time>2016-05-01T15:25:53Z</time>
      </trkpt>
      <trkpt lat="43.6436" lon="3.89268">
        <ele>36.67</ele>
        <time>2016-05-01T15:25:54Z</time>
      </trkpt>
      <trkpt lat="43.64372" lon="3.89239">
        <ele>36.19</ele>
        <time>2016-05-01T15:25:55Z</time>
      </trkpt>
      <trkpt lat="43.64403" lon="3.89177">
        <ele>35.71</ele>
        <time>2016-05-01T15:25:57Z</time>
      </trkpt>
      <trkpt lat="43.64426" lon="3.89147">
        <ele>35.23</ele>
        <time>2016-05-01T15:25:58Z</time>
      </trkpt>
      <trkpt lat="43.64451" lon="3.89116">
        <ele>35.71</ele>
        <time>2016-05-01T15:25:59Z</time>
      </trkpt>
      <trkpt lat="43.64631" lon="3.88905">
        <ele>38.11</ele>
        <time>2016-05-01T15:26:06Z</time>
      </trkpt>
      <trkpt lat="43.64728" lon="3.88732">
        <ele>39.07</ele>
        <time>2016-05-01T15:26:12Z</time>
      </trkpt>
      <trkpt lat="43.64806" lon="3.88522">
        <ele>40.51</ele>
        <time>2016-05-01T15:26:19Z</time>
      </trkpt>
      <trkpt lat="43.64821" lon="3.88495">
        <ele>40.99</ele>
        <time>2016-05-01T15:26:20Z</time>
      </trkpt>
      <trkpt lat="43.64839" lon="3.88474">
        <ele>41.47</ele>
        <time>2016-05-01T15:26:21Z</time>
      </trkpt>
      <trkpt lat="43.64857" lon="3.88456">
        <ele>41.95</ele>
        <time>2016-05-01T15:26:22Z</time>
      </trkpt>
      <trkpt lat="43.64875" lon="3.88441">
        <ele>42.92</ele>
        <time>2016-05-01T15:26:23Z</time>
      </trkpt>
      <trkpt lat="43.64892" lon="3.88429">
        <ele>43.88</ele>
        <time>2016-05-01T15:26:24Z</time>
      </trkpt>
      <trkpt lat="43.64908" lon="3.8842">
        <ele>44.36</ele>
        <time>2016-05-01T15:26:25Z</time>
      </trkpt>
      <trkpt lat="43.64923" lon="3.88412">
        <ele>44.84</ele>
        <time>2016-05-01T15:26:26Z</time>
      </trkpt>
      <trkpt lat="43.65094" lon="3.88343">
        <ele>51.57</ele>
        <time>2016-05-01T15:26:36Z</time>
      </trkpt>
      <trkpt lat="43.65238" lon="3.88264">
        <ele>53.01</ele>
        <time>2016-05-01T15:26:43Z</time>
      </trkpt>
      <trkpt lat="43.65356" lon="3.88105">
        <ele>50.61</ele>
        <time>2016-05-01T15:26:50Z</time>
      </trkpt>
      <trkpt lat="43.65463" lon="3.87942">
        <ele>52.53</ele>
        <time>2016-05-01T15:26:56Z</time>
      </trkpt>
      <trkpt lat="43.65474" lon="3.87908">
        <ele>52.05</ele>
        <time>2016-05-01T15:26:57Z</time>
      </trkpt>
      <trkpt lat="43.65482" lon="3.87872">
        <ele>52.05</ele>
        <time>2016-05-01T15:26:58Z</time>
      </trkpt>
      <trkpt lat="43.65486" lon="3.87834">
        <ele>51.57</ele>
        <time>2016-05-01T15:26:59Z</time>
      </trkpt>
      <trkpt lat="43.65487" lon="3.87793">
        <ele>51.09</ele>
        <time>2016-05-01T15:27:00Z</time>
      </trkpt>
      <trkpt lat="43.65488" lon="3.87751">
        <ele>50.61</ele>
        <time>2016-05-01T15:27:01Z</time>
      </trkpt>
      <trkpt lat="43.6549" lon="3.87495">
        <ele>51.57</ele>
        <time>2016-05-01T15:27:08Z</time>
      </trkpt>
      <trkpt lat="43.65486" lon="3.87422">
        <ele>52.53</ele>
        <time>2016-05-01T15:27:12Z</time>
      </trkpt>
      <trkpt lat="43.65492" lon="3.87408">
        <ele>53.01</ele>
        <time>2016-05-01T15:27:13Z</time>
      </trkpt>
      <trkpt lat="43.65502" lon="3.87371">
        <ele>53.01</ele>
        <time>2016-05-01T15:27:15Z</time>
      </trkpt>
      <trkpt lat="43.65503" lon="3.87345">
        <ele>53.01</ele>
        <time>2016-05-01T15:27:16Z</time>
      </trkpt>
      <trkpt lat="43.65504" lon="3.87253">
        <ele>51.09</ele>
        <time>2016-05-01T15:27:20Z</time>
      </trkpt>
      <trkpt lat="43.655" lon="3.87236">
        <ele>50.61</ele>
        <time>2016-05-01T15:27:21Z</time>
      </trkpt>
      <trkpt lat="43.65491" lon="3.87221">
        <ele>50.13</ele>
        <time>2016-05-01T15:27:22Z</time>
      </trkpt>
      <trkpt lat="43.65479" lon="3.87211">
        <ele>49.16</ele>
        <time>2016-05-01T15:27:23Z</time>
      </trkpt>
      <trkpt lat="43.65462" lon="3.87203">
        <ele>48.2</ele>
        <time>2016-05-01T15:27:24Z</time>
      </trkpt>
      <trkpt lat="43.6544" lon="3.872">
        <ele>47.72</ele>
        <time>2016-05-01T15:27:25Z</time>
      </trkpt>
      <trkpt lat="43.65419" lon="3.87202">
        <ele>47.24</ele>
        <time>2016-05-01T15:27:26Z</time>
      </trkpt>
      <trkpt lat="43.65399" lon="3.87207">
        <ele>47.24</ele>
        <time>2016-05-01T15:27:27Z</time>
      </trkpt>
      <trkpt lat="43.65381" lon="3.87214">
        <ele>47.24</ele>
        <time>2016-05-01T15:27:28Z</time>
      </trkpt>
      <trkpt lat="43.65365" lon="3.87223">
        <ele>47.24</ele>
        <time>2016-05-01T15:27:29Z</time>
      </trkpt>
      <trkpt lat="43.65351" lon="3.87233">
        <ele>47.24</ele>
        <time>2016-05-01T15:27:30Z</time>
      </trkpt>
      <trkpt lat="43.65337" lon="3.87238">
        <ele>46.76</ele>
        <time>2016-05-01T15:27:31Z</time>
      </trkpt>
      <trkpt lat="43.65323" lon="3.87236">
        <ele>46.28</ele>
        <time>2016-05-01T15:27:32Z</time>
      </trkpt>
      <trkpt lat="43.65307" lon="3.87226">
        <ele>46.28</ele>
        <time>2016-05-01T15:27:33Z</time>
      </trkpt>
      <trkpt lat="43.65289" lon="3.87211">
        <ele>45.32</ele>
        <time>2016-05-01T15:27:34Z</time>
      </trkpt>
      <trkpt lat="43.65272" lon="3.87195">
        <ele>44.84</ele>
        <time>2016-05-01T15:27:35Z</time>
      </trkpt>
      <trkpt lat="43.65256" lon="3.87178">
        <ele>44.84</ele>
        <time>2016-05-01T15:27:36Z</time>
      </trkpt>
      <trkpt lat="43.6524" lon="3.87159">
        <ele>44.36</ele>
        <time>2016-05-01T15:27:37Z</time>
      </trkpt>
      <trkpt lat="43.65225" lon="3.87138">
        <ele>43.88</ele>
        <time>2016-05-01T15:27:38Z</time>
      </trkpt>
      <trkpt lat="43.65211" lon="3.87114">
        <ele>43.88</ele>
        <time>2016-05-01T15:27:39Z</time>
      </trkpt>
      <trkpt lat="43.65198" lon="3.87088">
        <ele>43.88</ele>
        <time>2016-05-01T15:27:40Z</time>
      </trkpt>
      <trkpt lat="43.65186" lon="3.87061">
        <ele>43.88</ele>
        <time>2016-05-01T15:27:41Z</time>
      </trkpt>
      <trkpt lat="43.65176" lon="3.87034">
        <ele>43.88</ele>
        <time>2016-05-01T15:27:42Z</time>
      </trkpt>
      <trkpt lat="43.65111" lon="3.86838">
        <ele>44.36</ele>
        <time>2016-05-01T15:27:48Z</time>
      </trkpt>
      <trkpt lat="43.65085" lon="3.86599">
        <ele>47.72</ele>
        <time>2016-05-01T15:27:54Z</time>
      </trkpt>
      <trkpt lat="43.65048" lon="3.86207">
        <ele>48.68</ele>
        <time>2016-05-01T15:28:03Z</time>
      </trkpt>
      <trkpt lat="43.64998" lon="3.85836">
        <ele>57.82</ele>
        <time>2016-05-01T15:28:12Z</time>
      </trkpt>
      <trkpt lat="43.64911" lon="3.85586">
        <ele>57.34</ele>
        <time>2016-05-01T15:28:19Z</time>
      </trkpt>
      <trkpt lat="43.64891" lon="3.85557">
        <ele>56.86</ele>
        <time>2016-05-01T15:28:20Z</time>
      </trkpt>
      <trkpt lat="43.64869" lon="3.8553">
        <ele>56.86</ele>
        <time>2016-05-01T15:28:21Z</time>
      </trkpt>
      <trkpt lat="43.64845" lon="3.85504">
        <ele>56.86</ele>
        <time>2016-05-01T15:28:22Z</time>
      </trkpt>
      <trkpt lat="43.64819" lon="3.85482">
        <ele>57.34</ele>
        <time>2016-05-01T15:28:23Z</time>
      </trkpt>
      <trkpt lat="43.64792" lon="3.85462">
        <ele>57.82</ele>
        <time>2016-05-01T15:28:24Z</time>
      </trkpt>
      <trkpt lat="43.64764" lon="3.85446">
        <ele>59.26</ele>
        <time>2016-05-01T15:28:25Z</time>
      </trkpt>
      <trkpt lat="43.64735" lon="3.85433">
        <ele>60.7</ele>
        <time>2016-05-01T15:28:26Z</time>
      </trkpt>
      <trkpt lat="43.64705" lon="3.8542">
        <ele>61.66</ele>
        <time>2016-05-01T15:28:27Z</time>
      </trkpt>
      <trkpt lat="43.64582" lon="3.85352">
        <ele>65.99</ele>
        <time>2016-05-01T15:28:32Z</time>
      </trkpt>
      <trkpt lat="43.64566" lon="3.85336">
        <ele>66.95</ele>
        <time>2016-05-01T15:28:33Z</time>
      </trkpt>
      <trkpt lat="43.64552" lon="3.8532">
        <ele>67.91</ele>
        <time>2016-05-01T15:28:34Z</time>
      </trkpt>
      <trkpt lat="43.6454" lon="3.85304">
        <ele>68.87</ele>
        <time>2016-05-01T15:28:35Z</time>
      </trkpt>
      <trkpt lat="43.64533" lon="3.85293">
        <ele>69.35</ele>
        <time>2016-05-01T15:28:36Z</time>
      </trkpt>
      <trkpt lat="43.64528" lon="3.8528">
        <ele>69.83</ele>
        <time>2016-05-01T15:28:37Z</time>
      </trkpt>
      <trkpt lat="43.64525" lon="3.85266">
        <ele>69.83</ele>
        <time>2016-05-01T15:28:38Z</time>
      </trkpt>
      <trkpt lat="43.64525" lon="3.85253">
        <ele>70.31</ele>
        <time>2016-05-01T15:28:39Z</time>
      </trkpt>
      <trkpt lat="43.64524" lon="3.8524">
        <ele>69.83</ele>
        <time>2016-05-01T15:28:40Z</time>
      </trkpt>
      <trkpt lat="43.64521" lon="3.85228">
        <ele>70.31</ele>
        <time>2016-05-01T15:28:41Z</time>
      </trkpt>
      <trkpt lat="43.64515" lon="3.85223">
        <ele>70.31</ele>
        <time>2016-05-01T15:28:42Z</time>
      </trkpt>
      <trkpt lat="43.64508" lon="3.85219">
        <ele>70.31</ele>
        <time>2016-05-01T15:28:43Z</time>
      </trkpt>
      <trkpt lat="43.64498" lon="3.85214">
        <ele>70.31</ele>
        <time>2016-05-01T15:28:44Z</time>
      </trkpt>
      <trkpt lat="43.64487" lon="3.85202">
        <ele>70.31</ele>
        <time>2016-05-01T15:28:45Z</time>
      </trkpt>
      <trkpt lat="43.64475" lon="3.85185">
        <ele>70.31</ele>
        <time>2016-05-01T15:28:46Z</time>
      </trkpt>
      <trkpt lat="43.64461" lon="3.85162">
        <ele>69.83</ele>
        <time>2016-05-01T15:28:47Z</time>
      </trkpt>
      <trkpt lat="43.64448" lon="3.85139">
        <ele>69.83</ele>
        <time>2016-05-01T15:28:48Z</time>
      </trkpt>
      <trkpt lat="43.64346" lon="3.84935">
        <ele>75.12</ele>
        <time>2016-05-01T15:28:55Z</time>
      </trkpt>
      <trkpt lat="43.64277" lon="3.84803">
        <ele>73.2</ele>
        <time>2016-05-01T15:29:00Z</time>
      </trkpt>
      <trkpt lat="43.64259" lon="3.84782">
        <ele>72.24</ele>
        <time>2016-05-01T15:29:01Z</time>
      </trkpt>
      <trkpt lat="43.64238" lon="3.84763">
        <ele>70.31</ele>
        <time>2016-05-01T15:29:02Z</time>
      </trkpt>
      <trkpt lat="43.64212" lon="3.84749">
        <ele>68.39</ele>
        <time>2016-05-01T15:29:03Z</time>
      </trkpt>
      <trkpt lat="43.64185" lon="3.84736">
        <ele>65.99</ele>
        <time>2016-05-01T15:29:04Z</time>
      </trkpt>
      <trkpt lat="43.64158" lon="3.84727">
        <ele>63.58</ele>
        <time>2016-05-01T15:29:05Z</time>
      </trkpt>
      <trkpt lat="43.64131" lon="3.84718">
        <ele>61.66</ele>
        <time>2016-05-01T15:29:06Z</time>
      </trkpt>
      <trkpt lat="43.63933" lon="3.84661">
        <ele>55.41</ele>
        <time>2016-05-01T15:29:13Z</time>
      </trkpt>
      <trkpt lat="43.63795" lon="3.846">
        <ele>54.93</ele>
        <time>2016-05-01T15:29:19Z</time>
      </trkpt>
      <trkpt lat="43.63708" lon="3.8452">
        <ele>55.41</ele>
        <time>2016-05-01T15:29:25Z</time>
      </trkpt>
      <trkpt lat="43.63614" lon="3.84442">
        <ele>52.05</ele>
        <time>2016-05-01T15:29:33Z</time>
      </trkpt>
      <trkpt lat="43.63507" lon="3.84382">
        <ele>53.49</ele>
        <time>2016-05-01T15:29:43Z</time>
      </trkpt>
      <trkpt lat="43.63446" lon="3.84347">
        <ele>56.86</ele>
        <time>2016-05-01T15:29:53Z</time>
      </trkpt>
      <trkpt lat="43.63441" lon="3.84345">
        <ele>57.34</ele>
        <time>2016-05-01T15:30:03Z</time>
      </trkpt>
      <trkpt lat="43.63435" lon="3.84342">
        <ele>57.82</ele>
        <time>2016-05-01T15:30:04Z</time>
      </trkpt>
      <trkpt lat="43.6338" lon="3.84318">
        <ele>56.86</ele>
        <time>2016-05-01T15:30:09Z</time>
      </trkpt>
      <trkpt lat="43.63274" lon="3.84295">
        <ele>55.41</ele>
        <time>2016-05-01T15:30:17Z</time>
      </trkpt>
      <trkpt lat="43.63201" lon="3.84255">
        <ele>54.45</ele>
        <time>2016-05-01T15:30:24Z</time>
      </trkpt>
      <trkpt lat="43.63175" lon="3.84233">
        <ele>55.41</ele>
        <time>2016-05-01T15:30:29Z</time>
      </trkpt>
      <trkpt lat="43.6317" lon="3.84226">
        <ele>55.41</ele>
        <time>2016-05-01T15:30:30Z</time>
      </trkpt>
      <trkpt lat="43.63165" lon="3.84216">
        <ele>55.41</ele>
        <time>2016-05-01T15:30:31Z</time>
      </trkpt>
      <trkpt lat="43.63162" lon="3.84204">
        <ele>55.41</ele>
        <time>2016-05-01T15:30:32Z</time>
      </trkpt>
      <trkpt lat="43.63158" lon="3.84191">
        <ele>55.41</ele>
        <time>2016-05-01T15:30:33Z</time>
      </trkpt>
      <trkpt lat="43.63153" lon="3.84179">
        <ele>55.89</ele>
        <time>2016-05-01T15:30:34Z</time>
      </trkpt>
      <trkpt lat="43.63146" lon="3.84169">
        <ele>55.89</ele>
        <time>2016-05-01T15:30:35Z</time>
      </trkpt>
      <trkpt lat="43.63138" lon="3.84161">
        <ele>56.37</ele>
        <time>2016-05-01T15:30:36Z</time>
      </trkpt>
      <trkpt lat="43.63129" lon="3.84156">
        <ele>56.37</ele>
        <time>2016-05-01T15:30:37Z</time>
      </trkpt>
      <trkpt lat="43.6312" lon="3.84154">
        <ele>56.86</ele>
        <time>2016-05-01T15:30:38Z</time>
      </trkpt>
      <trkpt lat="43.6311" lon="3.84154">
        <ele>56.86</ele>
        <time>2016-05-01T15:30:39Z</time>
      </trkpt>
      <trkpt lat="43.63101" lon="3.84158">
        <ele>56.86</ele>
        <time>2016-05-01T15:30:40Z</time>
      </trkpt>
      <trkpt lat="43.63092" lon="3.84163">
        <ele>56.86</ele>
        <time>2016-05-01T15:30:41Z</time>
      </trkpt>
      <trkpt lat="43.63084" lon="3.84171">
        <ele>56.86</ele>
        <time>2016-05-01T15:30:42Z</time>
      </trkpt>
      <trkpt lat="43.63075" lon="3.84177">
        <ele>56.37</ele>
        <time>2016-05-01T15:30:43Z</time>
      </trkpt>
      <trkpt lat="43.63065" lon="3.8418">
        <ele>56.37</ele>
        <time>2016-05-01T15:30:44Z</time>
      </trkpt>
      <trkpt lat="43.63054" lon="3.84181">
        <ele>56.37</ele>
        <time>2016-05-01T15:30:45Z</time>
      </trkpt>
      <trkpt lat="43.63043" lon="3.8418">
        <ele>56.37</ele>
        <time>2016-05-01T15:30:46Z</time>
      </trkpt>
      <trkpt lat="43.63029" lon="3.84178">
        <ele>56.37</ele>
        <time>2016-05-01T15:30:47Z</time>
      </trkpt>
      <trkpt lat="43.62923" lon="3.84147">
        <ele>56.86</ele>
        <time>2016-05-01T15:30:53Z</time>
      </trkpt>
      <trkpt lat="43.62817" lon="3.84064">
        <ele>58.78</ele>
        <time>2016-05-01T15:31:00Z</time>
      </trkpt>
      <trkpt lat="43.62689" lon="3.83901">
        <ele>64.07</ele>
        <time>2016-05-01T15:31:09Z</time>
      </trkpt>
      <trkpt lat="43.62568" lon="3.83702">
        <ele>70.31</ele>
        <time>2016-05-01T15:31:19Z</time>
      </trkpt>
      <trkpt lat="43.62555" lon="3.83681">
        <ele>71.27</ele>
        <time>2016-05-01T15:31:21Z</time>
      </trkpt>
      <trkpt lat="43.62552" lon="3.83671">
        <ele>71.76</ele>
        <time>2016-05-01T15:31:22Z</time>
      </trkpt>
      <trkpt lat="43.62551" lon="3.83659">
        <ele>71.76</ele>
        <time>2016-05-01T15:31:23Z</time>
      </trkpt>
      <trkpt lat="43.62551" lon="3.83645">
        <ele>71.76</ele>
        <time>2016-05-01T15:31:24Z</time>
      </trkpt>
      <trkpt lat="43.62552" lon="3.8363">
        <ele>72.24</ele>
        <time>2016-05-01T15:31:25Z</time>
      </trkpt>
      <trkpt lat="43.62551" lon="3.83615">
        <ele>71.76</ele>
        <time>2016-05-01T15:31:26Z</time>
      </trkpt>
      <trkpt lat="43.62548" lon="3.836">
        <ele>72.24</ele>
        <time>2016-05-01T15:31:27Z</time>
      </trkpt>
      <trkpt lat="43.62543" lon="3.83587">
        <ele>72.72</ele>
        <time>2016-05-01T15:31:28Z</time>
      </trkpt>
      <trkpt lat="43.62535" lon="3.83579">
        <ele>73.2</ele>
        <time>2016-05-01T15:31:29Z</time>
      </trkpt>
      <trkpt lat="43.62526" lon="3.83573">
        <ele>73.2</ele>
        <time>2016-05-01T15:31:30Z</time>
      </trkpt>
      <trkpt lat="43.62515" lon="3.83563">
        <ele>73.2</ele>
        <time>2016-05-01T15:31:31Z</time>
      </trkpt>
      <trkpt lat="43.62505" lon="3.83547">
        <ele>73.2</ele>
        <time>2016-05-01T15:31:32Z</time>
      </trkpt>
      <trkpt lat="43.62495" lon="3.83525">
        <ele>73.2</ele>
        <time>2016-05-01T15:31:33Z</time>
      </trkpt>
      <trkpt lat="43.62485" lon="3.83501">
        <ele>73.2</ele>
        <time>2016-05-01T15:31:34Z</time>
      </trkpt>
      <trkpt lat="43.62473" lon="3.83478">
        <ele>72.72</ele>
        <time>2016-05-01T15:31:35Z</time>
      </trkpt>
      <trkpt lat="43.62458" lon="3.83456">
        <ele>72.72</ele>
        <time>2016-05-01T15:31:36Z</time>
      </trkpt>
      <trkpt lat="43.62443" lon="3.83437">
        <ele>72.72</ele>
        <time>2016-05-01T15:31:37Z</time>
      </trkpt>
      <trkpt lat="43.62427" lon="3.8342">
        <ele>72.72</ele>
        <time>2016-05-01T15:31:38Z</time>
      </trkpt>
      <trkpt lat="43.6241" lon="3.83409">
        <ele>72.24</ele>
        <time>2016-05-01T15:31:39Z</time>
      </trkpt>
      <trkpt lat="43.62394" lon="3.83399">
        <ele>72.24</ele>
        <time>2016-05-01T15:31:40Z</time>
      </trkpt>
      <trkpt lat="43.62379" lon="3.83392">
        <ele>71.76</ele>
        <time>2016-05-01T15:31:41Z</time>
      </trkpt>
      <trkpt lat="43.62357" lon="3.8338">
        <ele>71.76</ele>
        <time>2016-05-01T15:31:43Z</time>
      </trkpt>
      <trkpt lat="43.62349" lon="3.83372">
        <ele>71.76</ele>
        <time>2016-05-01T15:31:44Z</time>
      </trkpt>
      <trkpt lat="43.62344" lon="3.83362">
        <ele>71.76</ele>
        <time>2016-05-01T15:31:45Z</time>
      </trkpt>
      <trkpt lat="43.6234" lon="3.83349">
        <ele>71.76</ele>
        <time>2016-05-01T15:31:46Z</time>
      </trkpt>
      <trkpt lat="43.62335" lon="3.83338">
        <ele>71.27</ele>
        <time>2016-05-01T15:31:47Z</time>
      </trkpt>
      <trkpt lat="43.62329" lon="3.83331">
        <ele>71.27</ele>
        <time>2016-05-01T15:31:48Z</time>
      </trkpt>
      <trkpt lat="43.62321" lon="3.83327">
        <ele>70.79</ele>
        <time>2016-05-01T15:31:49Z</time>
      </trkpt>
      <trkpt lat="43.62312" lon="3.83328">
        <ele>70.79</ele>
        <time>2016-05-01T15:31:50Z</time>
      </trkpt>
      <trkpt lat="43.62303" lon="3.83333">
        <ele>71.27</ele>
        <time>2016-05-01T15:31:51Z</time>
      </trkpt>
      <trkpt lat="43.62295" lon="3.83341">
        <ele>71.27</ele>
        <time>2016-05-01T15:31:52Z</time>
      </trkpt>
      <trkpt lat="43.62289" lon="3.83352">
        <ele>71.76</ele>
        <time>2016-05-01T15:31:53Z</time>
      </trkpt>
      <trkpt lat="43.62286" lon="3.83364">
        <ele>71.76</ele>
        <time>2016-05-01T15:31:54Z</time>
      </trkpt>
      <trkpt lat="43.62286" lon="3.83376">
        <ele>72.24</ele>
        <time>2016-05-01T15:31:55Z</time>
      </trkpt>
      <trkpt lat="43.62287" lon="3.83389">
        <ele>72.72</ele>
        <time>2016-05-01T15:31:56Z</time>
      </trkpt>
      <trkpt lat="43.62288" lon="3.83405">
        <ele>72.72</ele>
        <time>2016-05-01T15:31:57Z</time>
      </trkpt>
      <trkpt lat="43.62288" lon="3.83421">
        <ele>72.72</ele>
        <time>2016-05-01T15:31:58Z</time>
      </trkpt>
      <trkpt lat="43.62284" lon="3.83439">
        <ele>73.68</ele>
        <time>2016-05-01T15:31:59Z</time>
      </trkpt>
      <trkpt lat="43.62279" lon="3.83455">
        <ele>74.16</ele>
        <time>2016-05-01T15:32:00Z</time>
      </trkpt>
      <trkpt lat="43.62272" lon="3.83469">
        <ele>74.64</ele>
        <time>2016-05-01T15:32:01Z</time>
      </trkpt>
      <trkpt lat="43.62265" lon="3.83482">
        <ele>75.12</ele>
        <time>2016-05-01T15:32:02Z</time>
      </trkpt>
      <trkpt lat="43.62251" lon="3.83511">
        <ele>76.56</ele>
        <time>2016-05-01T15:32:07Z</time>
      </trkpt>
      <trkpt lat="43.62239" lon="3.8354">
        <ele>78</ele>
        <time>2016-05-01T15:32:26Z</time>
      </trkpt>
      <trkpt lat="43.62222" lon="3.83571">
        <ele>78</ele>
        <time>2016-05-01T15:32:28Z</time>
      </trkpt>
      <trkpt lat="43.62212" lon="3.83586">
        <ele>78</ele>
        <time>2016-05-01T15:32:29Z</time>
      </trkpt>
      <trkpt lat="43.62199" lon="3.83599">
        <ele>78</ele>
        <time>2016-05-01T15:32:30Z</time>
      </trkpt>
      <trkpt lat="43.62185" lon="3.83612">
        <ele>78</ele>
        <time>2016-05-01T15:32:31Z</time>
      </trkpt>
      <trkpt lat="43.62169" lon="3.83624">
        <ele>78.48</ele>
        <time>2016-05-01T15:32:32Z</time>
      </trkpt>
      <trkpt lat="43.62154" lon="3.83634">
        <ele>78.48</ele>
        <time>2016-05-01T15:32:33Z</time>
      </trkpt>
      <trkpt lat="43.62074" lon="3.83697">
        <ele>78.97</ele>
        <time>2016-05-01T15:32:40Z</time>
      </trkpt>
      <trkpt lat="43.6204" lon="3.83727">
        <ele>78.97</ele>
        <time>2016-05-01T15:32:46Z</time>
      </trkpt>
      <trkpt lat="43.62001" lon="3.83758">
        <ele>79.45</ele>
        <time>2016-05-01T15:32:56Z</time>
      </trkpt>
      <trkpt lat="43.61987" lon="3.83768">
        <ele>78.97</ele>
        <time>2016-05-01T15:33:03Z</time>
      </trkpt>
      <trkpt lat="43.6198" lon="3.83776">
        <ele>78.97</ele>
        <time>2016-05-01T15:33:15Z</time>
      </trkpt>
      <trkpt lat="43.61977" lon="3.83783">
        <ele>78.97</ele>
        <time>2016-05-01T15:33:16Z</time>
      </trkpt>
      <trkpt lat="43.61976" lon="3.83792">
        <ele>78.97</ele>
        <time>2016-05-01T15:33:17Z</time>
      </trkpt>
      <trkpt lat="43.61977" lon="3.838">
        <ele>78.48</ele>
        <time>2016-05-01T15:33:18Z</time>
      </trkpt>
      <trkpt lat="43.61981" lon="3.83808">
        <ele>78.48</ele>
        <time>2016-05-01T15:33:19Z</time>
      </trkpt>
      <trkpt lat="43.61987" lon="3.83816">
        <ele>78.48</ele>
        <time>2016-05-01T15:33:20Z</time>
      </trkpt>
      <trkpt lat="43.61996" lon="3.83825">
        <ele>78.48</ele>
        <time>2016-05-01T15:33:21Z</time>
      </trkpt>
      <trkpt lat="43.62041" lon="3.83874">
        <ele>79.93</ele>
        <time>2016-05-01T15:33:27Z</time>
      </trkpt>
      <trkpt lat="43.62098" lon="3.83955">
        <ele>73.68</ele>
        <time>2016-05-01T15:33:35Z</time>
      </trkpt>
      <trkpt lat="43.62101" lon="3.83967">
        <ele>72.72</ele>
        <time>2016-05-01T15:33:36Z</time>
      </trkpt>
      <trkpt lat="43.62103" lon="3.83979">
        <ele>72.24</ele>
        <time>2016-05-01T15:33:37Z</time>
      </trkpt>
      <trkpt lat="43.62104" lon="3.83991">
        <ele>71.27</ele>
        <time>2016-05-01T15:33:38Z</time>
      </trkpt>
      <trkpt lat="43.62107" lon="3.84003">
        <ele>70.31</ele>
        <time>2016-05-01T15:33:39Z</time>
      </trkpt>
      <trkpt lat="43.62111" lon="3.84033">
        <ele>66.95</ele>
        <time>2016-05-01T15:33:42Z</time>
      </trkpt>
      <trkpt lat="43.62109" lon="3.8404">
        <ele>65.99</ele>
        <time>2016-05-01T15:33:43Z</time>
      </trkpt>
      <trkpt lat="43.62104" lon="3.84045">
        <ele>65.03</ele>
        <time>2016-05-01T15:33:44Z</time>
      </trkpt>
      <trkpt lat="43.62099" lon="3.84048">
        <ele>64.55</ele>
        <time>2016-05-01T15:33:45Z</time>
      </trkpt>
      <trkpt lat="43.62095" lon="3.8405">
        <ele>65.03</ele>
        <time>2016-05-01T15:33:46Z</time>
      </trkpt>
      <trkpt lat="43.62091" lon="3.84051">
        <ele>65.51</ele>
        <time>2016-05-01T15:33:47Z</time>
      </trkpt>
      <trkpt lat="43.62086" lon="3.84051">
        <ele>67.43</ele>
        <time>2016-05-01T15:33:49Z</time>
      </trkpt>
      <trkpt lat="43.62085" lon="3.84047">
        <ele>68.39</ele>
        <time>2016-05-01T15:33:50Z</time>
      </trkpt>
    </trkseg>
  </trk>
</gpx>